<?xml version="1.0" encoding="UTF-8" standalone="no" ?>
<gpx xmlns="http://www.topografix.com/GPX/1/1" xmlns:xsi="http://www.w3.org/2001/XMLSchema-instance" xsi:schemaLocation="http://www.topografix.com/GPX/1/1 http://www.topografix.com/GPX/1/1/gpx.xsd" version="1.1" creator="VisuGPX - https://www.visugpx.com">
  <metadata>
    <name>Course à pied en soirée</name>
  </metadata>
  <trk>
    <name><![CDATA[Course à pied en soirée_1]]></name>
    <trkseg>
      <trkpt lat="43.64763" lon="1.37625">
        <ele>146</ele>
        <time>2025-05-13T16:05:03Z</time>
      </trkpt>
      <trkpt lat="43.64762" lon="1.37621">
        <ele>146</ele>
        <time>2025-05-13T16:05:04Z</time>
      </trkpt>
      <trkpt lat="43.64762" lon="1.37621">
        <ele>146</ele>
        <time>2025-05-13T16:05:05Z</time>
      </trkpt>
      <trkpt lat="43.64762" lon="1.37617">
        <ele>146</ele>
        <time>2025-05-13T16:05:06Z</time>
      </trkpt>
      <trkpt lat="43.64763" lon="1.37613">
        <ele>146</ele>
        <time>2025-05-13T16:05:07Z</time>
      </trkpt>
      <trkpt lat="43.64765" lon="1.37611">
        <ele>146</ele>
        <time>2025-05-13T16:05:08Z</time>
      </trkpt>
      <trkpt lat="43.64767" lon="1.37609">
        <ele>146</ele>
        <time>2025-05-13T16:05:09Z</time>
      </trkpt>
      <trkpt lat="43.64769" lon="1.37607">
        <ele>146</ele>
        <time>2025-05-13T16:05:10Z</time>
      </trkpt>
      <trkpt lat="43.64771" lon="1.37605">
        <ele>146</ele>
        <time>2025-05-13T16:05:11Z</time>
      </trkpt>
      <trkpt lat="43.64773" lon="1.37603">
        <ele>146</ele>
        <time>2025-05-13T16:05:12Z</time>
      </trkpt>
      <trkpt lat="43.64775" lon="1.37602">
        <ele>146</ele>
        <time>2025-05-13T16:05:13Z</time>
      </trkpt>
      <trkpt lat="43.64777" lon="1.37601">
        <ele>146</ele>
        <time>2025-05-13T16:05:14Z</time>
      </trkpt>
      <trkpt lat="43.6478" lon="1.37601">
        <ele>146</ele>
        <time>2025-05-13T16:05:15Z</time>
      </trkpt>
      <trkpt lat="43.64782" lon="1.376">
        <ele>146</ele>
        <time>2025-05-13T16:05:16Z</time>
      </trkpt>
      <trkpt lat="43.64785" lon="1.37599">
        <ele>145</ele>
        <time>2025-05-13T16:05:17Z</time>
      </trkpt>
      <trkpt lat="43.64787" lon="1.37598">
        <ele>145</ele>
        <time>2025-05-13T16:05:18Z</time>
      </trkpt>
      <trkpt lat="43.6479" lon="1.37597">
        <ele>145</ele>
        <time>2025-05-13T16:05:19Z</time>
      </trkpt>
      <trkpt lat="43.64792" lon="1.37597">
        <ele>146</ele>
        <time>2025-05-13T16:05:20Z</time>
      </trkpt>
      <trkpt lat="43.64794" lon="1.37596">
        <ele>146</ele>
        <time>2025-05-13T16:05:21Z</time>
      </trkpt>
      <trkpt lat="43.64796" lon="1.37596">
        <ele>146</ele>
        <time>2025-05-13T16:05:22Z</time>
      </trkpt>
      <trkpt lat="43.64798" lon="1.37595">
        <ele>146</ele>
        <time>2025-05-13T16:05:23Z</time>
      </trkpt>
      <trkpt lat="43.64801" lon="1.37595">
        <ele>146</ele>
        <time>2025-05-13T16:05:24Z</time>
      </trkpt>
      <trkpt lat="43.64804" lon="1.37595">
        <ele>146</ele>
        <time>2025-05-13T16:05:25Z</time>
      </trkpt>
      <trkpt lat="43.64805" lon="1.37596">
        <ele>146</ele>
        <time>2025-05-13T16:05:26Z</time>
      </trkpt>
      <trkpt lat="43.64807" lon="1.37596">
        <ele>146</ele>
        <time>2025-05-13T16:05:27Z</time>
      </trkpt>
      <trkpt lat="43.64807" lon="1.37596">
        <ele>146</ele>
        <time>2025-05-13T16:05:28Z</time>
      </trkpt>
      <trkpt lat="43.6481" lon="1.37596">
        <ele>146</ele>
        <time>2025-05-13T16:05:29Z</time>
      </trkpt>
      <trkpt lat="43.6481" lon="1.37596">
        <ele>146</ele>
        <time>2025-05-13T16:05:30Z</time>
      </trkpt>
      <trkpt lat="43.64813" lon="1.37595">
        <ele>146</ele>
        <time>2025-05-13T16:05:31Z</time>
      </trkpt>
      <trkpt lat="43.64813" lon="1.37595">
        <ele>146</ele>
        <time>2025-05-13T16:05:32Z</time>
      </trkpt>
      <trkpt lat="43.64815" lon="1.37593">
        <ele>146</ele>
        <time>2025-05-13T16:05:33Z</time>
      </trkpt>
      <trkpt lat="43.64817" lon="1.37593">
        <ele>146</ele>
        <time>2025-05-13T16:05:34Z</time>
      </trkpt>
      <trkpt lat="43.64819" lon="1.37593">
        <ele>146</ele>
        <time>2025-05-13T16:05:35Z</time>
      </trkpt>
      <trkpt lat="43.64822" lon="1.37594">
        <ele>146</ele>
        <time>2025-05-13T16:05:36Z</time>
      </trkpt>
      <trkpt lat="43.64824" lon="1.37596">
        <ele>146</ele>
        <time>2025-05-13T16:05:37Z</time>
      </trkpt>
      <trkpt lat="43.64827" lon="1.37599">
        <ele>146</ele>
        <time>2025-05-13T16:05:38Z</time>
      </trkpt>
      <trkpt lat="43.64829" lon="1.37601">
        <ele>146</ele>
        <time>2025-05-13T16:05:39Z</time>
      </trkpt>
      <trkpt lat="43.64831" lon="1.37603">
        <ele>146</ele>
        <time>2025-05-13T16:05:40Z</time>
      </trkpt>
      <trkpt lat="43.64833" lon="1.37604">
        <ele>146</ele>
        <time>2025-05-13T16:05:41Z</time>
      </trkpt>
      <trkpt lat="43.64835" lon="1.37606">
        <ele>146</ele>
        <time>2025-05-13T16:05:42Z</time>
      </trkpt>
      <trkpt lat="43.64838" lon="1.37608">
        <ele>146</ele>
        <time>2025-05-13T16:05:43Z</time>
      </trkpt>
      <trkpt lat="43.64841" lon="1.37609">
        <ele>146</ele>
        <time>2025-05-13T16:05:44Z</time>
      </trkpt>
      <trkpt lat="43.64845" lon="1.37613">
        <ele>146</ele>
        <time>2025-05-13T16:05:45Z</time>
      </trkpt>
      <trkpt lat="43.64848" lon="1.37617">
        <ele>146</ele>
        <time>2025-05-13T16:05:46Z</time>
      </trkpt>
      <trkpt lat="43.64851" lon="1.37619">
        <ele>146</ele>
        <time>2025-05-13T16:05:47Z</time>
      </trkpt>
      <trkpt lat="43.64853" lon="1.37622">
        <ele>146</ele>
        <time>2025-05-13T16:05:48Z</time>
      </trkpt>
      <trkpt lat="43.64856" lon="1.37624">
        <ele>146</ele>
        <time>2025-05-13T16:05:49Z</time>
      </trkpt>
      <trkpt lat="43.64859" lon="1.37628">
        <ele>146</ele>
        <time>2025-05-13T16:05:50Z</time>
      </trkpt>
      <trkpt lat="43.64861" lon="1.37632">
        <ele>146</ele>
        <time>2025-05-13T16:05:51Z</time>
      </trkpt>
      <trkpt lat="43.64863" lon="1.37635">
        <ele>146</ele>
        <time>2025-05-13T16:05:52Z</time>
      </trkpt>
      <trkpt lat="43.64865" lon="1.37638">
        <ele>146</ele>
        <time>2025-05-13T16:05:53Z</time>
      </trkpt>
      <trkpt lat="43.64868" lon="1.3764">
        <ele>146</ele>
        <time>2025-05-13T16:05:54Z</time>
      </trkpt>
      <trkpt lat="43.6487" lon="1.37641">
        <ele>145</ele>
        <time>2025-05-13T16:05:55Z</time>
      </trkpt>
      <trkpt lat="43.6487" lon="1.37641">
        <ele>145</ele>
        <time>2025-05-13T16:05:56Z</time>
      </trkpt>
      <trkpt lat="43.64872" lon="1.37642">
        <ele>145</ele>
        <time>2025-05-13T16:05:57Z</time>
      </trkpt>
      <trkpt lat="43.64874" lon="1.37643">
        <ele>145</ele>
        <time>2025-05-13T16:05:58Z</time>
      </trkpt>
      <trkpt lat="43.64877" lon="1.37642">
        <ele>146</ele>
        <time>2025-05-13T16:05:59Z</time>
      </trkpt>
      <trkpt lat="43.64879" lon="1.37644">
        <ele>146</ele>
        <time>2025-05-13T16:06:00Z</time>
      </trkpt>
      <trkpt lat="43.64882" lon="1.37648">
        <ele>146</ele>
        <time>2025-05-13T16:06:01Z</time>
      </trkpt>
      <trkpt lat="43.64883" lon="1.37652">
        <ele>146</ele>
        <time>2025-05-13T16:06:02Z</time>
      </trkpt>
      <trkpt lat="43.64886" lon="1.37659">
        <ele>146</ele>
        <time>2025-05-13T16:06:03Z</time>
      </trkpt>
      <trkpt lat="43.64886" lon="1.37661">
        <ele>146</ele>
        <time>2025-05-13T16:06:04Z</time>
      </trkpt>
      <trkpt lat="43.64887" lon="1.37664">
        <ele>146</ele>
        <time>2025-05-13T16:06:05Z</time>
      </trkpt>
      <trkpt lat="43.64888" lon="1.37668">
        <ele>145</ele>
        <time>2025-05-13T16:06:06Z</time>
      </trkpt>
      <trkpt lat="43.64889" lon="1.37673">
        <ele>145</ele>
        <time>2025-05-13T16:06:07Z</time>
      </trkpt>
      <trkpt lat="43.64889" lon="1.37676">
        <ele>145</ele>
        <time>2025-05-13T16:06:08Z</time>
      </trkpt>
      <trkpt lat="43.6489" lon="1.37679">
        <ele>145</ele>
        <time>2025-05-13T16:06:09Z</time>
      </trkpt>
      <trkpt lat="43.64891" lon="1.37682">
        <ele>145</ele>
        <time>2025-05-13T16:06:10Z</time>
      </trkpt>
      <trkpt lat="43.64892" lon="1.37685">
        <ele>145</ele>
        <time>2025-05-13T16:06:11Z</time>
      </trkpt>
      <trkpt lat="43.64893" lon="1.37688">
        <ele>146</ele>
        <time>2025-05-13T16:06:12Z</time>
      </trkpt>
      <trkpt lat="43.64894" lon="1.37691">
        <ele>146</ele>
        <time>2025-05-13T16:06:13Z</time>
      </trkpt>
      <trkpt lat="43.64894" lon="1.37694">
        <ele>146</ele>
        <time>2025-05-13T16:06:14Z</time>
      </trkpt>
      <trkpt lat="43.64895" lon="1.37698">
        <ele>146</ele>
        <time>2025-05-13T16:06:15Z</time>
      </trkpt>
      <trkpt lat="43.64895" lon="1.37701">
        <ele>146</ele>
        <time>2025-05-13T16:06:16Z</time>
      </trkpt>
      <trkpt lat="43.64896" lon="1.37704">
        <ele>146</ele>
        <time>2025-05-13T16:06:17Z</time>
      </trkpt>
      <trkpt lat="43.64896" lon="1.37707">
        <ele>146</ele>
        <time>2025-05-13T16:06:18Z</time>
      </trkpt>
      <trkpt lat="43.64897" lon="1.3771">
        <ele>146</ele>
        <time>2025-05-13T16:06:19Z</time>
      </trkpt>
      <trkpt lat="43.64898" lon="1.37714">
        <ele>146</ele>
        <time>2025-05-13T16:06:20Z</time>
      </trkpt>
      <trkpt lat="43.64899" lon="1.37717">
        <ele>146</ele>
        <time>2025-05-13T16:06:21Z</time>
      </trkpt>
      <trkpt lat="43.649" lon="1.37721">
        <ele>146</ele>
        <time>2025-05-13T16:06:22Z</time>
      </trkpt>
      <trkpt lat="43.64902" lon="1.37724">
        <ele>146</ele>
        <time>2025-05-13T16:06:23Z</time>
      </trkpt>
      <trkpt lat="43.64903" lon="1.37728">
        <ele>146</ele>
        <time>2025-05-13T16:06:24Z</time>
      </trkpt>
      <trkpt lat="43.64904" lon="1.37732">
        <ele>146</ele>
        <time>2025-05-13T16:06:25Z</time>
      </trkpt>
      <trkpt lat="43.64905" lon="1.37736">
        <ele>146</ele>
        <time>2025-05-13T16:06:26Z</time>
      </trkpt>
      <trkpt lat="43.64906" lon="1.37739">
        <ele>146</ele>
        <time>2025-05-13T16:06:27Z</time>
      </trkpt>
      <trkpt lat="43.64907" lon="1.37742">
        <ele>146</ele>
        <time>2025-05-13T16:06:28Z</time>
      </trkpt>
      <trkpt lat="43.64908" lon="1.37745">
        <ele>146</ele>
        <time>2025-05-13T16:06:29Z</time>
      </trkpt>
      <trkpt lat="43.64908" lon="1.37748">
        <ele>146</ele>
        <time>2025-05-13T16:06:30Z</time>
      </trkpt>
      <trkpt lat="43.64909" lon="1.37751">
        <ele>146</ele>
        <time>2025-05-13T16:06:31Z</time>
      </trkpt>
      <trkpt lat="43.64909" lon="1.37754">
        <ele>146</ele>
        <time>2025-05-13T16:06:32Z</time>
      </trkpt>
      <trkpt lat="43.6491" lon="1.37757">
        <ele>146</ele>
        <time>2025-05-13T16:06:33Z</time>
      </trkpt>
      <trkpt lat="43.6491" lon="1.3776">
        <ele>146</ele>
        <time>2025-05-13T16:06:34Z</time>
      </trkpt>
      <trkpt lat="43.64911" lon="1.37763">
        <ele>146</ele>
        <time>2025-05-13T16:06:35Z</time>
      </trkpt>
      <trkpt lat="43.64911" lon="1.37766">
        <ele>146</ele>
        <time>2025-05-13T16:06:36Z</time>
      </trkpt>
      <trkpt lat="43.64912" lon="1.37769">
        <ele>146</ele>
        <time>2025-05-13T16:06:37Z</time>
      </trkpt>
      <trkpt lat="43.64912" lon="1.37772">
        <ele>146</ele>
        <time>2025-05-13T16:06:38Z</time>
      </trkpt>
      <trkpt lat="43.64913" lon="1.37776">
        <ele>146</ele>
        <time>2025-05-13T16:06:39Z</time>
      </trkpt>
      <trkpt lat="43.64913" lon="1.37779">
        <ele>145</ele>
        <time>2025-05-13T16:06:40Z</time>
      </trkpt>
      <trkpt lat="43.64914" lon="1.37782">
        <ele>145</ele>
        <time>2025-05-13T16:06:41Z</time>
      </trkpt>
      <trkpt lat="43.64914" lon="1.37785">
        <ele>145</ele>
        <time>2025-05-13T16:06:42Z</time>
      </trkpt>
      <trkpt lat="43.64915" lon="1.37788">
        <ele>146</ele>
        <time>2025-05-13T16:06:43Z</time>
      </trkpt>
      <trkpt lat="43.64915" lon="1.37791">
        <ele>146</ele>
        <time>2025-05-13T16:06:44Z</time>
      </trkpt>
      <trkpt lat="43.64916" lon="1.37795">
        <ele>146</ele>
        <time>2025-05-13T16:06:45Z</time>
      </trkpt>
      <trkpt lat="43.64918" lon="1.37798">
        <ele>146</ele>
        <time>2025-05-13T16:06:46Z</time>
      </trkpt>
      <trkpt lat="43.64919" lon="1.37802">
        <ele>146</ele>
        <time>2025-05-13T16:06:47Z</time>
      </trkpt>
      <trkpt lat="43.6492" lon="1.37805">
        <ele>146</ele>
        <time>2025-05-13T16:06:48Z</time>
      </trkpt>
      <trkpt lat="43.64921" lon="1.37809">
        <ele>146</ele>
        <time>2025-05-13T16:06:49Z</time>
      </trkpt>
      <trkpt lat="43.64921" lon="1.37812">
        <ele>146</ele>
        <time>2025-05-13T16:06:50Z</time>
      </trkpt>
      <trkpt lat="43.64922" lon="1.37815">
        <ele>146</ele>
        <time>2025-05-13T16:06:51Z</time>
      </trkpt>
      <trkpt lat="43.64923" lon="1.37818">
        <ele>146</ele>
        <time>2025-05-13T16:06:52Z</time>
      </trkpt>
      <trkpt lat="43.64923" lon="1.3782">
        <ele>146</ele>
        <time>2025-05-13T16:06:53Z</time>
      </trkpt>
      <trkpt lat="43.64923" lon="1.37823">
        <ele>145</ele>
        <time>2025-05-13T16:06:54Z</time>
      </trkpt>
      <trkpt lat="43.64924" lon="1.37827">
        <ele>145</ele>
        <time>2025-05-13T16:06:55Z</time>
      </trkpt>
      <trkpt lat="43.64923" lon="1.3783">
        <ele>145</ele>
        <time>2025-05-13T16:06:56Z</time>
      </trkpt>
      <trkpt lat="43.64924" lon="1.37833">
        <ele>145</ele>
        <time>2025-05-13T16:06:57Z</time>
      </trkpt>
      <trkpt lat="43.64924" lon="1.37837">
        <ele>145</ele>
        <time>2025-05-13T16:06:58Z</time>
      </trkpt>
      <trkpt lat="43.64925" lon="1.3784">
        <ele>145</ele>
        <time>2025-05-13T16:06:59Z</time>
      </trkpt>
      <trkpt lat="43.64926" lon="1.37843">
        <ele>145</ele>
        <time>2025-05-13T16:07:00Z</time>
      </trkpt>
      <trkpt lat="43.64927" lon="1.37847">
        <ele>145</ele>
        <time>2025-05-13T16:07:01Z</time>
      </trkpt>
      <trkpt lat="43.64928" lon="1.3785">
        <ele>146</ele>
        <time>2025-05-13T16:07:02Z</time>
      </trkpt>
      <trkpt lat="43.64929" lon="1.37853">
        <ele>146</ele>
        <time>2025-05-13T16:07:03Z</time>
      </trkpt>
      <trkpt lat="43.6493" lon="1.37857">
        <ele>146</ele>
        <time>2025-05-13T16:07:04Z</time>
      </trkpt>
      <trkpt lat="43.64931" lon="1.3786">
        <ele>146</ele>
        <time>2025-05-13T16:07:05Z</time>
      </trkpt>
      <trkpt lat="43.64932" lon="1.37863">
        <ele>146</ele>
        <time>2025-05-13T16:07:06Z</time>
      </trkpt>
      <trkpt lat="43.64933" lon="1.37866">
        <ele>146</ele>
        <time>2025-05-13T16:07:07Z</time>
      </trkpt>
      <trkpt lat="43.64934" lon="1.3787">
        <ele>146</ele>
        <time>2025-05-13T16:07:08Z</time>
      </trkpt>
      <trkpt lat="43.64936" lon="1.37873">
        <ele>146</ele>
        <time>2025-05-13T16:07:09Z</time>
      </trkpt>
      <trkpt lat="43.64938" lon="1.37875">
        <ele>146</ele>
        <time>2025-05-13T16:07:10Z</time>
      </trkpt>
      <trkpt lat="43.6494" lon="1.37876">
        <ele>146</ele>
        <time>2025-05-13T16:07:11Z</time>
      </trkpt>
      <trkpt lat="43.64943" lon="1.37877">
        <ele>146</ele>
        <time>2025-05-13T16:07:12Z</time>
      </trkpt>
      <trkpt lat="43.64945" lon="1.37879">
        <ele>146</ele>
        <time>2025-05-13T16:07:13Z</time>
      </trkpt>
      <trkpt lat="43.64947" lon="1.37883">
        <ele>146</ele>
        <time>2025-05-13T16:07:14Z</time>
      </trkpt>
      <trkpt lat="43.64948" lon="1.37888">
        <ele>146</ele>
        <time>2025-05-13T16:07:15Z</time>
      </trkpt>
      <trkpt lat="43.64949" lon="1.3789">
        <ele>145</ele>
        <time>2025-05-13T16:07:16Z</time>
      </trkpt>
      <trkpt lat="43.6495" lon="1.37893">
        <ele>145</ele>
        <time>2025-05-13T16:07:17Z</time>
      </trkpt>
      <trkpt lat="43.6495" lon="1.37896">
        <ele>145</ele>
        <time>2025-05-13T16:07:18Z</time>
      </trkpt>
      <trkpt lat="43.64951" lon="1.379">
        <ele>145</ele>
        <time>2025-05-13T16:07:19Z</time>
      </trkpt>
      <trkpt lat="43.64951" lon="1.37903">
        <ele>145</ele>
        <time>2025-05-13T16:07:20Z</time>
      </trkpt>
      <trkpt lat="43.64952" lon="1.37907">
        <ele>145</ele>
        <time>2025-05-13T16:07:21Z</time>
      </trkpt>
      <trkpt lat="43.64953" lon="1.37911">
        <ele>145</ele>
        <time>2025-05-13T16:07:22Z</time>
      </trkpt>
      <trkpt lat="43.64954" lon="1.37914">
        <ele>145</ele>
        <time>2025-05-13T16:07:23Z</time>
      </trkpt>
      <trkpt lat="43.64955" lon="1.37918">
        <ele>145</ele>
        <time>2025-05-13T16:07:24Z</time>
      </trkpt>
      <trkpt lat="43.64955" lon="1.37922">
        <ele>146</ele>
        <time>2025-05-13T16:07:25Z</time>
      </trkpt>
      <trkpt lat="43.64957" lon="1.37925">
        <ele>146</ele>
        <time>2025-05-13T16:07:26Z</time>
      </trkpt>
      <trkpt lat="43.64959" lon="1.37928">
        <ele>146</ele>
        <time>2025-05-13T16:07:27Z</time>
      </trkpt>
      <trkpt lat="43.6496" lon="1.3793">
        <ele>146</ele>
        <time>2025-05-13T16:07:28Z</time>
      </trkpt>
      <trkpt lat="43.64963" lon="1.37932">
        <ele>146</ele>
        <time>2025-05-13T16:07:29Z</time>
      </trkpt>
      <trkpt lat="43.64964" lon="1.37935">
        <ele>145</ele>
        <time>2025-05-13T16:07:30Z</time>
      </trkpt>
      <trkpt lat="43.64966" lon="1.37938">
        <ele>145</ele>
        <time>2025-05-13T16:07:31Z</time>
      </trkpt>
      <trkpt lat="43.64968" lon="1.3794">
        <ele>145</ele>
        <time>2025-05-13T16:07:32Z</time>
      </trkpt>
      <trkpt lat="43.64969" lon="1.37943">
        <ele>145</ele>
        <time>2025-05-13T16:07:33Z</time>
      </trkpt>
      <trkpt lat="43.64972" lon="1.37945">
        <ele>145</ele>
        <time>2025-05-13T16:07:34Z</time>
      </trkpt>
      <trkpt lat="43.64973" lon="1.37948">
        <ele>145</ele>
        <time>2025-05-13T16:07:35Z</time>
      </trkpt>
      <trkpt lat="43.64974" lon="1.37951">
        <ele>144</ele>
        <time>2025-05-13T16:07:36Z</time>
      </trkpt>
      <trkpt lat="43.64976" lon="1.37955">
        <ele>145</ele>
        <time>2025-05-13T16:07:37Z</time>
      </trkpt>
      <trkpt lat="43.64978" lon="1.37958">
        <ele>145</ele>
        <time>2025-05-13T16:07:38Z</time>
      </trkpt>
      <trkpt lat="43.6498" lon="1.37961">
        <ele>144</ele>
        <time>2025-05-13T16:07:39Z</time>
      </trkpt>
      <trkpt lat="43.64982" lon="1.37964">
        <ele>144</ele>
        <time>2025-05-13T16:07:40Z</time>
      </trkpt>
      <trkpt lat="43.64983" lon="1.37965">
        <ele>144</ele>
        <time>2025-05-13T16:07:41Z</time>
      </trkpt>
      <trkpt lat="43.64985" lon="1.37967">
        <ele>144</ele>
        <time>2025-05-13T16:07:42Z</time>
      </trkpt>
      <trkpt lat="43.64987" lon="1.37969">
        <ele>144</ele>
        <time>2025-05-13T16:07:43Z</time>
      </trkpt>
      <trkpt lat="43.64988" lon="1.37971">
        <ele>144</ele>
        <time>2025-05-13T16:07:44Z</time>
      </trkpt>
      <trkpt lat="43.6499" lon="1.37974">
        <ele>144</ele>
        <time>2025-05-13T16:07:45Z</time>
      </trkpt>
      <trkpt lat="43.64992" lon="1.37976">
        <ele>145</ele>
        <time>2025-05-13T16:07:46Z</time>
      </trkpt>
      <trkpt lat="43.64993" lon="1.37978">
        <ele>145</ele>
        <time>2025-05-13T16:07:47Z</time>
      </trkpt>
      <trkpt lat="43.64995" lon="1.3798">
        <ele>145</ele>
        <time>2025-05-13T16:07:48Z</time>
      </trkpt>
      <trkpt lat="43.64997" lon="1.37983">
        <ele>145</ele>
        <time>2025-05-13T16:07:49Z</time>
      </trkpt>
      <trkpt lat="43.64999" lon="1.37986">
        <ele>145</ele>
        <time>2025-05-13T16:07:50Z</time>
      </trkpt>
      <trkpt lat="43.65001" lon="1.37988">
        <ele>145</ele>
        <time>2025-05-13T16:07:51Z</time>
      </trkpt>
      <trkpt lat="43.65003" lon="1.37991">
        <ele>145</ele>
        <time>2025-05-13T16:07:52Z</time>
      </trkpt>
      <trkpt lat="43.65004" lon="1.37993">
        <ele>144</ele>
        <time>2025-05-13T16:07:53Z</time>
      </trkpt>
      <trkpt lat="43.65005" lon="1.37996">
        <ele>144</ele>
        <time>2025-05-13T16:07:54Z</time>
      </trkpt>
      <trkpt lat="43.65007" lon="1.37999">
        <ele>144</ele>
        <time>2025-05-13T16:07:55Z</time>
      </trkpt>
      <trkpt lat="43.65008" lon="1.38002">
        <ele>144</ele>
        <time>2025-05-13T16:07:56Z</time>
      </trkpt>
      <trkpt lat="43.65009" lon="1.38004">
        <ele>144</ele>
        <time>2025-05-13T16:07:57Z</time>
      </trkpt>
      <trkpt lat="43.65011" lon="1.38006">
        <ele>144</ele>
        <time>2025-05-13T16:07:58Z</time>
      </trkpt>
      <trkpt lat="43.65013" lon="1.38008">
        <ele>144</ele>
        <time>2025-05-13T16:07:59Z</time>
      </trkpt>
      <trkpt lat="43.65014" lon="1.38011">
        <ele>144</ele>
        <time>2025-05-13T16:08:00Z</time>
      </trkpt>
      <trkpt lat="43.65017" lon="1.38015">
        <ele>144</ele>
        <time>2025-05-13T16:08:01Z</time>
      </trkpt>
      <trkpt lat="43.65018" lon="1.38017">
        <ele>145</ele>
        <time>2025-05-13T16:08:02Z</time>
      </trkpt>
      <trkpt lat="43.65019" lon="1.3802">
        <ele>145</ele>
        <time>2025-05-13T16:08:03Z</time>
      </trkpt>
      <trkpt lat="43.65021" lon="1.38022">
        <ele>145</ele>
        <time>2025-05-13T16:08:04Z</time>
      </trkpt>
      <trkpt lat="43.65022" lon="1.38025">
        <ele>144</ele>
        <time>2025-05-13T16:08:05Z</time>
      </trkpt>
      <trkpt lat="43.65023" lon="1.38028">
        <ele>145</ele>
        <time>2025-05-13T16:08:06Z</time>
      </trkpt>
      <trkpt lat="43.65025" lon="1.38031">
        <ele>145</ele>
        <time>2025-05-13T16:08:07Z</time>
      </trkpt>
      <trkpt lat="43.65026" lon="1.38033">
        <ele>145</ele>
        <time>2025-05-13T16:08:08Z</time>
      </trkpt>
      <trkpt lat="43.65028" lon="1.38036">
        <ele>145</ele>
        <time>2025-05-13T16:08:09Z</time>
      </trkpt>
      <trkpt lat="43.6503" lon="1.38039">
        <ele>145</ele>
        <time>2025-05-13T16:08:10Z</time>
      </trkpt>
      <trkpt lat="43.65032" lon="1.38042">
        <ele>144</ele>
        <time>2025-05-13T16:08:11Z</time>
      </trkpt>
      <trkpt lat="43.65033" lon="1.38045">
        <ele>144</ele>
        <time>2025-05-13T16:08:12Z</time>
      </trkpt>
      <trkpt lat="43.65034" lon="1.38048">
        <ele>144</ele>
        <time>2025-05-13T16:08:13Z</time>
      </trkpt>
      <trkpt lat="43.65035" lon="1.38051">
        <ele>145</ele>
        <time>2025-05-13T16:08:14Z</time>
      </trkpt>
      <trkpt lat="43.65036" lon="1.38054">
        <ele>145</ele>
        <time>2025-05-13T16:08:15Z</time>
      </trkpt>
      <trkpt lat="43.65037" lon="1.38056">
        <ele>145</ele>
        <time>2025-05-13T16:08:16Z</time>
      </trkpt>
      <trkpt lat="43.65039" lon="1.38059">
        <ele>144</ele>
        <time>2025-05-13T16:08:17Z</time>
      </trkpt>
      <trkpt lat="43.6504" lon="1.38062">
        <ele>144</ele>
        <time>2025-05-13T16:08:18Z</time>
      </trkpt>
      <trkpt lat="43.65041" lon="1.38065">
        <ele>144</ele>
        <time>2025-05-13T16:08:19Z</time>
      </trkpt>
      <trkpt lat="43.65043" lon="1.38068">
        <ele>145</ele>
        <time>2025-05-13T16:08:20Z</time>
      </trkpt>
      <trkpt lat="43.65045" lon="1.38073">
        <ele>145</ele>
        <time>2025-05-13T16:08:21Z</time>
      </trkpt>
      <trkpt lat="43.65045" lon="1.38075">
        <ele>145</ele>
        <time>2025-05-13T16:08:22Z</time>
      </trkpt>
      <trkpt lat="43.65047" lon="1.38077">
        <ele>145</ele>
        <time>2025-05-13T16:08:23Z</time>
      </trkpt>
      <trkpt lat="43.65049" lon="1.3808">
        <ele>145</ele>
        <time>2025-05-13T16:08:24Z</time>
      </trkpt>
      <trkpt lat="43.65051" lon="1.38083">
        <ele>145</ele>
        <time>2025-05-13T16:08:25Z</time>
      </trkpt>
      <trkpt lat="43.65052" lon="1.38087">
        <ele>145</ele>
        <time>2025-05-13T16:08:26Z</time>
      </trkpt>
      <trkpt lat="43.65053" lon="1.3809">
        <ele>145</ele>
        <time>2025-05-13T16:08:27Z</time>
      </trkpt>
      <trkpt lat="43.65054" lon="1.38093">
        <ele>145</ele>
        <time>2025-05-13T16:08:28Z</time>
      </trkpt>
      <trkpt lat="43.65055" lon="1.38095">
        <ele>145</ele>
        <time>2025-05-13T16:08:29Z</time>
      </trkpt>
      <trkpt lat="43.65057" lon="1.38098">
        <ele>145</ele>
        <time>2025-05-13T16:08:30Z</time>
      </trkpt>
      <trkpt lat="43.65058" lon="1.38102">
        <ele>145</ele>
        <time>2025-05-13T16:08:31Z</time>
      </trkpt>
      <trkpt lat="43.65059" lon="1.38104">
        <ele>145</ele>
        <time>2025-05-13T16:08:32Z</time>
      </trkpt>
      <trkpt lat="43.6506" lon="1.38106">
        <ele>145</ele>
        <time>2025-05-13T16:08:33Z</time>
      </trkpt>
      <trkpt lat="43.65061" lon="1.38109">
        <ele>145</ele>
        <time>2025-05-13T16:08:34Z</time>
      </trkpt>
      <trkpt lat="43.65063" lon="1.38112">
        <ele>145</ele>
        <time>2025-05-13T16:08:35Z</time>
      </trkpt>
      <trkpt lat="43.65064" lon="1.38115">
        <ele>145</ele>
        <time>2025-05-13T16:08:36Z</time>
      </trkpt>
      <trkpt lat="43.65065" lon="1.38117">
        <ele>146</ele>
        <time>2025-05-13T16:08:37Z</time>
      </trkpt>
      <trkpt lat="43.65065" lon="1.38117">
        <ele>146</ele>
        <time>2025-05-13T16:08:38Z</time>
      </trkpt>
      <trkpt lat="43.65069" lon="1.38118">
        <ele>147</ele>
        <time>2025-05-13T16:08:39Z</time>
      </trkpt>
      <trkpt lat="43.65071" lon="1.38118">
        <ele>147</ele>
        <time>2025-05-13T16:08:40Z</time>
      </trkpt>
      <trkpt lat="43.65074" lon="1.38117">
        <ele>147</ele>
        <time>2025-05-13T16:08:41Z</time>
      </trkpt>
      <trkpt lat="43.65076" lon="1.38116">
        <ele>147</ele>
        <time>2025-05-13T16:08:42Z</time>
      </trkpt>
      <trkpt lat="43.65078" lon="1.38115">
        <ele>147</ele>
        <time>2025-05-13T16:08:43Z</time>
      </trkpt>
      <trkpt lat="43.65081" lon="1.38114">
        <ele>147</ele>
        <time>2025-05-13T16:08:44Z</time>
      </trkpt>
      <trkpt lat="43.65083" lon="1.38112">
        <ele>148</ele>
        <time>2025-05-13T16:08:45Z</time>
      </trkpt>
      <trkpt lat="43.65085" lon="1.38111">
        <ele>148</ele>
        <time>2025-05-13T16:08:46Z</time>
      </trkpt>
      <trkpt lat="43.65087" lon="1.38109">
        <ele>148</ele>
        <time>2025-05-13T16:08:47Z</time>
      </trkpt>
      <trkpt lat="43.65089" lon="1.38108">
        <ele>148</ele>
        <time>2025-05-13T16:08:48Z</time>
      </trkpt>
      <trkpt lat="43.65091" lon="1.38106">
        <ele>148</ele>
        <time>2025-05-13T16:08:49Z</time>
      </trkpt>
      <trkpt lat="43.65094" lon="1.38103">
        <ele>148</ele>
        <time>2025-05-13T16:08:50Z</time>
      </trkpt>
      <trkpt lat="43.65095" lon="1.38102">
        <ele>148</ele>
        <time>2025-05-13T16:08:51Z</time>
      </trkpt>
      <trkpt lat="43.65097" lon="1.38101">
        <ele>148</ele>
        <time>2025-05-13T16:08:52Z</time>
      </trkpt>
      <trkpt lat="43.65099" lon="1.381">
        <ele>148</ele>
        <time>2025-05-13T16:08:53Z</time>
      </trkpt>
      <trkpt lat="43.65101" lon="1.38098">
        <ele>148</ele>
        <time>2025-05-13T16:08:54Z</time>
      </trkpt>
      <trkpt lat="43.65104" lon="1.38097">
        <ele>148</ele>
        <time>2025-05-13T16:08:55Z</time>
      </trkpt>
      <trkpt lat="43.65105" lon="1.38096">
        <ele>148</ele>
        <time>2025-05-13T16:08:56Z</time>
      </trkpt>
      <trkpt lat="43.65108" lon="1.38095">
        <ele>148</ele>
        <time>2025-05-13T16:08:57Z</time>
      </trkpt>
      <trkpt lat="43.6511" lon="1.38093">
        <ele>148</ele>
        <time>2025-05-13T16:08:58Z</time>
      </trkpt>
      <trkpt lat="43.65112" lon="1.38091">
        <ele>148</ele>
        <time>2025-05-13T16:08:59Z</time>
      </trkpt>
      <trkpt lat="43.65115" lon="1.38089">
        <ele>148</ele>
        <time>2025-05-13T16:09:00Z</time>
      </trkpt>
      <trkpt lat="43.65117" lon="1.38087">
        <ele>148</ele>
        <time>2025-05-13T16:09:01Z</time>
      </trkpt>
      <trkpt lat="43.65119" lon="1.38086">
        <ele>148</ele>
        <time>2025-05-13T16:09:02Z</time>
      </trkpt>
      <trkpt lat="43.65122" lon="1.38084">
        <ele>149</ele>
        <time>2025-05-13T16:09:03Z</time>
      </trkpt>
      <trkpt lat="43.65125" lon="1.38083">
        <ele>149</ele>
        <time>2025-05-13T16:09:04Z</time>
      </trkpt>
      <trkpt lat="43.65127" lon="1.38082">
        <ele>149</ele>
        <time>2025-05-13T16:09:05Z</time>
      </trkpt>
      <trkpt lat="43.65129" lon="1.3808">
        <ele>149</ele>
        <time>2025-05-13T16:09:06Z</time>
      </trkpt>
      <trkpt lat="43.65131" lon="1.38078">
        <ele>149</ele>
        <time>2025-05-13T16:09:07Z</time>
      </trkpt>
      <trkpt lat="43.65133" lon="1.38076">
        <ele>149</ele>
        <time>2025-05-13T16:09:08Z</time>
      </trkpt>
      <trkpt lat="43.65137" lon="1.38074">
        <ele>149</ele>
        <time>2025-05-13T16:09:09Z</time>
      </trkpt>
      <trkpt lat="43.65138" lon="1.38073">
        <ele>149</ele>
        <time>2025-05-13T16:09:10Z</time>
      </trkpt>
      <trkpt lat="43.65141" lon="1.38071">
        <ele>149</ele>
        <time>2025-05-13T16:09:11Z</time>
      </trkpt>
      <trkpt lat="43.65143" lon="1.38069">
        <ele>149</ele>
        <time>2025-05-13T16:09:12Z</time>
      </trkpt>
      <trkpt lat="43.65145" lon="1.38068">
        <ele>149</ele>
        <time>2025-05-13T16:09:13Z</time>
      </trkpt>
      <trkpt lat="43.65148" lon="1.38067">
        <ele>149</ele>
        <time>2025-05-13T16:09:14Z</time>
      </trkpt>
      <trkpt lat="43.6515" lon="1.38065">
        <ele>149</ele>
        <time>2025-05-13T16:09:15Z</time>
      </trkpt>
      <trkpt lat="43.65152" lon="1.38064">
        <ele>149</ele>
        <time>2025-05-13T16:09:16Z</time>
      </trkpt>
      <trkpt lat="43.65155" lon="1.38062">
        <ele>149</ele>
        <time>2025-05-13T16:09:17Z</time>
      </trkpt>
      <trkpt lat="43.65157" lon="1.3806">
        <ele>149</ele>
        <time>2025-05-13T16:09:18Z</time>
      </trkpt>
      <trkpt lat="43.65159" lon="1.38059">
        <ele>149</ele>
        <time>2025-05-13T16:09:19Z</time>
      </trkpt>
      <trkpt lat="43.65162" lon="1.38057">
        <ele>149</ele>
        <time>2025-05-13T16:09:20Z</time>
      </trkpt>
      <trkpt lat="43.65165" lon="1.38054">
        <ele>149</ele>
        <time>2025-05-13T16:09:21Z</time>
      </trkpt>
      <trkpt lat="43.65167" lon="1.38053">
        <ele>149</ele>
        <time>2025-05-13T16:09:22Z</time>
      </trkpt>
      <trkpt lat="43.65169" lon="1.38051">
        <ele>149</ele>
        <time>2025-05-13T16:09:23Z</time>
      </trkpt>
      <trkpt lat="43.65171" lon="1.38049">
        <ele>149</ele>
        <time>2025-05-13T16:09:24Z</time>
      </trkpt>
      <trkpt lat="43.65173" lon="1.38047">
        <ele>149</ele>
        <time>2025-05-13T16:09:25Z</time>
      </trkpt>
      <trkpt lat="43.65175" lon="1.38045">
        <ele>149</ele>
        <time>2025-05-13T16:09:26Z</time>
      </trkpt>
      <trkpt lat="43.65178" lon="1.38043">
        <ele>148</ele>
        <time>2025-05-13T16:09:27Z</time>
      </trkpt>
      <trkpt lat="43.65182" lon="1.38042">
        <ele>148</ele>
        <time>2025-05-13T16:09:28Z</time>
      </trkpt>
      <trkpt lat="43.65184" lon="1.38042">
        <ele>148</ele>
        <time>2025-05-13T16:09:29Z</time>
      </trkpt>
      <trkpt lat="43.65186" lon="1.38042">
        <ele>148</ele>
        <time>2025-05-13T16:09:30Z</time>
      </trkpt>
      <trkpt lat="43.65189" lon="1.38041">
        <ele>148</ele>
        <time>2025-05-13T16:09:31Z</time>
      </trkpt>
      <trkpt lat="43.65192" lon="1.3804">
        <ele>148</ele>
        <time>2025-05-13T16:09:32Z</time>
      </trkpt>
      <trkpt lat="43.65194" lon="1.38038">
        <ele>148</ele>
        <time>2025-05-13T16:09:33Z</time>
      </trkpt>
      <trkpt lat="43.65197" lon="1.38037">
        <ele>148</ele>
        <time>2025-05-13T16:09:34Z</time>
      </trkpt>
      <trkpt lat="43.65201" lon="1.38035">
        <ele>148</ele>
        <time>2025-05-13T16:09:35Z</time>
      </trkpt>
      <trkpt lat="43.65202" lon="1.38034">
        <ele>148</ele>
        <time>2025-05-13T16:09:36Z</time>
      </trkpt>
      <trkpt lat="43.65204" lon="1.38033">
        <ele>148</ele>
        <time>2025-05-13T16:09:37Z</time>
      </trkpt>
      <trkpt lat="43.65206" lon="1.38032">
        <ele>148</ele>
        <time>2025-05-13T16:09:38Z</time>
      </trkpt>
      <trkpt lat="43.65208" lon="1.3803">
        <ele>148</ele>
        <time>2025-05-13T16:09:39Z</time>
      </trkpt>
      <trkpt lat="43.65208" lon="1.3803">
        <ele>148</ele>
        <time>2025-05-13T16:09:40Z</time>
      </trkpt>
      <trkpt lat="43.65211" lon="1.38029">
        <ele>148</ele>
        <time>2025-05-13T16:09:41Z</time>
      </trkpt>
      <trkpt lat="43.65213" lon="1.38029">
        <ele>148</ele>
        <time>2025-05-13T16:09:42Z</time>
      </trkpt>
      <trkpt lat="43.65213" lon="1.38029">
        <ele>149</ele>
        <time>2025-05-13T16:09:43Z</time>
      </trkpt>
      <trkpt lat="43.65215" lon="1.38033">
        <ele>149</ele>
        <time>2025-05-13T16:09:44Z</time>
      </trkpt>
      <trkpt lat="43.65217" lon="1.38035">
        <ele>149</ele>
        <time>2025-05-13T16:09:45Z</time>
      </trkpt>
      <trkpt lat="43.65219" lon="1.38038">
        <ele>149</ele>
        <time>2025-05-13T16:09:46Z</time>
      </trkpt>
      <trkpt lat="43.65221" lon="1.38044">
        <ele>149</ele>
        <time>2025-05-13T16:09:47Z</time>
      </trkpt>
      <trkpt lat="43.65222" lon="1.38046">
        <ele>149</ele>
        <time>2025-05-13T16:09:48Z</time>
      </trkpt>
      <trkpt lat="43.65224" lon="1.38049">
        <ele>148</ele>
        <time>2025-05-13T16:09:49Z</time>
      </trkpt>
      <trkpt lat="43.65225" lon="1.38053">
        <ele>148</ele>
        <time>2025-05-13T16:09:50Z</time>
      </trkpt>
      <trkpt lat="43.65226" lon="1.38057">
        <ele>148</ele>
        <time>2025-05-13T16:09:51Z</time>
      </trkpt>
      <trkpt lat="43.65227" lon="1.3806">
        <ele>148</ele>
        <time>2025-05-13T16:09:52Z</time>
      </trkpt>
      <trkpt lat="43.65228" lon="1.38064">
        <ele>148</ele>
        <time>2025-05-13T16:09:53Z</time>
      </trkpt>
      <trkpt lat="43.65229" lon="1.38068">
        <ele>148</ele>
        <time>2025-05-13T16:09:54Z</time>
      </trkpt>
      <trkpt lat="43.65231" lon="1.38071">
        <ele>148</ele>
        <time>2025-05-13T16:09:55Z</time>
      </trkpt>
      <trkpt lat="43.65232" lon="1.38075">
        <ele>148</ele>
        <time>2025-05-13T16:09:56Z</time>
      </trkpt>
      <trkpt lat="43.65233" lon="1.38078">
        <ele>148</ele>
        <time>2025-05-13T16:09:57Z</time>
      </trkpt>
      <trkpt lat="43.65234" lon="1.38081">
        <ele>148</ele>
        <time>2025-05-13T16:09:58Z</time>
      </trkpt>
      <trkpt lat="43.65235" lon="1.38085">
        <ele>148</ele>
        <time>2025-05-13T16:09:59Z</time>
      </trkpt>
      <trkpt lat="43.65236" lon="1.38088">
        <ele>148</ele>
        <time>2025-05-13T16:10:00Z</time>
      </trkpt>
      <trkpt lat="43.65236" lon="1.38092">
        <ele>148</ele>
        <time>2025-05-13T16:10:01Z</time>
      </trkpt>
      <trkpt lat="43.65237" lon="1.38095">
        <ele>148</ele>
        <time>2025-05-13T16:10:02Z</time>
      </trkpt>
      <trkpt lat="43.65238" lon="1.38099">
        <ele>148</ele>
        <time>2025-05-13T16:10:03Z</time>
      </trkpt>
      <trkpt lat="43.65239" lon="1.38102">
        <ele>148</ele>
        <time>2025-05-13T16:10:04Z</time>
      </trkpt>
      <trkpt lat="43.6524" lon="1.38106">
        <ele>148</ele>
        <time>2025-05-13T16:10:05Z</time>
      </trkpt>
      <trkpt lat="43.65242" lon="1.38109">
        <ele>148</ele>
        <time>2025-05-13T16:10:06Z</time>
      </trkpt>
      <trkpt lat="43.65243" lon="1.38113">
        <ele>148</ele>
        <time>2025-05-13T16:10:07Z</time>
      </trkpt>
      <trkpt lat="43.65244" lon="1.38116">
        <ele>148</ele>
        <time>2025-05-13T16:10:08Z</time>
      </trkpt>
      <trkpt lat="43.65245" lon="1.3812">
        <ele>148</ele>
        <time>2025-05-13T16:10:09Z</time>
      </trkpt>
      <trkpt lat="43.65246" lon="1.38123">
        <ele>148</ele>
        <time>2025-05-13T16:10:10Z</time>
      </trkpt>
      <trkpt lat="43.65246" lon="1.38127">
        <ele>148</ele>
        <time>2025-05-13T16:10:11Z</time>
      </trkpt>
      <trkpt lat="43.65246" lon="1.38131">
        <ele>148</ele>
        <time>2025-05-13T16:10:12Z</time>
      </trkpt>
      <trkpt lat="43.65244" lon="1.38135">
        <ele>148</ele>
        <time>2025-05-13T16:10:13Z</time>
      </trkpt>
      <trkpt lat="43.65242" lon="1.38138">
        <ele>147</ele>
        <time>2025-05-13T16:10:14Z</time>
      </trkpt>
      <trkpt lat="43.6524" lon="1.38139">
        <ele>147</ele>
        <time>2025-05-13T16:10:15Z</time>
      </trkpt>
      <trkpt lat="43.65237" lon="1.3814">
        <ele>147</ele>
        <time>2025-05-13T16:10:16Z</time>
      </trkpt>
      <trkpt lat="43.65234" lon="1.38142">
        <ele>147</ele>
        <time>2025-05-13T16:10:17Z</time>
      </trkpt>
      <trkpt lat="43.65232" lon="1.38143">
        <ele>147</ele>
        <time>2025-05-13T16:10:18Z</time>
      </trkpt>
      <trkpt lat="43.6523" lon="1.38144">
        <ele>147</ele>
        <time>2025-05-13T16:10:19Z</time>
      </trkpt>
      <trkpt lat="43.65228" lon="1.38146">
        <ele>147</ele>
        <time>2025-05-13T16:10:20Z</time>
      </trkpt>
      <trkpt lat="43.65225" lon="1.38147">
        <ele>146</ele>
        <time>2025-05-13T16:10:21Z</time>
      </trkpt>
      <trkpt lat="43.65223" lon="1.38149">
        <ele>146</ele>
        <time>2025-05-13T16:10:22Z</time>
      </trkpt>
      <trkpt lat="43.6522" lon="1.38151">
        <ele>147</ele>
        <time>2025-05-13T16:10:23Z</time>
      </trkpt>
      <trkpt lat="43.65218" lon="1.38153">
        <ele>147</ele>
        <time>2025-05-13T16:10:24Z</time>
      </trkpt>
      <trkpt lat="43.65215" lon="1.38154">
        <ele>147</ele>
        <time>2025-05-13T16:10:25Z</time>
      </trkpt>
      <trkpt lat="43.65213" lon="1.38156">
        <ele>147</ele>
        <time>2025-05-13T16:10:26Z</time>
      </trkpt>
      <trkpt lat="43.6521" lon="1.38157">
        <ele>146</ele>
        <time>2025-05-13T16:10:27Z</time>
      </trkpt>
      <trkpt lat="43.65208" lon="1.38159">
        <ele>146</ele>
        <time>2025-05-13T16:10:28Z</time>
      </trkpt>
      <trkpt lat="43.65206" lon="1.38161">
        <ele>146</ele>
        <time>2025-05-13T16:10:29Z</time>
      </trkpt>
      <trkpt lat="43.65203" lon="1.38164">
        <ele>146</ele>
        <time>2025-05-13T16:10:30Z</time>
      </trkpt>
      <trkpt lat="43.65201" lon="1.38166">
        <ele>146</ele>
        <time>2025-05-13T16:10:31Z</time>
      </trkpt>
      <trkpt lat="43.65199" lon="1.38168">
        <ele>146</ele>
        <time>2025-05-13T16:10:32Z</time>
      </trkpt>
      <trkpt lat="43.65197" lon="1.3817">
        <ele>146</ele>
        <time>2025-05-13T16:10:33Z</time>
      </trkpt>
      <trkpt lat="43.65195" lon="1.38173">
        <ele>146</ele>
        <time>2025-05-13T16:10:34Z</time>
      </trkpt>
      <trkpt lat="43.65192" lon="1.38176">
        <ele>146</ele>
        <time>2025-05-13T16:10:35Z</time>
      </trkpt>
      <trkpt lat="43.65191" lon="1.38177">
        <ele>146</ele>
        <time>2025-05-13T16:10:36Z</time>
      </trkpt>
      <trkpt lat="43.65188" lon="1.3818">
        <ele>146</ele>
        <time>2025-05-13T16:10:37Z</time>
      </trkpt>
      <trkpt lat="43.65186" lon="1.38182">
        <ele>146</ele>
        <time>2025-05-13T16:10:38Z</time>
      </trkpt>
      <trkpt lat="43.65184" lon="1.38184">
        <ele>146</ele>
        <time>2025-05-13T16:10:39Z</time>
      </trkpt>
      <trkpt lat="43.65182" lon="1.38186">
        <ele>146</ele>
        <time>2025-05-13T16:10:40Z</time>
      </trkpt>
      <trkpt lat="43.6518" lon="1.38188">
        <ele>146</ele>
        <time>2025-05-13T16:10:41Z</time>
      </trkpt>
      <trkpt lat="43.65178" lon="1.3819">
        <ele>146</ele>
        <time>2025-05-13T16:10:42Z</time>
      </trkpt>
      <trkpt lat="43.65176" lon="1.38192">
        <ele>146</ele>
        <time>2025-05-13T16:10:43Z</time>
      </trkpt>
      <trkpt lat="43.65173" lon="1.38196">
        <ele>146</ele>
        <time>2025-05-13T16:10:44Z</time>
      </trkpt>
      <trkpt lat="43.65172" lon="1.38198">
        <ele>146</ele>
        <time>2025-05-13T16:10:45Z</time>
      </trkpt>
      <trkpt lat="43.6517" lon="1.38201">
        <ele>146</ele>
        <time>2025-05-13T16:10:46Z</time>
      </trkpt>
      <trkpt lat="43.65169" lon="1.38204">
        <ele>146</ele>
        <time>2025-05-13T16:10:47Z</time>
      </trkpt>
      <trkpt lat="43.65168" lon="1.38208">
        <ele>145</ele>
        <time>2025-05-13T16:10:48Z</time>
      </trkpt>
      <trkpt lat="43.65167" lon="1.38213">
        <ele>145</ele>
        <time>2025-05-13T16:10:49Z</time>
      </trkpt>
      <trkpt lat="43.65167" lon="1.38215">
        <ele>145</ele>
        <time>2025-05-13T16:10:50Z</time>
      </trkpt>
      <trkpt lat="43.65166" lon="1.38219">
        <ele>145</ele>
        <time>2025-05-13T16:10:51Z</time>
      </trkpt>
      <trkpt lat="43.65166" lon="1.38223">
        <ele>145</ele>
        <time>2025-05-13T16:10:52Z</time>
      </trkpt>
      <trkpt lat="43.65166" lon="1.38227">
        <ele>145</ele>
        <time>2025-05-13T16:10:53Z</time>
      </trkpt>
      <trkpt lat="43.65166" lon="1.3823">
        <ele>145</ele>
        <time>2025-05-13T16:10:54Z</time>
      </trkpt>
      <trkpt lat="43.65167" lon="1.38234">
        <ele>145</ele>
        <time>2025-05-13T16:10:55Z</time>
      </trkpt>
      <trkpt lat="43.65167" lon="1.38238">
        <ele>145</ele>
        <time>2025-05-13T16:10:56Z</time>
      </trkpt>
      <trkpt lat="43.65168" lon="1.38242">
        <ele>145</ele>
        <time>2025-05-13T16:10:57Z</time>
      </trkpt>
      <trkpt lat="43.65169" lon="1.38247">
        <ele>145</ele>
        <time>2025-05-13T16:10:58Z</time>
      </trkpt>
      <trkpt lat="43.65169" lon="1.38249">
        <ele>145</ele>
        <time>2025-05-13T16:10:59Z</time>
      </trkpt>
      <trkpt lat="43.6517" lon="1.38253">
        <ele>145</ele>
        <time>2025-05-13T16:11:00Z</time>
      </trkpt>
      <trkpt lat="43.65171" lon="1.38256">
        <ele>145</ele>
        <time>2025-05-13T16:11:01Z</time>
      </trkpt>
      <trkpt lat="43.65172" lon="1.3826">
        <ele>145</ele>
        <time>2025-05-13T16:11:02Z</time>
      </trkpt>
      <trkpt lat="43.65174" lon="1.38265">
        <ele>145</ele>
        <time>2025-05-13T16:11:03Z</time>
      </trkpt>
      <trkpt lat="43.65174" lon="1.38267">
        <ele>145</ele>
        <time>2025-05-13T16:11:04Z</time>
      </trkpt>
      <trkpt lat="43.65175" lon="1.3827">
        <ele>145</ele>
        <time>2025-05-13T16:11:05Z</time>
      </trkpt>
      <trkpt lat="43.65176" lon="1.38274">
        <ele>145</ele>
        <time>2025-05-13T16:11:06Z</time>
      </trkpt>
      <trkpt lat="43.65177" lon="1.38277">
        <ele>145</ele>
        <time>2025-05-13T16:11:07Z</time>
      </trkpt>
      <trkpt lat="43.65178" lon="1.3828">
        <ele>145</ele>
        <time>2025-05-13T16:11:08Z</time>
      </trkpt>
      <trkpt lat="43.65179" lon="1.38286">
        <ele>145</ele>
        <time>2025-05-13T16:11:09Z</time>
      </trkpt>
      <trkpt lat="43.65179" lon="1.38287">
        <ele>145</ele>
        <time>2025-05-13T16:11:10Z</time>
      </trkpt>
      <trkpt lat="43.6518" lon="1.38291">
        <ele>145</ele>
        <time>2025-05-13T16:11:11Z</time>
      </trkpt>
      <trkpt lat="43.65181" lon="1.38294">
        <ele>145</ele>
        <time>2025-05-13T16:11:12Z</time>
      </trkpt>
      <trkpt lat="43.65182" lon="1.38298">
        <ele>145</ele>
        <time>2025-05-13T16:11:13Z</time>
      </trkpt>
      <trkpt lat="43.65182" lon="1.38302">
        <ele>145</ele>
        <time>2025-05-13T16:11:14Z</time>
      </trkpt>
      <trkpt lat="43.65183" lon="1.38305">
        <ele>145</ele>
        <time>2025-05-13T16:11:15Z</time>
      </trkpt>
      <trkpt lat="43.65183" lon="1.38309">
        <ele>145</ele>
        <time>2025-05-13T16:11:16Z</time>
      </trkpt>
      <trkpt lat="43.65184" lon="1.38314">
        <ele>145</ele>
        <time>2025-05-13T16:11:17Z</time>
      </trkpt>
      <trkpt lat="43.65184" lon="1.38316">
        <ele>145</ele>
        <time>2025-05-13T16:11:18Z</time>
      </trkpt>
      <trkpt lat="43.65185" lon="1.38322">
        <ele>145</ele>
        <time>2025-05-13T16:11:19Z</time>
      </trkpt>
      <trkpt lat="43.65185" lon="1.38324">
        <ele>145</ele>
        <time>2025-05-13T16:11:20Z</time>
      </trkpt>
      <trkpt lat="43.65186" lon="1.38327">
        <ele>145</ele>
        <time>2025-05-13T16:11:21Z</time>
      </trkpt>
      <trkpt lat="43.65186" lon="1.38331">
        <ele>145</ele>
        <time>2025-05-13T16:11:22Z</time>
      </trkpt>
      <trkpt lat="43.65187" lon="1.38335">
        <ele>145</ele>
        <time>2025-05-13T16:11:23Z</time>
      </trkpt>
      <trkpt lat="43.65187" lon="1.38339">
        <ele>145</ele>
        <time>2025-05-13T16:11:24Z</time>
      </trkpt>
      <trkpt lat="43.65188" lon="1.38342">
        <ele>145</ele>
        <time>2025-05-13T16:11:25Z</time>
      </trkpt>
      <trkpt lat="43.65188" lon="1.38346">
        <ele>145</ele>
        <time>2025-05-13T16:11:26Z</time>
      </trkpt>
      <trkpt lat="43.65188" lon="1.3835">
        <ele>145</ele>
        <time>2025-05-13T16:11:27Z</time>
      </trkpt>
      <trkpt lat="43.65189" lon="1.38354">
        <ele>145</ele>
        <time>2025-05-13T16:11:28Z</time>
      </trkpt>
      <trkpt lat="43.65189" lon="1.38358">
        <ele>145</ele>
        <time>2025-05-13T16:11:29Z</time>
      </trkpt>
      <trkpt lat="43.65189" lon="1.38362">
        <ele>145</ele>
        <time>2025-05-13T16:11:30Z</time>
      </trkpt>
      <trkpt lat="43.6519" lon="1.38368">
        <ele>145</ele>
        <time>2025-05-13T16:11:31Z</time>
      </trkpt>
      <trkpt lat="43.6519" lon="1.3837">
        <ele>146</ele>
        <time>2025-05-13T16:11:32Z</time>
      </trkpt>
      <trkpt lat="43.6519" lon="1.38374">
        <ele>146</ele>
        <time>2025-05-13T16:11:33Z</time>
      </trkpt>
      <trkpt lat="43.6519" lon="1.38377">
        <ele>146</ele>
        <time>2025-05-13T16:11:34Z</time>
      </trkpt>
      <trkpt lat="43.65191" lon="1.38381">
        <ele>146</ele>
        <time>2025-05-13T16:11:35Z</time>
      </trkpt>
      <trkpt lat="43.65192" lon="1.38386">
        <ele>146</ele>
        <time>2025-05-13T16:11:36Z</time>
      </trkpt>
      <trkpt lat="43.65194" lon="1.38391">
        <ele>146</ele>
        <time>2025-05-13T16:11:37Z</time>
      </trkpt>
      <trkpt lat="43.65195" lon="1.38393">
        <ele>146</ele>
        <time>2025-05-13T16:11:38Z</time>
      </trkpt>
      <trkpt lat="43.65196" lon="1.38397">
        <ele>145</ele>
        <time>2025-05-13T16:11:39Z</time>
      </trkpt>
      <trkpt lat="43.65198" lon="1.384">
        <ele>145</ele>
        <time>2025-05-13T16:11:40Z</time>
      </trkpt>
      <trkpt lat="43.652" lon="1.38403">
        <ele>145</ele>
        <time>2025-05-13T16:11:41Z</time>
      </trkpt>
      <trkpt lat="43.65202" lon="1.38406">
        <ele>145</ele>
        <time>2025-05-13T16:11:42Z</time>
      </trkpt>
      <trkpt lat="43.65205" lon="1.3841">
        <ele>145</ele>
        <time>2025-05-13T16:11:43Z</time>
      </trkpt>
      <trkpt lat="43.65206" lon="1.38412">
        <ele>145</ele>
        <time>2025-05-13T16:11:44Z</time>
      </trkpt>
      <trkpt lat="43.65209" lon="1.38416">
        <ele>145</ele>
        <time>2025-05-13T16:11:45Z</time>
      </trkpt>
      <trkpt lat="43.6521" lon="1.38418">
        <ele>144</ele>
        <time>2025-05-13T16:11:46Z</time>
      </trkpt>
      <trkpt lat="43.65212" lon="1.38421">
        <ele>144</ele>
        <time>2025-05-13T16:11:47Z</time>
      </trkpt>
      <trkpt lat="43.65213" lon="1.38425">
        <ele>144</ele>
        <time>2025-05-13T16:11:48Z</time>
      </trkpt>
      <trkpt lat="43.65214" lon="1.38428">
        <ele>144</ele>
        <time>2025-05-13T16:11:49Z</time>
      </trkpt>
      <trkpt lat="43.65216" lon="1.38433">
        <ele>143</ele>
        <time>2025-05-13T16:11:50Z</time>
      </trkpt>
      <trkpt lat="43.65217" lon="1.38434">
        <ele>143</ele>
        <time>2025-05-13T16:11:51Z</time>
      </trkpt>
      <trkpt lat="43.65218" lon="1.38438">
        <ele>143</ele>
        <time>2025-05-13T16:11:52Z</time>
      </trkpt>
      <trkpt lat="43.65219" lon="1.38441">
        <ele>143</ele>
        <time>2025-05-13T16:11:53Z</time>
      </trkpt>
      <trkpt lat="43.6522" lon="1.38444">
        <ele>143</ele>
        <time>2025-05-13T16:11:54Z</time>
      </trkpt>
      <trkpt lat="43.65221" lon="1.38447">
        <ele>143</ele>
        <time>2025-05-13T16:11:55Z</time>
      </trkpt>
      <trkpt lat="43.65222" lon="1.3845">
        <ele>143</ele>
        <time>2025-05-13T16:11:56Z</time>
      </trkpt>
      <trkpt lat="43.65223" lon="1.38453">
        <ele>143</ele>
        <time>2025-05-13T16:11:57Z</time>
      </trkpt>
      <trkpt lat="43.65224" lon="1.38455">
        <ele>143</ele>
        <time>2025-05-13T16:11:58Z</time>
      </trkpt>
      <trkpt lat="43.65226" lon="1.38458">
        <ele>143</ele>
        <time>2025-05-13T16:11:59Z</time>
      </trkpt>
      <trkpt lat="43.65226" lon="1.3846">
        <ele>143</ele>
        <time>2025-05-13T16:12:00Z</time>
      </trkpt>
      <trkpt lat="43.65227" lon="1.38463">
        <ele>143</ele>
        <time>2025-05-13T16:12:01Z</time>
      </trkpt>
      <trkpt lat="43.65228" lon="1.38465">
        <ele>143</ele>
        <time>2025-05-13T16:12:02Z</time>
      </trkpt>
      <trkpt lat="43.65228" lon="1.38468">
        <ele>143</ele>
        <time>2025-05-13T16:12:03Z</time>
      </trkpt>
      <trkpt lat="43.65229" lon="1.38471">
        <ele>143</ele>
        <time>2025-05-13T16:12:04Z</time>
      </trkpt>
      <trkpt lat="43.65229" lon="1.38474">
        <ele>143</ele>
        <time>2025-05-13T16:12:05Z</time>
      </trkpt>
      <trkpt lat="43.65231" lon="1.38477">
        <ele>143</ele>
        <time>2025-05-13T16:12:06Z</time>
      </trkpt>
      <trkpt lat="43.65231" lon="1.3848">
        <ele>143</ele>
        <time>2025-05-13T16:12:07Z</time>
      </trkpt>
      <trkpt lat="43.65232" lon="1.38483">
        <ele>143</ele>
        <time>2025-05-13T16:12:08Z</time>
      </trkpt>
      <trkpt lat="43.65233" lon="1.38488">
        <ele>143</ele>
        <time>2025-05-13T16:12:09Z</time>
      </trkpt>
      <trkpt lat="43.65233" lon="1.3849">
        <ele>143</ele>
        <time>2025-05-13T16:12:10Z</time>
      </trkpt>
      <trkpt lat="43.65235" lon="1.38493">
        <ele>143</ele>
        <time>2025-05-13T16:12:11Z</time>
      </trkpt>
      <trkpt lat="43.65235" lon="1.38497">
        <ele>143</ele>
        <time>2025-05-13T16:12:12Z</time>
      </trkpt>
      <trkpt lat="43.65236" lon="1.385">
        <ele>143</ele>
        <time>2025-05-13T16:12:13Z</time>
      </trkpt>
      <trkpt lat="43.65237" lon="1.38506">
        <ele>142</ele>
        <time>2025-05-13T16:12:14Z</time>
      </trkpt>
      <trkpt lat="43.65237" lon="1.38507">
        <ele>142</ele>
        <time>2025-05-13T16:12:15Z</time>
      </trkpt>
      <trkpt lat="43.65238" lon="1.38511">
        <ele>142</ele>
        <time>2025-05-13T16:12:16Z</time>
      </trkpt>
      <trkpt lat="43.65239" lon="1.38514">
        <ele>142</ele>
        <time>2025-05-13T16:12:17Z</time>
      </trkpt>
      <trkpt lat="43.6524" lon="1.38518">
        <ele>142</ele>
        <time>2025-05-13T16:12:18Z</time>
      </trkpt>
      <trkpt lat="43.65241" lon="1.38521">
        <ele>142</ele>
        <time>2025-05-13T16:12:19Z</time>
      </trkpt>
      <trkpt lat="43.65242" lon="1.38525">
        <ele>142</ele>
        <time>2025-05-13T16:12:20Z</time>
      </trkpt>
      <trkpt lat="43.65244" lon="1.38529">
        <ele>142</ele>
        <time>2025-05-13T16:12:21Z</time>
      </trkpt>
      <trkpt lat="43.65246" lon="1.38532">
        <ele>142</ele>
        <time>2025-05-13T16:12:22Z</time>
      </trkpt>
      <trkpt lat="43.65249" lon="1.38538">
        <ele>142</ele>
        <time>2025-05-13T16:12:23Z</time>
      </trkpt>
      <trkpt lat="43.6525" lon="1.3854">
        <ele>142</ele>
        <time>2025-05-13T16:12:24Z</time>
      </trkpt>
      <trkpt lat="43.65251" lon="1.38544">
        <ele>142</ele>
        <time>2025-05-13T16:12:25Z</time>
      </trkpt>
      <trkpt lat="43.65252" lon="1.38548">
        <ele>142</ele>
        <time>2025-05-13T16:12:26Z</time>
      </trkpt>
      <trkpt lat="43.65253" lon="1.38551">
        <ele>142</ele>
        <time>2025-05-13T16:12:27Z</time>
      </trkpt>
      <trkpt lat="43.65254" lon="1.38555">
        <ele>142</ele>
        <time>2025-05-13T16:12:28Z</time>
      </trkpt>
      <trkpt lat="43.65255" lon="1.38558">
        <ele>142</ele>
        <time>2025-05-13T16:12:29Z</time>
      </trkpt>
      <trkpt lat="43.65256" lon="1.38562">
        <ele>142</ele>
        <time>2025-05-13T16:12:30Z</time>
      </trkpt>
      <trkpt lat="43.65257" lon="1.38567">
        <ele>142</ele>
        <time>2025-05-13T16:12:31Z</time>
      </trkpt>
      <trkpt lat="43.65258" lon="1.38568">
        <ele>142</ele>
        <time>2025-05-13T16:12:32Z</time>
      </trkpt>
      <trkpt lat="43.6526" lon="1.38573">
        <ele>142</ele>
        <time>2025-05-13T16:12:33Z</time>
      </trkpt>
      <trkpt lat="43.6526" lon="1.38575">
        <ele>142</ele>
        <time>2025-05-13T16:12:34Z</time>
      </trkpt>
      <trkpt lat="43.65261" lon="1.38578">
        <ele>142</ele>
        <time>2025-05-13T16:12:35Z</time>
      </trkpt>
      <trkpt lat="43.65263" lon="1.38582">
        <ele>142</ele>
        <time>2025-05-13T16:12:36Z</time>
      </trkpt>
      <trkpt lat="43.65264" lon="1.38587">
        <ele>142</ele>
        <time>2025-05-13T16:12:37Z</time>
      </trkpt>
      <trkpt lat="43.65267" lon="1.38591">
        <ele>142</ele>
        <time>2025-05-13T16:12:38Z</time>
      </trkpt>
      <trkpt lat="43.65268" lon="1.38593">
        <ele>142</ele>
        <time>2025-05-13T16:12:39Z</time>
      </trkpt>
      <trkpt lat="43.65269" lon="1.38596">
        <ele>142</ele>
        <time>2025-05-13T16:12:40Z</time>
      </trkpt>
      <trkpt lat="43.65272" lon="1.38599">
        <ele>142</ele>
        <time>2025-05-13T16:12:41Z</time>
      </trkpt>
      <trkpt lat="43.65274" lon="1.38603">
        <ele>143</ele>
        <time>2025-05-13T16:12:42Z</time>
      </trkpt>
      <trkpt lat="43.65274" lon="1.38605">
        <ele>143</ele>
        <time>2025-05-13T16:12:43Z</time>
      </trkpt>
      <trkpt lat="43.65276" lon="1.38607">
        <ele>143</ele>
        <time>2025-05-13T16:12:44Z</time>
      </trkpt>
      <trkpt lat="43.65277" lon="1.38609">
        <ele>142</ele>
        <time>2025-05-13T16:12:45Z</time>
      </trkpt>
      <trkpt lat="43.65278" lon="1.38612">
        <ele>142</ele>
        <time>2025-05-13T16:12:46Z</time>
      </trkpt>
      <trkpt lat="43.6528" lon="1.38615">
        <ele>142</ele>
        <time>2025-05-13T16:12:47Z</time>
      </trkpt>
      <trkpt lat="43.65283" lon="1.38619">
        <ele>143</ele>
        <time>2025-05-13T16:12:48Z</time>
      </trkpt>
      <trkpt lat="43.65286" lon="1.38623">
        <ele>143</ele>
        <time>2025-05-13T16:12:49Z</time>
      </trkpt>
      <trkpt lat="43.65288" lon="1.38626">
        <ele>143</ele>
        <time>2025-05-13T16:12:50Z</time>
      </trkpt>
      <trkpt lat="43.6529" lon="1.3863">
        <ele>143</ele>
        <time>2025-05-13T16:12:51Z</time>
      </trkpt>
      <trkpt lat="43.65292" lon="1.38633">
        <ele>143</ele>
        <time>2025-05-13T16:12:52Z</time>
      </trkpt>
      <trkpt lat="43.65293" lon="1.38636">
        <ele>143</ele>
        <time>2025-05-13T16:12:53Z</time>
      </trkpt>
      <trkpt lat="43.65296" lon="1.38642">
        <ele>142</ele>
        <time>2025-05-13T16:12:54Z</time>
      </trkpt>
      <trkpt lat="43.65296" lon="1.38643">
        <ele>143</ele>
        <time>2025-05-13T16:12:55Z</time>
      </trkpt>
      <trkpt lat="43.65298" lon="1.38647">
        <ele>143</ele>
        <time>2025-05-13T16:12:56Z</time>
      </trkpt>
      <trkpt lat="43.65299" lon="1.38652">
        <ele>143</ele>
        <time>2025-05-13T16:12:57Z</time>
      </trkpt>
      <trkpt lat="43.653" lon="1.38655">
        <ele>143</ele>
        <time>2025-05-13T16:12:58Z</time>
      </trkpt>
      <trkpt lat="43.65302" lon="1.3866">
        <ele>143</ele>
        <time>2025-05-13T16:12:59Z</time>
      </trkpt>
      <trkpt lat="43.65302" lon="1.38661">
        <ele>143</ele>
        <time>2025-05-13T16:13:00Z</time>
      </trkpt>
      <trkpt lat="43.65303" lon="1.38666">
        <ele>143</ele>
        <time>2025-05-13T16:13:01Z</time>
      </trkpt>
      <trkpt lat="43.65304" lon="1.38667">
        <ele>142</ele>
        <time>2025-05-13T16:13:02Z</time>
      </trkpt>
      <trkpt lat="43.65304" lon="1.3867">
        <ele>142</ele>
        <time>2025-05-13T16:13:03Z</time>
      </trkpt>
      <trkpt lat="43.65305" lon="1.38672">
        <ele>142</ele>
        <time>2025-05-13T16:13:04Z</time>
      </trkpt>
      <trkpt lat="43.65305" lon="1.38675">
        <ele>141</ele>
        <time>2025-05-13T16:13:05Z</time>
      </trkpt>
      <trkpt lat="43.65306" lon="1.38678">
        <ele>141</ele>
        <time>2025-05-13T16:13:06Z</time>
      </trkpt>
      <trkpt lat="43.65307" lon="1.38682">
        <ele>141</ele>
        <time>2025-05-13T16:13:07Z</time>
      </trkpt>
      <trkpt lat="43.65308" lon="1.38685">
        <ele>141</ele>
        <time>2025-05-13T16:13:08Z</time>
      </trkpt>
      <trkpt lat="43.65309" lon="1.38689">
        <ele>141</ele>
        <time>2025-05-13T16:13:09Z</time>
      </trkpt>
      <trkpt lat="43.65309" lon="1.38692">
        <ele>141</ele>
        <time>2025-05-13T16:13:10Z</time>
      </trkpt>
      <trkpt lat="43.6531" lon="1.38695">
        <ele>141</ele>
        <time>2025-05-13T16:13:11Z</time>
      </trkpt>
      <trkpt lat="43.65311" lon="1.38699">
        <ele>141</ele>
        <time>2025-05-13T16:13:12Z</time>
      </trkpt>
      <trkpt lat="43.65313" lon="1.38703">
        <ele>141</ele>
        <time>2025-05-13T16:13:13Z</time>
      </trkpt>
      <trkpt lat="43.65314" lon="1.38706">
        <ele>141</ele>
        <time>2025-05-13T16:13:14Z</time>
      </trkpt>
      <trkpt lat="43.65315" lon="1.38709">
        <ele>141</ele>
        <time>2025-05-13T16:13:15Z</time>
      </trkpt>
      <trkpt lat="43.65315" lon="1.38713">
        <ele>142</ele>
        <time>2025-05-13T16:13:16Z</time>
      </trkpt>
      <trkpt lat="43.65316" lon="1.38716">
        <ele>142</ele>
        <time>2025-05-13T16:13:17Z</time>
      </trkpt>
      <trkpt lat="43.65317" lon="1.3872">
        <ele>142</ele>
        <time>2025-05-13T16:13:18Z</time>
      </trkpt>
      <trkpt lat="43.65318" lon="1.38724">
        <ele>142</ele>
        <time>2025-05-13T16:13:19Z</time>
      </trkpt>
      <trkpt lat="43.65319" lon="1.38728">
        <ele>142</ele>
        <time>2025-05-13T16:13:20Z</time>
      </trkpt>
      <trkpt lat="43.6532" lon="1.38733">
        <ele>142</ele>
        <time>2025-05-13T16:13:21Z</time>
      </trkpt>
      <trkpt lat="43.6532" lon="1.38735">
        <ele>142</ele>
        <time>2025-05-13T16:13:22Z</time>
      </trkpt>
      <trkpt lat="43.65321" lon="1.38738">
        <ele>142</ele>
        <time>2025-05-13T16:13:23Z</time>
      </trkpt>
      <trkpt lat="43.65322" lon="1.38742">
        <ele>142</ele>
        <time>2025-05-13T16:13:24Z</time>
      </trkpt>
      <trkpt lat="43.65323" lon="1.38746">
        <ele>142</ele>
        <time>2025-05-13T16:13:25Z</time>
      </trkpt>
      <trkpt lat="43.65324" lon="1.3875">
        <ele>142</ele>
        <time>2025-05-13T16:13:26Z</time>
      </trkpt>
      <trkpt lat="43.65324" lon="1.38753">
        <ele>143</ele>
        <time>2025-05-13T16:13:27Z</time>
      </trkpt>
      <trkpt lat="43.65325" lon="1.38757">
        <ele>143</ele>
        <time>2025-05-13T16:13:28Z</time>
      </trkpt>
      <trkpt lat="43.65325" lon="1.38761">
        <ele>143</ele>
        <time>2025-05-13T16:13:29Z</time>
      </trkpt>
      <trkpt lat="43.65326" lon="1.38765">
        <ele>143</ele>
        <time>2025-05-13T16:13:30Z</time>
      </trkpt>
      <trkpt lat="43.65327" lon="1.38768">
        <ele>143</ele>
        <time>2025-05-13T16:13:31Z</time>
      </trkpt>
      <trkpt lat="43.65328" lon="1.38771">
        <ele>143</ele>
        <time>2025-05-13T16:13:32Z</time>
      </trkpt>
      <trkpt lat="43.65329" lon="1.38774">
        <ele>144</ele>
        <time>2025-05-13T16:13:33Z</time>
      </trkpt>
      <trkpt lat="43.6533" lon="1.38777">
        <ele>144</ele>
        <time>2025-05-13T16:13:34Z</time>
      </trkpt>
      <trkpt lat="43.65332" lon="1.38782">
        <ele>144</ele>
        <time>2025-05-13T16:13:35Z</time>
      </trkpt>
      <trkpt lat="43.65333" lon="1.38784">
        <ele>144</ele>
        <time>2025-05-13T16:13:36Z</time>
      </trkpt>
      <trkpt lat="43.65335" lon="1.38789">
        <ele>144</ele>
        <time>2025-05-13T16:13:37Z</time>
      </trkpt>
      <trkpt lat="43.65335" lon="1.38791">
        <ele>144</ele>
        <time>2025-05-13T16:13:38Z</time>
      </trkpt>
      <trkpt lat="43.65338" lon="1.38797">
        <ele>144</ele>
        <time>2025-05-13T16:13:39Z</time>
      </trkpt>
      <trkpt lat="43.65339" lon="1.38798">
        <ele>143</ele>
        <time>2025-05-13T16:13:40Z</time>
      </trkpt>
      <trkpt lat="43.6534" lon="1.38802">
        <ele>143</ele>
        <time>2025-05-13T16:13:41Z</time>
      </trkpt>
      <trkpt lat="43.65343" lon="1.38807">
        <ele>143</ele>
        <time>2025-05-13T16:13:42Z</time>
      </trkpt>
      <trkpt lat="43.65345" lon="1.38809">
        <ele>143</ele>
        <time>2025-05-13T16:13:43Z</time>
      </trkpt>
      <trkpt lat="43.65347" lon="1.38812">
        <ele>144</ele>
        <time>2025-05-13T16:13:44Z</time>
      </trkpt>
      <trkpt lat="43.65349" lon="1.38815">
        <ele>144</ele>
        <time>2025-05-13T16:13:45Z</time>
      </trkpt>
      <trkpt lat="43.65351" lon="1.38818">
        <ele>144</ele>
        <time>2025-05-13T16:13:46Z</time>
      </trkpt>
      <trkpt lat="43.65353" lon="1.38821">
        <ele>144</ele>
        <time>2025-05-13T16:13:47Z</time>
      </trkpt>
      <trkpt lat="43.65354" lon="1.38824">
        <ele>144</ele>
        <time>2025-05-13T16:13:48Z</time>
      </trkpt>
      <trkpt lat="43.65357" lon="1.38829">
        <ele>143</ele>
        <time>2025-05-13T16:13:49Z</time>
      </trkpt>
      <trkpt lat="43.65357" lon="1.3883">
        <ele>143</ele>
        <time>2025-05-13T16:13:50Z</time>
      </trkpt>
      <trkpt lat="43.6536" lon="1.38833">
        <ele>143</ele>
        <time>2025-05-13T16:13:51Z</time>
      </trkpt>
      <trkpt lat="43.65361" lon="1.38834">
        <ele>143</ele>
        <time>2025-05-13T16:13:52Z</time>
      </trkpt>
      <trkpt lat="43.65363" lon="1.38836">
        <ele>143</ele>
        <time>2025-05-13T16:13:53Z</time>
      </trkpt>
      <trkpt lat="43.65366" lon="1.38838">
        <ele>142</ele>
        <time>2025-05-13T16:13:54Z</time>
      </trkpt>
      <trkpt lat="43.65368" lon="1.3884">
        <ele>142</ele>
        <time>2025-05-13T16:13:55Z</time>
      </trkpt>
      <trkpt lat="43.65372" lon="1.38843">
        <ele>142</ele>
        <time>2025-05-13T16:13:56Z</time>
      </trkpt>
      <trkpt lat="43.65373" lon="1.38843">
        <ele>142</ele>
        <time>2025-05-13T16:13:57Z</time>
      </trkpt>
      <trkpt lat="43.65376" lon="1.38845">
        <ele>142</ele>
        <time>2025-05-13T16:13:58Z</time>
      </trkpt>
      <trkpt lat="43.65378" lon="1.38845">
        <ele>142</ele>
        <time>2025-05-13T16:13:59Z</time>
      </trkpt>
      <trkpt lat="43.65381" lon="1.38846">
        <ele>142</ele>
        <time>2025-05-13T16:14:00Z</time>
      </trkpt>
      <trkpt lat="43.65384" lon="1.38847">
        <ele>142</ele>
        <time>2025-05-13T16:14:01Z</time>
      </trkpt>
      <trkpt lat="43.65387" lon="1.38847">
        <ele>142</ele>
        <time>2025-05-13T16:14:02Z</time>
      </trkpt>
      <trkpt lat="43.65389" lon="1.38846">
        <ele>142</ele>
        <time>2025-05-13T16:14:03Z</time>
      </trkpt>
      <trkpt lat="43.65392" lon="1.38846">
        <ele>142</ele>
        <time>2025-05-13T16:14:04Z</time>
      </trkpt>
      <trkpt lat="43.65393" lon="1.38845">
        <ele>142</ele>
        <time>2025-05-13T16:14:05Z</time>
      </trkpt>
      <trkpt lat="43.65395" lon="1.38845">
        <ele>142</ele>
        <time>2025-05-13T16:14:06Z</time>
      </trkpt>
      <trkpt lat="43.65398" lon="1.38845">
        <ele>142</ele>
        <time>2025-05-13T16:14:07Z</time>
      </trkpt>
      <trkpt lat="43.654" lon="1.38846">
        <ele>142</ele>
        <time>2025-05-13T16:14:08Z</time>
      </trkpt>
      <trkpt lat="43.65403" lon="1.38848">
        <ele>142</ele>
        <time>2025-05-13T16:14:09Z</time>
      </trkpt>
      <trkpt lat="43.65405" lon="1.38851">
        <ele>141</ele>
        <time>2025-05-13T16:14:10Z</time>
      </trkpt>
      <trkpt lat="43.65407" lon="1.38854">
        <ele>141</ele>
        <time>2025-05-13T16:14:11Z</time>
      </trkpt>
      <trkpt lat="43.65408" lon="1.38858">
        <ele>141</ele>
        <time>2025-05-13T16:14:12Z</time>
      </trkpt>
      <trkpt lat="43.65409" lon="1.38862">
        <ele>141</ele>
        <time>2025-05-13T16:14:13Z</time>
      </trkpt>
      <trkpt lat="43.6541" lon="1.38866">
        <ele>140</ele>
        <time>2025-05-13T16:14:14Z</time>
      </trkpt>
      <trkpt lat="43.65412" lon="1.38873">
        <ele>140</ele>
        <time>2025-05-13T16:14:15Z</time>
      </trkpt>
      <trkpt lat="43.65412" lon="1.38875">
        <ele>140</ele>
        <time>2025-05-13T16:14:16Z</time>
      </trkpt>
      <trkpt lat="43.65413" lon="1.38879">
        <ele>140</ele>
        <time>2025-05-13T16:14:17Z</time>
      </trkpt>
      <trkpt lat="43.65414" lon="1.38883">
        <ele>139</ele>
        <time>2025-05-13T16:14:18Z</time>
      </trkpt>
      <trkpt lat="43.65416" lon="1.38886">
        <ele>139</ele>
        <time>2025-05-13T16:14:19Z</time>
      </trkpt>
      <trkpt lat="43.65418" lon="1.38889">
        <ele>139</ele>
        <time>2025-05-13T16:14:20Z</time>
      </trkpt>
      <trkpt lat="43.65421" lon="1.38893">
        <ele>139</ele>
        <time>2025-05-13T16:14:21Z</time>
      </trkpt>
      <trkpt lat="43.65425" lon="1.38897">
        <ele>139</ele>
        <time>2025-05-13T16:14:22Z</time>
      </trkpt>
      <trkpt lat="43.65426" lon="1.38898">
        <ele>139</ele>
        <time>2025-05-13T16:14:23Z</time>
      </trkpt>
      <trkpt lat="43.65428" lon="1.38901">
        <ele>139</ele>
        <time>2025-05-13T16:14:24Z</time>
      </trkpt>
      <trkpt lat="43.65431" lon="1.38904">
        <ele>138</ele>
        <time>2025-05-13T16:14:25Z</time>
      </trkpt>
      <trkpt lat="43.65433" lon="1.38907">
        <ele>138</ele>
        <time>2025-05-13T16:14:26Z</time>
      </trkpt>
      <trkpt lat="43.65435" lon="1.38911">
        <ele>138</ele>
        <time>2025-05-13T16:14:27Z</time>
      </trkpt>
      <trkpt lat="43.65437" lon="1.38914">
        <ele>137</ele>
        <time>2025-05-13T16:14:28Z</time>
      </trkpt>
      <trkpt lat="43.65439" lon="1.38917">
        <ele>137</ele>
        <time>2025-05-13T16:14:29Z</time>
      </trkpt>
      <trkpt lat="43.65441" lon="1.3892">
        <ele>137</ele>
        <time>2025-05-13T16:14:30Z</time>
      </trkpt>
      <trkpt lat="43.65442" lon="1.38923">
        <ele>136</ele>
        <time>2025-05-13T16:14:31Z</time>
      </trkpt>
      <trkpt lat="43.65444" lon="1.38926">
        <ele>136</ele>
        <time>2025-05-13T16:14:32Z</time>
      </trkpt>
      <trkpt lat="43.65446" lon="1.38929">
        <ele>135</ele>
        <time>2025-05-13T16:14:33Z</time>
      </trkpt>
      <trkpt lat="43.65448" lon="1.38932">
        <ele>135</ele>
        <time>2025-05-13T16:14:34Z</time>
      </trkpt>
      <trkpt lat="43.65451" lon="1.38935">
        <ele>132</ele>
        <time>2025-05-13T16:14:35Z</time>
      </trkpt>
      <trkpt lat="43.65453" lon="1.38938">
        <ele>132</ele>
        <time>2025-05-13T16:14:36Z</time>
      </trkpt>
      <trkpt lat="43.65455" lon="1.38943">
        <ele>132</ele>
        <time>2025-05-13T16:14:37Z</time>
      </trkpt>
      <trkpt lat="43.65455" lon="1.38945">
        <ele>132</ele>
        <time>2025-05-13T16:14:38Z</time>
      </trkpt>
      <trkpt lat="43.65457" lon="1.38951">
        <ele>132</ele>
        <time>2025-05-13T16:14:39Z</time>
      </trkpt>
      <trkpt lat="43.65457" lon="1.38953">
        <ele>131</ele>
        <time>2025-05-13T16:14:40Z</time>
      </trkpt>
      <trkpt lat="43.65458" lon="1.38957">
        <ele>131</ele>
        <time>2025-05-13T16:14:41Z</time>
      </trkpt>
      <trkpt lat="43.65459" lon="1.38959">
        <ele>131</ele>
        <time>2025-05-13T16:14:42Z</time>
      </trkpt>
      <trkpt lat="43.6546" lon="1.38963">
        <ele>131</ele>
        <time>2025-05-13T16:14:43Z</time>
      </trkpt>
      <trkpt lat="43.65461" lon="1.38969">
        <ele>131</ele>
        <time>2025-05-13T16:14:44Z</time>
      </trkpt>
      <trkpt lat="43.65462" lon="1.38972">
        <ele>130</ele>
        <time>2025-05-13T16:14:45Z</time>
      </trkpt>
      <trkpt lat="43.65464" lon="1.38976">
        <ele>130</ele>
        <time>2025-05-13T16:14:46Z</time>
      </trkpt>
      <trkpt lat="43.65465" lon="1.38979">
        <ele>130</ele>
        <time>2025-05-13T16:14:47Z</time>
      </trkpt>
      <trkpt lat="43.65467" lon="1.38983">
        <ele>130</ele>
        <time>2025-05-13T16:14:48Z</time>
      </trkpt>
      <trkpt lat="43.65468" lon="1.38984">
        <ele>130</ele>
        <time>2025-05-13T16:14:49Z</time>
      </trkpt>
      <trkpt lat="43.6547" lon="1.38986">
        <ele>130</ele>
        <time>2025-05-13T16:14:50Z</time>
      </trkpt>
      <trkpt lat="43.65472" lon="1.38989">
        <ele>130</ele>
        <time>2025-05-13T16:14:51Z</time>
      </trkpt>
      <trkpt lat="43.65473" lon="1.38991">
        <ele>130</ele>
        <time>2025-05-13T16:14:52Z</time>
      </trkpt>
      <trkpt lat="43.65476" lon="1.38993">
        <ele>130</ele>
        <time>2025-05-13T16:14:53Z</time>
      </trkpt>
      <trkpt lat="43.65478" lon="1.38996">
        <ele>130</ele>
        <time>2025-05-13T16:14:54Z</time>
      </trkpt>
      <trkpt lat="43.65481" lon="1.38999">
        <ele>130</ele>
        <time>2025-05-13T16:14:55Z</time>
      </trkpt>
      <trkpt lat="43.65484" lon="1.39">
        <ele>130</ele>
        <time>2025-05-13T16:14:56Z</time>
      </trkpt>
      <trkpt lat="43.65487" lon="1.39002">
        <ele>130</ele>
        <time>2025-05-13T16:14:57Z</time>
      </trkpt>
      <trkpt lat="43.65489" lon="1.39004">
        <ele>130</ele>
        <time>2025-05-13T16:14:58Z</time>
      </trkpt>
      <trkpt lat="43.65493" lon="1.39007">
        <ele>130</ele>
        <time>2025-05-13T16:14:59Z</time>
      </trkpt>
      <trkpt lat="43.65494" lon="1.39007">
        <ele>129</ele>
        <time>2025-05-13T16:15:00Z</time>
      </trkpt>
      <trkpt lat="43.65496" lon="1.39008">
        <ele>130</ele>
        <time>2025-05-13T16:15:01Z</time>
      </trkpt>
      <trkpt lat="43.65499" lon="1.3901">
        <ele>130</ele>
        <time>2025-05-13T16:15:02Z</time>
      </trkpt>
      <trkpt lat="43.65501" lon="1.39011">
        <ele>129</ele>
        <time>2025-05-13T16:15:03Z</time>
      </trkpt>
      <trkpt lat="43.65504" lon="1.39012">
        <ele>129</ele>
        <time>2025-05-13T16:15:04Z</time>
      </trkpt>
      <trkpt lat="43.65506" lon="1.39013">
        <ele>129</ele>
        <time>2025-05-13T16:15:05Z</time>
      </trkpt>
      <trkpt lat="43.65508" lon="1.39015">
        <ele>129</ele>
        <time>2025-05-13T16:15:06Z</time>
      </trkpt>
      <trkpt lat="43.65511" lon="1.39016">
        <ele>129</ele>
        <time>2025-05-13T16:15:07Z</time>
      </trkpt>
      <trkpt lat="43.65514" lon="1.39018">
        <ele>129</ele>
        <time>2025-05-13T16:15:08Z</time>
      </trkpt>
      <trkpt lat="43.65517" lon="1.3902">
        <ele>128</ele>
        <time>2025-05-13T16:15:09Z</time>
      </trkpt>
      <trkpt lat="43.6552" lon="1.39021">
        <ele>128</ele>
        <time>2025-05-13T16:15:10Z</time>
      </trkpt>
      <trkpt lat="43.65522" lon="1.39023">
        <ele>128</ele>
        <time>2025-05-13T16:15:11Z</time>
      </trkpt>
      <trkpt lat="43.65525" lon="1.39024">
        <ele>128</ele>
        <time>2025-05-13T16:15:12Z</time>
      </trkpt>
      <trkpt lat="43.65528" lon="1.39025">
        <ele>129</ele>
        <time>2025-05-13T16:15:13Z</time>
      </trkpt>
      <trkpt lat="43.65531" lon="1.39027">
        <ele>129</ele>
        <time>2025-05-13T16:15:14Z</time>
      </trkpt>
      <trkpt lat="43.65533" lon="1.39028">
        <ele>129</ele>
        <time>2025-05-13T16:15:15Z</time>
      </trkpt>
      <trkpt lat="43.65536" lon="1.39029">
        <ele>129</ele>
        <time>2025-05-13T16:15:16Z</time>
      </trkpt>
      <trkpt lat="43.65539" lon="1.39031">
        <ele>129</ele>
        <time>2025-05-13T16:15:17Z</time>
      </trkpt>
      <trkpt lat="43.65542" lon="1.39033">
        <ele>128</ele>
        <time>2025-05-13T16:15:18Z</time>
      </trkpt>
      <trkpt lat="43.65544" lon="1.39034">
        <ele>128</ele>
        <time>2025-05-13T16:15:19Z</time>
      </trkpt>
      <trkpt lat="43.65547" lon="1.39036">
        <ele>128</ele>
        <time>2025-05-13T16:15:20Z</time>
      </trkpt>
      <trkpt lat="43.65549" lon="1.39038">
        <ele>128</ele>
        <time>2025-05-13T16:15:21Z</time>
      </trkpt>
      <trkpt lat="43.65552" lon="1.3904">
        <ele>128</ele>
        <time>2025-05-13T16:15:22Z</time>
      </trkpt>
      <trkpt lat="43.65556" lon="1.39043">
        <ele>128</ele>
        <time>2025-05-13T16:15:23Z</time>
      </trkpt>
      <trkpt lat="43.65557" lon="1.39044">
        <ele>128</ele>
        <time>2025-05-13T16:15:24Z</time>
      </trkpt>
      <trkpt lat="43.65559" lon="1.39046">
        <ele>128</ele>
        <time>2025-05-13T16:15:25Z</time>
      </trkpt>
      <trkpt lat="43.65562" lon="1.39048">
        <ele>128</ele>
        <time>2025-05-13T16:15:26Z</time>
      </trkpt>
      <trkpt lat="43.65564" lon="1.3905">
        <ele>128</ele>
        <time>2025-05-13T16:15:27Z</time>
      </trkpt>
      <trkpt lat="43.65566" lon="1.39052">
        <ele>128</ele>
        <time>2025-05-13T16:15:28Z</time>
      </trkpt>
      <trkpt lat="43.65568" lon="1.39054">
        <ele>128</ele>
        <time>2025-05-13T16:15:29Z</time>
      </trkpt>
      <trkpt lat="43.6557" lon="1.39055">
        <ele>128</ele>
        <time>2025-05-13T16:15:30Z</time>
      </trkpt>
      <trkpt lat="43.65573" lon="1.39057">
        <ele>128</ele>
        <time>2025-05-13T16:15:31Z</time>
      </trkpt>
      <trkpt lat="43.65575" lon="1.39058">
        <ele>128</ele>
        <time>2025-05-13T16:15:32Z</time>
      </trkpt>
      <trkpt lat="43.65578" lon="1.3906">
        <ele>128</ele>
        <time>2025-05-13T16:15:33Z</time>
      </trkpt>
      <trkpt lat="43.6558" lon="1.39062">
        <ele>128</ele>
        <time>2025-05-13T16:15:34Z</time>
      </trkpt>
      <trkpt lat="43.65583" lon="1.39063">
        <ele>128</ele>
        <time>2025-05-13T16:15:35Z</time>
      </trkpt>
      <trkpt lat="43.65585" lon="1.39065">
        <ele>128</ele>
        <time>2025-05-13T16:15:36Z</time>
      </trkpt>
      <trkpt lat="43.65588" lon="1.39066">
        <ele>128</ele>
        <time>2025-05-13T16:15:37Z</time>
      </trkpt>
      <trkpt lat="43.6559" lon="1.39067">
        <ele>128</ele>
        <time>2025-05-13T16:15:38Z</time>
      </trkpt>
      <trkpt lat="43.65593" lon="1.39068">
        <ele>128</ele>
        <time>2025-05-13T16:15:39Z</time>
      </trkpt>
      <trkpt lat="43.65595" lon="1.3907">
        <ele>128</ele>
        <time>2025-05-13T16:15:40Z</time>
      </trkpt>
      <trkpt lat="43.65597" lon="1.39071">
        <ele>128</ele>
        <time>2025-05-13T16:15:41Z</time>
      </trkpt>
      <trkpt lat="43.656" lon="1.39073">
        <ele>128</ele>
        <time>2025-05-13T16:15:42Z</time>
      </trkpt>
      <trkpt lat="43.65603" lon="1.39074">
        <ele>128</ele>
        <time>2025-05-13T16:15:43Z</time>
      </trkpt>
      <trkpt lat="43.65605" lon="1.39075">
        <ele>128</ele>
        <time>2025-05-13T16:15:44Z</time>
      </trkpt>
      <trkpt lat="43.65608" lon="1.39077">
        <ele>128</ele>
        <time>2025-05-13T16:15:45Z</time>
      </trkpt>
      <trkpt lat="43.6561" lon="1.39078">
        <ele>128</ele>
        <time>2025-05-13T16:15:46Z</time>
      </trkpt>
      <trkpt lat="43.65613" lon="1.39079">
        <ele>128</ele>
        <time>2025-05-13T16:15:47Z</time>
      </trkpt>
      <trkpt lat="43.65616" lon="1.39081">
        <ele>128</ele>
        <time>2025-05-13T16:15:48Z</time>
      </trkpt>
      <trkpt lat="43.65618" lon="1.39082">
        <ele>128</ele>
        <time>2025-05-13T16:15:49Z</time>
      </trkpt>
      <trkpt lat="43.6562" lon="1.39083">
        <ele>128</ele>
        <time>2025-05-13T16:15:50Z</time>
      </trkpt>
      <trkpt lat="43.65622" lon="1.39086">
        <ele>128</ele>
        <time>2025-05-13T16:15:51Z</time>
      </trkpt>
      <trkpt lat="43.65625" lon="1.39088">
        <ele>128</ele>
        <time>2025-05-13T16:15:52Z</time>
      </trkpt>
      <trkpt lat="43.65627" lon="1.3909">
        <ele>128</ele>
        <time>2025-05-13T16:15:53Z</time>
      </trkpt>
      <trkpt lat="43.65629" lon="1.39092">
        <ele>127</ele>
        <time>2025-05-13T16:15:54Z</time>
      </trkpt>
      <trkpt lat="43.65631" lon="1.39093">
        <ele>128</ele>
        <time>2025-05-13T16:15:55Z</time>
      </trkpt>
      <trkpt lat="43.65634" lon="1.39095">
        <ele>128</ele>
        <time>2025-05-13T16:15:56Z</time>
      </trkpt>
      <trkpt lat="43.65636" lon="1.39097">
        <ele>127</ele>
        <time>2025-05-13T16:15:57Z</time>
      </trkpt>
      <trkpt lat="43.65638" lon="1.39098">
        <ele>127</ele>
        <time>2025-05-13T16:15:58Z</time>
      </trkpt>
      <trkpt lat="43.6564" lon="1.391">
        <ele>127</ele>
        <time>2025-05-13T16:15:59Z</time>
      </trkpt>
      <trkpt lat="43.65643" lon="1.39102">
        <ele>128</ele>
        <time>2025-05-13T16:16:00Z</time>
      </trkpt>
      <trkpt lat="43.65645" lon="1.39103">
        <ele>128</ele>
        <time>2025-05-13T16:16:01Z</time>
      </trkpt>
      <trkpt lat="43.65647" lon="1.39105">
        <ele>128</ele>
        <time>2025-05-13T16:16:02Z</time>
      </trkpt>
      <trkpt lat="43.65649" lon="1.39107">
        <ele>128</ele>
        <time>2025-05-13T16:16:03Z</time>
      </trkpt>
      <trkpt lat="43.65651" lon="1.39108">
        <ele>128</ele>
        <time>2025-05-13T16:16:04Z</time>
      </trkpt>
      <trkpt lat="43.65654" lon="1.3911">
        <ele>128</ele>
        <time>2025-05-13T16:16:05Z</time>
      </trkpt>
      <trkpt lat="43.65656" lon="1.39112">
        <ele>128</ele>
        <time>2025-05-13T16:16:06Z</time>
      </trkpt>
      <trkpt lat="43.6566" lon="1.39114">
        <ele>128</ele>
        <time>2025-05-13T16:16:07Z</time>
      </trkpt>
      <trkpt lat="43.65662" lon="1.39115">
        <ele>127</ele>
        <time>2025-05-13T16:16:08Z</time>
      </trkpt>
      <trkpt lat="43.65666" lon="1.39116">
        <ele>127</ele>
        <time>2025-05-13T16:16:09Z</time>
      </trkpt>
      <trkpt lat="43.65667" lon="1.39117">
        <ele>127</ele>
        <time>2025-05-13T16:16:10Z</time>
      </trkpt>
      <trkpt lat="43.6567" lon="1.39119">
        <ele>127</ele>
        <time>2025-05-13T16:16:11Z</time>
      </trkpt>
      <trkpt lat="43.65673" lon="1.3912">
        <ele>127</ele>
        <time>2025-05-13T16:16:12Z</time>
      </trkpt>
      <trkpt lat="43.65676" lon="1.39122">
        <ele>127</ele>
        <time>2025-05-13T16:16:13Z</time>
      </trkpt>
      <trkpt lat="43.65678" lon="1.39123">
        <ele>127</ele>
        <time>2025-05-13T16:16:14Z</time>
      </trkpt>
      <trkpt lat="43.65681" lon="1.39124">
        <ele>127</ele>
        <time>2025-05-13T16:16:15Z</time>
      </trkpt>
      <trkpt lat="43.65684" lon="1.39125">
        <ele>127</ele>
        <time>2025-05-13T16:16:16Z</time>
      </trkpt>
      <trkpt lat="43.65686" lon="1.39127">
        <ele>127</ele>
        <time>2025-05-13T16:16:17Z</time>
      </trkpt>
      <trkpt lat="43.65689" lon="1.39129">
        <ele>127</ele>
        <time>2025-05-13T16:16:18Z</time>
      </trkpt>
      <trkpt lat="43.6569" lon="1.3913">
        <ele>127</ele>
        <time>2025-05-13T16:16:19Z</time>
      </trkpt>
      <trkpt lat="43.65692" lon="1.39132">
        <ele>127</ele>
        <time>2025-05-13T16:16:20Z</time>
      </trkpt>
      <trkpt lat="43.65694" lon="1.39133">
        <ele>127</ele>
        <time>2025-05-13T16:16:21Z</time>
      </trkpt>
      <trkpt lat="43.65696" lon="1.39135">
        <ele>127</ele>
        <time>2025-05-13T16:16:22Z</time>
      </trkpt>
      <trkpt lat="43.65699" lon="1.39136">
        <ele>127</ele>
        <time>2025-05-13T16:16:23Z</time>
      </trkpt>
      <trkpt lat="43.65701" lon="1.39138">
        <ele>127</ele>
        <time>2025-05-13T16:16:24Z</time>
      </trkpt>
      <trkpt lat="43.65703" lon="1.39139">
        <ele>127</ele>
        <time>2025-05-13T16:16:25Z</time>
      </trkpt>
      <trkpt lat="43.65705" lon="1.39141">
        <ele>127</ele>
        <time>2025-05-13T16:16:26Z</time>
      </trkpt>
      <trkpt lat="43.65707" lon="1.39142">
        <ele>128</ele>
        <time>2025-05-13T16:16:27Z</time>
      </trkpt>
      <trkpt lat="43.6571" lon="1.39144">
        <ele>128</ele>
        <time>2025-05-13T16:16:28Z</time>
      </trkpt>
      <trkpt lat="43.65712" lon="1.39146">
        <ele>128</ele>
        <time>2025-05-13T16:16:29Z</time>
      </trkpt>
      <trkpt lat="43.65714" lon="1.39148">
        <ele>127</ele>
        <time>2025-05-13T16:16:30Z</time>
      </trkpt>
      <trkpt lat="43.65717" lon="1.3915">
        <ele>127</ele>
        <time>2025-05-13T16:16:31Z</time>
      </trkpt>
      <trkpt lat="43.65719" lon="1.39151">
        <ele>127</ele>
        <time>2025-05-13T16:16:32Z</time>
      </trkpt>
      <trkpt lat="43.65721" lon="1.39153">
        <ele>127</ele>
        <time>2025-05-13T16:16:33Z</time>
      </trkpt>
      <trkpt lat="43.65723" lon="1.39156">
        <ele>127</ele>
        <time>2025-05-13T16:16:34Z</time>
      </trkpt>
      <trkpt lat="43.65725" lon="1.39158">
        <ele>127</ele>
        <time>2025-05-13T16:16:35Z</time>
      </trkpt>
      <trkpt lat="43.65728" lon="1.3916">
        <ele>127</ele>
        <time>2025-05-13T16:16:36Z</time>
      </trkpt>
      <trkpt lat="43.6573" lon="1.39162">
        <ele>127</ele>
        <time>2025-05-13T16:16:37Z</time>
      </trkpt>
      <trkpt lat="43.65734" lon="1.39164">
        <ele>127</ele>
        <time>2025-05-13T16:16:38Z</time>
      </trkpt>
      <trkpt lat="43.65735" lon="1.39164">
        <ele>127</ele>
        <time>2025-05-13T16:16:39Z</time>
      </trkpt>
      <trkpt lat="43.65738" lon="1.39166">
        <ele>127</ele>
        <time>2025-05-13T16:16:40Z</time>
      </trkpt>
      <trkpt lat="43.6574" lon="1.39167">
        <ele>127</ele>
        <time>2025-05-13T16:16:41Z</time>
      </trkpt>
      <trkpt lat="43.65742" lon="1.39169">
        <ele>127</ele>
        <time>2025-05-13T16:16:42Z</time>
      </trkpt>
      <trkpt lat="43.65745" lon="1.39171">
        <ele>128</ele>
        <time>2025-05-13T16:16:43Z</time>
      </trkpt>
      <trkpt lat="43.65747" lon="1.39173">
        <ele>128</ele>
        <time>2025-05-13T16:16:44Z</time>
      </trkpt>
      <trkpt lat="43.6575" lon="1.39175">
        <ele>128</ele>
        <time>2025-05-13T16:16:45Z</time>
      </trkpt>
      <trkpt lat="43.65753" lon="1.39176">
        <ele>128</ele>
        <time>2025-05-13T16:16:46Z</time>
      </trkpt>
      <trkpt lat="43.65756" lon="1.39177">
        <ele>128</ele>
        <time>2025-05-13T16:16:47Z</time>
      </trkpt>
      <trkpt lat="43.65758" lon="1.39179">
        <ele>128</ele>
        <time>2025-05-13T16:16:48Z</time>
      </trkpt>
      <trkpt lat="43.6576" lon="1.39181">
        <ele>128</ele>
        <time>2025-05-13T16:16:49Z</time>
      </trkpt>
      <trkpt lat="43.65762" lon="1.39183">
        <ele>128</ele>
        <time>2025-05-13T16:16:50Z</time>
      </trkpt>
      <trkpt lat="43.65764" lon="1.39186">
        <ele>128</ele>
        <time>2025-05-13T16:16:51Z</time>
      </trkpt>
      <trkpt lat="43.65766" lon="1.39189">
        <ele>128</ele>
        <time>2025-05-13T16:16:52Z</time>
      </trkpt>
      <trkpt lat="43.65768" lon="1.39192">
        <ele>128</ele>
        <time>2025-05-13T16:16:53Z</time>
      </trkpt>
      <trkpt lat="43.65771" lon="1.39194">
        <ele>128</ele>
        <time>2025-05-13T16:16:54Z</time>
      </trkpt>
      <trkpt lat="43.65775" lon="1.39199">
        <ele>128</ele>
        <time>2025-05-13T16:16:55Z</time>
      </trkpt>
      <trkpt lat="43.65777" lon="1.392">
        <ele>128</ele>
        <time>2025-05-13T16:16:56Z</time>
      </trkpt>
      <trkpt lat="43.65779" lon="1.39202">
        <ele>128</ele>
        <time>2025-05-13T16:16:57Z</time>
      </trkpt>
      <trkpt lat="43.65782" lon="1.39203">
        <ele>128</ele>
        <time>2025-05-13T16:16:58Z</time>
      </trkpt>
      <trkpt lat="43.65786" lon="1.39205">
        <ele>128</ele>
        <time>2025-05-13T16:16:59Z</time>
      </trkpt>
      <trkpt lat="43.65788" lon="1.39205">
        <ele>127</ele>
        <time>2025-05-13T16:17:00Z</time>
      </trkpt>
      <trkpt lat="43.65793" lon="1.39206">
        <ele>127</ele>
        <time>2025-05-13T16:17:01Z</time>
      </trkpt>
      <trkpt lat="43.65794" lon="1.39206">
        <ele>127</ele>
        <time>2025-05-13T16:17:02Z</time>
      </trkpt>
      <trkpt lat="43.65797" lon="1.39207">
        <ele>126</ele>
        <time>2025-05-13T16:17:03Z</time>
      </trkpt>
      <trkpt lat="43.65799" lon="1.39207">
        <ele>126</ele>
        <time>2025-05-13T16:17:04Z</time>
      </trkpt>
      <trkpt lat="43.65802" lon="1.39208">
        <ele>126</ele>
        <time>2025-05-13T16:17:05Z</time>
      </trkpt>
      <trkpt lat="43.65804" lon="1.3921">
        <ele>126</ele>
        <time>2025-05-13T16:17:06Z</time>
      </trkpt>
      <trkpt lat="43.65807" lon="1.39212">
        <ele>126</ele>
        <time>2025-05-13T16:17:07Z</time>
      </trkpt>
      <trkpt lat="43.6581" lon="1.39213">
        <ele>126</ele>
        <time>2025-05-13T16:17:08Z</time>
      </trkpt>
      <trkpt lat="43.65812" lon="1.39214">
        <ele>126</ele>
        <time>2025-05-13T16:17:09Z</time>
      </trkpt>
      <trkpt lat="43.65815" lon="1.39216">
        <ele>126</ele>
        <time>2025-05-13T16:17:10Z</time>
      </trkpt>
      <trkpt lat="43.65817" lon="1.39217">
        <ele>126</ele>
        <time>2025-05-13T16:17:11Z</time>
      </trkpt>
      <trkpt lat="43.6582" lon="1.39217">
        <ele>126</ele>
        <time>2025-05-13T16:17:12Z</time>
      </trkpt>
      <trkpt lat="43.65824" lon="1.39218">
        <ele>126</ele>
        <time>2025-05-13T16:17:13Z</time>
      </trkpt>
      <trkpt lat="43.65825" lon="1.39218">
        <ele>126</ele>
        <time>2025-05-13T16:17:14Z</time>
      </trkpt>
      <trkpt lat="43.65826" lon="1.39219">
        <ele>126</ele>
        <time>2025-05-13T16:17:15Z</time>
      </trkpt>
      <trkpt lat="43.65829" lon="1.3922">
        <ele>126</ele>
        <time>2025-05-13T16:17:16Z</time>
      </trkpt>
      <trkpt lat="43.65832" lon="1.39222">
        <ele>126</ele>
        <time>2025-05-13T16:17:17Z</time>
      </trkpt>
      <trkpt lat="43.65834" lon="1.39223">
        <ele>126</ele>
        <time>2025-05-13T16:17:18Z</time>
      </trkpt>
      <trkpt lat="43.65837" lon="1.39224">
        <ele>126</ele>
        <time>2025-05-13T16:17:19Z</time>
      </trkpt>
      <trkpt lat="43.65839" lon="1.39226">
        <ele>126</ele>
        <time>2025-05-13T16:17:20Z</time>
      </trkpt>
      <trkpt lat="43.65842" lon="1.39228">
        <ele>126</ele>
        <time>2025-05-13T16:17:21Z</time>
      </trkpt>
      <trkpt lat="43.65844" lon="1.39229">
        <ele>126</ele>
        <time>2025-05-13T16:17:22Z</time>
      </trkpt>
      <trkpt lat="43.65846" lon="1.3923">
        <ele>126</ele>
        <time>2025-05-13T16:17:23Z</time>
      </trkpt>
      <trkpt lat="43.65848" lon="1.39232">
        <ele>126</ele>
        <time>2025-05-13T16:17:24Z</time>
      </trkpt>
      <trkpt lat="43.6585" lon="1.39234">
        <ele>126</ele>
        <time>2025-05-13T16:17:25Z</time>
      </trkpt>
      <trkpt lat="43.65853" lon="1.39236">
        <ele>126</ele>
        <time>2025-05-13T16:17:26Z</time>
      </trkpt>
      <trkpt lat="43.65855" lon="1.39238">
        <ele>126</ele>
        <time>2025-05-13T16:17:27Z</time>
      </trkpt>
      <trkpt lat="43.65857" lon="1.3924">
        <ele>126</ele>
        <time>2025-05-13T16:17:28Z</time>
      </trkpt>
      <trkpt lat="43.6586" lon="1.39241">
        <ele>126</ele>
        <time>2025-05-13T16:17:29Z</time>
      </trkpt>
      <trkpt lat="43.65863" lon="1.39242">
        <ele>126</ele>
        <time>2025-05-13T16:17:30Z</time>
      </trkpt>
      <trkpt lat="43.65866" lon="1.39242">
        <ele>126</ele>
        <time>2025-05-13T16:17:31Z</time>
      </trkpt>
      <trkpt lat="43.6587" lon="1.39241">
        <ele>126</ele>
        <time>2025-05-13T16:17:32Z</time>
      </trkpt>
      <trkpt lat="43.65872" lon="1.39241">
        <ele>126</ele>
        <time>2025-05-13T16:17:33Z</time>
      </trkpt>
      <trkpt lat="43.65874" lon="1.39241">
        <ele>126</ele>
        <time>2025-05-13T16:17:34Z</time>
      </trkpt>
      <trkpt lat="43.65877" lon="1.39241">
        <ele>126</ele>
        <time>2025-05-13T16:17:35Z</time>
      </trkpt>
      <trkpt lat="43.65879" lon="1.39242">
        <ele>126</ele>
        <time>2025-05-13T16:17:36Z</time>
      </trkpt>
      <trkpt lat="43.65882" lon="1.39243">
        <ele>126</ele>
        <time>2025-05-13T16:17:37Z</time>
      </trkpt>
      <trkpt lat="43.65885" lon="1.39243">
        <ele>126</ele>
        <time>2025-05-13T16:17:38Z</time>
      </trkpt>
      <trkpt lat="43.65887" lon="1.39244">
        <ele>126</ele>
        <time>2025-05-13T16:17:39Z</time>
      </trkpt>
      <trkpt lat="43.65889" lon="1.39244">
        <ele>126</ele>
        <time>2025-05-13T16:17:40Z</time>
      </trkpt>
      <trkpt lat="43.65891" lon="1.39245">
        <ele>126</ele>
        <time>2025-05-13T16:17:41Z</time>
      </trkpt>
      <trkpt lat="43.65894" lon="1.39246">
        <ele>126</ele>
        <time>2025-05-13T16:17:42Z</time>
      </trkpt>
      <trkpt lat="43.65897" lon="1.39247">
        <ele>126</ele>
        <time>2025-05-13T16:17:43Z</time>
      </trkpt>
      <trkpt lat="43.659" lon="1.39249">
        <ele>126</ele>
        <time>2025-05-13T16:17:44Z</time>
      </trkpt>
      <trkpt lat="43.65904" lon="1.39249">
        <ele>126</ele>
        <time>2025-05-13T16:17:45Z</time>
      </trkpt>
      <trkpt lat="43.65909" lon="1.39249">
        <ele>126</ele>
        <time>2025-05-13T16:17:46Z</time>
      </trkpt>
      <trkpt lat="43.6591" lon="1.39249">
        <ele>126</ele>
        <time>2025-05-13T16:17:47Z</time>
      </trkpt>
      <trkpt lat="43.65912" lon="1.39248">
        <ele>126</ele>
        <time>2025-05-13T16:17:48Z</time>
      </trkpt>
      <trkpt lat="43.65914" lon="1.39247">
        <ele>126</ele>
        <time>2025-05-13T16:17:49Z</time>
      </trkpt>
      <trkpt lat="43.65917" lon="1.39247">
        <ele>126</ele>
        <time>2025-05-13T16:17:50Z</time>
      </trkpt>
      <trkpt lat="43.65921" lon="1.39246">
        <ele>126</ele>
        <time>2025-05-13T16:17:51Z</time>
      </trkpt>
      <trkpt lat="43.65924" lon="1.39246">
        <ele>126</ele>
        <time>2025-05-13T16:17:52Z</time>
      </trkpt>
      <trkpt lat="43.65926" lon="1.39247">
        <ele>126</ele>
        <time>2025-05-13T16:17:53Z</time>
      </trkpt>
      <trkpt lat="43.65929" lon="1.39247">
        <ele>126</ele>
        <time>2025-05-13T16:17:54Z</time>
      </trkpt>
      <trkpt lat="43.65932" lon="1.39247">
        <ele>126</ele>
        <time>2025-05-13T16:17:55Z</time>
      </trkpt>
      <trkpt lat="43.65935" lon="1.39247">
        <ele>126</ele>
        <time>2025-05-13T16:17:56Z</time>
      </trkpt>
      <trkpt lat="43.65937" lon="1.39248">
        <ele>126</ele>
        <time>2025-05-13T16:17:57Z</time>
      </trkpt>
      <trkpt lat="43.65939" lon="1.39248">
        <ele>126</ele>
        <time>2025-05-13T16:17:58Z</time>
      </trkpt>
      <trkpt lat="43.65942" lon="1.39248">
        <ele>126</ele>
        <time>2025-05-13T16:17:59Z</time>
      </trkpt>
      <trkpt lat="43.65945" lon="1.39248">
        <ele>126</ele>
        <time>2025-05-13T16:18:00Z</time>
      </trkpt>
      <trkpt lat="43.65948" lon="1.39247">
        <ele>126</ele>
        <time>2025-05-13T16:18:01Z</time>
      </trkpt>
      <trkpt lat="43.65951" lon="1.39247">
        <ele>126</ele>
        <time>2025-05-13T16:18:02Z</time>
      </trkpt>
      <trkpt lat="43.65955" lon="1.39245">
        <ele>126</ele>
        <time>2025-05-13T16:18:03Z</time>
      </trkpt>
      <trkpt lat="43.65956" lon="1.39245">
        <ele>126</ele>
        <time>2025-05-13T16:18:04Z</time>
      </trkpt>
      <trkpt lat="43.65959" lon="1.39243">
        <ele>126</ele>
        <time>2025-05-13T16:18:05Z</time>
      </trkpt>
      <trkpt lat="43.65961" lon="1.39243">
        <ele>126</ele>
        <time>2025-05-13T16:18:06Z</time>
      </trkpt>
      <trkpt lat="43.65963" lon="1.39241">
        <ele>126</ele>
        <time>2025-05-13T16:18:07Z</time>
      </trkpt>
      <trkpt lat="43.65966" lon="1.3924">
        <ele>126</ele>
        <time>2025-05-13T16:18:08Z</time>
      </trkpt>
      <trkpt lat="43.65968" lon="1.3924">
        <ele>126</ele>
        <time>2025-05-13T16:18:09Z</time>
      </trkpt>
      <trkpt lat="43.6597" lon="1.3924">
        <ele>126</ele>
        <time>2025-05-13T16:18:10Z</time>
      </trkpt>
      <trkpt lat="43.65972" lon="1.3924">
        <ele>126</ele>
        <time>2025-05-13T16:18:11Z</time>
      </trkpt>
      <trkpt lat="43.65975" lon="1.3924">
        <ele>126</ele>
        <time>2025-05-13T16:18:12Z</time>
      </trkpt>
      <trkpt lat="43.6598" lon="1.39239">
        <ele>126</ele>
        <time>2025-05-13T16:18:13Z</time>
      </trkpt>
      <trkpt lat="43.65982" lon="1.39239">
        <ele>126</ele>
        <time>2025-05-13T16:18:14Z</time>
      </trkpt>
      <trkpt lat="43.65985" lon="1.39236">
        <ele>126</ele>
        <time>2025-05-13T16:18:15Z</time>
      </trkpt>
      <trkpt lat="43.65986" lon="1.39234">
        <ele>126</ele>
        <time>2025-05-13T16:18:16Z</time>
      </trkpt>
      <trkpt lat="43.65987" lon="1.39232">
        <ele>126</ele>
        <time>2025-05-13T16:18:17Z</time>
      </trkpt>
      <trkpt lat="43.6599" lon="1.3923">
        <ele>126</ele>
        <time>2025-05-13T16:18:18Z</time>
      </trkpt>
      <trkpt lat="43.65993" lon="1.39228">
        <ele>126</ele>
        <time>2025-05-13T16:18:19Z</time>
      </trkpt>
      <trkpt lat="43.65996" lon="1.39227">
        <ele>126</ele>
        <time>2025-05-13T16:18:20Z</time>
      </trkpt>
      <trkpt lat="43.65998" lon="1.39225">
        <ele>126</ele>
        <time>2025-05-13T16:18:21Z</time>
      </trkpt>
      <trkpt lat="43.66002" lon="1.39224">
        <ele>126</ele>
        <time>2025-05-13T16:18:22Z</time>
      </trkpt>
      <trkpt lat="43.66004" lon="1.39222">
        <ele>126</ele>
        <time>2025-05-13T16:18:23Z</time>
      </trkpt>
      <trkpt lat="43.66006" lon="1.3922">
        <ele>126</ele>
        <time>2025-05-13T16:18:24Z</time>
      </trkpt>
      <trkpt lat="43.66009" lon="1.39219">
        <ele>126</ele>
        <time>2025-05-13T16:18:25Z</time>
      </trkpt>
      <trkpt lat="43.66011" lon="1.39219">
        <ele>126</ele>
        <time>2025-05-13T16:18:26Z</time>
      </trkpt>
      <trkpt lat="43.66013" lon="1.39218">
        <ele>126</ele>
        <time>2025-05-13T16:18:27Z</time>
      </trkpt>
      <trkpt lat="43.66016" lon="1.39218">
        <ele>126</ele>
        <time>2025-05-13T16:18:28Z</time>
      </trkpt>
      <trkpt lat="43.66018" lon="1.39218">
        <ele>126</ele>
        <time>2025-05-13T16:18:29Z</time>
      </trkpt>
      <trkpt lat="43.66021" lon="1.39217">
        <ele>126</ele>
        <time>2025-05-13T16:18:30Z</time>
      </trkpt>
      <trkpt lat="43.66024" lon="1.39216">
        <ele>126</ele>
        <time>2025-05-13T16:18:31Z</time>
      </trkpt>
      <trkpt lat="43.66027" lon="1.39215">
        <ele>126</ele>
        <time>2025-05-13T16:18:32Z</time>
      </trkpt>
      <trkpt lat="43.66029" lon="1.39215">
        <ele>126</ele>
        <time>2025-05-13T16:18:33Z</time>
      </trkpt>
      <trkpt lat="43.66032" lon="1.39215">
        <ele>126</ele>
        <time>2025-05-13T16:18:34Z</time>
      </trkpt>
      <trkpt lat="43.66035" lon="1.39215">
        <ele>126</ele>
        <time>2025-05-13T16:18:35Z</time>
      </trkpt>
      <trkpt lat="43.66037" lon="1.39215">
        <ele>126</ele>
        <time>2025-05-13T16:18:36Z</time>
      </trkpt>
      <trkpt lat="43.6604" lon="1.39214">
        <ele>126</ele>
        <time>2025-05-13T16:18:37Z</time>
      </trkpt>
      <trkpt lat="43.66044" lon="1.39212">
        <ele>126</ele>
        <time>2025-05-13T16:18:38Z</time>
      </trkpt>
      <trkpt lat="43.66045" lon="1.39211">
        <ele>125</ele>
        <time>2025-05-13T16:18:39Z</time>
      </trkpt>
      <trkpt lat="43.66047" lon="1.3921">
        <ele>125</ele>
        <time>2025-05-13T16:18:40Z</time>
      </trkpt>
      <trkpt lat="43.66051" lon="1.39209">
        <ele>125</ele>
        <time>2025-05-13T16:18:41Z</time>
      </trkpt>
      <trkpt lat="43.66052" lon="1.39209">
        <ele>125</ele>
        <time>2025-05-13T16:18:42Z</time>
      </trkpt>
      <trkpt lat="43.66055" lon="1.39209">
        <ele>126</ele>
        <time>2025-05-13T16:18:43Z</time>
      </trkpt>
      <trkpt lat="43.66057" lon="1.3921">
        <ele>126</ele>
        <time>2025-05-13T16:18:44Z</time>
      </trkpt>
      <trkpt lat="43.66059" lon="1.39211">
        <ele>125</ele>
        <time>2025-05-13T16:18:45Z</time>
      </trkpt>
      <trkpt lat="43.66064" lon="1.39209">
        <ele>125</ele>
        <time>2025-05-13T16:18:46Z</time>
      </trkpt>
      <trkpt lat="43.66066" lon="1.39208">
        <ele>125</ele>
        <time>2025-05-13T16:18:47Z</time>
      </trkpt>
      <trkpt lat="43.66068" lon="1.39207">
        <ele>125</ele>
        <time>2025-05-13T16:18:48Z</time>
      </trkpt>
      <trkpt lat="43.66071" lon="1.39206">
        <ele>126</ele>
        <time>2025-05-13T16:18:49Z</time>
      </trkpt>
      <trkpt lat="43.66073" lon="1.39205">
        <ele>126</ele>
        <time>2025-05-13T16:18:50Z</time>
      </trkpt>
      <trkpt lat="43.66075" lon="1.39203">
        <ele>126</ele>
        <time>2025-05-13T16:18:51Z</time>
      </trkpt>
      <trkpt lat="43.66079" lon="1.392">
        <ele>126</ele>
        <time>2025-05-13T16:18:52Z</time>
      </trkpt>
      <trkpt lat="43.66081" lon="1.39199">
        <ele>126</ele>
        <time>2025-05-13T16:18:53Z</time>
      </trkpt>
      <trkpt lat="43.66083" lon="1.39198">
        <ele>126</ele>
        <time>2025-05-13T16:18:54Z</time>
      </trkpt>
      <trkpt lat="43.66083" lon="1.39198">
        <ele>125</ele>
        <time>2025-05-13T16:18:55Z</time>
      </trkpt>
      <trkpt lat="43.66085" lon="1.39196">
        <ele>125</ele>
        <time>2025-05-13T16:18:56Z</time>
      </trkpt>
      <trkpt lat="43.66087" lon="1.39196">
        <ele>125</ele>
        <time>2025-05-13T16:18:57Z</time>
      </trkpt>
      <trkpt lat="43.6609" lon="1.39195">
        <ele>125</ele>
        <time>2025-05-13T16:18:58Z</time>
      </trkpt>
      <trkpt lat="43.66092" lon="1.39195">
        <ele>125</ele>
        <time>2025-05-13T16:18:59Z</time>
      </trkpt>
      <trkpt lat="43.66095" lon="1.39195">
        <ele>125</ele>
        <time>2025-05-13T16:19:00Z</time>
      </trkpt>
      <trkpt lat="43.66099" lon="1.39196">
        <ele>125</ele>
        <time>2025-05-13T16:19:01Z</time>
      </trkpt>
      <trkpt lat="43.66101" lon="1.39196">
        <ele>126</ele>
        <time>2025-05-13T16:19:02Z</time>
      </trkpt>
      <trkpt lat="43.66105" lon="1.39195">
        <ele>126</ele>
        <time>2025-05-13T16:19:03Z</time>
      </trkpt>
      <trkpt lat="43.66106" lon="1.39195">
        <ele>126</ele>
        <time>2025-05-13T16:19:04Z</time>
      </trkpt>
      <trkpt lat="43.6611" lon="1.39193">
        <ele>126</ele>
        <time>2025-05-13T16:19:05Z</time>
      </trkpt>
      <trkpt lat="43.66111" lon="1.39193">
        <ele>126</ele>
        <time>2025-05-13T16:19:06Z</time>
      </trkpt>
      <trkpt lat="43.66114" lon="1.39192">
        <ele>125</ele>
        <time>2025-05-13T16:19:07Z</time>
      </trkpt>
      <trkpt lat="43.66116" lon="1.39191">
        <ele>125</ele>
        <time>2025-05-13T16:19:08Z</time>
      </trkpt>
      <trkpt lat="43.66118" lon="1.39191">
        <ele>125</ele>
        <time>2025-05-13T16:19:09Z</time>
      </trkpt>
      <trkpt lat="43.66121" lon="1.3919">
        <ele>125</ele>
        <time>2025-05-13T16:19:10Z</time>
      </trkpt>
      <trkpt lat="43.66125" lon="1.39188">
        <ele>125</ele>
        <time>2025-05-13T16:19:11Z</time>
      </trkpt>
      <trkpt lat="43.66126" lon="1.39187">
        <ele>125</ele>
        <time>2025-05-13T16:19:12Z</time>
      </trkpt>
      <trkpt lat="43.66131" lon="1.39185">
        <ele>125</ele>
        <time>2025-05-13T16:19:13Z</time>
      </trkpt>
      <trkpt lat="43.66132" lon="1.39185">
        <ele>125</ele>
        <time>2025-05-13T16:19:14Z</time>
      </trkpt>
      <trkpt lat="43.66135" lon="1.39184">
        <ele>125</ele>
        <time>2025-05-13T16:19:15Z</time>
      </trkpt>
      <trkpt lat="43.66139" lon="1.39183">
        <ele>125</ele>
        <time>2025-05-13T16:19:16Z</time>
      </trkpt>
      <trkpt lat="43.66141" lon="1.39181">
        <ele>125</ele>
        <time>2025-05-13T16:19:17Z</time>
      </trkpt>
      <trkpt lat="43.66144" lon="1.39179">
        <ele>125</ele>
        <time>2025-05-13T16:19:18Z</time>
      </trkpt>
      <trkpt lat="43.66146" lon="1.39178">
        <ele>125</ele>
        <time>2025-05-13T16:19:19Z</time>
      </trkpt>
      <trkpt lat="43.66148" lon="1.39177">
        <ele>125</ele>
        <time>2025-05-13T16:19:20Z</time>
      </trkpt>
      <trkpt lat="43.6615" lon="1.39176">
        <ele>126</ele>
        <time>2025-05-13T16:19:21Z</time>
      </trkpt>
      <trkpt lat="43.66152" lon="1.39175">
        <ele>126</ele>
        <time>2025-05-13T16:19:22Z</time>
      </trkpt>
      <trkpt lat="43.66155" lon="1.39174">
        <ele>126</ele>
        <time>2025-05-13T16:19:23Z</time>
      </trkpt>
      <trkpt lat="43.6616" lon="1.39169">
        <ele>126</ele>
        <time>2025-05-13T16:19:25Z</time>
      </trkpt>
      <trkpt lat="43.66164" lon="1.39165">
        <ele>126</ele>
        <time>2025-05-13T16:19:26Z</time>
      </trkpt>
      <trkpt lat="43.66166" lon="1.39164">
        <ele>126</ele>
        <time>2025-05-13T16:19:27Z</time>
      </trkpt>
      <trkpt lat="43.66168" lon="1.39161">
        <ele>126</ele>
        <time>2025-05-13T16:19:28Z</time>
      </trkpt>
      <trkpt lat="43.66171" lon="1.39158">
        <ele>126</ele>
        <time>2025-05-13T16:19:29Z</time>
      </trkpt>
      <trkpt lat="43.66172" lon="1.39156">
        <ele>126</ele>
        <time>2025-05-13T16:19:30Z</time>
      </trkpt>
      <trkpt lat="43.66174" lon="1.39154">
        <ele>125</ele>
        <time>2025-05-13T16:19:31Z</time>
      </trkpt>
      <trkpt lat="43.66177" lon="1.39151">
        <ele>125</ele>
        <time>2025-05-13T16:19:32Z</time>
      </trkpt>
      <trkpt lat="43.66179" lon="1.39148">
        <ele>125</ele>
        <time>2025-05-13T16:19:33Z</time>
      </trkpt>
      <trkpt lat="43.66183" lon="1.39145">
        <ele>125</ele>
        <time>2025-05-13T16:19:34Z</time>
      </trkpt>
      <trkpt lat="43.66184" lon="1.39145">
        <ele>125</ele>
        <time>2025-05-13T16:19:35Z</time>
      </trkpt>
      <trkpt lat="43.6619" lon="1.39142">
        <ele>125</ele>
        <time>2025-05-13T16:19:37Z</time>
      </trkpt>
      <trkpt lat="43.66192" lon="1.3914">
        <ele>125</ele>
        <time>2025-05-13T16:19:38Z</time>
      </trkpt>
      <trkpt lat="43.66194" lon="1.39138">
        <ele>125</ele>
        <time>2025-05-13T16:19:39Z</time>
      </trkpt>
      <trkpt lat="43.66197" lon="1.39137">
        <ele>125</ele>
        <time>2025-05-13T16:19:40Z</time>
      </trkpt>
      <trkpt lat="43.66202" lon="1.39136">
        <ele>125</ele>
        <time>2025-05-13T16:19:41Z</time>
      </trkpt>
      <trkpt lat="43.66204" lon="1.39136">
        <ele>125</ele>
        <time>2025-05-13T16:19:42Z</time>
      </trkpt>
      <trkpt lat="43.66206" lon="1.39136">
        <ele>125</ele>
        <time>2025-05-13T16:19:43Z</time>
      </trkpt>
      <trkpt lat="43.66209" lon="1.39138">
        <ele>126</ele>
        <time>2025-05-13T16:19:44Z</time>
      </trkpt>
      <trkpt lat="43.66212" lon="1.3914">
        <ele>126</ele>
        <time>2025-05-13T16:19:45Z</time>
      </trkpt>
      <trkpt lat="43.66216" lon="1.39143">
        <ele>126</ele>
        <time>2025-05-13T16:19:46Z</time>
      </trkpt>
      <trkpt lat="43.66218" lon="1.39145">
        <ele>126</ele>
        <time>2025-05-13T16:19:47Z</time>
      </trkpt>
      <trkpt lat="43.66222" lon="1.39149">
        <ele>125</ele>
        <time>2025-05-13T16:19:48Z</time>
      </trkpt>
      <trkpt lat="43.66223" lon="1.39151">
        <ele>125</ele>
        <time>2025-05-13T16:19:49Z</time>
      </trkpt>
      <trkpt lat="43.66227" lon="1.39156">
        <ele>125</ele>
        <time>2025-05-13T16:19:50Z</time>
      </trkpt>
      <trkpt lat="43.66228" lon="1.39157">
        <ele>125</ele>
        <time>2025-05-13T16:19:51Z</time>
      </trkpt>
      <trkpt lat="43.66231" lon="1.39159">
        <ele>125</ele>
        <time>2025-05-13T16:19:52Z</time>
      </trkpt>
      <trkpt lat="43.66235" lon="1.39162">
        <ele>125</ele>
        <time>2025-05-13T16:19:53Z</time>
      </trkpt>
      <trkpt lat="43.66236" lon="1.39163">
        <ele>125</ele>
        <time>2025-05-13T16:19:54Z</time>
      </trkpt>
      <trkpt lat="43.66241" lon="1.39164">
        <ele>125</ele>
        <time>2025-05-13T16:19:56Z</time>
      </trkpt>
      <trkpt lat="43.66246" lon="1.3916">
        <ele>125</ele>
        <time>2025-05-13T16:19:58Z</time>
      </trkpt>
      <trkpt lat="43.66248" lon="1.39158">
        <ele>125</ele>
        <time>2025-05-13T16:19:59Z</time>
      </trkpt>
      <trkpt lat="43.66251" lon="1.39157">
        <ele>125</ele>
        <time>2025-05-13T16:20:00Z</time>
      </trkpt>
      <trkpt lat="43.66254" lon="1.39157">
        <ele>125</ele>
        <time>2025-05-13T16:20:01Z</time>
      </trkpt>
      <trkpt lat="43.66259" lon="1.39158">
        <ele>125</ele>
        <time>2025-05-13T16:20:02Z</time>
      </trkpt>
      <trkpt lat="43.6626" lon="1.39159">
        <ele>125</ele>
        <time>2025-05-13T16:20:03Z</time>
      </trkpt>
      <trkpt lat="43.66264" lon="1.3916">
        <ele>125</ele>
        <time>2025-05-13T16:20:04Z</time>
      </trkpt>
      <trkpt lat="43.66265" lon="1.39161">
        <ele>124</ele>
        <time>2025-05-13T16:20:05Z</time>
      </trkpt>
      <trkpt lat="43.66269" lon="1.39165">
        <ele>124</ele>
        <time>2025-05-13T16:20:06Z</time>
      </trkpt>
      <trkpt lat="43.6627" lon="1.39167">
        <ele>124</ele>
        <time>2025-05-13T16:20:07Z</time>
      </trkpt>
      <trkpt lat="43.66272" lon="1.3917">
        <ele>124</ele>
        <time>2025-05-13T16:20:08Z</time>
      </trkpt>
      <trkpt lat="43.66274" lon="1.39176">
        <ele>124</ele>
        <time>2025-05-13T16:20:09Z</time>
      </trkpt>
      <trkpt lat="43.66274" lon="1.39178">
        <ele>124</ele>
        <time>2025-05-13T16:20:10Z</time>
      </trkpt>
      <trkpt lat="43.66276" lon="1.39184">
        <ele>124</ele>
        <time>2025-05-13T16:20:11Z</time>
      </trkpt>
      <trkpt lat="43.66276" lon="1.39187">
        <ele>124</ele>
        <time>2025-05-13T16:20:12Z</time>
      </trkpt>
      <trkpt lat="43.66277" lon="1.39191">
        <ele>124</ele>
        <time>2025-05-13T16:20:13Z</time>
      </trkpt>
      <trkpt lat="43.66277" lon="1.39191">
        <ele>125</ele>
        <time>2025-05-13T16:20:14Z</time>
      </trkpt>
      <trkpt lat="43.66279" lon="1.39198">
        <ele>125</ele>
        <time>2025-05-13T16:20:15Z</time>
      </trkpt>
      <trkpt lat="43.66279" lon="1.39201">
        <ele>124</ele>
        <time>2025-05-13T16:20:16Z</time>
      </trkpt>
      <trkpt lat="43.66279" lon="1.39205">
        <ele>123</ele>
        <time>2025-05-13T16:20:17Z</time>
      </trkpt>
      <trkpt lat="43.66281" lon="1.39208">
        <ele>124</ele>
        <time>2025-05-13T16:20:18Z</time>
      </trkpt>
      <trkpt lat="43.66281" lon="1.39211">
        <ele>124</ele>
        <time>2025-05-13T16:20:19Z</time>
      </trkpt>
      <trkpt lat="43.66282" lon="1.39214">
        <ele>124</ele>
        <time>2025-05-13T16:20:20Z</time>
      </trkpt>
      <trkpt lat="43.66283" lon="1.39217">
        <ele>125</ele>
        <time>2025-05-13T16:20:21Z</time>
      </trkpt>
      <trkpt lat="43.66284" lon="1.3922">
        <ele>125</ele>
        <time>2025-05-13T16:20:22Z</time>
      </trkpt>
      <trkpt lat="43.66285" lon="1.39225">
        <ele>125</ele>
        <time>2025-05-13T16:20:23Z</time>
      </trkpt>
      <trkpt lat="43.66286" lon="1.39226">
        <ele>125</ele>
        <time>2025-05-13T16:20:24Z</time>
      </trkpt>
      <trkpt lat="43.66287" lon="1.39231">
        <ele>125</ele>
        <time>2025-05-13T16:20:25Z</time>
      </trkpt>
      <trkpt lat="43.66287" lon="1.39232">
        <ele>125</ele>
        <time>2025-05-13T16:20:26Z</time>
      </trkpt>
      <trkpt lat="43.66288" lon="1.39236">
        <ele>125</ele>
        <time>2025-05-13T16:20:27Z</time>
      </trkpt>
      <trkpt lat="43.6629" lon="1.3924">
        <ele>125</ele>
        <time>2025-05-13T16:20:28Z</time>
      </trkpt>
      <trkpt lat="43.6629" lon="1.39242">
        <ele>126</ele>
        <time>2025-05-13T16:20:29Z</time>
      </trkpt>
      <trkpt lat="43.66292" lon="1.39245">
        <ele>126</ele>
        <time>2025-05-13T16:20:30Z</time>
      </trkpt>
      <trkpt lat="43.66293" lon="1.39249">
        <ele>126</ele>
        <time>2025-05-13T16:20:31Z</time>
      </trkpt>
      <trkpt lat="43.66295" lon="1.39252">
        <ele>126</ele>
        <time>2025-05-13T16:20:32Z</time>
      </trkpt>
      <trkpt lat="43.66297" lon="1.39255">
        <ele>126</ele>
        <time>2025-05-13T16:20:33Z</time>
      </trkpt>
      <trkpt lat="43.66299" lon="1.39257">
        <ele>126</ele>
        <time>2025-05-13T16:20:34Z</time>
      </trkpt>
      <trkpt lat="43.66301" lon="1.3926">
        <ele>126</ele>
        <time>2025-05-13T16:20:35Z</time>
      </trkpt>
      <trkpt lat="43.66303" lon="1.39264">
        <ele>126</ele>
        <time>2025-05-13T16:20:36Z</time>
      </trkpt>
      <trkpt lat="43.66305" lon="1.39267">
        <ele>126</ele>
        <time>2025-05-13T16:20:37Z</time>
      </trkpt>
      <trkpt lat="43.66307" lon="1.39269">
        <ele>126</ele>
        <time>2025-05-13T16:20:38Z</time>
      </trkpt>
      <trkpt lat="43.66309" lon="1.39271">
        <ele>126</ele>
        <time>2025-05-13T16:20:39Z</time>
      </trkpt>
      <trkpt lat="43.66312" lon="1.39274">
        <ele>126</ele>
        <time>2025-05-13T16:20:40Z</time>
      </trkpt>
      <trkpt lat="43.66314" lon="1.39276">
        <ele>126</ele>
        <time>2025-05-13T16:20:41Z</time>
      </trkpt>
      <trkpt lat="43.66318" lon="1.39279">
        <ele>126</ele>
        <time>2025-05-13T16:20:42Z</time>
      </trkpt>
      <trkpt lat="43.66319" lon="1.3928">
        <ele>126</ele>
        <time>2025-05-13T16:20:43Z</time>
      </trkpt>
      <trkpt lat="43.66322" lon="1.39281">
        <ele>126</ele>
        <time>2025-05-13T16:20:44Z</time>
      </trkpt>
      <trkpt lat="43.66323" lon="1.39281">
        <ele>126</ele>
        <time>2025-05-13T16:20:45Z</time>
      </trkpt>
      <trkpt lat="43.66327" lon="1.3928">
        <ele>126</ele>
        <time>2025-05-13T16:20:46Z</time>
      </trkpt>
      <trkpt lat="43.66327" lon="1.39279">
        <ele>125</ele>
        <time>2025-05-13T16:20:47Z</time>
      </trkpt>
      <trkpt lat="43.66331" lon="1.39278">
        <ele>125</ele>
        <time>2025-05-13T16:20:48Z</time>
      </trkpt>
      <trkpt lat="43.66333" lon="1.39277">
        <ele>125</ele>
        <time>2025-05-13T16:20:49Z</time>
      </trkpt>
      <trkpt lat="43.66335" lon="1.39276">
        <ele>125</ele>
        <time>2025-05-13T16:20:50Z</time>
      </trkpt>
      <trkpt lat="43.66338" lon="1.39274">
        <ele>124</ele>
        <time>2025-05-13T16:20:51Z</time>
      </trkpt>
      <trkpt lat="43.66339" lon="1.39273">
        <ele>124</ele>
        <time>2025-05-13T16:20:52Z</time>
      </trkpt>
      <trkpt lat="43.66341" lon="1.39272">
        <ele>124</ele>
        <time>2025-05-13T16:20:53Z</time>
      </trkpt>
      <trkpt lat="43.66343" lon="1.39271">
        <ele>124</ele>
        <time>2025-05-13T16:20:54Z</time>
      </trkpt>
      <trkpt lat="43.66346" lon="1.3927">
        <ele>124</ele>
        <time>2025-05-13T16:20:55Z</time>
      </trkpt>
      <trkpt lat="43.66349" lon="1.39269">
        <ele>124</ele>
        <time>2025-05-13T16:20:56Z</time>
      </trkpt>
      <trkpt lat="43.66352" lon="1.3927">
        <ele>124</ele>
        <time>2025-05-13T16:20:57Z</time>
      </trkpt>
      <trkpt lat="43.66355" lon="1.39271">
        <ele>124</ele>
        <time>2025-05-13T16:20:58Z</time>
      </trkpt>
      <trkpt lat="43.6636" lon="1.39272">
        <ele>124</ele>
        <time>2025-05-13T16:20:59Z</time>
      </trkpt>
      <trkpt lat="43.66361" lon="1.39273">
        <ele>124</ele>
        <time>2025-05-13T16:21:00Z</time>
      </trkpt>
      <trkpt lat="43.66365" lon="1.39274">
        <ele>124</ele>
        <time>2025-05-13T16:21:01Z</time>
      </trkpt>
      <trkpt lat="43.66367" lon="1.39276">
        <ele>124</ele>
        <time>2025-05-13T16:21:02Z</time>
      </trkpt>
      <trkpt lat="43.6637" lon="1.39278">
        <ele>125</ele>
        <time>2025-05-13T16:21:03Z</time>
      </trkpt>
      <trkpt lat="43.66373" lon="1.39281">
        <ele>125</ele>
        <time>2025-05-13T16:21:04Z</time>
      </trkpt>
      <trkpt lat="43.66375" lon="1.39284">
        <ele>125</ele>
        <time>2025-05-13T16:21:05Z</time>
      </trkpt>
      <trkpt lat="43.66377" lon="1.39285">
        <ele>125</ele>
        <time>2025-05-13T16:21:06Z</time>
      </trkpt>
      <trkpt lat="43.6638" lon="1.39288">
        <ele>125</ele>
        <time>2025-05-13T16:21:07Z</time>
      </trkpt>
      <trkpt lat="43.66383" lon="1.39289">
        <ele>125</ele>
        <time>2025-05-13T16:21:08Z</time>
      </trkpt>
      <trkpt lat="43.66385" lon="1.39291">
        <ele>125</ele>
        <time>2025-05-13T16:21:09Z</time>
      </trkpt>
      <trkpt lat="43.66388" lon="1.39293">
        <ele>125</ele>
        <time>2025-05-13T16:21:10Z</time>
      </trkpt>
      <trkpt lat="43.66391" lon="1.39296">
        <ele>124</ele>
        <time>2025-05-13T16:21:11Z</time>
      </trkpt>
      <trkpt lat="43.66394" lon="1.39299">
        <ele>124</ele>
        <time>2025-05-13T16:21:12Z</time>
      </trkpt>
      <trkpt lat="43.66398" lon="1.39302">
        <ele>124</ele>
        <time>2025-05-13T16:21:13Z</time>
      </trkpt>
      <trkpt lat="43.664" lon="1.39304">
        <ele>124</ele>
        <time>2025-05-13T16:21:14Z</time>
      </trkpt>
      <trkpt lat="43.66404" lon="1.39307">
        <ele>124</ele>
        <time>2025-05-13T16:21:15Z</time>
      </trkpt>
      <trkpt lat="43.66405" lon="1.39309">
        <ele>124</ele>
        <time>2025-05-13T16:21:16Z</time>
      </trkpt>
      <trkpt lat="43.66407" lon="1.39311">
        <ele>124</ele>
        <time>2025-05-13T16:21:17Z</time>
      </trkpt>
      <trkpt lat="43.66409" lon="1.39312">
        <ele>124</ele>
        <time>2025-05-13T16:21:18Z</time>
      </trkpt>
      <trkpt lat="43.66411" lon="1.39313">
        <ele>124</ele>
        <time>2025-05-13T16:21:19Z</time>
      </trkpt>
      <trkpt lat="43.66415" lon="1.39315">
        <ele>125</ele>
        <time>2025-05-13T16:21:20Z</time>
      </trkpt>
      <trkpt lat="43.66416" lon="1.39315">
        <ele>125</ele>
        <time>2025-05-13T16:21:21Z</time>
      </trkpt>
      <trkpt lat="43.6642" lon="1.39316">
        <ele>125</ele>
        <time>2025-05-13T16:21:22Z</time>
      </trkpt>
      <trkpt lat="43.66421" lon="1.39317">
        <ele>125</ele>
        <time>2025-05-13T16:21:23Z</time>
      </trkpt>
      <trkpt lat="43.66426" lon="1.39319">
        <ele>124</ele>
        <time>2025-05-13T16:21:24Z</time>
      </trkpt>
      <trkpt lat="43.66428" lon="1.39319">
        <ele>124</ele>
        <time>2025-05-13T16:21:25Z</time>
      </trkpt>
      <trkpt lat="43.6643" lon="1.3932">
        <ele>125</ele>
        <time>2025-05-13T16:21:26Z</time>
      </trkpt>
      <trkpt lat="43.66432" lon="1.3932">
        <ele>125</ele>
        <time>2025-05-13T16:21:27Z</time>
      </trkpt>
      <trkpt lat="43.66434" lon="1.39321">
        <ele>125</ele>
        <time>2025-05-13T16:21:28Z</time>
      </trkpt>
      <trkpt lat="43.66437" lon="1.39321">
        <ele>125</ele>
        <time>2025-05-13T16:21:29Z</time>
      </trkpt>
      <trkpt lat="43.66442" lon="1.3932">
        <ele>125</ele>
        <time>2025-05-13T16:21:30Z</time>
      </trkpt>
      <trkpt lat="43.66443" lon="1.3932">
        <ele>125</ele>
        <time>2025-05-13T16:21:31Z</time>
      </trkpt>
      <trkpt lat="43.66447" lon="1.3932">
        <ele>125</ele>
        <time>2025-05-13T16:21:32Z</time>
      </trkpt>
      <trkpt lat="43.66448" lon="1.3932">
        <ele>125</ele>
        <time>2025-05-13T16:21:33Z</time>
      </trkpt>
      <trkpt lat="43.66452" lon="1.39321">
        <ele>125</ele>
        <time>2025-05-13T16:21:34Z</time>
      </trkpt>
      <trkpt lat="43.66454" lon="1.39321">
        <ele>125</ele>
        <time>2025-05-13T16:21:35Z</time>
      </trkpt>
      <trkpt lat="43.66457" lon="1.39321">
        <ele>125</ele>
        <time>2025-05-13T16:21:36Z</time>
      </trkpt>
      <trkpt lat="43.66459" lon="1.39321">
        <ele>125</ele>
        <time>2025-05-13T16:21:37Z</time>
      </trkpt>
      <trkpt lat="43.66461" lon="1.3932">
        <ele>126</ele>
        <time>2025-05-13T16:21:38Z</time>
      </trkpt>
      <trkpt lat="43.66464" lon="1.39319">
        <ele>126</ele>
        <time>2025-05-13T16:21:39Z</time>
      </trkpt>
      <trkpt lat="43.66466" lon="1.39318">
        <ele>126</ele>
        <time>2025-05-13T16:21:40Z</time>
      </trkpt>
      <trkpt lat="43.66469" lon="1.39317">
        <ele>126</ele>
        <time>2025-05-13T16:21:41Z</time>
      </trkpt>
      <trkpt lat="43.66471" lon="1.39315">
        <ele>126</ele>
        <time>2025-05-13T16:21:42Z</time>
      </trkpt>
      <trkpt lat="43.66475" lon="1.39313">
        <ele>126</ele>
        <time>2025-05-13T16:21:43Z</time>
      </trkpt>
      <trkpt lat="43.66477" lon="1.39312">
        <ele>125</ele>
        <time>2025-05-13T16:21:44Z</time>
      </trkpt>
      <trkpt lat="43.6648" lon="1.39311">
        <ele>125</ele>
        <time>2025-05-13T16:21:45Z</time>
      </trkpt>
      <trkpt lat="43.66482" lon="1.3931">
        <ele>125</ele>
        <time>2025-05-13T16:21:46Z</time>
      </trkpt>
      <trkpt lat="43.66485" lon="1.39309">
        <ele>124</ele>
        <time>2025-05-13T16:21:47Z</time>
      </trkpt>
      <trkpt lat="43.66488" lon="1.39306">
        <ele>124</ele>
        <time>2025-05-13T16:21:48Z</time>
      </trkpt>
      <trkpt lat="43.66489" lon="1.39305">
        <ele>124</ele>
        <time>2025-05-13T16:21:49Z</time>
      </trkpt>
      <trkpt lat="43.66491" lon="1.39303">
        <ele>124</ele>
        <time>2025-05-13T16:21:50Z</time>
      </trkpt>
      <trkpt lat="43.66494" lon="1.39299">
        <ele>124</ele>
        <time>2025-05-13T16:21:51Z</time>
      </trkpt>
      <trkpt lat="43.66495" lon="1.39298">
        <ele>124</ele>
        <time>2025-05-13T16:21:52Z</time>
      </trkpt>
      <trkpt lat="43.66497" lon="1.39293">
        <ele>123</ele>
        <time>2025-05-13T16:21:53Z</time>
      </trkpt>
      <trkpt lat="43.66498" lon="1.39291">
        <ele>123</ele>
        <time>2025-05-13T16:21:54Z</time>
      </trkpt>
      <trkpt lat="43.66499" lon="1.39287">
        <ele>123</ele>
        <time>2025-05-13T16:21:55Z</time>
      </trkpt>
      <trkpt lat="43.66501" lon="1.39283">
        <ele>123</ele>
        <time>2025-05-13T16:21:56Z</time>
      </trkpt>
      <trkpt lat="43.66503" lon="1.3928">
        <ele>123</ele>
        <time>2025-05-13T16:21:57Z</time>
      </trkpt>
      <trkpt lat="43.66504" lon="1.39276">
        <ele>123</ele>
        <time>2025-05-13T16:21:58Z</time>
      </trkpt>
      <trkpt lat="43.66505" lon="1.39273">
        <ele>123</ele>
        <time>2025-05-13T16:21:59Z</time>
      </trkpt>
      <trkpt lat="43.66506" lon="1.3927">
        <ele>123</ele>
        <time>2025-05-13T16:22:00Z</time>
      </trkpt>
      <trkpt lat="43.66508" lon="1.39267">
        <ele>123</ele>
        <time>2025-05-13T16:22:01Z</time>
      </trkpt>
      <trkpt lat="43.66552" lon="1.39227">
        <ele>121</ele>
        <time>2025-05-13T16:39:36Z</time>
      </trkpt>
      <trkpt lat="43.66553" lon="1.39224">
        <ele>122</ele>
        <time>2025-05-13T16:39:37Z</time>
      </trkpt>
      <trkpt lat="43.66553" lon="1.39224">
        <ele>122</ele>
        <time>2025-05-13T16:39:38Z</time>
      </trkpt>
      <trkpt lat="43.66554" lon="1.39221">
        <ele>122</ele>
        <time>2025-05-13T16:39:39Z</time>
      </trkpt>
      <trkpt lat="43.66554" lon="1.39221">
        <ele>121</ele>
        <time>2025-05-13T16:39:40Z</time>
      </trkpt>
      <trkpt lat="43.66556" lon="1.39216">
        <ele>121</ele>
        <time>2025-05-13T16:39:41Z</time>
      </trkpt>
      <trkpt lat="43.66557" lon="1.39215">
        <ele>122</ele>
        <time>2025-05-13T16:39:42Z</time>
      </trkpt>
      <trkpt lat="43.66557" lon="1.39212">
        <ele>122</ele>
        <time>2025-05-13T16:39:43Z</time>
      </trkpt>
      <trkpt lat="43.66558" lon="1.3921">
        <ele>122</ele>
        <time>2025-05-13T16:39:44Z</time>
      </trkpt>
      <trkpt lat="43.6656" lon="1.39207">
        <ele>122</ele>
        <time>2025-05-13T16:39:45Z</time>
      </trkpt>
      <trkpt lat="43.66561" lon="1.39205">
        <ele>122</ele>
        <time>2025-05-13T16:39:46Z</time>
      </trkpt>
      <trkpt lat="43.66562" lon="1.39203">
        <ele>122</ele>
        <time>2025-05-13T16:39:47Z</time>
      </trkpt>
      <trkpt lat="43.66563" lon="1.39201">
        <ele>122</ele>
        <time>2025-05-13T16:39:48Z</time>
      </trkpt>
      <trkpt lat="43.66564" lon="1.39199">
        <ele>122</ele>
        <time>2025-05-13T16:39:49Z</time>
      </trkpt>
      <trkpt lat="43.66566" lon="1.39195">
        <ele>122</ele>
        <time>2025-05-13T16:39:50Z</time>
      </trkpt>
      <trkpt lat="43.66566" lon="1.39194">
        <ele>122</ele>
        <time>2025-05-13T16:39:51Z</time>
      </trkpt>
      <trkpt lat="43.66567" lon="1.39189">
        <ele>122</ele>
        <time>2025-05-13T16:39:52Z</time>
      </trkpt>
      <trkpt lat="43.66567" lon="1.39187">
        <ele>123</ele>
        <time>2025-05-13T16:39:53Z</time>
      </trkpt>
      <trkpt lat="43.66567" lon="1.39183">
        <ele>123</ele>
        <time>2025-05-13T16:39:54Z</time>
      </trkpt>
      <trkpt lat="43.66567" lon="1.39178">
        <ele>123</ele>
        <time>2025-05-13T16:39:56Z</time>
      </trkpt>
      <trkpt lat="43.66567" lon="1.39173">
        <ele>123</ele>
        <time>2025-05-13T16:39:57Z</time>
      </trkpt>
      <trkpt lat="43.66568" lon="1.39171">
        <ele>123</ele>
        <time>2025-05-13T16:39:58Z</time>
      </trkpt>
      <trkpt lat="43.66568" lon="1.39169">
        <ele>123</ele>
        <time>2025-05-13T16:39:59Z</time>
      </trkpt>
      <trkpt lat="43.66569" lon="1.39166">
        <ele>123</ele>
        <time>2025-05-13T16:40:00Z</time>
      </trkpt>
      <trkpt lat="43.6657" lon="1.39162">
        <ele>123</ele>
        <time>2025-05-13T16:40:01Z</time>
      </trkpt>
      <trkpt lat="43.6657" lon="1.3916">
        <ele>123</ele>
        <time>2025-05-13T16:40:02Z</time>
      </trkpt>
      <trkpt lat="43.6657" lon="1.39157">
        <ele>123</ele>
        <time>2025-05-13T16:40:03Z</time>
      </trkpt>
      <trkpt lat="43.66571" lon="1.39153">
        <ele>123</ele>
        <time>2025-05-13T16:40:04Z</time>
      </trkpt>
      <trkpt lat="43.66571" lon="1.39152">
        <ele>123</ele>
        <time>2025-05-13T16:40:05Z</time>
      </trkpt>
      <trkpt lat="43.66572" lon="1.39149">
        <ele>123</ele>
        <time>2025-05-13T16:40:06Z</time>
      </trkpt>
      <trkpt lat="43.66572" lon="1.39146">
        <ele>123</ele>
        <time>2025-05-13T16:40:07Z</time>
      </trkpt>
      <trkpt lat="43.66572" lon="1.39143">
        <ele>123</ele>
        <time>2025-05-13T16:40:08Z</time>
      </trkpt>
      <trkpt lat="43.66573" lon="1.3914">
        <ele>123</ele>
        <time>2025-05-13T16:40:09Z</time>
      </trkpt>
      <trkpt lat="43.66573" lon="1.39137">
        <ele>123</ele>
        <time>2025-05-13T16:40:10Z</time>
      </trkpt>
      <trkpt lat="43.66573" lon="1.39134">
        <ele>123</ele>
        <time>2025-05-13T16:40:11Z</time>
      </trkpt>
      <trkpt lat="43.66573" lon="1.3913">
        <ele>123</ele>
        <time>2025-05-13T16:40:12Z</time>
      </trkpt>
      <trkpt lat="43.66573" lon="1.39127">
        <ele>122</ele>
        <time>2025-05-13T16:40:13Z</time>
      </trkpt>
      <trkpt lat="43.66574" lon="1.39123">
        <ele>122</ele>
        <time>2025-05-13T16:40:14Z</time>
      </trkpt>
      <trkpt lat="43.66574" lon="1.39121">
        <ele>122</ele>
        <time>2025-05-13T16:40:15Z</time>
      </trkpt>
      <trkpt lat="43.66575" lon="1.39118">
        <ele>122</ele>
        <time>2025-05-13T16:40:16Z</time>
      </trkpt>
      <trkpt lat="43.66575" lon="1.39115">
        <ele>122</ele>
        <time>2025-05-13T16:40:17Z</time>
      </trkpt>
      <trkpt lat="43.66576" lon="1.39112">
        <ele>122</ele>
        <time>2025-05-13T16:40:18Z</time>
      </trkpt>
      <trkpt lat="43.66576" lon="1.39108">
        <ele>122</ele>
        <time>2025-05-13T16:40:19Z</time>
      </trkpt>
      <trkpt lat="43.66577" lon="1.39106">
        <ele>122</ele>
        <time>2025-05-13T16:40:20Z</time>
      </trkpt>
      <trkpt lat="43.66577" lon="1.39103">
        <ele>122</ele>
        <time>2025-05-13T16:40:21Z</time>
      </trkpt>
      <trkpt lat="43.66578" lon="1.391">
        <ele>122</ele>
        <time>2025-05-13T16:40:22Z</time>
      </trkpt>
      <trkpt lat="43.66578" lon="1.39096">
        <ele>122</ele>
        <time>2025-05-13T16:40:23Z</time>
      </trkpt>
      <trkpt lat="43.66578" lon="1.39094">
        <ele>122</ele>
        <time>2025-05-13T16:40:24Z</time>
      </trkpt>
      <trkpt lat="43.66578" lon="1.39091">
        <ele>122</ele>
        <time>2025-05-13T16:40:25Z</time>
      </trkpt>
      <trkpt lat="43.66579" lon="1.39088">
        <ele>122</ele>
        <time>2025-05-13T16:40:26Z</time>
      </trkpt>
      <trkpt lat="43.6658" lon="1.39085">
        <ele>122</ele>
        <time>2025-05-13T16:40:27Z</time>
      </trkpt>
      <trkpt lat="43.66581" lon="1.39083">
        <ele>122</ele>
        <time>2025-05-13T16:40:28Z</time>
      </trkpt>
      <trkpt lat="43.66582" lon="1.3908">
        <ele>122</ele>
        <time>2025-05-13T16:40:29Z</time>
      </trkpt>
      <trkpt lat="43.66582" lon="1.39077">
        <ele>122</ele>
        <time>2025-05-13T16:40:30Z</time>
      </trkpt>
      <trkpt lat="43.66583" lon="1.39072">
        <ele>122</ele>
        <time>2025-05-13T16:40:31Z</time>
      </trkpt>
      <trkpt lat="43.66584" lon="1.3907">
        <ele>122</ele>
        <time>2025-05-13T16:40:32Z</time>
      </trkpt>
      <trkpt lat="43.66584" lon="1.39067">
        <ele>122</ele>
        <time>2025-05-13T16:40:33Z</time>
      </trkpt>
      <trkpt lat="43.66585" lon="1.39064">
        <ele>122</ele>
        <time>2025-05-13T16:40:34Z</time>
      </trkpt>
      <trkpt lat="43.66586" lon="1.39061">
        <ele>122</ele>
        <time>2025-05-13T16:40:35Z</time>
      </trkpt>
      <trkpt lat="43.66588" lon="1.39058">
        <ele>122</ele>
        <time>2025-05-13T16:40:36Z</time>
      </trkpt>
      <trkpt lat="43.66589" lon="1.39055">
        <ele>122</ele>
        <time>2025-05-13T16:40:37Z</time>
      </trkpt>
      <trkpt lat="43.66589" lon="1.39052">
        <ele>122</ele>
        <time>2025-05-13T16:40:38Z</time>
      </trkpt>
      <trkpt lat="43.6659" lon="1.39049">
        <ele>122</ele>
        <time>2025-05-13T16:40:39Z</time>
      </trkpt>
      <trkpt lat="43.66591" lon="1.39046">
        <ele>122</ele>
        <time>2025-05-13T16:40:40Z</time>
      </trkpt>
      <trkpt lat="43.66592" lon="1.39043">
        <ele>122</ele>
        <time>2025-05-13T16:40:41Z</time>
      </trkpt>
      <trkpt lat="43.66592" lon="1.39039">
        <ele>122</ele>
        <time>2025-05-13T16:40:42Z</time>
      </trkpt>
      <trkpt lat="43.66593" lon="1.39036">
        <ele>122</ele>
        <time>2025-05-13T16:40:43Z</time>
      </trkpt>
      <trkpt lat="43.66593" lon="1.39033">
        <ele>122</ele>
        <time>2025-05-13T16:40:44Z</time>
      </trkpt>
      <trkpt lat="43.66594" lon="1.39029">
        <ele>122</ele>
        <time>2025-05-13T16:40:45Z</time>
      </trkpt>
      <trkpt lat="43.66595" lon="1.39026">
        <ele>122</ele>
        <time>2025-05-13T16:40:46Z</time>
      </trkpt>
      <trkpt lat="43.66595" lon="1.39023">
        <ele>122</ele>
        <time>2025-05-13T16:40:47Z</time>
      </trkpt>
      <trkpt lat="43.66596" lon="1.39019">
        <ele>122</ele>
        <time>2025-05-13T16:40:48Z</time>
      </trkpt>
      <trkpt lat="43.66597" lon="1.39016">
        <ele>122</ele>
        <time>2025-05-13T16:40:49Z</time>
      </trkpt>
      <trkpt lat="43.66597" lon="1.39012">
        <ele>122</ele>
        <time>2025-05-13T16:40:50Z</time>
      </trkpt>
      <trkpt lat="43.66598" lon="1.39009">
        <ele>122</ele>
        <time>2025-05-13T16:40:51Z</time>
      </trkpt>
      <trkpt lat="43.66599" lon="1.39006">
        <ele>122</ele>
        <time>2025-05-13T16:40:52Z</time>
      </trkpt>
      <trkpt lat="43.66599" lon="1.39004">
        <ele>122</ele>
        <time>2025-05-13T16:40:53Z</time>
      </trkpt>
      <trkpt lat="43.666" lon="1.39001">
        <ele>122</ele>
        <time>2025-05-13T16:40:54Z</time>
      </trkpt>
      <trkpt lat="43.66601" lon="1.38998">
        <ele>122</ele>
        <time>2025-05-13T16:40:55Z</time>
      </trkpt>
      <trkpt lat="43.66602" lon="1.38994">
        <ele>122</ele>
        <time>2025-05-13T16:40:56Z</time>
      </trkpt>
      <trkpt lat="43.66602" lon="1.38992">
        <ele>122</ele>
        <time>2025-05-13T16:40:57Z</time>
      </trkpt>
      <trkpt lat="43.66602" lon="1.38988">
        <ele>122</ele>
        <time>2025-05-13T16:40:58Z</time>
      </trkpt>
      <trkpt lat="43.66602" lon="1.38984">
        <ele>122</ele>
        <time>2025-05-13T16:40:59Z</time>
      </trkpt>
      <trkpt lat="43.66602" lon="1.38981">
        <ele>122</ele>
        <time>2025-05-13T16:41:00Z</time>
      </trkpt>
      <trkpt lat="43.66602" lon="1.38976">
        <ele>122</ele>
        <time>2025-05-13T16:41:01Z</time>
      </trkpt>
      <trkpt lat="43.66602" lon="1.38974">
        <ele>122</ele>
        <time>2025-05-13T16:41:02Z</time>
      </trkpt>
      <trkpt lat="43.66602" lon="1.38971">
        <ele>122</ele>
        <time>2025-05-13T16:41:03Z</time>
      </trkpt>
      <trkpt lat="43.66603" lon="1.38967">
        <ele>122</ele>
        <time>2025-05-13T16:41:04Z</time>
      </trkpt>
      <trkpt lat="43.66603" lon="1.38964">
        <ele>122</ele>
        <time>2025-05-13T16:41:05Z</time>
      </trkpt>
      <trkpt lat="43.66603" lon="1.3896">
        <ele>122</ele>
        <time>2025-05-13T16:41:06Z</time>
      </trkpt>
      <trkpt lat="43.66603" lon="1.38957">
        <ele>122</ele>
        <time>2025-05-13T16:41:07Z</time>
      </trkpt>
      <trkpt lat="43.66604" lon="1.38952">
        <ele>122</ele>
        <time>2025-05-13T16:41:08Z</time>
      </trkpt>
      <trkpt lat="43.66604" lon="1.38951">
        <ele>122</ele>
        <time>2025-05-13T16:41:09Z</time>
      </trkpt>
      <trkpt lat="43.66603" lon="1.38948">
        <ele>122</ele>
        <time>2025-05-13T16:41:10Z</time>
      </trkpt>
      <trkpt lat="43.66604" lon="1.38945">
        <ele>122</ele>
        <time>2025-05-13T16:41:11Z</time>
      </trkpt>
      <trkpt lat="43.66604" lon="1.38942">
        <ele>122</ele>
        <time>2025-05-13T16:41:12Z</time>
      </trkpt>
      <trkpt lat="43.66603" lon="1.38938">
        <ele>122</ele>
        <time>2025-05-13T16:41:13Z</time>
      </trkpt>
      <trkpt lat="43.66603" lon="1.38935">
        <ele>122</ele>
        <time>2025-05-13T16:41:14Z</time>
      </trkpt>
      <trkpt lat="43.66603" lon="1.38932">
        <ele>122</ele>
        <time>2025-05-13T16:41:15Z</time>
      </trkpt>
      <trkpt lat="43.66603" lon="1.38928">
        <ele>122</ele>
        <time>2025-05-13T16:41:16Z</time>
      </trkpt>
      <trkpt lat="43.66604" lon="1.38925">
        <ele>122</ele>
        <time>2025-05-13T16:41:17Z</time>
      </trkpt>
      <trkpt lat="43.66604" lon="1.38921">
        <ele>122</ele>
        <time>2025-05-13T16:41:18Z</time>
      </trkpt>
      <trkpt lat="43.66604" lon="1.38918">
        <ele>122</ele>
        <time>2025-05-13T16:41:19Z</time>
      </trkpt>
      <trkpt lat="43.66604" lon="1.38914">
        <ele>122</ele>
        <time>2025-05-13T16:41:20Z</time>
      </trkpt>
      <trkpt lat="43.66605" lon="1.3891">
        <ele>122</ele>
        <time>2025-05-13T16:41:21Z</time>
      </trkpt>
      <trkpt lat="43.66605" lon="1.38907">
        <ele>122</ele>
        <time>2025-05-13T16:41:22Z</time>
      </trkpt>
      <trkpt lat="43.66605" lon="1.38903">
        <ele>122</ele>
        <time>2025-05-13T16:41:23Z</time>
      </trkpt>
      <trkpt lat="43.66605" lon="1.38899">
        <ele>122</ele>
        <time>2025-05-13T16:41:24Z</time>
      </trkpt>
      <trkpt lat="43.66605" lon="1.38897">
        <ele>122</ele>
        <time>2025-05-13T16:41:25Z</time>
      </trkpt>
      <trkpt lat="43.66606" lon="1.38892">
        <ele>122</ele>
        <time>2025-05-13T16:41:26Z</time>
      </trkpt>
      <trkpt lat="43.66606" lon="1.38891">
        <ele>122</ele>
        <time>2025-05-13T16:41:27Z</time>
      </trkpt>
      <trkpt lat="43.66607" lon="1.38887">
        <ele>122</ele>
        <time>2025-05-13T16:41:28Z</time>
      </trkpt>
      <trkpt lat="43.66607" lon="1.38884">
        <ele>122</ele>
        <time>2025-05-13T16:41:29Z</time>
      </trkpt>
      <trkpt lat="43.66608" lon="1.3888">
        <ele>122</ele>
        <time>2025-05-13T16:41:30Z</time>
      </trkpt>
      <trkpt lat="43.66608" lon="1.38876">
        <ele>122</ele>
        <time>2025-05-13T16:41:31Z</time>
      </trkpt>
      <trkpt lat="43.66608" lon="1.38873">
        <ele>122</ele>
        <time>2025-05-13T16:41:32Z</time>
      </trkpt>
      <trkpt lat="43.66608" lon="1.38869">
        <ele>122</ele>
        <time>2025-05-13T16:41:33Z</time>
      </trkpt>
      <trkpt lat="43.66608" lon="1.38866">
        <ele>122</ele>
        <time>2025-05-13T16:41:34Z</time>
      </trkpt>
      <trkpt lat="43.66608" lon="1.38863">
        <ele>122</ele>
        <time>2025-05-13T16:41:35Z</time>
      </trkpt>
      <trkpt lat="43.66608" lon="1.38857">
        <ele>122</ele>
        <time>2025-05-13T16:41:36Z</time>
      </trkpt>
      <trkpt lat="43.66608" lon="1.38856">
        <ele>122</ele>
        <time>2025-05-13T16:41:37Z</time>
      </trkpt>
      <trkpt lat="43.66609" lon="1.3885">
        <ele>122</ele>
        <time>2025-05-13T16:41:38Z</time>
      </trkpt>
      <trkpt lat="43.66609" lon="1.38848">
        <ele>122</ele>
        <time>2025-05-13T16:41:39Z</time>
      </trkpt>
      <trkpt lat="43.66608" lon="1.38844">
        <ele>122</ele>
        <time>2025-05-13T16:41:40Z</time>
      </trkpt>
      <trkpt lat="43.66608" lon="1.38839">
        <ele>122</ele>
        <time>2025-05-13T16:41:41Z</time>
      </trkpt>
      <trkpt lat="43.66608" lon="1.38838">
        <ele>122</ele>
        <time>2025-05-13T16:41:42Z</time>
      </trkpt>
      <trkpt lat="43.66607" lon="1.38832">
        <ele>122</ele>
        <time>2025-05-13T16:41:43Z</time>
      </trkpt>
      <trkpt lat="43.66607" lon="1.38831">
        <ele>122</ele>
        <time>2025-05-13T16:41:44Z</time>
      </trkpt>
      <trkpt lat="43.66607" lon="1.38825">
        <ele>123</ele>
        <time>2025-05-13T16:41:45Z</time>
      </trkpt>
      <trkpt lat="43.66607" lon="1.38823">
        <ele>123</ele>
        <time>2025-05-13T16:41:46Z</time>
      </trkpt>
      <trkpt lat="43.66606" lon="1.3882">
        <ele>123</ele>
        <time>2025-05-13T16:41:47Z</time>
      </trkpt>
      <trkpt lat="43.66606" lon="1.38816">
        <ele>123</ele>
        <time>2025-05-13T16:41:48Z</time>
      </trkpt>
      <trkpt lat="43.66605" lon="1.38813">
        <ele>123</ele>
        <time>2025-05-13T16:41:49Z</time>
      </trkpt>
      <trkpt lat="43.66604" lon="1.3881">
        <ele>123</ele>
        <time>2025-05-13T16:41:50Z</time>
      </trkpt>
      <trkpt lat="43.66603" lon="1.38807">
        <ele>123</ele>
        <time>2025-05-13T16:41:51Z</time>
      </trkpt>
      <trkpt lat="43.66603" lon="1.38804">
        <ele>123</ele>
        <time>2025-05-13T16:41:52Z</time>
      </trkpt>
      <trkpt lat="43.66602" lon="1.38801">
        <ele>123</ele>
        <time>2025-05-13T16:41:53Z</time>
      </trkpt>
      <trkpt lat="43.66601" lon="1.38797">
        <ele>123</ele>
        <time>2025-05-13T16:41:54Z</time>
      </trkpt>
      <trkpt lat="43.666" lon="1.38794">
        <ele>123</ele>
        <time>2025-05-13T16:41:55Z</time>
      </trkpt>
      <trkpt lat="43.666" lon="1.38791">
        <ele>123</ele>
        <time>2025-05-13T16:41:56Z</time>
      </trkpt>
      <trkpt lat="43.66599" lon="1.38788">
        <ele>123</ele>
        <time>2025-05-13T16:41:57Z</time>
      </trkpt>
      <trkpt lat="43.66598" lon="1.38785">
        <ele>122</ele>
        <time>2025-05-13T16:41:58Z</time>
      </trkpt>
      <trkpt lat="43.66597" lon="1.38783">
        <ele>122</ele>
        <time>2025-05-13T16:41:59Z</time>
      </trkpt>
      <trkpt lat="43.66596" lon="1.38779">
        <ele>122</ele>
        <time>2025-05-13T16:42:00Z</time>
      </trkpt>
      <trkpt lat="43.66595" lon="1.38776">
        <ele>122</ele>
        <time>2025-05-13T16:42:01Z</time>
      </trkpt>
      <trkpt lat="43.66593" lon="1.38773">
        <ele>122</ele>
        <time>2025-05-13T16:42:02Z</time>
      </trkpt>
      <trkpt lat="43.66592" lon="1.3877">
        <ele>122</ele>
        <time>2025-05-13T16:42:03Z</time>
      </trkpt>
      <trkpt lat="43.6659" lon="1.38767">
        <ele>122</ele>
        <time>2025-05-13T16:42:04Z</time>
      </trkpt>
      <trkpt lat="43.66588" lon="1.38762">
        <ele>122</ele>
        <time>2025-05-13T16:42:05Z</time>
      </trkpt>
      <trkpt lat="43.66587" lon="1.38761">
        <ele>121</ele>
        <time>2025-05-13T16:42:06Z</time>
      </trkpt>
      <trkpt lat="43.66586" lon="1.38758">
        <ele>121</ele>
        <time>2025-05-13T16:42:07Z</time>
      </trkpt>
      <trkpt lat="43.66583" lon="1.38753">
        <ele>121</ele>
        <time>2025-05-13T16:42:09Z</time>
      </trkpt>
      <trkpt lat="43.66581" lon="1.38751">
        <ele>121</ele>
        <time>2025-05-13T16:42:10Z</time>
      </trkpt>
      <trkpt lat="43.66579" lon="1.38749">
        <ele>121</ele>
        <time>2025-05-13T16:42:11Z</time>
      </trkpt>
      <trkpt lat="43.66577" lon="1.38746">
        <ele>121</ele>
        <time>2025-05-13T16:42:12Z</time>
      </trkpt>
      <trkpt lat="43.66575" lon="1.38742">
        <ele>121</ele>
        <time>2025-05-13T16:42:13Z</time>
      </trkpt>
      <trkpt lat="43.66574" lon="1.38741">
        <ele>121</ele>
        <time>2025-05-13T16:42:14Z</time>
      </trkpt>
      <trkpt lat="43.66572" lon="1.38736">
        <ele>121</ele>
        <time>2025-05-13T16:42:15Z</time>
      </trkpt>
      <trkpt lat="43.66571" lon="1.38735">
        <ele>121</ele>
        <time>2025-05-13T16:42:16Z</time>
      </trkpt>
      <trkpt lat="43.66569" lon="1.3873">
        <ele>121</ele>
        <time>2025-05-13T16:42:17Z</time>
      </trkpt>
      <trkpt lat="43.66568" lon="1.38729">
        <ele>121</ele>
        <time>2025-05-13T16:42:18Z</time>
      </trkpt>
      <trkpt lat="43.66566" lon="1.38726">
        <ele>121</ele>
        <time>2025-05-13T16:42:19Z</time>
      </trkpt>
      <trkpt lat="43.66565" lon="1.38725">
        <ele>121</ele>
        <time>2025-05-13T16:42:20Z</time>
      </trkpt>
      <trkpt lat="43.66563" lon="1.38724">
        <ele>120</ele>
        <time>2025-05-13T16:42:21Z</time>
      </trkpt>
      <trkpt lat="43.66559" lon="1.38723">
        <ele>120</ele>
        <time>2025-05-13T16:42:22Z</time>
      </trkpt>
      <trkpt lat="43.66558" lon="1.38723">
        <ele>120</ele>
        <time>2025-05-13T16:42:23Z</time>
      </trkpt>
      <trkpt lat="43.66554" lon="1.38722">
        <ele>120</ele>
        <time>2025-05-13T16:42:24Z</time>
      </trkpt>
      <trkpt lat="43.66553" lon="1.38722">
        <ele>121</ele>
        <time>2025-05-13T16:42:25Z</time>
      </trkpt>
      <trkpt lat="43.66551" lon="1.38721">
        <ele>121</ele>
        <time>2025-05-13T16:42:26Z</time>
      </trkpt>
      <trkpt lat="43.66547" lon="1.38722">
        <ele>121</ele>
        <time>2025-05-13T16:42:28Z</time>
      </trkpt>
      <trkpt lat="43.66544" lon="1.38724">
        <ele>121</ele>
        <time>2025-05-13T16:42:29Z</time>
      </trkpt>
      <trkpt lat="43.66543" lon="1.38725">
        <ele>122</ele>
        <time>2025-05-13T16:42:30Z</time>
      </trkpt>
      <trkpt lat="43.6654" lon="1.38729">
        <ele>122</ele>
        <time>2025-05-13T16:42:31Z</time>
      </trkpt>
      <trkpt lat="43.66539" lon="1.38729">
        <ele>122</ele>
        <time>2025-05-13T16:42:32Z</time>
      </trkpt>
      <trkpt lat="43.66538" lon="1.38731">
        <ele>122</ele>
        <time>2025-05-13T16:42:33Z</time>
      </trkpt>
      <trkpt lat="43.66538" lon="1.38731">
        <ele>122</ele>
        <time>2025-05-13T16:42:34Z</time>
      </trkpt>
      <trkpt lat="43.66535" lon="1.38734">
        <ele>122</ele>
        <time>2025-05-13T16:42:35Z</time>
      </trkpt>
      <trkpt lat="43.66532" lon="1.38737">
        <ele>122</ele>
        <time>2025-05-13T16:42:36Z</time>
      </trkpt>
      <trkpt lat="43.66531" lon="1.38738">
        <ele>122</ele>
        <time>2025-05-13T16:42:37Z</time>
      </trkpt>
      <trkpt lat="43.6653" lon="1.3874">
        <ele>122</ele>
        <time>2025-05-13T16:42:38Z</time>
      </trkpt>
      <trkpt lat="43.66528" lon="1.38741">
        <ele>122</ele>
        <time>2025-05-13T16:42:39Z</time>
      </trkpt>
      <trkpt lat="43.66526" lon="1.38743">
        <ele>122</ele>
        <time>2025-05-13T16:42:40Z</time>
      </trkpt>
      <trkpt lat="43.66525" lon="1.38745">
        <ele>122</ele>
        <time>2025-05-13T16:42:41Z</time>
      </trkpt>
      <trkpt lat="43.66523" lon="1.38747">
        <ele>122</ele>
        <time>2025-05-13T16:42:42Z</time>
      </trkpt>
      <trkpt lat="43.66522" lon="1.38749">
        <ele>122</ele>
        <time>2025-05-13T16:42:43Z</time>
      </trkpt>
      <trkpt lat="43.6652" lon="1.38751">
        <ele>122</ele>
        <time>2025-05-13T16:42:44Z</time>
      </trkpt>
      <trkpt lat="43.66518" lon="1.38753">
        <ele>122</ele>
        <time>2025-05-13T16:42:45Z</time>
      </trkpt>
      <trkpt lat="43.66516" lon="1.38755">
        <ele>122</ele>
        <time>2025-05-13T16:42:46Z</time>
      </trkpt>
      <trkpt lat="43.66515" lon="1.38756">
        <ele>122</ele>
        <time>2025-05-13T16:42:47Z</time>
      </trkpt>
      <trkpt lat="43.66513" lon="1.38758">
        <ele>122</ele>
        <time>2025-05-13T16:42:48Z</time>
      </trkpt>
      <trkpt lat="43.6651" lon="1.38761">
        <ele>122</ele>
        <time>2025-05-13T16:42:49Z</time>
      </trkpt>
      <trkpt lat="43.66509" lon="1.38763">
        <ele>122</ele>
        <time>2025-05-13T16:42:50Z</time>
      </trkpt>
      <trkpt lat="43.66508" lon="1.38765">
        <ele>122</ele>
        <time>2025-05-13T16:42:51Z</time>
      </trkpt>
      <trkpt lat="43.66506" lon="1.38767">
        <ele>122</ele>
        <time>2025-05-13T16:42:52Z</time>
      </trkpt>
      <trkpt lat="43.66504" lon="1.38769">
        <ele>122</ele>
        <time>2025-05-13T16:42:53Z</time>
      </trkpt>
      <trkpt lat="43.66502" lon="1.38772">
        <ele>122</ele>
        <time>2025-05-13T16:42:54Z</time>
      </trkpt>
      <trkpt lat="43.665" lon="1.38774">
        <ele>122</ele>
        <time>2025-05-13T16:42:55Z</time>
      </trkpt>
      <trkpt lat="43.66497" lon="1.38779">
        <ele>122</ele>
        <time>2025-05-13T16:42:56Z</time>
      </trkpt>
      <trkpt lat="43.66496" lon="1.3878">
        <ele>122</ele>
        <time>2025-05-13T16:42:57Z</time>
      </trkpt>
      <trkpt lat="43.66495" lon="1.38782">
        <ele>122</ele>
        <time>2025-05-13T16:42:58Z</time>
      </trkpt>
      <trkpt lat="43.66493" lon="1.38784">
        <ele>122</ele>
        <time>2025-05-13T16:42:59Z</time>
      </trkpt>
      <trkpt lat="43.66491" lon="1.38786">
        <ele>122</ele>
        <time>2025-05-13T16:43:00Z</time>
      </trkpt>
      <trkpt lat="43.6649" lon="1.38788">
        <ele>122</ele>
        <time>2025-05-13T16:43:01Z</time>
      </trkpt>
      <trkpt lat="43.66488" lon="1.38789">
        <ele>123</ele>
        <time>2025-05-13T16:43:02Z</time>
      </trkpt>
      <trkpt lat="43.66488" lon="1.38789">
        <ele>123</ele>
        <time>2025-05-13T16:43:03Z</time>
      </trkpt>
      <trkpt lat="43.66485" lon="1.38792">
        <ele>122</ele>
        <time>2025-05-13T16:43:04Z</time>
      </trkpt>
      <trkpt lat="43.66481" lon="1.38796">
        <ele>122</ele>
        <time>2025-05-13T16:43:06Z</time>
      </trkpt>
      <trkpt lat="43.66479" lon="1.38799">
        <ele>122</ele>
        <time>2025-05-13T16:43:07Z</time>
      </trkpt>
      <trkpt lat="43.66478" lon="1.38802">
        <ele>122</ele>
        <time>2025-05-13T16:43:08Z</time>
      </trkpt>
      <trkpt lat="43.66476" lon="1.38804">
        <ele>122</ele>
        <time>2025-05-13T16:43:09Z</time>
      </trkpt>
      <trkpt lat="43.66474" lon="1.38805">
        <ele>122</ele>
        <time>2025-05-13T16:43:10Z</time>
      </trkpt>
      <trkpt lat="43.6647" lon="1.38809">
        <ele>122</ele>
        <time>2025-05-13T16:43:11Z</time>
      </trkpt>
      <trkpt lat="43.66469" lon="1.3881">
        <ele>122</ele>
        <time>2025-05-13T16:43:12Z</time>
      </trkpt>
      <trkpt lat="43.66466" lon="1.38812">
        <ele>122</ele>
        <time>2025-05-13T16:43:13Z</time>
      </trkpt>
      <trkpt lat="43.66463" lon="1.38814">
        <ele>122</ele>
        <time>2025-05-13T16:43:14Z</time>
      </trkpt>
      <trkpt lat="43.66461" lon="1.38816">
        <ele>122</ele>
        <time>2025-05-13T16:43:15Z</time>
      </trkpt>
      <trkpt lat="43.66458" lon="1.38818">
        <ele>122</ele>
        <time>2025-05-13T16:43:16Z</time>
      </trkpt>
      <trkpt lat="43.66456" lon="1.3882">
        <ele>122</ele>
        <time>2025-05-13T16:43:17Z</time>
      </trkpt>
      <trkpt lat="43.66453" lon="1.38821">
        <ele>122</ele>
        <time>2025-05-13T16:43:18Z</time>
      </trkpt>
      <trkpt lat="43.66451" lon="1.38823">
        <ele>122</ele>
        <time>2025-05-13T16:43:19Z</time>
      </trkpt>
      <trkpt lat="43.66449" lon="1.38824">
        <ele>123</ele>
        <time>2025-05-13T16:43:20Z</time>
      </trkpt>
      <trkpt lat="43.66447" lon="1.38825">
        <ele>123</ele>
        <time>2025-05-13T16:43:21Z</time>
      </trkpt>
      <trkpt lat="43.66445" lon="1.38826">
        <ele>123</ele>
        <time>2025-05-13T16:43:22Z</time>
      </trkpt>
      <trkpt lat="43.66443" lon="1.38827">
        <ele>123</ele>
        <time>2025-05-13T16:43:23Z</time>
      </trkpt>
      <trkpt lat="43.66441" lon="1.38828">
        <ele>123</ele>
        <time>2025-05-13T16:43:24Z</time>
      </trkpt>
      <trkpt lat="43.66439" lon="1.38829">
        <ele>123</ele>
        <time>2025-05-13T16:43:25Z</time>
      </trkpt>
      <trkpt lat="43.66437" lon="1.3883">
        <ele>123</ele>
        <time>2025-05-13T16:43:26Z</time>
      </trkpt>
      <trkpt lat="43.66435" lon="1.38832">
        <ele>123</ele>
        <time>2025-05-13T16:43:27Z</time>
      </trkpt>
      <trkpt lat="43.66432" lon="1.38834">
        <ele>123</ele>
        <time>2025-05-13T16:43:28Z</time>
      </trkpt>
      <trkpt lat="43.66431" lon="1.38835">
        <ele>123</ele>
        <time>2025-05-13T16:43:29Z</time>
      </trkpt>
      <trkpt lat="43.66429" lon="1.38836">
        <ele>123</ele>
        <time>2025-05-13T16:43:30Z</time>
      </trkpt>
      <trkpt lat="43.66427" lon="1.38838">
        <ele>123</ele>
        <time>2025-05-13T16:43:31Z</time>
      </trkpt>
      <trkpt lat="43.66427" lon="1.38838">
        <ele>123</ele>
        <time>2025-05-13T16:43:32Z</time>
      </trkpt>
      <trkpt lat="43.66422" lon="1.38841">
        <ele>123</ele>
        <time>2025-05-13T16:43:33Z</time>
      </trkpt>
      <trkpt lat="43.6642" lon="1.38842">
        <ele>123</ele>
        <time>2025-05-13T16:43:34Z</time>
      </trkpt>
      <trkpt lat="43.66418" lon="1.38842">
        <ele>123</ele>
        <time>2025-05-13T16:43:35Z</time>
      </trkpt>
      <trkpt lat="43.66415" lon="1.38845">
        <ele>123</ele>
        <time>2025-05-13T16:43:36Z</time>
      </trkpt>
      <trkpt lat="43.66414" lon="1.38846">
        <ele>123</ele>
        <time>2025-05-13T16:43:37Z</time>
      </trkpt>
      <trkpt lat="43.66412" lon="1.38848">
        <ele>123</ele>
        <time>2025-05-13T16:43:38Z</time>
      </trkpt>
      <trkpt lat="43.66409" lon="1.38849">
        <ele>123</ele>
        <time>2025-05-13T16:43:39Z</time>
      </trkpt>
      <trkpt lat="43.66407" lon="1.38851">
        <ele>122</ele>
        <time>2025-05-13T16:43:40Z</time>
      </trkpt>
      <trkpt lat="43.66405" lon="1.38852">
        <ele>122</ele>
        <time>2025-05-13T16:43:41Z</time>
      </trkpt>
      <trkpt lat="43.66403" lon="1.38854">
        <ele>122</ele>
        <time>2025-05-13T16:43:42Z</time>
      </trkpt>
      <trkpt lat="43.664" lon="1.38857">
        <ele>122</ele>
        <time>2025-05-13T16:43:43Z</time>
      </trkpt>
      <trkpt lat="43.66398" lon="1.38858">
        <ele>122</ele>
        <time>2025-05-13T16:43:44Z</time>
      </trkpt>
      <trkpt lat="43.66396" lon="1.38861">
        <ele>122</ele>
        <time>2025-05-13T16:43:45Z</time>
      </trkpt>
      <trkpt lat="43.66393" lon="1.38863">
        <ele>122</ele>
        <time>2025-05-13T16:43:46Z</time>
      </trkpt>
      <trkpt lat="43.66392" lon="1.38866">
        <ele>121</ele>
        <time>2025-05-13T16:43:47Z</time>
      </trkpt>
      <trkpt lat="43.6639" lon="1.38869">
        <ele>122</ele>
        <time>2025-05-13T16:43:48Z</time>
      </trkpt>
      <trkpt lat="43.66388" lon="1.38871">
        <ele>122</ele>
        <time>2025-05-13T16:43:49Z</time>
      </trkpt>
      <trkpt lat="43.66386" lon="1.38874">
        <ele>122</ele>
        <time>2025-05-13T16:43:50Z</time>
      </trkpt>
      <trkpt lat="43.66384" lon="1.38877">
        <ele>122</ele>
        <time>2025-05-13T16:43:51Z</time>
      </trkpt>
      <trkpt lat="43.66382" lon="1.38879">
        <ele>122</ele>
        <time>2025-05-13T16:43:52Z</time>
      </trkpt>
      <trkpt lat="43.66379" lon="1.38882">
        <ele>122</ele>
        <time>2025-05-13T16:43:53Z</time>
      </trkpt>
      <trkpt lat="43.66377" lon="1.38884">
        <ele>122</ele>
        <time>2025-05-13T16:43:54Z</time>
      </trkpt>
      <trkpt lat="43.66375" lon="1.38886">
        <ele>122</ele>
        <time>2025-05-13T16:43:55Z</time>
      </trkpt>
      <trkpt lat="43.66373" lon="1.38889">
        <ele>122</ele>
        <time>2025-05-13T16:43:56Z</time>
      </trkpt>
      <trkpt lat="43.66371" lon="1.38891">
        <ele>122</ele>
        <time>2025-05-13T16:43:57Z</time>
      </trkpt>
      <trkpt lat="43.66369" lon="1.38893">
        <ele>122</ele>
        <time>2025-05-13T16:43:58Z</time>
      </trkpt>
      <trkpt lat="43.66368" lon="1.38896">
        <ele>122</ele>
        <time>2025-05-13T16:43:59Z</time>
      </trkpt>
      <trkpt lat="43.66365" lon="1.389">
        <ele>122</ele>
        <time>2025-05-13T16:44:00Z</time>
      </trkpt>
      <trkpt lat="43.66364" lon="1.38902">
        <ele>122</ele>
        <time>2025-05-13T16:44:01Z</time>
      </trkpt>
      <trkpt lat="43.66363" lon="1.38904">
        <ele>122</ele>
        <time>2025-05-13T16:44:02Z</time>
      </trkpt>
      <trkpt lat="43.66361" lon="1.38907">
        <ele>122</ele>
        <time>2025-05-13T16:44:03Z</time>
      </trkpt>
      <trkpt lat="43.6636" lon="1.38909">
        <ele>122</ele>
        <time>2025-05-13T16:44:04Z</time>
      </trkpt>
      <trkpt lat="43.66358" lon="1.38911">
        <ele>122</ele>
        <time>2025-05-13T16:44:05Z</time>
      </trkpt>
      <trkpt lat="43.66356" lon="1.38913">
        <ele>122</ele>
        <time>2025-05-13T16:44:06Z</time>
      </trkpt>
      <trkpt lat="43.66354" lon="1.38916">
        <ele>122</ele>
        <time>2025-05-13T16:44:07Z</time>
      </trkpt>
      <trkpt lat="43.66351" lon="1.3892">
        <ele>122</ele>
        <time>2025-05-13T16:44:08Z</time>
      </trkpt>
      <trkpt lat="43.66349" lon="1.38922">
        <ele>122</ele>
        <time>2025-05-13T16:44:09Z</time>
      </trkpt>
      <trkpt lat="43.66348" lon="1.38923">
        <ele>122</ele>
        <time>2025-05-13T16:44:10Z</time>
      </trkpt>
      <trkpt lat="43.66345" lon="1.38928">
        <ele>122</ele>
        <time>2025-05-13T16:44:11Z</time>
      </trkpt>
      <trkpt lat="43.66344" lon="1.38929">
        <ele>122</ele>
        <time>2025-05-13T16:44:12Z</time>
      </trkpt>
      <trkpt lat="43.66342" lon="1.38931">
        <ele>122</ele>
        <time>2025-05-13T16:44:13Z</time>
      </trkpt>
      <trkpt lat="43.66341" lon="1.38933">
        <ele>122</ele>
        <time>2025-05-13T16:44:14Z</time>
      </trkpt>
      <trkpt lat="43.66339" lon="1.38934">
        <ele>122</ele>
        <time>2025-05-13T16:44:15Z</time>
      </trkpt>
      <trkpt lat="43.66337" lon="1.38936">
        <ele>122</ele>
        <time>2025-05-13T16:44:16Z</time>
      </trkpt>
      <trkpt lat="43.66336" lon="1.38938">
        <ele>122</ele>
        <time>2025-05-13T16:44:17Z</time>
      </trkpt>
      <trkpt lat="43.66335" lon="1.3894">
        <ele>123</ele>
        <time>2025-05-13T16:44:18Z</time>
      </trkpt>
      <trkpt lat="43.66334" lon="1.38943">
        <ele>123</ele>
        <time>2025-05-13T16:44:19Z</time>
      </trkpt>
      <trkpt lat="43.66332" lon="1.38946">
        <ele>123</ele>
        <time>2025-05-13T16:44:20Z</time>
      </trkpt>
      <trkpt lat="43.6633" lon="1.38949">
        <ele>123</ele>
        <time>2025-05-13T16:44:21Z</time>
      </trkpt>
      <trkpt lat="43.66328" lon="1.38951">
        <ele>123</ele>
        <time>2025-05-13T16:44:22Z</time>
      </trkpt>
      <trkpt lat="43.66326" lon="1.38952">
        <ele>123</ele>
        <time>2025-05-13T16:44:23Z</time>
      </trkpt>
      <trkpt lat="43.66324" lon="1.38953">
        <ele>123</ele>
        <time>2025-05-13T16:44:24Z</time>
      </trkpt>
      <trkpt lat="43.66322" lon="1.38954">
        <ele>123</ele>
        <time>2025-05-13T16:44:25Z</time>
      </trkpt>
      <trkpt lat="43.6632" lon="1.38956">
        <ele>123</ele>
        <time>2025-05-13T16:44:26Z</time>
      </trkpt>
      <trkpt lat="43.66318" lon="1.38958">
        <ele>123</ele>
        <time>2025-05-13T16:44:27Z</time>
      </trkpt>
      <trkpt lat="43.66316" lon="1.38961">
        <ele>122</ele>
        <time>2025-05-13T16:44:28Z</time>
      </trkpt>
      <trkpt lat="43.66315" lon="1.38964">
        <ele>122</ele>
        <time>2025-05-13T16:44:29Z</time>
      </trkpt>
      <trkpt lat="43.66314" lon="1.38968">
        <ele>122</ele>
        <time>2025-05-13T16:44:30Z</time>
      </trkpt>
      <trkpt lat="43.66312" lon="1.38971">
        <ele>122</ele>
        <time>2025-05-13T16:44:31Z</time>
      </trkpt>
      <trkpt lat="43.66311" lon="1.38972">
        <ele>123</ele>
        <time>2025-05-13T16:44:32Z</time>
      </trkpt>
      <trkpt lat="43.66309" lon="1.38975">
        <ele>123</ele>
        <time>2025-05-13T16:44:33Z</time>
      </trkpt>
      <trkpt lat="43.66307" lon="1.38977">
        <ele>123</ele>
        <time>2025-05-13T16:44:34Z</time>
      </trkpt>
      <trkpt lat="43.66306" lon="1.3898">
        <ele>123</ele>
        <time>2025-05-13T16:44:35Z</time>
      </trkpt>
      <trkpt lat="43.66305" lon="1.38982">
        <ele>123</ele>
        <time>2025-05-13T16:44:36Z</time>
      </trkpt>
      <trkpt lat="43.66303" lon="1.38984">
        <ele>123</ele>
        <time>2025-05-13T16:44:37Z</time>
      </trkpt>
      <trkpt lat="43.66302" lon="1.38987">
        <ele>123</ele>
        <time>2025-05-13T16:44:38Z</time>
      </trkpt>
      <trkpt lat="43.663" lon="1.3899">
        <ele>123</ele>
        <time>2025-05-13T16:44:39Z</time>
      </trkpt>
      <trkpt lat="43.66297" lon="1.38995">
        <ele>123</ele>
        <time>2025-05-13T16:44:40Z</time>
      </trkpt>
      <trkpt lat="43.66296" lon="1.38997">
        <ele>123</ele>
        <time>2025-05-13T16:44:41Z</time>
      </trkpt>
      <trkpt lat="43.66294" lon="1.39002">
        <ele>123</ele>
        <time>2025-05-13T16:44:42Z</time>
      </trkpt>
      <trkpt lat="43.66293" lon="1.39004">
        <ele>123</ele>
        <time>2025-05-13T16:44:43Z</time>
      </trkpt>
      <trkpt lat="43.66291" lon="1.39008">
        <ele>122</ele>
        <time>2025-05-13T16:44:44Z</time>
      </trkpt>
      <trkpt lat="43.6629" lon="1.3901">
        <ele>122</ele>
        <time>2025-05-13T16:44:45Z</time>
      </trkpt>
      <trkpt lat="43.66289" lon="1.39013">
        <ele>122</ele>
        <time>2025-05-13T16:44:46Z</time>
      </trkpt>
      <trkpt lat="43.66287" lon="1.39016">
        <ele>122</ele>
        <time>2025-05-13T16:44:47Z</time>
      </trkpt>
      <trkpt lat="43.66286" lon="1.39019">
        <ele>122</ele>
        <time>2025-05-13T16:44:48Z</time>
      </trkpt>
      <trkpt lat="43.66284" lon="1.39023">
        <ele>122</ele>
        <time>2025-05-13T16:44:49Z</time>
      </trkpt>
      <trkpt lat="43.66283" lon="1.39025">
        <ele>122</ele>
        <time>2025-05-13T16:44:50Z</time>
      </trkpt>
      <trkpt lat="43.66282" lon="1.39027">
        <ele>122</ele>
        <time>2025-05-13T16:44:51Z</time>
      </trkpt>
      <trkpt lat="43.66279" lon="1.39032">
        <ele>122</ele>
        <time>2025-05-13T16:44:52Z</time>
      </trkpt>
      <trkpt lat="43.66278" lon="1.39033">
        <ele>122</ele>
        <time>2025-05-13T16:44:53Z</time>
      </trkpt>
      <trkpt lat="43.66276" lon="1.39038">
        <ele>123</ele>
        <time>2025-05-13T16:44:54Z</time>
      </trkpt>
      <trkpt lat="43.66276" lon="1.3904">
        <ele>123</ele>
        <time>2025-05-13T16:44:55Z</time>
      </trkpt>
      <trkpt lat="43.66276" lon="1.3904">
        <ele>123</ele>
        <time>2025-05-13T16:44:56Z</time>
      </trkpt>
      <trkpt lat="43.66275" lon="1.39045">
        <ele>123</ele>
        <time>2025-05-13T16:44:57Z</time>
      </trkpt>
      <trkpt lat="43.66274" lon="1.39048">
        <ele>123</ele>
        <time>2025-05-13T16:44:58Z</time>
      </trkpt>
      <trkpt lat="43.66275" lon="1.39051">
        <ele>123</ele>
        <time>2025-05-13T16:44:59Z</time>
      </trkpt>
      <trkpt lat="43.66275" lon="1.39051">
        <ele>123</ele>
        <time>2025-05-13T16:45:00Z</time>
      </trkpt>
      <trkpt lat="43.66276" lon="1.39058">
        <ele>123</ele>
        <time>2025-05-13T16:45:01Z</time>
      </trkpt>
      <trkpt lat="43.66276" lon="1.39059">
        <ele>123</ele>
        <time>2025-05-13T16:45:02Z</time>
      </trkpt>
      <trkpt lat="43.66276" lon="1.39065">
        <ele>123</ele>
        <time>2025-05-13T16:45:03Z</time>
      </trkpt>
      <trkpt lat="43.66275" lon="1.39067">
        <ele>123</ele>
        <time>2025-05-13T16:45:04Z</time>
      </trkpt>
      <trkpt lat="43.66275" lon="1.39069">
        <ele>123</ele>
        <time>2025-05-13T16:45:05Z</time>
      </trkpt>
      <trkpt lat="43.66274" lon="1.39073">
        <ele>123</ele>
        <time>2025-05-13T16:45:06Z</time>
      </trkpt>
      <trkpt lat="43.66274" lon="1.39077">
        <ele>123</ele>
        <time>2025-05-13T16:45:07Z</time>
      </trkpt>
      <trkpt lat="43.66273" lon="1.3908">
        <ele>123</ele>
        <time>2025-05-13T16:45:08Z</time>
      </trkpt>
      <trkpt lat="43.66271" lon="1.39083">
        <ele>123</ele>
        <time>2025-05-13T16:45:09Z</time>
      </trkpt>
      <trkpt lat="43.6627" lon="1.39086">
        <ele>123</ele>
        <time>2025-05-13T16:45:10Z</time>
      </trkpt>
      <trkpt lat="43.66267" lon="1.39091">
        <ele>123</ele>
        <time>2025-05-13T16:45:11Z</time>
      </trkpt>
      <trkpt lat="43.66266" lon="1.39093">
        <ele>123</ele>
        <time>2025-05-13T16:45:12Z</time>
      </trkpt>
      <trkpt lat="43.66264" lon="1.39096">
        <ele>123</ele>
        <time>2025-05-13T16:45:13Z</time>
      </trkpt>
      <trkpt lat="43.66262" lon="1.39099">
        <ele>124</ele>
        <time>2025-05-13T16:45:14Z</time>
      </trkpt>
      <trkpt lat="43.66261" lon="1.39102">
        <ele>124</ele>
        <time>2025-05-13T16:45:15Z</time>
      </trkpt>
      <trkpt lat="43.6626" lon="1.39106">
        <ele>124</ele>
        <time>2025-05-13T16:45:16Z</time>
      </trkpt>
      <trkpt lat="43.66258" lon="1.39108">
        <ele>124</ele>
        <time>2025-05-13T16:45:17Z</time>
      </trkpt>
      <trkpt lat="43.66255" lon="1.39114">
        <ele>124</ele>
        <time>2025-05-13T16:45:19Z</time>
      </trkpt>
      <trkpt lat="43.66255" lon="1.39119">
        <ele>124</ele>
        <time>2025-05-13T16:45:20Z</time>
      </trkpt>
      <trkpt lat="43.66255" lon="1.3912">
        <ele>124</ele>
        <time>2025-05-13T16:45:21Z</time>
      </trkpt>
      <trkpt lat="43.66255" lon="1.39123">
        <ele>124</ele>
        <time>2025-05-13T16:45:22Z</time>
      </trkpt>
      <trkpt lat="43.66255" lon="1.39127">
        <ele>124</ele>
        <time>2025-05-13T16:45:23Z</time>
      </trkpt>
      <trkpt lat="43.66255" lon="1.3913">
        <ele>124</ele>
        <time>2025-05-13T16:45:24Z</time>
      </trkpt>
      <trkpt lat="43.66255" lon="1.39135">
        <ele>124</ele>
        <time>2025-05-13T16:45:25Z</time>
      </trkpt>
      <trkpt lat="43.66255" lon="1.39136">
        <ele>125</ele>
        <time>2025-05-13T16:45:26Z</time>
      </trkpt>
      <trkpt lat="43.66255" lon="1.39141">
        <ele>125</ele>
        <time>2025-05-13T16:45:27Z</time>
      </trkpt>
      <trkpt lat="43.66256" lon="1.39143">
        <ele>125</ele>
        <time>2025-05-13T16:45:28Z</time>
      </trkpt>
      <trkpt lat="43.66257" lon="1.39147">
        <ele>125</ele>
        <time>2025-05-13T16:45:29Z</time>
      </trkpt>
      <trkpt lat="43.66258" lon="1.39149">
        <ele>125</ele>
        <time>2025-05-13T16:45:30Z</time>
      </trkpt>
      <trkpt lat="43.66259" lon="1.39152">
        <ele>125</ele>
        <time>2025-05-13T16:45:31Z</time>
      </trkpt>
      <trkpt lat="43.66262" lon="1.39156">
        <ele>125</ele>
        <time>2025-05-13T16:45:32Z</time>
      </trkpt>
      <trkpt lat="43.66263" lon="1.39157">
        <ele>125</ele>
        <time>2025-05-13T16:45:33Z</time>
      </trkpt>
      <trkpt lat="43.66265" lon="1.39158">
        <ele>125</ele>
        <time>2025-05-13T16:45:34Z</time>
      </trkpt>
      <trkpt lat="43.66267" lon="1.3916">
        <ele>125</ele>
        <time>2025-05-13T16:45:35Z</time>
      </trkpt>
      <trkpt lat="43.66268" lon="1.39161">
        <ele>125</ele>
        <time>2025-05-13T16:45:36Z</time>
      </trkpt>
      <trkpt lat="43.66272" lon="1.39164">
        <ele>125</ele>
        <time>2025-05-13T16:45:38Z</time>
      </trkpt>
      <trkpt lat="43.66274" lon="1.39166">
        <ele>125</ele>
        <time>2025-05-13T16:45:39Z</time>
      </trkpt>
      <trkpt lat="43.66275" lon="1.39167">
        <ele>125</ele>
        <time>2025-05-13T16:45:40Z</time>
      </trkpt>
      <trkpt lat="43.66277" lon="1.39169">
        <ele>125</ele>
        <time>2025-05-13T16:45:41Z</time>
      </trkpt>
      <trkpt lat="43.66278" lon="1.39171">
        <ele>125</ele>
        <time>2025-05-13T16:45:42Z</time>
      </trkpt>
      <trkpt lat="43.66279" lon="1.39174">
        <ele>125</ele>
        <time>2025-05-13T16:45:43Z</time>
      </trkpt>
      <trkpt lat="43.6628" lon="1.39177">
        <ele>125</ele>
        <time>2025-05-13T16:45:44Z</time>
      </trkpt>
      <trkpt lat="43.66281" lon="1.3918">
        <ele>125</ele>
        <time>2025-05-13T16:45:45Z</time>
      </trkpt>
      <trkpt lat="43.66282" lon="1.39183">
        <ele>125</ele>
        <time>2025-05-13T16:45:46Z</time>
      </trkpt>
      <trkpt lat="43.66283" lon="1.39186">
        <ele>124</ele>
        <time>2025-05-13T16:45:47Z</time>
      </trkpt>
      <trkpt lat="43.66283" lon="1.3919">
        <ele>124</ele>
        <time>2025-05-13T16:45:48Z</time>
      </trkpt>
      <trkpt lat="43.66283" lon="1.39193">
        <ele>124</ele>
        <time>2025-05-13T16:45:49Z</time>
      </trkpt>
      <trkpt lat="43.66284" lon="1.39195">
        <ele>124</ele>
        <time>2025-05-13T16:45:50Z</time>
      </trkpt>
      <trkpt lat="43.66285" lon="1.39199">
        <ele>124</ele>
        <time>2025-05-13T16:45:51Z</time>
      </trkpt>
      <trkpt lat="43.66286" lon="1.39202">
        <ele>124</ele>
        <time>2025-05-13T16:45:52Z</time>
      </trkpt>
      <trkpt lat="43.66286" lon="1.39206">
        <ele>124</ele>
        <time>2025-05-13T16:45:53Z</time>
      </trkpt>
      <trkpt lat="43.66287" lon="1.39209">
        <ele>125</ele>
        <time>2025-05-13T16:45:54Z</time>
      </trkpt>
      <trkpt lat="43.66288" lon="1.39212">
        <ele>125</ele>
        <time>2025-05-13T16:45:55Z</time>
      </trkpt>
      <trkpt lat="43.6629" lon="1.39215">
        <ele>125</ele>
        <time>2025-05-13T16:45:56Z</time>
      </trkpt>
      <trkpt lat="43.66291" lon="1.39219">
        <ele>125</ele>
        <time>2025-05-13T16:45:57Z</time>
      </trkpt>
      <trkpt lat="43.66292" lon="1.39223">
        <ele>125</ele>
        <time>2025-05-13T16:45:58Z</time>
      </trkpt>
      <trkpt lat="43.66293" lon="1.39226">
        <ele>125</ele>
        <time>2025-05-13T16:45:59Z</time>
      </trkpt>
      <trkpt lat="43.66294" lon="1.39232">
        <ele>125</ele>
        <time>2025-05-13T16:46:00Z</time>
      </trkpt>
      <trkpt lat="43.66294" lon="1.39233">
        <ele>125</ele>
        <time>2025-05-13T16:46:01Z</time>
      </trkpt>
      <trkpt lat="43.66296" lon="1.39238">
        <ele>125</ele>
        <time>2025-05-13T16:46:02Z</time>
      </trkpt>
      <trkpt lat="43.66297" lon="1.3924">
        <ele>125</ele>
        <time>2025-05-13T16:46:03Z</time>
      </trkpt>
      <trkpt lat="43.66298" lon="1.39243">
        <ele>126</ele>
        <time>2025-05-13T16:46:04Z</time>
      </trkpt>
      <trkpt lat="43.66299" lon="1.39246">
        <ele>126</ele>
        <time>2025-05-13T16:46:05Z</time>
      </trkpt>
      <trkpt lat="43.663" lon="1.39249">
        <ele>126</ele>
        <time>2025-05-13T16:46:06Z</time>
      </trkpt>
      <trkpt lat="43.66301" lon="1.39254">
        <ele>126</ele>
        <time>2025-05-13T16:46:07Z</time>
      </trkpt>
      <trkpt lat="43.66302" lon="1.39255">
        <ele>126</ele>
        <time>2025-05-13T16:46:08Z</time>
      </trkpt>
      <trkpt lat="43.66302" lon="1.39258">
        <ele>126</ele>
        <time>2025-05-13T16:46:09Z</time>
      </trkpt>
      <trkpt lat="43.66304" lon="1.3926">
        <ele>126</ele>
        <time>2025-05-13T16:46:10Z</time>
      </trkpt>
      <trkpt lat="43.66306" lon="1.39263">
        <ele>126</ele>
        <time>2025-05-13T16:46:11Z</time>
      </trkpt>
      <trkpt lat="43.66307" lon="1.39264">
        <ele>126</ele>
        <time>2025-05-13T16:46:12Z</time>
      </trkpt>
      <trkpt lat="43.66308" lon="1.39267">
        <ele>126</ele>
        <time>2025-05-13T16:46:13Z</time>
      </trkpt>
      <trkpt lat="43.66309" lon="1.39269">
        <ele>125</ele>
        <time>2025-05-13T16:46:14Z</time>
      </trkpt>
      <trkpt lat="43.6631" lon="1.39271">
        <ele>125</ele>
        <time>2025-05-13T16:46:15Z</time>
      </trkpt>
      <trkpt lat="43.66312" lon="1.39273">
        <ele>125</ele>
        <time>2025-05-13T16:46:16Z</time>
      </trkpt>
      <trkpt lat="43.66314" lon="1.39276">
        <ele>125</ele>
        <time>2025-05-13T16:46:17Z</time>
      </trkpt>
      <trkpt lat="43.66315" lon="1.39278">
        <ele>125</ele>
        <time>2025-05-13T16:46:18Z</time>
      </trkpt>
      <trkpt lat="43.66317" lon="1.3928">
        <ele>126</ele>
        <time>2025-05-13T16:46:19Z</time>
      </trkpt>
      <trkpt lat="43.66317" lon="1.3928">
        <ele>126</ele>
        <time>2025-05-13T16:46:20Z</time>
      </trkpt>
      <trkpt lat="43.6632" lon="1.39282">
        <ele>126</ele>
        <time>2025-05-13T16:46:21Z</time>
      </trkpt>
      <trkpt lat="43.66322" lon="1.39283">
        <ele>126</ele>
        <time>2025-05-13T16:46:22Z</time>
      </trkpt>
      <trkpt lat="43.66325" lon="1.39284">
        <ele>125</ele>
        <time>2025-05-13T16:46:23Z</time>
      </trkpt>
      <trkpt lat="43.66327" lon="1.39285">
        <ele>125</ele>
        <time>2025-05-13T16:46:24Z</time>
      </trkpt>
      <trkpt lat="43.66329" lon="1.39285">
        <ele>125</ele>
        <time>2025-05-13T16:46:25Z</time>
      </trkpt>
      <trkpt lat="43.66331" lon="1.39285">
        <ele>125</ele>
        <time>2025-05-13T16:46:26Z</time>
      </trkpt>
      <trkpt lat="43.66333" lon="1.39283">
        <ele>125</ele>
        <time>2025-05-13T16:46:27Z</time>
      </trkpt>
      <trkpt lat="43.66335" lon="1.39282">
        <ele>125</ele>
        <time>2025-05-13T16:46:28Z</time>
      </trkpt>
      <trkpt lat="43.66337" lon="1.39281">
        <ele>125</ele>
        <time>2025-05-13T16:46:29Z</time>
      </trkpt>
      <trkpt lat="43.66338" lon="1.3928">
        <ele>125</ele>
        <time>2025-05-13T16:46:30Z</time>
      </trkpt>
      <trkpt lat="43.66338" lon="1.3928">
        <ele>125</ele>
        <time>2025-05-13T16:46:31Z</time>
      </trkpt>
      <trkpt lat="43.66341" lon="1.39278">
        <ele>125</ele>
        <time>2025-05-13T16:46:32Z</time>
      </trkpt>
      <trkpt lat="43.66341" lon="1.39278">
        <ele>125</ele>
        <time>2025-05-13T16:46:33Z</time>
      </trkpt>
      <trkpt lat="43.66344" lon="1.39275">
        <ele>125</ele>
        <time>2025-05-13T16:46:34Z</time>
      </trkpt>
      <trkpt lat="43.66346" lon="1.39274">
        <ele>125</ele>
        <time>2025-05-13T16:46:35Z</time>
      </trkpt>
      <trkpt lat="43.66348" lon="1.39273">
        <ele>125</ele>
        <time>2025-05-13T16:46:36Z</time>
      </trkpt>
      <trkpt lat="43.6635" lon="1.39273">
        <ele>125</ele>
        <time>2025-05-13T16:46:37Z</time>
      </trkpt>
      <trkpt lat="43.66352" lon="1.39273">
        <ele>124</ele>
        <time>2025-05-13T16:46:38Z</time>
      </trkpt>
      <trkpt lat="43.66354" lon="1.39272">
        <ele>124</ele>
        <time>2025-05-13T16:46:39Z</time>
      </trkpt>
      <trkpt lat="43.66357" lon="1.39272">
        <ele>125</ele>
        <time>2025-05-13T16:46:40Z</time>
      </trkpt>
      <trkpt lat="43.66359" lon="1.39273">
        <ele>125</ele>
        <time>2025-05-13T16:46:41Z</time>
      </trkpt>
      <trkpt lat="43.66361" lon="1.39274">
        <ele>125</ele>
        <time>2025-05-13T16:46:42Z</time>
      </trkpt>
      <trkpt lat="43.66363" lon="1.39275">
        <ele>125</ele>
        <time>2025-05-13T16:46:43Z</time>
      </trkpt>
      <trkpt lat="43.66367" lon="1.39277">
        <ele>125</ele>
        <time>2025-05-13T16:46:44Z</time>
      </trkpt>
      <trkpt lat="43.66368" lon="1.39278">
        <ele>125</ele>
        <time>2025-05-13T16:46:45Z</time>
      </trkpt>
      <trkpt lat="43.6637" lon="1.3928">
        <ele>125</ele>
        <time>2025-05-13T16:46:46Z</time>
      </trkpt>
      <trkpt lat="43.66372" lon="1.39282">
        <ele>125</ele>
        <time>2025-05-13T16:46:47Z</time>
      </trkpt>
      <trkpt lat="43.66374" lon="1.39284">
        <ele>125</ele>
        <time>2025-05-13T16:46:48Z</time>
      </trkpt>
      <trkpt lat="43.66377" lon="1.39286">
        <ele>125</ele>
        <time>2025-05-13T16:46:49Z</time>
      </trkpt>
      <trkpt lat="43.66379" lon="1.39289">
        <ele>125</ele>
        <time>2025-05-13T16:46:50Z</time>
      </trkpt>
      <trkpt lat="43.6638" lon="1.39289">
        <ele>125</ele>
        <time>2025-05-13T16:46:51Z</time>
      </trkpt>
      <trkpt lat="43.66383" lon="1.39291">
        <ele>125</ele>
        <time>2025-05-13T16:46:52Z</time>
      </trkpt>
      <trkpt lat="43.66384" lon="1.39291">
        <ele>125</ele>
        <time>2025-05-13T16:46:53Z</time>
      </trkpt>
      <trkpt lat="43.66386" lon="1.39292">
        <ele>125</ele>
        <time>2025-05-13T16:46:54Z</time>
      </trkpt>
      <trkpt lat="43.66388" lon="1.39294">
        <ele>125</ele>
        <time>2025-05-13T16:46:55Z</time>
      </trkpt>
      <trkpt lat="43.6639" lon="1.39296">
        <ele>125</ele>
        <time>2025-05-13T16:46:56Z</time>
      </trkpt>
      <trkpt lat="43.66392" lon="1.39297">
        <ele>125</ele>
        <time>2025-05-13T16:46:57Z</time>
      </trkpt>
      <trkpt lat="43.66394" lon="1.39299">
        <ele>125</ele>
        <time>2025-05-13T16:46:58Z</time>
      </trkpt>
      <trkpt lat="43.66396" lon="1.39301">
        <ele>125</ele>
        <time>2025-05-13T16:46:59Z</time>
      </trkpt>
      <trkpt lat="43.66398" lon="1.39303">
        <ele>125</ele>
        <time>2025-05-13T16:47:00Z</time>
      </trkpt>
      <trkpt lat="43.664" lon="1.39305">
        <ele>125</ele>
        <time>2025-05-13T16:47:01Z</time>
      </trkpt>
      <trkpt lat="43.66402" lon="1.39307">
        <ele>125</ele>
        <time>2025-05-13T16:47:02Z</time>
      </trkpt>
      <trkpt lat="43.66404" lon="1.39308">
        <ele>125</ele>
        <time>2025-05-13T16:47:03Z</time>
      </trkpt>
      <trkpt lat="43.66406" lon="1.3931">
        <ele>125</ele>
        <time>2025-05-13T16:47:04Z</time>
      </trkpt>
      <trkpt lat="43.66409" lon="1.39313">
        <ele>125</ele>
        <time>2025-05-13T16:47:05Z</time>
      </trkpt>
      <trkpt lat="43.6641" lon="1.39314">
        <ele>125</ele>
        <time>2025-05-13T16:47:06Z</time>
      </trkpt>
      <trkpt lat="43.66412" lon="1.39315">
        <ele>125</ele>
        <time>2025-05-13T16:47:07Z</time>
      </trkpt>
      <trkpt lat="43.66415" lon="1.39315">
        <ele>126</ele>
        <time>2025-05-13T16:47:08Z</time>
      </trkpt>
      <trkpt lat="43.66417" lon="1.39316">
        <ele>126</ele>
        <time>2025-05-13T16:47:09Z</time>
      </trkpt>
      <trkpt lat="43.66419" lon="1.39317">
        <ele>126</ele>
        <time>2025-05-13T16:47:10Z</time>
      </trkpt>
      <trkpt lat="43.66421" lon="1.39318">
        <ele>126</ele>
        <time>2025-05-13T16:47:11Z</time>
      </trkpt>
      <trkpt lat="43.66426" lon="1.3932">
        <ele>126</ele>
        <time>2025-05-13T16:47:13Z</time>
      </trkpt>
      <trkpt lat="43.66429" lon="1.3932">
        <ele>126</ele>
        <time>2025-05-13T16:47:14Z</time>
      </trkpt>
      <trkpt lat="43.6643" lon="1.39321">
        <ele>126</ele>
        <time>2025-05-13T16:47:15Z</time>
      </trkpt>
      <trkpt lat="43.66432" lon="1.39321">
        <ele>126</ele>
        <time>2025-05-13T16:47:16Z</time>
      </trkpt>
      <trkpt lat="43.66434" lon="1.39321">
        <ele>126</ele>
        <time>2025-05-13T16:47:17Z</time>
      </trkpt>
      <trkpt lat="43.66437" lon="1.39322">
        <ele>126</ele>
        <time>2025-05-13T16:47:18Z</time>
      </trkpt>
      <trkpt lat="43.66438" lon="1.39322">
        <ele>126</ele>
        <time>2025-05-13T16:47:19Z</time>
      </trkpt>
      <trkpt lat="43.66438" lon="1.39322">
        <ele>126</ele>
        <time>2025-05-13T16:47:20Z</time>
      </trkpt>
      <trkpt lat="43.66442" lon="1.39322">
        <ele>126</ele>
        <time>2025-05-13T16:47:21Z</time>
      </trkpt>
      <trkpt lat="43.66445" lon="1.39322">
        <ele>126</ele>
        <time>2025-05-13T16:47:22Z</time>
      </trkpt>
      <trkpt lat="43.66446" lon="1.39322">
        <ele>126</ele>
        <time>2025-05-13T16:47:23Z</time>
      </trkpt>
      <trkpt lat="43.66448" lon="1.39322">
        <ele>126</ele>
        <time>2025-05-13T16:47:24Z</time>
      </trkpt>
      <trkpt lat="43.66452" lon="1.39322">
        <ele>126</ele>
        <time>2025-05-13T16:47:25Z</time>
      </trkpt>
      <trkpt lat="43.66453" lon="1.39322">
        <ele>126</ele>
        <time>2025-05-13T16:47:26Z</time>
      </trkpt>
      <trkpt lat="43.66457" lon="1.39322">
        <ele>126</ele>
        <time>2025-05-13T16:47:27Z</time>
      </trkpt>
      <trkpt lat="43.66458" lon="1.39322">
        <ele>126</ele>
        <time>2025-05-13T16:47:28Z</time>
      </trkpt>
      <trkpt lat="43.6646" lon="1.39322">
        <ele>126</ele>
        <time>2025-05-13T16:47:29Z</time>
      </trkpt>
      <trkpt lat="43.66463" lon="1.39322">
        <ele>126</ele>
        <time>2025-05-13T16:47:30Z</time>
      </trkpt>
      <trkpt lat="43.66465" lon="1.39321">
        <ele>126</ele>
        <time>2025-05-13T16:47:31Z</time>
      </trkpt>
      <trkpt lat="43.66467" lon="1.39321">
        <ele>126</ele>
        <time>2025-05-13T16:47:32Z</time>
      </trkpt>
      <trkpt lat="43.66469" lon="1.3932">
        <ele>126</ele>
        <time>2025-05-13T16:47:33Z</time>
      </trkpt>
      <trkpt lat="43.66471" lon="1.39319">
        <ele>126</ele>
        <time>2025-05-13T16:47:34Z</time>
      </trkpt>
      <trkpt lat="43.66471" lon="1.39319">
        <ele>126</ele>
        <time>2025-05-13T16:47:35Z</time>
      </trkpt>
      <trkpt lat="43.66473" lon="1.39317">
        <ele>126</ele>
        <time>2025-05-13T16:47:36Z</time>
      </trkpt>
      <trkpt lat="43.66475" lon="1.39316">
        <ele>126</ele>
        <time>2025-05-13T16:47:37Z</time>
      </trkpt>
      <trkpt lat="43.66477" lon="1.39315">
        <ele>126</ele>
        <time>2025-05-13T16:47:38Z</time>
      </trkpt>
      <trkpt lat="43.6648" lon="1.39312">
        <ele>126</ele>
        <time>2025-05-13T16:47:39Z</time>
      </trkpt>
      <trkpt lat="43.66482" lon="1.39311">
        <ele>126</ele>
        <time>2025-05-13T16:47:40Z</time>
      </trkpt>
      <trkpt lat="43.66483" lon="1.3931">
        <ele>126</ele>
        <time>2025-05-13T16:47:41Z</time>
      </trkpt>
      <trkpt lat="43.66487" lon="1.39309">
        <ele>126</ele>
        <time>2025-05-13T16:47:42Z</time>
      </trkpt>
      <trkpt lat="43.66487" lon="1.39308">
        <ele>126</ele>
        <time>2025-05-13T16:47:43Z</time>
      </trkpt>
      <trkpt lat="43.66489" lon="1.39307">
        <ele>126</ele>
        <time>2025-05-13T16:47:44Z</time>
      </trkpt>
      <trkpt lat="43.66492" lon="1.39304">
        <ele>125</ele>
        <time>2025-05-13T16:47:45Z</time>
      </trkpt>
      <trkpt lat="43.66493" lon="1.39303">
        <ele>125</ele>
        <time>2025-05-13T16:47:46Z</time>
      </trkpt>
      <trkpt lat="43.66495" lon="1.39301">
        <ele>125</ele>
        <time>2025-05-13T16:47:47Z</time>
      </trkpt>
      <trkpt lat="43.66497" lon="1.39298">
        <ele>125</ele>
        <time>2025-05-13T16:47:48Z</time>
      </trkpt>
      <trkpt lat="43.66499" lon="1.39296">
        <ele>125</ele>
        <time>2025-05-13T16:47:49Z</time>
      </trkpt>
      <trkpt lat="43.665" lon="1.39293">
        <ele>125</ele>
        <time>2025-05-13T16:47:50Z</time>
      </trkpt>
      <trkpt lat="43.66502" lon="1.39291">
        <ele>125</ele>
        <time>2025-05-13T16:47:51Z</time>
      </trkpt>
      <trkpt lat="43.66503" lon="1.39288">
        <ele>125</ele>
        <time>2025-05-13T16:47:52Z</time>
      </trkpt>
      <trkpt lat="43.66504" lon="1.39286">
        <ele>125</ele>
        <time>2025-05-13T16:47:53Z</time>
      </trkpt>
      <trkpt lat="43.66505" lon="1.39282">
        <ele>125</ele>
        <time>2025-05-13T16:47:54Z</time>
      </trkpt>
      <trkpt lat="43.66505" lon="1.3928">
        <ele>125</ele>
        <time>2025-05-13T16:47:55Z</time>
      </trkpt>
      <trkpt lat="43.66507" lon="1.39276">
        <ele>124</ele>
        <time>2025-05-13T16:47:56Z</time>
      </trkpt>
      <trkpt lat="43.66507" lon="1.39274">
        <ele>124</ele>
        <time>2025-05-13T16:47:57Z</time>
      </trkpt>
      <trkpt lat="43.66508" lon="1.39271">
        <ele>124</ele>
        <time>2025-05-13T16:47:58Z</time>
      </trkpt>
      <trkpt lat="43.6651" lon="1.39269">
        <ele>124</ele>
        <time>2025-05-13T16:47:59Z</time>
      </trkpt>
      <trkpt lat="43.66512" lon="1.39267">
        <ele>124</ele>
        <time>2025-05-13T16:48:00Z</time>
      </trkpt>
      <trkpt lat="43.66514" lon="1.39264">
        <ele>124</ele>
        <time>2025-05-13T16:48:01Z</time>
      </trkpt>
      <trkpt lat="43.66515" lon="1.39263">
        <ele>124</ele>
        <time>2025-05-13T16:48:02Z</time>
      </trkpt>
      <trkpt lat="43.66518" lon="1.39263">
        <ele>124</ele>
        <time>2025-05-13T16:48:03Z</time>
      </trkpt>
      <trkpt lat="43.66519" lon="1.39263">
        <ele>124</ele>
        <time>2025-05-13T16:48:04Z</time>
      </trkpt>
      <trkpt lat="43.66521" lon="1.39263">
        <ele>124</ele>
        <time>2025-05-13T16:48:05Z</time>
      </trkpt>
      <trkpt lat="43.66523" lon="1.39262">
        <ele>124</ele>
        <time>2025-05-13T16:48:06Z</time>
      </trkpt>
      <trkpt lat="43.66525" lon="1.39262">
        <ele>124</ele>
        <time>2025-05-13T16:48:07Z</time>
      </trkpt>
      <trkpt lat="43.66525" lon="1.39262">
        <ele>124</ele>
        <time>2025-05-13T16:48:08Z</time>
      </trkpt>
      <trkpt lat="43.66538" lon="1.39255">
        <ele>125</ele>
        <time>2025-05-13T16:50:10Z</time>
      </trkpt>
      <trkpt lat="43.66539" lon="1.39254">
        <ele>126</ele>
        <time>2025-05-13T16:50:11Z</time>
      </trkpt>
      <trkpt lat="43.66541" lon="1.39252">
        <ele>126</ele>
        <time>2025-05-13T16:50:12Z</time>
      </trkpt>
      <trkpt lat="43.66542" lon="1.39249">
        <ele>126</ele>
        <time>2025-05-13T16:50:13Z</time>
      </trkpt>
      <trkpt lat="43.66543" lon="1.39247">
        <ele>126</ele>
        <time>2025-05-13T16:50:14Z</time>
      </trkpt>
      <trkpt lat="43.66544" lon="1.39244">
        <ele>126</ele>
        <time>2025-05-13T16:50:15Z</time>
      </trkpt>
      <trkpt lat="43.66546" lon="1.39241">
        <ele>126</ele>
        <time>2025-05-13T16:50:16Z</time>
      </trkpt>
      <trkpt lat="43.66547" lon="1.39238">
        <ele>126</ele>
        <time>2025-05-13T16:50:17Z</time>
      </trkpt>
      <trkpt lat="43.66549" lon="1.39234">
        <ele>126</ele>
        <time>2025-05-13T16:50:18Z</time>
      </trkpt>
      <trkpt lat="43.6655" lon="1.39233">
        <ele>126</ele>
        <time>2025-05-13T16:50:19Z</time>
      </trkpt>
      <trkpt lat="43.66551" lon="1.3923">
        <ele>126</ele>
        <time>2025-05-13T16:50:20Z</time>
      </trkpt>
      <trkpt lat="43.66552" lon="1.39227">
        <ele>126</ele>
        <time>2025-05-13T16:50:21Z</time>
      </trkpt>
      <trkpt lat="43.66554" lon="1.39222">
        <ele>126</ele>
        <time>2025-05-13T16:50:22Z</time>
      </trkpt>
      <trkpt lat="43.66554" lon="1.39221">
        <ele>126</ele>
        <time>2025-05-13T16:50:23Z</time>
      </trkpt>
      <trkpt lat="43.66555" lon="1.39218">
        <ele>126</ele>
        <time>2025-05-13T16:50:24Z</time>
      </trkpt>
      <trkpt lat="43.66556" lon="1.39215">
        <ele>126</ele>
        <time>2025-05-13T16:50:25Z</time>
      </trkpt>
      <trkpt lat="43.66557" lon="1.39212">
        <ele>126</ele>
        <time>2025-05-13T16:50:26Z</time>
      </trkpt>
      <trkpt lat="43.66559" lon="1.39207">
        <ele>126</ele>
        <time>2025-05-13T16:50:27Z</time>
      </trkpt>
      <trkpt lat="43.66559" lon="1.39206">
        <ele>126</ele>
        <time>2025-05-13T16:50:28Z</time>
      </trkpt>
      <trkpt lat="43.66562" lon="1.39201">
        <ele>126</ele>
        <time>2025-05-13T16:50:30Z</time>
      </trkpt>
      <trkpt lat="43.66563" lon="1.39197">
        <ele>126</ele>
        <time>2025-05-13T16:50:31Z</time>
      </trkpt>
      <trkpt lat="43.66564" lon="1.39193">
        <ele>126</ele>
        <time>2025-05-13T16:50:32Z</time>
      </trkpt>
      <trkpt lat="43.66565" lon="1.39191">
        <ele>126</ele>
        <time>2025-05-13T16:50:33Z</time>
      </trkpt>
      <trkpt lat="43.66566" lon="1.39188">
        <ele>126</ele>
        <time>2025-05-13T16:50:34Z</time>
      </trkpt>
      <trkpt lat="43.66566" lon="1.39185">
        <ele>126</ele>
        <time>2025-05-13T16:50:35Z</time>
      </trkpt>
      <trkpt lat="43.66566" lon="1.39182">
        <ele>126</ele>
        <time>2025-05-13T16:50:36Z</time>
      </trkpt>
      <trkpt lat="43.66567" lon="1.39177">
        <ele>126</ele>
        <time>2025-05-13T16:50:37Z</time>
      </trkpt>
      <trkpt lat="43.66567" lon="1.39176">
        <ele>126</ele>
        <time>2025-05-13T16:50:38Z</time>
      </trkpt>
      <trkpt lat="43.66567" lon="1.39171">
        <ele>126</ele>
        <time>2025-05-13T16:50:39Z</time>
      </trkpt>
      <trkpt lat="43.66568" lon="1.3917">
        <ele>126</ele>
        <time>2025-05-13T16:50:40Z</time>
      </trkpt>
      <trkpt lat="43.66568" lon="1.39165">
        <ele>126</ele>
        <time>2025-05-13T16:50:41Z</time>
      </trkpt>
      <trkpt lat="43.66568" lon="1.39163">
        <ele>126</ele>
        <time>2025-05-13T16:50:42Z</time>
      </trkpt>
      <trkpt lat="43.66569" lon="1.3916">
        <ele>126</ele>
        <time>2025-05-13T16:50:43Z</time>
      </trkpt>
      <trkpt lat="43.66569" lon="1.39156">
        <ele>126</ele>
        <time>2025-05-13T16:50:44Z</time>
      </trkpt>
      <trkpt lat="43.6657" lon="1.39154">
        <ele>126</ele>
        <time>2025-05-13T16:50:45Z</time>
      </trkpt>
      <trkpt lat="43.6657" lon="1.39149">
        <ele>126</ele>
        <time>2025-05-13T16:50:46Z</time>
      </trkpt>
      <trkpt lat="43.66571" lon="1.39147">
        <ele>126</ele>
        <time>2025-05-13T16:50:47Z</time>
      </trkpt>
      <trkpt lat="43.66571" lon="1.39144">
        <ele>126</ele>
        <time>2025-05-13T16:50:48Z</time>
      </trkpt>
      <trkpt lat="43.66571" lon="1.39144">
        <ele>127</ele>
        <time>2025-05-13T16:50:49Z</time>
      </trkpt>
      <trkpt lat="43.66573" lon="1.39137">
        <ele>127</ele>
        <time>2025-05-13T16:50:50Z</time>
      </trkpt>
      <trkpt lat="43.66573" lon="1.39135">
        <ele>127</ele>
        <time>2025-05-13T16:50:51Z</time>
      </trkpt>
      <trkpt lat="43.66574" lon="1.3913">
        <ele>127</ele>
        <time>2025-05-13T16:50:52Z</time>
      </trkpt>
      <trkpt lat="43.66574" lon="1.39128">
        <ele>127</ele>
        <time>2025-05-13T16:50:53Z</time>
      </trkpt>
      <trkpt lat="43.66575" lon="1.39125">
        <ele>127</ele>
        <time>2025-05-13T16:50:54Z</time>
      </trkpt>
      <trkpt lat="43.66575" lon="1.39122">
        <ele>127</ele>
        <time>2025-05-13T16:50:55Z</time>
      </trkpt>
      <trkpt lat="43.66575" lon="1.39119">
        <ele>127</ele>
        <time>2025-05-13T16:50:56Z</time>
      </trkpt>
      <trkpt lat="43.66576" lon="1.39116">
        <ele>127</ele>
        <time>2025-05-13T16:50:57Z</time>
      </trkpt>
      <trkpt lat="43.66576" lon="1.39113">
        <ele>127</ele>
        <time>2025-05-13T16:50:58Z</time>
      </trkpt>
      <trkpt lat="43.66576" lon="1.3911">
        <ele>127</ele>
        <time>2025-05-13T16:50:59Z</time>
      </trkpt>
      <trkpt lat="43.66577" lon="1.39107">
        <ele>127</ele>
        <time>2025-05-13T16:51:00Z</time>
      </trkpt>
      <trkpt lat="43.66577" lon="1.39104">
        <ele>127</ele>
        <time>2025-05-13T16:51:01Z</time>
      </trkpt>
      <trkpt lat="43.66578" lon="1.39101">
        <ele>127</ele>
        <time>2025-05-13T16:51:02Z</time>
      </trkpt>
      <trkpt lat="43.66579" lon="1.39098">
        <ele>127</ele>
        <time>2025-05-13T16:51:03Z</time>
      </trkpt>
      <trkpt lat="43.6658" lon="1.39094">
        <ele>127</ele>
        <time>2025-05-13T16:51:04Z</time>
      </trkpt>
      <trkpt lat="43.6658" lon="1.39092">
        <ele>127</ele>
        <time>2025-05-13T16:51:05Z</time>
      </trkpt>
      <trkpt lat="43.66581" lon="1.39087">
        <ele>127</ele>
        <time>2025-05-13T16:51:06Z</time>
      </trkpt>
      <trkpt lat="43.66581" lon="1.39086">
        <ele>127</ele>
        <time>2025-05-13T16:51:07Z</time>
      </trkpt>
      <trkpt lat="43.66582" lon="1.39083">
        <ele>127</ele>
        <time>2025-05-13T16:51:08Z</time>
      </trkpt>
      <trkpt lat="43.66582" lon="1.3908">
        <ele>127</ele>
        <time>2025-05-13T16:51:09Z</time>
      </trkpt>
      <trkpt lat="43.66583" lon="1.39077">
        <ele>127</ele>
        <time>2025-05-13T16:51:10Z</time>
      </trkpt>
      <trkpt lat="43.66584" lon="1.39072">
        <ele>127</ele>
        <time>2025-05-13T16:51:11Z</time>
      </trkpt>
      <trkpt lat="43.66585" lon="1.3907">
        <ele>127</ele>
        <time>2025-05-13T16:51:12Z</time>
      </trkpt>
      <trkpt lat="43.66586" lon="1.39067">
        <ele>127</ele>
        <time>2025-05-13T16:51:13Z</time>
      </trkpt>
      <trkpt lat="43.66587" lon="1.39064">
        <ele>127</ele>
        <time>2025-05-13T16:51:14Z</time>
      </trkpt>
      <trkpt lat="43.66589" lon="1.3906">
        <ele>127</ele>
        <time>2025-05-13T16:51:15Z</time>
      </trkpt>
      <trkpt lat="43.6659" lon="1.39057">
        <ele>127</ele>
        <time>2025-05-13T16:51:16Z</time>
      </trkpt>
      <trkpt lat="43.66591" lon="1.39054">
        <ele>127</ele>
        <time>2025-05-13T16:51:17Z</time>
      </trkpt>
      <trkpt lat="43.66592" lon="1.3905">
        <ele>127</ele>
        <time>2025-05-13T16:51:18Z</time>
      </trkpt>
      <trkpt lat="43.66593" lon="1.39046">
        <ele>127</ele>
        <time>2025-05-13T16:51:19Z</time>
      </trkpt>
      <trkpt lat="43.66593" lon="1.39044">
        <ele>127</ele>
        <time>2025-05-13T16:51:20Z</time>
      </trkpt>
      <trkpt lat="43.66594" lon="1.39039">
        <ele>127</ele>
        <time>2025-05-13T16:51:21Z</time>
      </trkpt>
      <trkpt lat="43.66594" lon="1.39038">
        <ele>127</ele>
        <time>2025-05-13T16:51:22Z</time>
      </trkpt>
      <trkpt lat="43.66595" lon="1.39034">
        <ele>127</ele>
        <time>2025-05-13T16:51:23Z</time>
      </trkpt>
      <trkpt lat="43.66595" lon="1.39031">
        <ele>127</ele>
        <time>2025-05-13T16:51:24Z</time>
      </trkpt>
      <trkpt lat="43.66596" lon="1.39028">
        <ele>127</ele>
        <time>2025-05-13T16:51:25Z</time>
      </trkpt>
      <trkpt lat="43.66597" lon="1.39021">
        <ele>127</ele>
        <time>2025-05-13T16:51:27Z</time>
      </trkpt>
      <trkpt lat="43.66599" lon="1.39016">
        <ele>127</ele>
        <time>2025-05-13T16:51:28Z</time>
      </trkpt>
      <trkpt lat="43.66599" lon="1.39014">
        <ele>127</ele>
        <time>2025-05-13T16:51:29Z</time>
      </trkpt>
      <trkpt lat="43.666" lon="1.3901">
        <ele>127</ele>
        <time>2025-05-13T16:51:30Z</time>
      </trkpt>
      <trkpt lat="43.66601" lon="1.39008">
        <ele>127</ele>
        <time>2025-05-13T16:51:31Z</time>
      </trkpt>
      <trkpt lat="43.66601" lon="1.39004">
        <ele>127</ele>
        <time>2025-05-13T16:51:32Z</time>
      </trkpt>
      <trkpt lat="43.66603" lon="1.38998">
        <ele>127</ele>
        <time>2025-05-13T16:51:34Z</time>
      </trkpt>
      <trkpt lat="43.66603" lon="1.38994">
        <ele>127</ele>
        <time>2025-05-13T16:51:35Z</time>
      </trkpt>
      <trkpt lat="43.66603" lon="1.3899">
        <ele>127</ele>
        <time>2025-05-13T16:51:36Z</time>
      </trkpt>
      <trkpt lat="43.66604" lon="1.38986">
        <ele>127</ele>
        <time>2025-05-13T16:51:37Z</time>
      </trkpt>
      <trkpt lat="43.66604" lon="1.38983">
        <ele>127</ele>
        <time>2025-05-13T16:51:38Z</time>
      </trkpt>
      <trkpt lat="43.66605" lon="1.3898">
        <ele>127</ele>
        <time>2025-05-13T16:51:39Z</time>
      </trkpt>
      <trkpt lat="43.66605" lon="1.38976">
        <ele>126</ele>
        <time>2025-05-13T16:51:40Z</time>
      </trkpt>
      <trkpt lat="43.66606" lon="1.38973">
        <ele>126</ele>
        <time>2025-05-13T16:51:41Z</time>
      </trkpt>
      <trkpt lat="43.66606" lon="1.38969">
        <ele>126</ele>
        <time>2025-05-13T16:51:42Z</time>
      </trkpt>
      <trkpt lat="43.66606" lon="1.38965">
        <ele>126</ele>
        <time>2025-05-13T16:51:43Z</time>
      </trkpt>
      <trkpt lat="43.66606" lon="1.38961">
        <ele>126</ele>
        <time>2025-05-13T16:51:44Z</time>
      </trkpt>
      <trkpt lat="43.66606" lon="1.38955">
        <ele>126</ele>
        <time>2025-05-13T16:51:46Z</time>
      </trkpt>
      <trkpt lat="43.66606" lon="1.38951">
        <ele>126</ele>
        <time>2025-05-13T16:51:47Z</time>
      </trkpt>
      <trkpt lat="43.66606" lon="1.38949">
        <ele>126</ele>
        <time>2025-05-13T16:51:48Z</time>
      </trkpt>
      <trkpt lat="43.66606" lon="1.38945">
        <ele>126</ele>
        <time>2025-05-13T16:51:49Z</time>
      </trkpt>
      <trkpt lat="43.66606" lon="1.38944">
        <ele>126</ele>
        <time>2025-05-13T16:51:50Z</time>
      </trkpt>
      <trkpt lat="43.66606" lon="1.38939">
        <ele>126</ele>
        <time>2025-05-13T16:51:51Z</time>
      </trkpt>
      <trkpt lat="43.66606" lon="1.38937">
        <ele>126</ele>
        <time>2025-05-13T16:51:52Z</time>
      </trkpt>
      <trkpt lat="43.66607" lon="1.38934">
        <ele>126</ele>
        <time>2025-05-13T16:51:53Z</time>
      </trkpt>
      <trkpt lat="43.66607" lon="1.38929">
        <ele>126</ele>
        <time>2025-05-13T16:51:54Z</time>
      </trkpt>
      <trkpt lat="43.66607" lon="1.38927">
        <ele>126</ele>
        <time>2025-05-13T16:51:55Z</time>
      </trkpt>
      <trkpt lat="43.66607" lon="1.38921">
        <ele>126</ele>
        <time>2025-05-13T16:51:56Z</time>
      </trkpt>
      <trkpt lat="43.66607" lon="1.38919">
        <ele>126</ele>
        <time>2025-05-13T16:51:57Z</time>
      </trkpt>
      <trkpt lat="43.66608" lon="1.38914">
        <ele>126</ele>
        <time>2025-05-13T16:51:58Z</time>
      </trkpt>
      <trkpt lat="43.66608" lon="1.38912">
        <ele>126</ele>
        <time>2025-05-13T16:51:59Z</time>
      </trkpt>
      <trkpt lat="43.66608" lon="1.38906">
        <ele>126</ele>
        <time>2025-05-13T16:52:00Z</time>
      </trkpt>
      <trkpt lat="43.66608" lon="1.38904">
        <ele>126</ele>
        <time>2025-05-13T16:52:01Z</time>
      </trkpt>
      <trkpt lat="43.66609" lon="1.38899">
        <ele>126</ele>
        <time>2025-05-13T16:52:02Z</time>
      </trkpt>
      <trkpt lat="43.66609" lon="1.38897">
        <ele>126</ele>
        <time>2025-05-13T16:52:03Z</time>
      </trkpt>
      <trkpt lat="43.66609" lon="1.38891">
        <ele>126</ele>
        <time>2025-05-13T16:52:04Z</time>
      </trkpt>
      <trkpt lat="43.66609" lon="1.38889">
        <ele>126</ele>
        <time>2025-05-13T16:52:05Z</time>
      </trkpt>
      <trkpt lat="43.66609" lon="1.38885">
        <ele>126</ele>
        <time>2025-05-13T16:52:06Z</time>
      </trkpt>
      <trkpt lat="43.66609" lon="1.38881">
        <ele>126</ele>
        <time>2025-05-13T16:52:07Z</time>
      </trkpt>
      <trkpt lat="43.66609" lon="1.38876">
        <ele>126</ele>
        <time>2025-05-13T16:52:08Z</time>
      </trkpt>
      <trkpt lat="43.6661" lon="1.38874">
        <ele>126</ele>
        <time>2025-05-13T16:52:09Z</time>
      </trkpt>
      <trkpt lat="43.6661" lon="1.38871">
        <ele>126</ele>
        <time>2025-05-13T16:52:10Z</time>
      </trkpt>
      <trkpt lat="43.6661" lon="1.38868">
        <ele>126</ele>
        <time>2025-05-13T16:52:11Z</time>
      </trkpt>
      <trkpt lat="43.6661" lon="1.38864">
        <ele>126</ele>
        <time>2025-05-13T16:52:12Z</time>
      </trkpt>
      <trkpt lat="43.6661" lon="1.38861">
        <ele>126</ele>
        <time>2025-05-13T16:52:13Z</time>
      </trkpt>
      <trkpt lat="43.6661" lon="1.38858">
        <ele>126</ele>
        <time>2025-05-13T16:52:14Z</time>
      </trkpt>
      <trkpt lat="43.66611" lon="1.38854">
        <ele>126</ele>
        <time>2025-05-13T16:52:15Z</time>
      </trkpt>
      <trkpt lat="43.66611" lon="1.38851">
        <ele>126</ele>
        <time>2025-05-13T16:52:16Z</time>
      </trkpt>
      <trkpt lat="43.6661" lon="1.38847">
        <ele>126</ele>
        <time>2025-05-13T16:52:17Z</time>
      </trkpt>
      <trkpt lat="43.6661" lon="1.38843">
        <ele>126</ele>
        <time>2025-05-13T16:52:18Z</time>
      </trkpt>
      <trkpt lat="43.66609" lon="1.3884">
        <ele>126</ele>
        <time>2025-05-13T16:52:19Z</time>
      </trkpt>
      <trkpt lat="43.66609" lon="1.38836">
        <ele>126</ele>
        <time>2025-05-13T16:52:20Z</time>
      </trkpt>
      <trkpt lat="43.66609" lon="1.38832">
        <ele>126</ele>
        <time>2025-05-13T16:52:21Z</time>
      </trkpt>
      <trkpt lat="43.66608" lon="1.38829">
        <ele>126</ele>
        <time>2025-05-13T16:52:22Z</time>
      </trkpt>
      <trkpt lat="43.66608" lon="1.38825">
        <ele>126</ele>
        <time>2025-05-13T16:52:23Z</time>
      </trkpt>
      <trkpt lat="43.66607" lon="1.38822">
        <ele>126</ele>
        <time>2025-05-13T16:52:24Z</time>
      </trkpt>
      <trkpt lat="43.66606" lon="1.38817">
        <ele>126</ele>
        <time>2025-05-13T16:52:25Z</time>
      </trkpt>
      <trkpt lat="43.66606" lon="1.38815">
        <ele>125</ele>
        <time>2025-05-13T16:52:26Z</time>
      </trkpt>
      <trkpt lat="43.66605" lon="1.38811">
        <ele>126</ele>
        <time>2025-05-13T16:52:27Z</time>
      </trkpt>
      <trkpt lat="43.66605" lon="1.38808">
        <ele>126</ele>
        <time>2025-05-13T16:52:28Z</time>
      </trkpt>
      <trkpt lat="43.66604" lon="1.38805">
        <ele>126</ele>
        <time>2025-05-13T16:52:29Z</time>
      </trkpt>
      <trkpt lat="43.66602" lon="1.388">
        <ele>126</ele>
        <time>2025-05-13T16:52:30Z</time>
      </trkpt>
      <trkpt lat="43.66602" lon="1.38798">
        <ele>126</ele>
        <time>2025-05-13T16:52:31Z</time>
      </trkpt>
      <trkpt lat="43.66601" lon="1.38795">
        <ele>126</ele>
        <time>2025-05-13T16:52:32Z</time>
      </trkpt>
      <trkpt lat="43.666" lon="1.3879">
        <ele>126</ele>
        <time>2025-05-13T16:52:33Z</time>
      </trkpt>
      <trkpt lat="43.66599" lon="1.38788">
        <ele>126</ele>
        <time>2025-05-13T16:52:34Z</time>
      </trkpt>
      <trkpt lat="43.66598" lon="1.38783">
        <ele>126</ele>
        <time>2025-05-13T16:52:35Z</time>
      </trkpt>
      <trkpt lat="43.66597" lon="1.38781">
        <ele>125</ele>
        <time>2025-05-13T16:52:36Z</time>
      </trkpt>
      <trkpt lat="43.66596" lon="1.38778">
        <ele>125</ele>
        <time>2025-05-13T16:52:37Z</time>
      </trkpt>
      <trkpt lat="43.66595" lon="1.38773">
        <ele>125</ele>
        <time>2025-05-13T16:52:38Z</time>
      </trkpt>
      <trkpt lat="43.66594" lon="1.38771">
        <ele>125</ele>
        <time>2025-05-13T16:52:39Z</time>
      </trkpt>
      <trkpt lat="43.66592" lon="1.38767">
        <ele>125</ele>
        <time>2025-05-13T16:52:40Z</time>
      </trkpt>
      <trkpt lat="43.66591" lon="1.38765">
        <ele>125</ele>
        <time>2025-05-13T16:52:41Z</time>
      </trkpt>
      <trkpt lat="43.6659" lon="1.38762">
        <ele>125</ele>
        <time>2025-05-13T16:52:42Z</time>
      </trkpt>
      <trkpt lat="43.66588" lon="1.38759">
        <ele>125</ele>
        <time>2025-05-13T16:52:43Z</time>
      </trkpt>
      <trkpt lat="43.66587" lon="1.38757">
        <ele>125</ele>
        <time>2025-05-13T16:52:44Z</time>
      </trkpt>
      <trkpt lat="43.66585" lon="1.38754">
        <ele>125</ele>
        <time>2025-05-13T16:52:45Z</time>
      </trkpt>
      <trkpt lat="43.66584" lon="1.38751">
        <ele>125</ele>
        <time>2025-05-13T16:52:46Z</time>
      </trkpt>
      <trkpt lat="43.66582" lon="1.38749">
        <ele>125</ele>
        <time>2025-05-13T16:52:47Z</time>
      </trkpt>
      <trkpt lat="43.6658" lon="1.38746">
        <ele>125</ele>
        <time>2025-05-13T16:52:48Z</time>
      </trkpt>
      <trkpt lat="43.66578" lon="1.38744">
        <ele>125</ele>
        <time>2025-05-13T16:52:49Z</time>
      </trkpt>
      <trkpt lat="43.66576" lon="1.38741">
        <ele>125</ele>
        <time>2025-05-13T16:52:50Z</time>
      </trkpt>
      <trkpt lat="43.66574" lon="1.38738">
        <ele>125</ele>
        <time>2025-05-13T16:52:51Z</time>
      </trkpt>
      <trkpt lat="43.66571" lon="1.38733">
        <ele>125</ele>
        <time>2025-05-13T16:52:52Z</time>
      </trkpt>
      <trkpt lat="43.6657" lon="1.38732">
        <ele>125</ele>
        <time>2025-05-13T16:52:53Z</time>
      </trkpt>
      <trkpt lat="43.66568" lon="1.38729">
        <ele>125</ele>
        <time>2025-05-13T16:52:54Z</time>
      </trkpt>
      <trkpt lat="43.66566" lon="1.38726">
        <ele>125</ele>
        <time>2025-05-13T16:52:55Z</time>
      </trkpt>
      <trkpt lat="43.66564" lon="1.38725">
        <ele>125</ele>
        <time>2025-05-13T16:52:56Z</time>
      </trkpt>
      <trkpt lat="43.66562" lon="1.38724">
        <ele>125</ele>
        <time>2025-05-13T16:52:57Z</time>
      </trkpt>
      <trkpt lat="43.66562" lon="1.38724">
        <ele>125</ele>
        <time>2025-05-13T16:52:58Z</time>
      </trkpt>
      <trkpt lat="43.66558" lon="1.38723">
        <ele>125</ele>
        <time>2025-05-13T16:52:59Z</time>
      </trkpt>
      <trkpt lat="43.66556" lon="1.38722">
        <ele>125</ele>
        <time>2025-05-13T16:53:00Z</time>
      </trkpt>
      <trkpt lat="43.66554" lon="1.38722">
        <ele>125</ele>
        <time>2025-05-13T16:53:01Z</time>
      </trkpt>
      <trkpt lat="43.66552" lon="1.38721">
        <ele>125</ele>
        <time>2025-05-13T16:53:02Z</time>
      </trkpt>
      <trkpt lat="43.66549" lon="1.38721">
        <ele>125</ele>
        <time>2025-05-13T16:53:03Z</time>
      </trkpt>
      <trkpt lat="43.66548" lon="1.38722">
        <ele>125</ele>
        <time>2025-05-13T16:53:04Z</time>
      </trkpt>
      <trkpt lat="43.66546" lon="1.38723">
        <ele>125</ele>
        <time>2025-05-13T16:53:05Z</time>
      </trkpt>
      <trkpt lat="43.66546" lon="1.38723">
        <ele>125</ele>
        <time>2025-05-13T16:53:06Z</time>
      </trkpt>
      <trkpt lat="43.66543" lon="1.38726">
        <ele>125</ele>
        <time>2025-05-13T16:53:07Z</time>
      </trkpt>
      <trkpt lat="43.66542" lon="1.38729">
        <ele>125</ele>
        <time>2025-05-13T16:53:08Z</time>
      </trkpt>
      <trkpt lat="43.6654" lon="1.3873">
        <ele>125</ele>
        <time>2025-05-13T16:53:09Z</time>
      </trkpt>
      <trkpt lat="43.66537" lon="1.38732">
        <ele>125</ele>
        <time>2025-05-13T16:53:10Z</time>
      </trkpt>
      <trkpt lat="43.66534" lon="1.38736">
        <ele>125</ele>
        <time>2025-05-13T16:53:12Z</time>
      </trkpt>
      <trkpt lat="43.66532" lon="1.38738">
        <ele>125</ele>
        <time>2025-05-13T16:53:13Z</time>
      </trkpt>
      <trkpt lat="43.6653" lon="1.3874">
        <ele>125</ele>
        <time>2025-05-13T16:53:14Z</time>
      </trkpt>
      <trkpt lat="43.66529" lon="1.38742">
        <ele>126</ele>
        <time>2025-05-13T16:53:15Z</time>
      </trkpt>
      <trkpt lat="43.66526" lon="1.38744">
        <ele>126</ele>
        <time>2025-05-13T16:53:16Z</time>
      </trkpt>
      <trkpt lat="43.66525" lon="1.38745">
        <ele>126</ele>
        <time>2025-05-13T16:53:17Z</time>
      </trkpt>
      <trkpt lat="43.66523" lon="1.38747">
        <ele>125</ele>
        <time>2025-05-13T16:53:18Z</time>
      </trkpt>
      <trkpt lat="43.66522" lon="1.38749">
        <ele>125</ele>
        <time>2025-05-13T16:53:19Z</time>
      </trkpt>
      <trkpt lat="43.66519" lon="1.38752">
        <ele>125</ele>
        <time>2025-05-13T16:53:21Z</time>
      </trkpt>
      <trkpt lat="43.66516" lon="1.38755">
        <ele>125</ele>
        <time>2025-05-13T16:53:22Z</time>
      </trkpt>
      <trkpt lat="43.66515" lon="1.38755">
        <ele>125</ele>
        <time>2025-05-13T16:53:23Z</time>
      </trkpt>
      <trkpt lat="43.66513" lon="1.38757">
        <ele>125</ele>
        <time>2025-05-13T16:53:24Z</time>
      </trkpt>
      <trkpt lat="43.66511" lon="1.38759">
        <ele>125</ele>
        <time>2025-05-13T16:53:25Z</time>
      </trkpt>
      <trkpt lat="43.6651" lon="1.38761">
        <ele>125</ele>
        <time>2025-05-13T16:53:26Z</time>
      </trkpt>
      <trkpt lat="43.66508" lon="1.38763">
        <ele>125</ele>
        <time>2025-05-13T16:53:27Z</time>
      </trkpt>
      <trkpt lat="43.66506" lon="1.38765">
        <ele>125</ele>
        <time>2025-05-13T16:53:28Z</time>
      </trkpt>
      <trkpt lat="43.66503" lon="1.38769">
        <ele>125</ele>
        <time>2025-05-13T16:53:29Z</time>
      </trkpt>
      <trkpt lat="43.66502" lon="1.38771">
        <ele>125</ele>
        <time>2025-05-13T16:53:30Z</time>
      </trkpt>
      <trkpt lat="43.66499" lon="1.38775">
        <ele>125</ele>
        <time>2025-05-13T16:53:31Z</time>
      </trkpt>
      <trkpt lat="43.66498" lon="1.38777">
        <ele>125</ele>
        <time>2025-05-13T16:53:32Z</time>
      </trkpt>
      <trkpt lat="43.66497" lon="1.38779">
        <ele>125</ele>
        <time>2025-05-13T16:53:33Z</time>
      </trkpt>
      <trkpt lat="43.66495" lon="1.38781">
        <ele>125</ele>
        <time>2025-05-13T16:53:34Z</time>
      </trkpt>
      <trkpt lat="43.66494" lon="1.38783">
        <ele>125</ele>
        <time>2025-05-13T16:53:35Z</time>
      </trkpt>
      <trkpt lat="43.66491" lon="1.38785">
        <ele>126</ele>
        <time>2025-05-13T16:53:36Z</time>
      </trkpt>
      <trkpt lat="43.6649" lon="1.38786">
        <ele>126</ele>
        <time>2025-05-13T16:53:37Z</time>
      </trkpt>
      <trkpt lat="43.66487" lon="1.38788">
        <ele>126</ele>
        <time>2025-05-13T16:53:38Z</time>
      </trkpt>
      <trkpt lat="43.66486" lon="1.38789">
        <ele>126</ele>
        <time>2025-05-13T16:53:39Z</time>
      </trkpt>
      <trkpt lat="43.66485" lon="1.3879">
        <ele>125</ele>
        <time>2025-05-13T16:53:40Z</time>
      </trkpt>
      <trkpt lat="43.66482" lon="1.38793">
        <ele>125</ele>
        <time>2025-05-13T16:53:41Z</time>
      </trkpt>
      <trkpt lat="43.66481" lon="1.38794">
        <ele>126</ele>
        <time>2025-05-13T16:53:42Z</time>
      </trkpt>
      <trkpt lat="43.66478" lon="1.38799">
        <ele>126</ele>
        <time>2025-05-13T16:53:43Z</time>
      </trkpt>
      <trkpt lat="43.66477" lon="1.388">
        <ele>126</ele>
        <time>2025-05-13T16:53:44Z</time>
      </trkpt>
      <trkpt lat="43.66475" lon="1.38803">
        <ele>126</ele>
        <time>2025-05-13T16:53:45Z</time>
      </trkpt>
      <trkpt lat="43.66472" lon="1.38805">
        <ele>126</ele>
        <time>2025-05-13T16:53:46Z</time>
      </trkpt>
      <trkpt lat="43.6647" lon="1.38807">
        <ele>125</ele>
        <time>2025-05-13T16:53:47Z</time>
      </trkpt>
      <trkpt lat="43.66467" lon="1.38809">
        <ele>125</ele>
        <time>2025-05-13T16:53:48Z</time>
      </trkpt>
      <trkpt lat="43.66465" lon="1.38811">
        <ele>125</ele>
        <time>2025-05-13T16:53:49Z</time>
      </trkpt>
      <trkpt lat="43.66461" lon="1.38815">
        <ele>125</ele>
        <time>2025-05-13T16:53:50Z</time>
      </trkpt>
      <trkpt lat="43.6646" lon="1.38816">
        <ele>125</ele>
        <time>2025-05-13T16:53:51Z</time>
      </trkpt>
      <trkpt lat="43.66456" lon="1.38819">
        <ele>125</ele>
        <time>2025-05-13T16:53:52Z</time>
      </trkpt>
      <trkpt lat="43.66455" lon="1.3882">
        <ele>125</ele>
        <time>2025-05-13T16:53:53Z</time>
      </trkpt>
      <trkpt lat="43.66454" lon="1.38821">
        <ele>125</ele>
        <time>2025-05-13T16:53:54Z</time>
      </trkpt>
      <trkpt lat="43.6645" lon="1.38823">
        <ele>125</ele>
        <time>2025-05-13T16:53:55Z</time>
      </trkpt>
      <trkpt lat="43.66449" lon="1.38824">
        <ele>125</ele>
        <time>2025-05-13T16:53:56Z</time>
      </trkpt>
      <trkpt lat="43.66447" lon="1.38824">
        <ele>125</ele>
        <time>2025-05-13T16:53:57Z</time>
      </trkpt>
      <trkpt lat="43.66446" lon="1.38825">
        <ele>125</ele>
        <time>2025-05-13T16:53:58Z</time>
      </trkpt>
      <trkpt lat="43.66444" lon="1.38826">
        <ele>125</ele>
        <time>2025-05-13T16:53:59Z</time>
      </trkpt>
      <trkpt lat="43.66441" lon="1.38826">
        <ele>125</ele>
        <time>2025-05-13T16:54:00Z</time>
      </trkpt>
      <trkpt lat="43.66439" lon="1.38828">
        <ele>125</ele>
        <time>2025-05-13T16:54:01Z</time>
      </trkpt>
      <trkpt lat="43.66436" lon="1.3883">
        <ele>125</ele>
        <time>2025-05-13T16:54:02Z</time>
      </trkpt>
      <trkpt lat="43.66435" lon="1.38831">
        <ele>125</ele>
        <time>2025-05-13T16:54:03Z</time>
      </trkpt>
      <trkpt lat="43.66433" lon="1.38833">
        <ele>125</ele>
        <time>2025-05-13T16:54:04Z</time>
      </trkpt>
      <trkpt lat="43.66431" lon="1.38834">
        <ele>125</ele>
        <time>2025-05-13T16:54:05Z</time>
      </trkpt>
      <trkpt lat="43.66429" lon="1.38836">
        <ele>125</ele>
        <time>2025-05-13T16:54:06Z</time>
      </trkpt>
      <trkpt lat="43.66427" lon="1.38838">
        <ele>125</ele>
        <time>2025-05-13T16:54:07Z</time>
      </trkpt>
      <trkpt lat="43.66425" lon="1.38839">
        <ele>125</ele>
        <time>2025-05-13T16:54:08Z</time>
      </trkpt>
      <trkpt lat="43.66423" lon="1.3884">
        <ele>125</ele>
        <time>2025-05-13T16:54:09Z</time>
      </trkpt>
      <trkpt lat="43.6642" lon="1.38842">
        <ele>125</ele>
        <time>2025-05-13T16:54:10Z</time>
      </trkpt>
      <trkpt lat="43.66418" lon="1.38843">
        <ele>126</ele>
        <time>2025-05-13T16:54:11Z</time>
      </trkpt>
      <trkpt lat="43.66416" lon="1.38845">
        <ele>126</ele>
        <time>2025-05-13T16:54:12Z</time>
      </trkpt>
      <trkpt lat="43.66413" lon="1.38847">
        <ele>126</ele>
        <time>2025-05-13T16:54:13Z</time>
      </trkpt>
      <trkpt lat="43.66413" lon="1.38847">
        <ele>125</ele>
        <time>2025-05-13T16:54:14Z</time>
      </trkpt>
      <trkpt lat="43.66409" lon="1.3885">
        <ele>125</ele>
        <time>2025-05-13T16:54:15Z</time>
      </trkpt>
      <trkpt lat="43.66407" lon="1.38852">
        <ele>125</ele>
        <time>2025-05-13T16:54:16Z</time>
      </trkpt>
      <trkpt lat="43.66406" lon="1.38853">
        <ele>125</ele>
        <time>2025-05-13T16:54:17Z</time>
      </trkpt>
      <trkpt lat="43.66403" lon="1.38855">
        <ele>125</ele>
        <time>2025-05-13T16:54:18Z</time>
      </trkpt>
      <trkpt lat="43.664" lon="1.38859">
        <ele>125</ele>
        <time>2025-05-13T16:54:19Z</time>
      </trkpt>
      <trkpt lat="43.66398" lon="1.3886">
        <ele>125</ele>
        <time>2025-05-13T16:54:20Z</time>
      </trkpt>
      <trkpt lat="43.66395" lon="1.38863">
        <ele>125</ele>
        <time>2025-05-13T16:54:21Z</time>
      </trkpt>
      <trkpt lat="43.66394" lon="1.38864">
        <ele>125</ele>
        <time>2025-05-13T16:54:22Z</time>
      </trkpt>
      <trkpt lat="43.66392" lon="1.38868">
        <ele>125</ele>
        <time>2025-05-13T16:54:23Z</time>
      </trkpt>
      <trkpt lat="43.66391" lon="1.38869">
        <ele>125</ele>
        <time>2025-05-13T16:54:24Z</time>
      </trkpt>
      <trkpt lat="43.66389" lon="1.38871">
        <ele>125</ele>
        <time>2025-05-13T16:54:25Z</time>
      </trkpt>
      <trkpt lat="43.66387" lon="1.38873">
        <ele>125</ele>
        <time>2025-05-13T16:54:26Z</time>
      </trkpt>
      <trkpt lat="43.66385" lon="1.38875">
        <ele>125</ele>
        <time>2025-05-13T16:54:27Z</time>
      </trkpt>
      <trkpt lat="43.66381" lon="1.38879">
        <ele>125</ele>
        <time>2025-05-13T16:54:28Z</time>
      </trkpt>
      <trkpt lat="43.6638" lon="1.3888">
        <ele>125</ele>
        <time>2025-05-13T16:54:29Z</time>
      </trkpt>
      <trkpt lat="43.66377" lon="1.38884">
        <ele>125</ele>
        <time>2025-05-13T16:54:30Z</time>
      </trkpt>
      <trkpt lat="43.66376" lon="1.38885">
        <ele>125</ele>
        <time>2025-05-13T16:54:31Z</time>
      </trkpt>
      <trkpt lat="43.66374" lon="1.38887">
        <ele>125</ele>
        <time>2025-05-13T16:54:32Z</time>
      </trkpt>
      <trkpt lat="43.66373" lon="1.38889">
        <ele>125</ele>
        <time>2025-05-13T16:54:33Z</time>
      </trkpt>
      <trkpt lat="43.6637" lon="1.38893">
        <ele>125</ele>
        <time>2025-05-13T16:54:34Z</time>
      </trkpt>
      <trkpt lat="43.66369" lon="1.38894">
        <ele>125</ele>
        <time>2025-05-13T16:54:35Z</time>
      </trkpt>
      <trkpt lat="43.66367" lon="1.38896">
        <ele>125</ele>
        <time>2025-05-13T16:54:36Z</time>
      </trkpt>
      <trkpt lat="43.66366" lon="1.38899">
        <ele>126</ele>
        <time>2025-05-13T16:54:37Z</time>
      </trkpt>
      <trkpt lat="43.66364" lon="1.38901">
        <ele>126</ele>
        <time>2025-05-13T16:54:38Z</time>
      </trkpt>
      <trkpt lat="43.66362" lon="1.38903">
        <ele>126</ele>
        <time>2025-05-13T16:54:39Z</time>
      </trkpt>
      <trkpt lat="43.66361" lon="1.38905">
        <ele>125</ele>
        <time>2025-05-13T16:54:40Z</time>
      </trkpt>
      <trkpt lat="43.6636" lon="1.38907">
        <ele>125</ele>
        <time>2025-05-13T16:54:41Z</time>
      </trkpt>
      <trkpt lat="43.6636" lon="1.38907">
        <ele>125</ele>
        <time>2025-05-13T16:54:42Z</time>
      </trkpt>
      <trkpt lat="43.66357" lon="1.38911">
        <ele>125</ele>
        <time>2025-05-13T16:54:43Z</time>
      </trkpt>
      <trkpt lat="43.66356" lon="1.38913">
        <ele>126</ele>
        <time>2025-05-13T16:54:44Z</time>
      </trkpt>
      <trkpt lat="43.66354" lon="1.38916">
        <ele>126</ele>
        <time>2025-05-13T16:54:45Z</time>
      </trkpt>
      <trkpt lat="43.66353" lon="1.38918">
        <ele>126</ele>
        <time>2025-05-13T16:54:46Z</time>
      </trkpt>
      <trkpt lat="43.66351" lon="1.38921">
        <ele>125</ele>
        <time>2025-05-13T16:54:47Z</time>
      </trkpt>
      <trkpt lat="43.66349" lon="1.38924">
        <ele>125</ele>
        <time>2025-05-13T16:54:48Z</time>
      </trkpt>
      <trkpt lat="43.66347" lon="1.38927">
        <ele>125</ele>
        <time>2025-05-13T16:54:49Z</time>
      </trkpt>
      <trkpt lat="43.66345" lon="1.3893">
        <ele>125</ele>
        <time>2025-05-13T16:54:50Z</time>
      </trkpt>
      <trkpt lat="43.66343" lon="1.38932">
        <ele>125</ele>
        <time>2025-05-13T16:54:51Z</time>
      </trkpt>
      <trkpt lat="43.66341" lon="1.38935">
        <ele>125</ele>
        <time>2025-05-13T16:54:52Z</time>
      </trkpt>
      <trkpt lat="43.66339" lon="1.38936">
        <ele>125</ele>
        <time>2025-05-13T16:54:53Z</time>
      </trkpt>
      <trkpt lat="43.66338" lon="1.38939">
        <ele>125</ele>
        <time>2025-05-13T16:54:54Z</time>
      </trkpt>
      <trkpt lat="43.66335" lon="1.38943">
        <ele>125</ele>
        <time>2025-05-13T16:54:56Z</time>
      </trkpt>
      <trkpt lat="43.66334" lon="1.38946">
        <ele>125</ele>
        <time>2025-05-13T16:54:57Z</time>
      </trkpt>
      <trkpt lat="43.66333" lon="1.38948">
        <ele>125</ele>
        <time>2025-05-13T16:54:58Z</time>
      </trkpt>
      <trkpt lat="43.66331" lon="1.3895">
        <ele>126</ele>
        <time>2025-05-13T16:54:59Z</time>
      </trkpt>
      <trkpt lat="43.66327" lon="1.38952">
        <ele>126</ele>
        <time>2025-05-13T16:55:00Z</time>
      </trkpt>
      <trkpt lat="43.66326" lon="1.38952">
        <ele>126</ele>
        <time>2025-05-13T16:55:01Z</time>
      </trkpt>
      <trkpt lat="43.66323" lon="1.38955">
        <ele>125</ele>
        <time>2025-05-13T16:55:02Z</time>
      </trkpt>
      <trkpt lat="43.66321" lon="1.38955">
        <ele>125</ele>
        <time>2025-05-13T16:55:03Z</time>
      </trkpt>
      <trkpt lat="43.66319" lon="1.38958">
        <ele>125</ele>
        <time>2025-05-13T16:55:04Z</time>
      </trkpt>
      <trkpt lat="43.66318" lon="1.38959">
        <ele>125</ele>
        <time>2025-05-13T16:55:05Z</time>
      </trkpt>
      <trkpt lat="43.66316" lon="1.38963">
        <ele>125</ele>
        <time>2025-05-13T16:55:06Z</time>
      </trkpt>
      <trkpt lat="43.66315" lon="1.38965">
        <ele>125</ele>
        <time>2025-05-13T16:55:07Z</time>
      </trkpt>
      <trkpt lat="43.66314" lon="1.38967">
        <ele>125</ele>
        <time>2025-05-13T16:55:08Z</time>
      </trkpt>
      <trkpt lat="43.66312" lon="1.38972">
        <ele>125</ele>
        <time>2025-05-13T16:55:09Z</time>
      </trkpt>
      <trkpt lat="43.66311" lon="1.38973">
        <ele>125</ele>
        <time>2025-05-13T16:55:10Z</time>
      </trkpt>
      <trkpt lat="43.66309" lon="1.38977">
        <ele>125</ele>
        <time>2025-05-13T16:55:11Z</time>
      </trkpt>
      <trkpt lat="43.66308" lon="1.38978">
        <ele>125</ele>
        <time>2025-05-13T16:55:12Z</time>
      </trkpt>
      <trkpt lat="43.66306" lon="1.38983">
        <ele>125</ele>
        <time>2025-05-13T16:55:13Z</time>
      </trkpt>
      <trkpt lat="43.66304" lon="1.38985">
        <ele>125</ele>
        <time>2025-05-13T16:55:14Z</time>
      </trkpt>
      <trkpt lat="43.66303" lon="1.38987">
        <ele>126</ele>
        <time>2025-05-13T16:55:15Z</time>
      </trkpt>
      <trkpt lat="43.66302" lon="1.38989">
        <ele>126</ele>
        <time>2025-05-13T16:55:16Z</time>
      </trkpt>
      <trkpt lat="43.663" lon="1.38992">
        <ele>126</ele>
        <time>2025-05-13T16:55:17Z</time>
      </trkpt>
      <trkpt lat="43.66299" lon="1.38996">
        <ele>126</ele>
        <time>2025-05-13T16:55:18Z</time>
      </trkpt>
      <trkpt lat="43.66297" lon="1.38999">
        <ele>126</ele>
        <time>2025-05-13T16:55:19Z</time>
      </trkpt>
      <trkpt lat="43.66295" lon="1.39001">
        <ele>126</ele>
        <time>2025-05-13T16:55:20Z</time>
      </trkpt>
      <trkpt lat="43.66294" lon="1.39004">
        <ele>126</ele>
        <time>2025-05-13T16:55:21Z</time>
      </trkpt>
      <trkpt lat="43.66292" lon="1.39007">
        <ele>126</ele>
        <time>2025-05-13T16:55:22Z</time>
      </trkpt>
      <trkpt lat="43.66291" lon="1.3901">
        <ele>126</ele>
        <time>2025-05-13T16:55:23Z</time>
      </trkpt>
      <trkpt lat="43.66289" lon="1.39013">
        <ele>125</ele>
        <time>2025-05-13T16:55:24Z</time>
      </trkpt>
      <trkpt lat="43.66288" lon="1.39017">
        <ele>125</ele>
        <time>2025-05-13T16:55:25Z</time>
      </trkpt>
      <trkpt lat="43.66287" lon="1.39018">
        <ele>125</ele>
        <time>2025-05-13T16:55:26Z</time>
      </trkpt>
      <trkpt lat="43.66285" lon="1.39021">
        <ele>125</ele>
        <time>2025-05-13T16:55:27Z</time>
      </trkpt>
      <trkpt lat="43.66283" lon="1.39024">
        <ele>126</ele>
        <time>2025-05-13T16:55:28Z</time>
      </trkpt>
      <trkpt lat="43.66281" lon="1.39027">
        <ele>126</ele>
        <time>2025-05-13T16:55:29Z</time>
      </trkpt>
      <trkpt lat="43.6628" lon="1.3903">
        <ele>126</ele>
        <time>2025-05-13T16:55:30Z</time>
      </trkpt>
      <trkpt lat="43.66279" lon="1.39033">
        <ele>126</ele>
        <time>2025-05-13T16:55:31Z</time>
      </trkpt>
      <trkpt lat="43.66277" lon="1.39035">
        <ele>125</ele>
        <time>2025-05-13T16:55:32Z</time>
      </trkpt>
      <trkpt lat="43.66276" lon="1.39038">
        <ele>125</ele>
        <time>2025-05-13T16:55:33Z</time>
      </trkpt>
      <trkpt lat="43.66275" lon="1.39041">
        <ele>125</ele>
        <time>2025-05-13T16:55:34Z</time>
      </trkpt>
      <trkpt lat="43.66274" lon="1.39044">
        <ele>125</ele>
        <time>2025-05-13T16:55:35Z</time>
      </trkpt>
      <trkpt lat="43.66274" lon="1.39049">
        <ele>125</ele>
        <time>2025-05-13T16:55:36Z</time>
      </trkpt>
      <trkpt lat="43.66275" lon="1.39051">
        <ele>125</ele>
        <time>2025-05-13T16:55:37Z</time>
      </trkpt>
      <trkpt lat="43.66275" lon="1.39054">
        <ele>125</ele>
        <time>2025-05-13T16:55:38Z</time>
      </trkpt>
      <trkpt lat="43.66275" lon="1.39057">
        <ele>125</ele>
        <time>2025-05-13T16:55:39Z</time>
      </trkpt>
      <trkpt lat="43.66275" lon="1.3906">
        <ele>125</ele>
        <time>2025-05-13T16:55:40Z</time>
      </trkpt>
      <trkpt lat="43.66275" lon="1.39064">
        <ele>125</ele>
        <time>2025-05-13T16:55:41Z</time>
      </trkpt>
      <trkpt lat="43.66275" lon="1.39067">
        <ele>125</ele>
        <time>2025-05-13T16:55:42Z</time>
      </trkpt>
      <trkpt lat="43.66274" lon="1.39071">
        <ele>125</ele>
        <time>2025-05-13T16:55:43Z</time>
      </trkpt>
      <trkpt lat="43.66274" lon="1.39073">
        <ele>125</ele>
        <time>2025-05-13T16:55:44Z</time>
      </trkpt>
      <trkpt lat="43.66274" lon="1.39076">
        <ele>126</ele>
        <time>2025-05-13T16:55:45Z</time>
      </trkpt>
      <trkpt lat="43.66273" lon="1.39078">
        <ele>126</ele>
        <time>2025-05-13T16:55:46Z</time>
      </trkpt>
      <trkpt lat="43.66271" lon="1.39081">
        <ele>125</ele>
        <time>2025-05-13T16:55:47Z</time>
      </trkpt>
      <trkpt lat="43.6627" lon="1.39084">
        <ele>126</ele>
        <time>2025-05-13T16:55:48Z</time>
      </trkpt>
      <trkpt lat="43.66268" lon="1.39087">
        <ele>126</ele>
        <time>2025-05-13T16:55:49Z</time>
      </trkpt>
      <trkpt lat="43.66267" lon="1.3909">
        <ele>126</ele>
        <time>2025-05-13T16:55:50Z</time>
      </trkpt>
      <trkpt lat="43.66266" lon="1.39094">
        <ele>126</ele>
        <time>2025-05-13T16:55:51Z</time>
      </trkpt>
      <trkpt lat="43.66264" lon="1.39097">
        <ele>126</ele>
        <time>2025-05-13T16:55:52Z</time>
      </trkpt>
      <trkpt lat="43.66261" lon="1.39102">
        <ele>126</ele>
        <time>2025-05-13T16:55:53Z</time>
      </trkpt>
      <trkpt lat="43.66261" lon="1.39104">
        <ele>126</ele>
        <time>2025-05-13T16:55:54Z</time>
      </trkpt>
      <trkpt lat="43.6626" lon="1.39106">
        <ele>126</ele>
        <time>2025-05-13T16:55:55Z</time>
      </trkpt>
      <trkpt lat="43.66259" lon="1.39108">
        <ele>126</ele>
        <time>2025-05-13T16:55:56Z</time>
      </trkpt>
      <trkpt lat="43.66258" lon="1.39111">
        <ele>126</ele>
        <time>2025-05-13T16:55:57Z</time>
      </trkpt>
      <trkpt lat="43.66258" lon="1.39115">
        <ele>126</ele>
        <time>2025-05-13T16:55:58Z</time>
      </trkpt>
      <trkpt lat="43.66257" lon="1.39117">
        <ele>126</ele>
        <time>2025-05-13T16:55:59Z</time>
      </trkpt>
      <trkpt lat="43.66257" lon="1.3912">
        <ele>126</ele>
        <time>2025-05-13T16:56:00Z</time>
      </trkpt>
      <trkpt lat="43.66258" lon="1.39124">
        <ele>126</ele>
        <time>2025-05-13T16:56:01Z</time>
      </trkpt>
      <trkpt lat="43.66258" lon="1.39127">
        <ele>127</ele>
        <time>2025-05-13T16:56:02Z</time>
      </trkpt>
      <trkpt lat="43.66258" lon="1.3913">
        <ele>127</ele>
        <time>2025-05-13T16:56:03Z</time>
      </trkpt>
      <trkpt lat="43.66258" lon="1.39134">
        <ele>127</ele>
        <time>2025-05-13T16:56:04Z</time>
      </trkpt>
      <trkpt lat="43.66257" lon="1.39138">
        <ele>127</ele>
        <time>2025-05-13T16:56:05Z</time>
      </trkpt>
      <trkpt lat="43.66258" lon="1.3914">
        <ele>127</ele>
        <time>2025-05-13T16:56:06Z</time>
      </trkpt>
      <trkpt lat="43.66258" lon="1.39144">
        <ele>127</ele>
        <time>2025-05-13T16:56:07Z</time>
      </trkpt>
      <trkpt lat="43.66258" lon="1.39147">
        <ele>127</ele>
        <time>2025-05-13T16:56:08Z</time>
      </trkpt>
      <trkpt lat="43.66259" lon="1.39151">
        <ele>127</ele>
        <time>2025-05-13T16:56:09Z</time>
      </trkpt>
      <trkpt lat="43.66261" lon="1.39154">
        <ele>127</ele>
        <time>2025-05-13T16:56:10Z</time>
      </trkpt>
      <trkpt lat="43.66262" lon="1.39156">
        <ele>127</ele>
        <time>2025-05-13T16:56:11Z</time>
      </trkpt>
      <trkpt lat="43.66263" lon="1.39158">
        <ele>127</ele>
        <time>2025-05-13T16:56:12Z</time>
      </trkpt>
      <trkpt lat="43.66263" lon="1.39158">
        <ele>127</ele>
        <time>2025-05-13T16:56:13Z</time>
      </trkpt>
      <trkpt lat="43.66266" lon="1.3916">
        <ele>127</ele>
        <time>2025-05-13T16:56:14Z</time>
      </trkpt>
      <trkpt lat="43.66266" lon="1.3916">
        <ele>127</ele>
        <time>2025-05-13T16:56:15Z</time>
      </trkpt>
      <trkpt lat="43.66269" lon="1.39162">
        <ele>127</ele>
        <time>2025-05-13T16:56:16Z</time>
      </trkpt>
      <trkpt lat="43.66271" lon="1.39164">
        <ele>127</ele>
        <time>2025-05-13T16:56:17Z</time>
      </trkpt>
      <trkpt lat="43.66273" lon="1.39165">
        <ele>127</ele>
        <time>2025-05-13T16:56:18Z</time>
      </trkpt>
      <trkpt lat="43.66274" lon="1.39168">
        <ele>126</ele>
        <time>2025-05-13T16:56:19Z</time>
      </trkpt>
      <trkpt lat="43.66276" lon="1.3917">
        <ele>127</ele>
        <time>2025-05-13T16:56:20Z</time>
      </trkpt>
      <trkpt lat="43.66276" lon="1.3917">
        <ele>127</ele>
        <time>2025-05-13T16:56:21Z</time>
      </trkpt>
      <trkpt lat="43.66278" lon="1.39174">
        <ele>127</ele>
        <time>2025-05-13T16:56:22Z</time>
      </trkpt>
      <trkpt lat="43.66278" lon="1.39176">
        <ele>127</ele>
        <time>2025-05-13T16:56:23Z</time>
      </trkpt>
      <trkpt lat="43.66279" lon="1.39179">
        <ele>127</ele>
        <time>2025-05-13T16:56:24Z</time>
      </trkpt>
      <trkpt lat="43.6628" lon="1.39182">
        <ele>127</ele>
        <time>2025-05-13T16:56:25Z</time>
      </trkpt>
      <trkpt lat="43.66281" lon="1.39185">
        <ele>127</ele>
        <time>2025-05-13T16:56:26Z</time>
      </trkpt>
      <trkpt lat="43.66281" lon="1.3919">
        <ele>127</ele>
        <time>2025-05-13T16:56:27Z</time>
      </trkpt>
      <trkpt lat="43.66281" lon="1.39191">
        <ele>127</ele>
        <time>2025-05-13T16:56:28Z</time>
      </trkpt>
      <trkpt lat="43.66281" lon="1.39194">
        <ele>127</ele>
        <time>2025-05-13T16:56:29Z</time>
      </trkpt>
      <trkpt lat="43.66283" lon="1.392">
        <ele>126</ele>
        <time>2025-05-13T16:56:31Z</time>
      </trkpt>
      <trkpt lat="43.66284" lon="1.39204">
        <ele>126</ele>
        <time>2025-05-13T16:56:32Z</time>
      </trkpt>
      <trkpt lat="43.66284" lon="1.39206">
        <ele>126</ele>
        <time>2025-05-13T16:56:33Z</time>
      </trkpt>
      <trkpt lat="43.66286" lon="1.3921">
        <ele>126</ele>
        <time>2025-05-13T16:56:34Z</time>
      </trkpt>
      <trkpt lat="43.66287" lon="1.39212">
        <ele>127</ele>
        <time>2025-05-13T16:56:35Z</time>
      </trkpt>
      <trkpt lat="43.66288" lon="1.39215">
        <ele>127</ele>
        <time>2025-05-13T16:56:36Z</time>
      </trkpt>
      <trkpt lat="43.66289" lon="1.39219">
        <ele>127</ele>
        <time>2025-05-13T16:56:37Z</time>
      </trkpt>
      <trkpt lat="43.6629" lon="1.39222">
        <ele>127</ele>
        <time>2025-05-13T16:56:38Z</time>
      </trkpt>
      <trkpt lat="43.66291" lon="1.39227">
        <ele>127</ele>
        <time>2025-05-13T16:56:39Z</time>
      </trkpt>
      <trkpt lat="43.66292" lon="1.3923">
        <ele>127</ele>
        <time>2025-05-13T16:56:40Z</time>
      </trkpt>
      <trkpt lat="43.66293" lon="1.39233">
        <ele>127</ele>
        <time>2025-05-13T16:56:41Z</time>
      </trkpt>
      <trkpt lat="43.66295" lon="1.39238">
        <ele>127</ele>
        <time>2025-05-13T16:56:42Z</time>
      </trkpt>
      <trkpt lat="43.66296" lon="1.3924">
        <ele>127</ele>
        <time>2025-05-13T16:56:43Z</time>
      </trkpt>
      <trkpt lat="43.66297" lon="1.39243">
        <ele>127</ele>
        <time>2025-05-13T16:56:44Z</time>
      </trkpt>
      <trkpt lat="43.66298" lon="1.39247">
        <ele>127</ele>
        <time>2025-05-13T16:56:45Z</time>
      </trkpt>
      <trkpt lat="43.663" lon="1.3925">
        <ele>127</ele>
        <time>2025-05-13T16:56:46Z</time>
      </trkpt>
      <trkpt lat="43.663" lon="1.39253">
        <ele>127</ele>
        <time>2025-05-13T16:56:47Z</time>
      </trkpt>
      <trkpt lat="43.66301" lon="1.39256">
        <ele>127</ele>
        <time>2025-05-13T16:56:48Z</time>
      </trkpt>
      <trkpt lat="43.66304" lon="1.39261">
        <ele>127</ele>
        <time>2025-05-13T16:56:50Z</time>
      </trkpt>
      <trkpt lat="43.66306" lon="1.39264">
        <ele>127</ele>
        <time>2025-05-13T16:56:51Z</time>
      </trkpt>
      <trkpt lat="43.66307" lon="1.39268">
        <ele>127</ele>
        <time>2025-05-13T16:56:52Z</time>
      </trkpt>
      <trkpt lat="43.66308" lon="1.39269">
        <ele>127</ele>
        <time>2025-05-13T16:56:53Z</time>
      </trkpt>
      <trkpt lat="43.6631" lon="1.39273">
        <ele>127</ele>
        <time>2025-05-13T16:56:54Z</time>
      </trkpt>
      <trkpt lat="43.66311" lon="1.39275">
        <ele>127</ele>
        <time>2025-05-13T16:56:55Z</time>
      </trkpt>
      <trkpt lat="43.66313" lon="1.39277">
        <ele>127</ele>
        <time>2025-05-13T16:56:56Z</time>
      </trkpt>
      <trkpt lat="43.66313" lon="1.39277">
        <ele>127</ele>
        <time>2025-05-13T16:56:57Z</time>
      </trkpt>
      <trkpt lat="43.66316" lon="1.3928">
        <ele>127</ele>
        <time>2025-05-13T16:56:58Z</time>
      </trkpt>
      <trkpt lat="43.66319" lon="1.39281">
        <ele>127</ele>
        <time>2025-05-13T16:56:59Z</time>
      </trkpt>
      <trkpt lat="43.66319" lon="1.39282">
        <ele>127</ele>
        <time>2025-05-13T16:57:00Z</time>
      </trkpt>
      <trkpt lat="43.66319" lon="1.39282">
        <ele>127</ele>
        <time>2025-05-13T16:57:01Z</time>
      </trkpt>
      <trkpt lat="43.66323" lon="1.39283">
        <ele>127</ele>
        <time>2025-05-13T16:57:02Z</time>
      </trkpt>
      <trkpt lat="43.66323" lon="1.39283">
        <ele>127</ele>
        <time>2025-05-13T16:57:03Z</time>
      </trkpt>
      <trkpt lat="43.66326" lon="1.39284">
        <ele>127</ele>
        <time>2025-05-13T16:57:04Z</time>
      </trkpt>
      <trkpt lat="43.66326" lon="1.39284">
        <ele>127</ele>
        <time>2025-05-13T16:57:05Z</time>
      </trkpt>
      <trkpt lat="43.6633" lon="1.39282">
        <ele>127</ele>
        <time>2025-05-13T16:57:06Z</time>
      </trkpt>
      <trkpt lat="43.66332" lon="1.39282">
        <ele>127</ele>
        <time>2025-05-13T16:57:07Z</time>
      </trkpt>
      <trkpt lat="43.66332" lon="1.39282">
        <ele>127</ele>
        <time>2025-05-13T16:57:08Z</time>
      </trkpt>
      <trkpt lat="43.66335" lon="1.3928">
        <ele>127</ele>
        <time>2025-05-13T16:57:09Z</time>
      </trkpt>
      <trkpt lat="43.66335" lon="1.3928">
        <ele>128</ele>
        <time>2025-05-13T16:57:10Z</time>
      </trkpt>
      <trkpt lat="43.66338" lon="1.39278">
        <ele>128</ele>
        <time>2025-05-13T16:57:11Z</time>
      </trkpt>
      <trkpt lat="43.6634" lon="1.39277">
        <ele>128</ele>
        <time>2025-05-13T16:57:12Z</time>
      </trkpt>
      <trkpt lat="43.66342" lon="1.39275">
        <ele>128</ele>
        <time>2025-05-13T16:57:13Z</time>
      </trkpt>
      <trkpt lat="43.66344" lon="1.39274">
        <ele>128</ele>
        <time>2025-05-13T16:57:14Z</time>
      </trkpt>
      <trkpt lat="43.66347" lon="1.39273">
        <ele>128</ele>
        <time>2025-05-13T16:57:15Z</time>
      </trkpt>
      <trkpt lat="43.66349" lon="1.39272">
        <ele>128</ele>
        <time>2025-05-13T16:57:16Z</time>
      </trkpt>
      <trkpt lat="43.66351" lon="1.39272">
        <ele>128</ele>
        <time>2025-05-13T16:57:17Z</time>
      </trkpt>
      <trkpt lat="43.66354" lon="1.39272">
        <ele>128</ele>
        <time>2025-05-13T16:57:18Z</time>
      </trkpt>
      <trkpt lat="43.66357" lon="1.39272">
        <ele>128</ele>
        <time>2025-05-13T16:57:19Z</time>
      </trkpt>
      <trkpt lat="43.6636" lon="1.39273">
        <ele>128</ele>
        <time>2025-05-13T16:57:20Z</time>
      </trkpt>
      <trkpt lat="43.66362" lon="1.39274">
        <ele>127</ele>
        <time>2025-05-13T16:57:21Z</time>
      </trkpt>
      <trkpt lat="43.66365" lon="1.39275">
        <ele>127</ele>
        <time>2025-05-13T16:57:22Z</time>
      </trkpt>
      <trkpt lat="43.66367" lon="1.39276">
        <ele>127</ele>
        <time>2025-05-13T16:57:23Z</time>
      </trkpt>
      <trkpt lat="43.6637" lon="1.39278">
        <ele>127</ele>
        <time>2025-05-13T16:57:24Z</time>
      </trkpt>
      <trkpt lat="43.66371" lon="1.39278">
        <ele>127</ele>
        <time>2025-05-13T16:57:25Z</time>
      </trkpt>
      <trkpt lat="43.66374" lon="1.3928">
        <ele>128</ele>
        <time>2025-05-13T16:57:26Z</time>
      </trkpt>
      <trkpt lat="43.66376" lon="1.39282">
        <ele>128</ele>
        <time>2025-05-13T16:57:27Z</time>
      </trkpt>
      <trkpt lat="43.66378" lon="1.39285">
        <ele>128</ele>
        <time>2025-05-13T16:57:28Z</time>
      </trkpt>
      <trkpt lat="43.6638" lon="1.39287">
        <ele>128</ele>
        <time>2025-05-13T16:57:29Z</time>
      </trkpt>
      <trkpt lat="43.66382" lon="1.39289">
        <ele>128</ele>
        <time>2025-05-13T16:57:30Z</time>
      </trkpt>
      <trkpt lat="43.66385" lon="1.39291">
        <ele>128</ele>
        <time>2025-05-13T16:57:31Z</time>
      </trkpt>
      <trkpt lat="43.66387" lon="1.39292">
        <ele>128</ele>
        <time>2025-05-13T16:57:32Z</time>
      </trkpt>
      <trkpt lat="43.66389" lon="1.39294">
        <ele>128</ele>
        <time>2025-05-13T16:57:33Z</time>
      </trkpt>
      <trkpt lat="43.66392" lon="1.39296">
        <ele>128</ele>
        <time>2025-05-13T16:57:34Z</time>
      </trkpt>
      <trkpt lat="43.66394" lon="1.39298">
        <ele>128</ele>
        <time>2025-05-13T16:57:35Z</time>
      </trkpt>
      <trkpt lat="43.66396" lon="1.39301">
        <ele>128</ele>
        <time>2025-05-13T16:57:36Z</time>
      </trkpt>
      <trkpt lat="43.66398" lon="1.39303">
        <ele>128</ele>
        <time>2025-05-13T16:57:37Z</time>
      </trkpt>
      <trkpt lat="43.66402" lon="1.39306">
        <ele>128</ele>
        <time>2025-05-13T16:57:38Z</time>
      </trkpt>
      <trkpt lat="43.66402" lon="1.39307">
        <ele>128</ele>
        <time>2025-05-13T16:57:39Z</time>
      </trkpt>
      <trkpt lat="43.66406" lon="1.39309">
        <ele>128</ele>
        <time>2025-05-13T16:57:40Z</time>
      </trkpt>
      <trkpt lat="43.66407" lon="1.3931">
        <ele>128</ele>
        <time>2025-05-13T16:57:41Z</time>
      </trkpt>
      <trkpt lat="43.66409" lon="1.39312">
        <ele>128</ele>
        <time>2025-05-13T16:57:42Z</time>
      </trkpt>
      <trkpt lat="43.66412" lon="1.39313">
        <ele>128</ele>
        <time>2025-05-13T16:57:43Z</time>
      </trkpt>
      <trkpt lat="43.66414" lon="1.39314">
        <ele>128</ele>
        <time>2025-05-13T16:57:44Z</time>
      </trkpt>
      <trkpt lat="43.66416" lon="1.39315">
        <ele>128</ele>
        <time>2025-05-13T16:57:45Z</time>
      </trkpt>
      <trkpt lat="43.66419" lon="1.39317">
        <ele>128</ele>
        <time>2025-05-13T16:57:46Z</time>
      </trkpt>
      <trkpt lat="43.66421" lon="1.39318">
        <ele>128</ele>
        <time>2025-05-13T16:57:47Z</time>
      </trkpt>
      <trkpt lat="43.66423" lon="1.39319">
        <ele>128</ele>
        <time>2025-05-13T16:57:48Z</time>
      </trkpt>
      <trkpt lat="43.66426" lon="1.39319">
        <ele>128</ele>
        <time>2025-05-13T16:57:49Z</time>
      </trkpt>
      <trkpt lat="43.66429" lon="1.3932">
        <ele>128</ele>
        <time>2025-05-13T16:57:50Z</time>
      </trkpt>
      <trkpt lat="43.6643" lon="1.39321">
        <ele>128</ele>
        <time>2025-05-13T16:57:51Z</time>
      </trkpt>
      <trkpt lat="43.66432" lon="1.39321">
        <ele>128</ele>
        <time>2025-05-13T16:57:52Z</time>
      </trkpt>
      <trkpt lat="43.66435" lon="1.39321">
        <ele>128</ele>
        <time>2025-05-13T16:57:53Z</time>
      </trkpt>
      <trkpt lat="43.66437" lon="1.39322">
        <ele>128</ele>
        <time>2025-05-13T16:57:54Z</time>
      </trkpt>
      <trkpt lat="43.6644" lon="1.39322">
        <ele>128</ele>
        <time>2025-05-13T16:57:55Z</time>
      </trkpt>
      <trkpt lat="43.66442" lon="1.39321">
        <ele>128</ele>
        <time>2025-05-13T16:57:56Z</time>
      </trkpt>
      <trkpt lat="43.66444" lon="1.39322">
        <ele>128</ele>
        <time>2025-05-13T16:57:57Z</time>
      </trkpt>
      <trkpt lat="43.66446" lon="1.39322">
        <ele>128</ele>
        <time>2025-05-13T16:57:58Z</time>
      </trkpt>
      <trkpt lat="43.66446" lon="1.39322">
        <ele>128</ele>
        <time>2025-05-13T16:57:59Z</time>
      </trkpt>
      <trkpt lat="43.6645" lon="1.39322">
        <ele>128</ele>
        <time>2025-05-13T16:58:00Z</time>
      </trkpt>
      <trkpt lat="43.66453" lon="1.39322">
        <ele>128</ele>
        <time>2025-05-13T16:58:01Z</time>
      </trkpt>
      <trkpt lat="43.66456" lon="1.39322">
        <ele>128</ele>
        <time>2025-05-13T16:58:02Z</time>
      </trkpt>
      <trkpt lat="43.6646" lon="1.39322">
        <ele>128</ele>
        <time>2025-05-13T16:58:04Z</time>
      </trkpt>
      <trkpt lat="43.66463" lon="1.39322">
        <ele>128</ele>
        <time>2025-05-13T16:58:05Z</time>
      </trkpt>
      <trkpt lat="43.66465" lon="1.39321">
        <ele>128</ele>
        <time>2025-05-13T16:58:06Z</time>
      </trkpt>
      <trkpt lat="43.66468" lon="1.3932">
        <ele>128</ele>
        <time>2025-05-13T16:58:07Z</time>
      </trkpt>
      <trkpt lat="43.6647" lon="1.39319">
        <ele>128</ele>
        <time>2025-05-13T16:58:08Z</time>
      </trkpt>
      <trkpt lat="43.66473" lon="1.39318">
        <ele>128</ele>
        <time>2025-05-13T16:58:09Z</time>
      </trkpt>
      <trkpt lat="43.66474" lon="1.39317">
        <ele>128</ele>
        <time>2025-05-13T16:58:10Z</time>
      </trkpt>
      <trkpt lat="43.66478" lon="1.39316">
        <ele>128</ele>
        <time>2025-05-13T16:58:11Z</time>
      </trkpt>
      <trkpt lat="43.66479" lon="1.39316">
        <ele>128</ele>
        <time>2025-05-13T16:58:12Z</time>
      </trkpt>
      <trkpt lat="43.66482" lon="1.39313">
        <ele>128</ele>
        <time>2025-05-13T16:58:13Z</time>
      </trkpt>
      <trkpt lat="43.66483" lon="1.39312">
        <ele>128</ele>
        <time>2025-05-13T16:58:14Z</time>
      </trkpt>
      <trkpt lat="43.66485" lon="1.39311">
        <ele>128</ele>
        <time>2025-05-13T16:58:15Z</time>
      </trkpt>
      <trkpt lat="43.66489" lon="1.39309">
        <ele>127</ele>
        <time>2025-05-13T16:58:16Z</time>
      </trkpt>
      <trkpt lat="43.6649" lon="1.39308">
        <ele>127</ele>
        <time>2025-05-13T16:58:17Z</time>
      </trkpt>
      <trkpt lat="43.66494" lon="1.39305">
        <ele>127</ele>
        <time>2025-05-13T16:58:18Z</time>
      </trkpt>
      <trkpt lat="43.66495" lon="1.39304">
        <ele>127</ele>
        <time>2025-05-13T16:58:19Z</time>
      </trkpt>
      <trkpt lat="43.66498" lon="1.393">
        <ele>127</ele>
        <time>2025-05-13T16:58:20Z</time>
      </trkpt>
      <trkpt lat="43.66499" lon="1.39299">
        <ele>127</ele>
        <time>2025-05-13T16:58:21Z</time>
      </trkpt>
      <trkpt lat="43.66501" lon="1.39297">
        <ele>127</ele>
        <time>2025-05-13T16:58:22Z</time>
      </trkpt>
      <trkpt lat="43.66502" lon="1.39293">
        <ele>127</ele>
        <time>2025-05-13T16:58:23Z</time>
      </trkpt>
      <trkpt lat="43.66504" lon="1.39289">
        <ele>127</ele>
        <time>2025-05-13T16:58:24Z</time>
      </trkpt>
      <trkpt lat="43.66504" lon="1.39287">
        <ele>127</ele>
        <time>2025-05-13T16:58:25Z</time>
      </trkpt>
      <trkpt lat="43.66505" lon="1.39283">
        <ele>127</ele>
        <time>2025-05-13T16:58:26Z</time>
      </trkpt>
      <trkpt lat="43.66505" lon="1.39282">
        <ele>127</ele>
        <time>2025-05-13T16:58:27Z</time>
      </trkpt>
      <trkpt lat="43.66507" lon="1.39277">
        <ele>126</ele>
        <time>2025-05-13T16:58:28Z</time>
      </trkpt>
      <trkpt lat="43.66507" lon="1.39275">
        <ele>126</ele>
        <time>2025-05-13T16:58:29Z</time>
      </trkpt>
      <trkpt lat="43.6651" lon="1.39272">
        <ele>126</ele>
        <time>2025-05-13T16:58:30Z</time>
      </trkpt>
      <trkpt lat="43.66511" lon="1.39271">
        <ele>126</ele>
        <time>2025-05-13T16:58:31Z</time>
      </trkpt>
      <trkpt lat="43.66513" lon="1.39267">
        <ele>126</ele>
        <time>2025-05-13T16:58:32Z</time>
      </trkpt>
      <trkpt lat="43.66514" lon="1.39266">
        <ele>126</ele>
        <time>2025-05-13T16:58:33Z</time>
      </trkpt>
      <trkpt lat="43.66516" lon="1.39265">
        <ele>126</ele>
        <time>2025-05-13T16:58:34Z</time>
      </trkpt>
      <trkpt lat="43.66517" lon="1.39265">
        <ele>126</ele>
        <time>2025-05-13T16:58:35Z</time>
      </trkpt>
      <trkpt lat="43.66521" lon="1.39264">
        <ele>126</ele>
        <time>2025-05-13T16:58:36Z</time>
      </trkpt>
      <trkpt lat="43.66522" lon="1.39264">
        <ele>126</ele>
        <time>2025-05-13T16:58:37Z</time>
      </trkpt>
      <trkpt lat="43.66525" lon="1.39263">
        <ele>126</ele>
        <time>2025-05-13T16:58:38Z</time>
      </trkpt>
      <trkpt lat="43.66527" lon="1.39262">
        <ele>126</ele>
        <time>2025-05-13T16:58:39Z</time>
      </trkpt>
      <trkpt lat="43.66529" lon="1.39261">
        <ele>126</ele>
        <time>2025-05-13T16:58:40Z</time>
      </trkpt>
      <trkpt lat="43.66533" lon="1.39261">
        <ele>126</ele>
        <time>2025-05-13T16:58:41Z</time>
      </trkpt>
      <trkpt lat="43.66534" lon="1.3926">
        <ele>126</ele>
        <time>2025-05-13T16:58:42Z</time>
      </trkpt>
      <trkpt lat="43.66538" lon="1.39259">
        <ele>127</ele>
        <time>2025-05-13T16:58:44Z</time>
      </trkpt>
      <trkpt lat="43.6654" lon="1.39259">
        <ele>127</ele>
        <time>2025-05-13T16:58:45Z</time>
      </trkpt>
      <trkpt lat="43.66543" lon="1.39258">
        <ele>126</ele>
        <time>2025-05-13T16:58:46Z</time>
      </trkpt>
      <trkpt lat="43.66545" lon="1.39258">
        <ele>126</ele>
        <time>2025-05-13T16:58:47Z</time>
      </trkpt>
      <trkpt lat="43.66547" lon="1.39258">
        <ele>127</ele>
        <time>2025-05-13T16:58:48Z</time>
      </trkpt>
      <trkpt lat="43.6655" lon="1.39257">
        <ele>127</ele>
        <time>2025-05-13T16:58:49Z</time>
      </trkpt>
      <trkpt lat="43.66552" lon="1.39257">
        <ele>127</ele>
        <time>2025-05-13T16:58:50Z</time>
      </trkpt>
      <trkpt lat="43.66554" lon="1.39257">
        <ele>127</ele>
        <time>2025-05-13T16:58:51Z</time>
      </trkpt>
      <trkpt lat="43.66556" lon="1.39259">
        <ele>127</ele>
        <time>2025-05-13T16:58:52Z</time>
      </trkpt>
      <trkpt lat="43.66557" lon="1.39261">
        <ele>127</ele>
        <time>2025-05-13T16:58:53Z</time>
      </trkpt>
      <trkpt lat="43.66559" lon="1.39263">
        <ele>127</ele>
        <time>2025-05-13T16:58:54Z</time>
      </trkpt>
      <trkpt lat="43.66561" lon="1.39265">
        <ele>127</ele>
        <time>2025-05-13T16:58:55Z</time>
      </trkpt>
      <trkpt lat="43.66563" lon="1.39267">
        <ele>127</ele>
        <time>2025-05-13T16:58:56Z</time>
      </trkpt>
      <trkpt lat="43.66565" lon="1.39269">
        <ele>127</ele>
        <time>2025-05-13T16:58:57Z</time>
      </trkpt>
      <trkpt lat="43.66566" lon="1.39271">
        <ele>127</ele>
        <time>2025-05-13T16:58:58Z</time>
      </trkpt>
      <trkpt lat="43.66567" lon="1.39274">
        <ele>128</ele>
        <time>2025-05-13T16:58:59Z</time>
      </trkpt>
      <trkpt lat="43.66569" lon="1.39278">
        <ele>128</ele>
        <time>2025-05-13T16:59:00Z</time>
      </trkpt>
      <trkpt lat="43.6657" lon="1.3928">
        <ele>128</ele>
        <time>2025-05-13T16:59:01Z</time>
      </trkpt>
      <trkpt lat="43.66571" lon="1.39283">
        <ele>128</ele>
        <time>2025-05-13T16:59:02Z</time>
      </trkpt>
      <trkpt lat="43.66572" lon="1.39286">
        <ele>128</ele>
        <time>2025-05-13T16:59:03Z</time>
      </trkpt>
      <trkpt lat="43.66572" lon="1.3929">
        <ele>128</ele>
        <time>2025-05-13T16:59:04Z</time>
      </trkpt>
      <trkpt lat="43.66572" lon="1.39292">
        <ele>128</ele>
        <time>2025-05-13T16:59:05Z</time>
      </trkpt>
      <trkpt lat="43.66572" lon="1.39295">
        <ele>128</ele>
        <time>2025-05-13T16:59:06Z</time>
      </trkpt>
      <trkpt lat="43.66572" lon="1.39302">
        <ele>128</ele>
        <time>2025-05-13T16:59:08Z</time>
      </trkpt>
      <trkpt lat="43.66572" lon="1.39305">
        <ele>128</ele>
        <time>2025-05-13T16:59:09Z</time>
      </trkpt>
      <trkpt lat="43.66573" lon="1.39308">
        <ele>128</ele>
        <time>2025-05-13T16:59:10Z</time>
      </trkpt>
      <trkpt lat="43.66573" lon="1.39311">
        <ele>128</ele>
        <time>2025-05-13T16:59:11Z</time>
      </trkpt>
      <trkpt lat="43.66573" lon="1.39314">
        <ele>128</ele>
        <time>2025-05-13T16:59:12Z</time>
      </trkpt>
      <trkpt lat="43.66573" lon="1.39318">
        <ele>128</ele>
        <time>2025-05-13T16:59:13Z</time>
      </trkpt>
      <trkpt lat="43.66573" lon="1.39321">
        <ele>128</ele>
        <time>2025-05-13T16:59:14Z</time>
      </trkpt>
      <trkpt lat="43.66574" lon="1.39324">
        <ele>128</ele>
        <time>2025-05-13T16:59:15Z</time>
      </trkpt>
      <trkpt lat="43.66575" lon="1.3933">
        <ele>128</ele>
        <time>2025-05-13T16:59:16Z</time>
      </trkpt>
      <trkpt lat="43.66576" lon="1.39331">
        <ele>128</ele>
        <time>2025-05-13T16:59:17Z</time>
      </trkpt>
      <trkpt lat="43.66576" lon="1.39335">
        <ele>128</ele>
        <time>2025-05-13T16:59:18Z</time>
      </trkpt>
      <trkpt lat="43.66577" lon="1.3934">
        <ele>128</ele>
        <time>2025-05-13T16:59:19Z</time>
      </trkpt>
      <trkpt lat="43.66577" lon="1.39341">
        <ele>128</ele>
        <time>2025-05-13T16:59:20Z</time>
      </trkpt>
      <trkpt lat="43.66577" lon="1.39348">
        <ele>128</ele>
        <time>2025-05-13T16:59:22Z</time>
      </trkpt>
      <trkpt lat="43.66578" lon="1.39353">
        <ele>128</ele>
        <time>2025-05-13T16:59:23Z</time>
      </trkpt>
      <trkpt lat="43.66578" lon="1.39354">
        <ele>128</ele>
        <time>2025-05-13T16:59:24Z</time>
      </trkpt>
      <trkpt lat="43.66579" lon="1.3936">
        <ele>128</ele>
        <time>2025-05-13T16:59:25Z</time>
      </trkpt>
      <trkpt lat="43.66579" lon="1.39362">
        <ele>127</ele>
        <time>2025-05-13T16:59:26Z</time>
      </trkpt>
      <trkpt lat="43.6658" lon="1.39365">
        <ele>127</ele>
        <time>2025-05-13T16:59:27Z</time>
      </trkpt>
      <trkpt lat="43.6658" lon="1.39368">
        <ele>128</ele>
        <time>2025-05-13T16:59:28Z</time>
      </trkpt>
      <trkpt lat="43.66581" lon="1.39371">
        <ele>128</ele>
        <time>2025-05-13T16:59:29Z</time>
      </trkpt>
      <trkpt lat="43.66581" lon="1.39374">
        <ele>128</ele>
        <time>2025-05-13T16:59:30Z</time>
      </trkpt>
      <trkpt lat="43.66582" lon="1.39377">
        <ele>128</ele>
        <time>2025-05-13T16:59:31Z</time>
      </trkpt>
      <trkpt lat="43.66582" lon="1.3938">
        <ele>128</ele>
        <time>2025-05-13T16:59:32Z</time>
      </trkpt>
      <trkpt lat="43.66582" lon="1.39385">
        <ele>128</ele>
        <time>2025-05-13T16:59:33Z</time>
      </trkpt>
      <trkpt lat="43.66583" lon="1.39387">
        <ele>128</ele>
        <time>2025-05-13T16:59:34Z</time>
      </trkpt>
      <trkpt lat="43.66583" lon="1.39392">
        <ele>128</ele>
        <time>2025-05-13T16:59:35Z</time>
      </trkpt>
      <trkpt lat="43.66583" lon="1.39393">
        <ele>128</ele>
        <time>2025-05-13T16:59:36Z</time>
      </trkpt>
      <trkpt lat="43.66583" lon="1.39397">
        <ele>128</ele>
        <time>2025-05-13T16:59:37Z</time>
      </trkpt>
      <trkpt lat="43.66583" lon="1.39401">
        <ele>128</ele>
        <time>2025-05-13T16:59:38Z</time>
      </trkpt>
      <trkpt lat="43.66584" lon="1.39404">
        <ele>128</ele>
        <time>2025-05-13T16:59:39Z</time>
      </trkpt>
      <trkpt lat="43.66585" lon="1.3941">
        <ele>128</ele>
        <time>2025-05-13T16:59:41Z</time>
      </trkpt>
      <trkpt lat="43.66585" lon="1.39413">
        <ele>128</ele>
        <time>2025-05-13T16:59:42Z</time>
      </trkpt>
      <trkpt lat="43.66586" lon="1.39416">
        <ele>128</ele>
        <time>2025-05-13T16:59:43Z</time>
      </trkpt>
      <trkpt lat="43.66587" lon="1.39419">
        <ele>128</ele>
        <time>2025-05-13T16:59:44Z</time>
      </trkpt>
      <trkpt lat="43.66587" lon="1.39422">
        <ele>128</ele>
        <time>2025-05-13T16:59:45Z</time>
      </trkpt>
      <trkpt lat="43.66588" lon="1.39425">
        <ele>128</ele>
        <time>2025-05-13T16:59:46Z</time>
      </trkpt>
      <trkpt lat="43.66589" lon="1.39429">
        <ele>128</ele>
        <time>2025-05-13T16:59:47Z</time>
      </trkpt>
      <trkpt lat="43.66589" lon="1.39429">
        <ele>128</ele>
        <time>2025-05-13T16:59:48Z</time>
      </trkpt>
      <trkpt lat="43.66591" lon="1.39436">
        <ele>128</ele>
        <time>2025-05-13T16:59:49Z</time>
      </trkpt>
      <trkpt lat="43.66592" lon="1.39439">
        <ele>128</ele>
        <time>2025-05-13T16:59:50Z</time>
      </trkpt>
      <trkpt lat="43.66594" lon="1.39442">
        <ele>128</ele>
        <time>2025-05-13T16:59:51Z</time>
      </trkpt>
      <trkpt lat="43.66594" lon="1.39446">
        <ele>128</ele>
        <time>2025-05-13T16:59:52Z</time>
      </trkpt>
      <trkpt lat="43.66595" lon="1.3945">
        <ele>128</ele>
        <time>2025-05-13T16:59:53Z</time>
      </trkpt>
      <trkpt lat="43.66596" lon="1.39453">
        <ele>128</ele>
        <time>2025-05-13T16:59:54Z</time>
      </trkpt>
      <trkpt lat="43.66596" lon="1.39457">
        <ele>128</ele>
        <time>2025-05-13T16:59:55Z</time>
      </trkpt>
      <trkpt lat="43.66597" lon="1.3946">
        <ele>128</ele>
        <time>2025-05-13T16:59:56Z</time>
      </trkpt>
      <trkpt lat="43.66598" lon="1.39463">
        <ele>128</ele>
        <time>2025-05-13T16:59:57Z</time>
      </trkpt>
      <trkpt lat="43.66598" lon="1.39466">
        <ele>128</ele>
        <time>2025-05-13T16:59:58Z</time>
      </trkpt>
      <trkpt lat="43.66599" lon="1.39469">
        <ele>128</ele>
        <time>2025-05-13T16:59:59Z</time>
      </trkpt>
      <trkpt lat="43.666" lon="1.39472">
        <ele>128</ele>
        <time>2025-05-13T17:00:00Z</time>
      </trkpt>
      <trkpt lat="43.66601" lon="1.39475">
        <ele>128</ele>
        <time>2025-05-13T17:00:01Z</time>
      </trkpt>
      <trkpt lat="43.66602" lon="1.39478">
        <ele>128</ele>
        <time>2025-05-13T17:00:02Z</time>
      </trkpt>
      <trkpt lat="43.66602" lon="1.39482">
        <ele>127</ele>
        <time>2025-05-13T17:00:03Z</time>
      </trkpt>
      <trkpt lat="43.66603" lon="1.39485">
        <ele>128</ele>
        <time>2025-05-13T17:00:04Z</time>
      </trkpt>
      <trkpt lat="43.66603" lon="1.39489">
        <ele>128</ele>
        <time>2025-05-13T17:00:05Z</time>
      </trkpt>
      <trkpt lat="43.66603" lon="1.39492">
        <ele>128</ele>
        <time>2025-05-13T17:00:06Z</time>
      </trkpt>
      <trkpt lat="43.66603" lon="1.39496">
        <ele>128</ele>
        <time>2025-05-13T17:00:07Z</time>
      </trkpt>
      <trkpt lat="43.66603" lon="1.39503">
        <ele>128</ele>
        <time>2025-05-13T17:00:09Z</time>
      </trkpt>
      <trkpt lat="43.66603" lon="1.39507">
        <ele>128</ele>
        <time>2025-05-13T17:00:10Z</time>
      </trkpt>
      <trkpt lat="43.66602" lon="1.3951">
        <ele>128</ele>
        <time>2025-05-13T17:00:11Z</time>
      </trkpt>
      <trkpt lat="43.66602" lon="1.39514">
        <ele>128</ele>
        <time>2025-05-13T17:00:12Z</time>
      </trkpt>
      <trkpt lat="43.66602" lon="1.39518">
        <ele>128</ele>
        <time>2025-05-13T17:00:13Z</time>
      </trkpt>
      <trkpt lat="43.66602" lon="1.39522">
        <ele>128</ele>
        <time>2025-05-13T17:00:14Z</time>
      </trkpt>
      <trkpt lat="43.66602" lon="1.39525">
        <ele>128</ele>
        <time>2025-05-13T17:00:15Z</time>
      </trkpt>
      <trkpt lat="43.66602" lon="1.39529">
        <ele>128</ele>
        <time>2025-05-13T17:00:16Z</time>
      </trkpt>
      <trkpt lat="43.66603" lon="1.39533">
        <ele>127</ele>
        <time>2025-05-13T17:00:17Z</time>
      </trkpt>
      <trkpt lat="43.66603" lon="1.39533">
        <ele>127</ele>
        <time>2025-05-13T17:00:18Z</time>
      </trkpt>
      <trkpt lat="43.66604" lon="1.39539">
        <ele>128</ele>
        <time>2025-05-13T17:00:19Z</time>
      </trkpt>
      <trkpt lat="43.66604" lon="1.39539">
        <ele>128</ele>
        <time>2025-05-13T17:00:20Z</time>
      </trkpt>
      <trkpt lat="43.66605" lon="1.39543">
        <ele>128</ele>
        <time>2025-05-13T17:00:21Z</time>
      </trkpt>
      <trkpt lat="43.66607" lon="1.39547">
        <ele>129</ele>
        <time>2025-05-13T17:00:22Z</time>
      </trkpt>
      <trkpt lat="43.66608" lon="1.39548">
        <ele>129</ele>
        <time>2025-05-13T17:00:23Z</time>
      </trkpt>
      <trkpt lat="43.66609" lon="1.39551">
        <ele>129</ele>
        <time>2025-05-13T17:00:24Z</time>
      </trkpt>
      <trkpt lat="43.6661" lon="1.39553">
        <ele>129</ele>
        <time>2025-05-13T17:00:25Z</time>
      </trkpt>
      <trkpt lat="43.66611" lon="1.39556">
        <ele>129</ele>
        <time>2025-05-13T17:00:26Z</time>
      </trkpt>
      <trkpt lat="43.66611" lon="1.3956">
        <ele>129</ele>
        <time>2025-05-13T17:00:27Z</time>
      </trkpt>
      <trkpt lat="43.66612" lon="1.39562">
        <ele>129</ele>
        <time>2025-05-13T17:00:28Z</time>
      </trkpt>
      <trkpt lat="43.66612" lon="1.39565">
        <ele>129</ele>
        <time>2025-05-13T17:00:29Z</time>
      </trkpt>
      <trkpt lat="43.66612" lon="1.39568">
        <ele>128</ele>
        <time>2025-05-13T17:00:30Z</time>
      </trkpt>
      <trkpt lat="43.66612" lon="1.39571">
        <ele>128</ele>
        <time>2025-05-13T17:00:31Z</time>
      </trkpt>
      <trkpt lat="43.66612" lon="1.39574">
        <ele>128</ele>
        <time>2025-05-13T17:00:32Z</time>
      </trkpt>
      <trkpt lat="43.66613" lon="1.39577">
        <ele>128</ele>
        <time>2025-05-13T17:00:33Z</time>
      </trkpt>
      <trkpt lat="43.66613" lon="1.3958">
        <ele>128</ele>
        <time>2025-05-13T17:00:34Z</time>
      </trkpt>
      <trkpt lat="43.66614" lon="1.39586">
        <ele>129</ele>
        <time>2025-05-13T17:00:35Z</time>
      </trkpt>
      <trkpt lat="43.66614" lon="1.39588">
        <ele>129</ele>
        <time>2025-05-13T17:00:36Z</time>
      </trkpt>
      <trkpt lat="43.66615" lon="1.39595">
        <ele>128</ele>
        <time>2025-05-13T17:00:38Z</time>
      </trkpt>
      <trkpt lat="43.66616" lon="1.39598">
        <ele>128</ele>
        <time>2025-05-13T17:00:39Z</time>
      </trkpt>
      <trkpt lat="43.66617" lon="1.39601">
        <ele>128</ele>
        <time>2025-05-13T17:00:40Z</time>
      </trkpt>
      <trkpt lat="43.66618" lon="1.39604">
        <ele>128</ele>
        <time>2025-05-13T17:00:41Z</time>
      </trkpt>
      <trkpt lat="43.66619" lon="1.39607">
        <ele>128</ele>
        <time>2025-05-13T17:00:42Z</time>
      </trkpt>
      <trkpt lat="43.6662" lon="1.3961">
        <ele>128</ele>
        <time>2025-05-13T17:00:43Z</time>
      </trkpt>
      <trkpt lat="43.66622" lon="1.39615">
        <ele>128</ele>
        <time>2025-05-13T17:00:44Z</time>
      </trkpt>
      <trkpt lat="43.66622" lon="1.39617">
        <ele>128</ele>
        <time>2025-05-13T17:00:45Z</time>
      </trkpt>
      <trkpt lat="43.66623" lon="1.39622">
        <ele>128</ele>
        <time>2025-05-13T17:00:46Z</time>
      </trkpt>
      <trkpt lat="43.66623" lon="1.39623">
        <ele>128</ele>
        <time>2025-05-13T17:00:47Z</time>
      </trkpt>
      <trkpt lat="43.66623" lon="1.39626">
        <ele>128</ele>
        <time>2025-05-13T17:00:48Z</time>
      </trkpt>
      <trkpt lat="43.66623" lon="1.39628">
        <ele>128</ele>
        <time>2025-05-13T17:00:49Z</time>
      </trkpt>
      <trkpt lat="43.66623" lon="1.39631">
        <ele>128</ele>
        <time>2025-05-13T17:00:50Z</time>
      </trkpt>
      <trkpt lat="43.66624" lon="1.39633">
        <ele>128</ele>
        <time>2025-05-13T17:00:51Z</time>
      </trkpt>
      <trkpt lat="43.66624" lon="1.39636">
        <ele>128</ele>
        <time>2025-05-13T17:00:52Z</time>
      </trkpt>
      <trkpt lat="43.66624" lon="1.39639">
        <ele>128</ele>
        <time>2025-05-13T17:00:53Z</time>
      </trkpt>
      <trkpt lat="43.66625" lon="1.39642">
        <ele>128</ele>
        <time>2025-05-13T17:00:54Z</time>
      </trkpt>
      <trkpt lat="43.66625" lon="1.39645">
        <ele>128</ele>
        <time>2025-05-13T17:00:55Z</time>
      </trkpt>
      <trkpt lat="43.66626" lon="1.39648">
        <ele>128</ele>
        <time>2025-05-13T17:00:56Z</time>
      </trkpt>
      <trkpt lat="43.66627" lon="1.39654">
        <ele>128</ele>
        <time>2025-05-13T17:00:57Z</time>
      </trkpt>
      <trkpt lat="43.66627" lon="1.39656">
        <ele>128</ele>
        <time>2025-05-13T17:00:58Z</time>
      </trkpt>
      <trkpt lat="43.66629" lon="1.39659">
        <ele>128</ele>
        <time>2025-05-13T17:00:59Z</time>
      </trkpt>
      <trkpt lat="43.6663" lon="1.39664">
        <ele>128</ele>
        <time>2025-05-13T17:01:00Z</time>
      </trkpt>
      <trkpt lat="43.6663" lon="1.39666">
        <ele>128</ele>
        <time>2025-05-13T17:01:01Z</time>
      </trkpt>
      <trkpt lat="43.66631" lon="1.39671">
        <ele>128</ele>
        <time>2025-05-13T17:01:02Z</time>
      </trkpt>
      <trkpt lat="43.66631" lon="1.39673">
        <ele>128</ele>
        <time>2025-05-13T17:01:03Z</time>
      </trkpt>
      <trkpt lat="43.66632" lon="1.39676">
        <ele>128</ele>
        <time>2025-05-13T17:01:04Z</time>
      </trkpt>
      <trkpt lat="43.66633" lon="1.39679">
        <ele>128</ele>
        <time>2025-05-13T17:01:05Z</time>
      </trkpt>
      <trkpt lat="43.66633" lon="1.39682">
        <ele>128</ele>
        <time>2025-05-13T17:01:06Z</time>
      </trkpt>
      <trkpt lat="43.66634" lon="1.39688">
        <ele>128</ele>
        <time>2025-05-13T17:01:07Z</time>
      </trkpt>
      <trkpt lat="43.66634" lon="1.39689">
        <ele>128</ele>
        <time>2025-05-13T17:01:08Z</time>
      </trkpt>
      <trkpt lat="43.66634" lon="1.39693">
        <ele>128</ele>
        <time>2025-05-13T17:01:09Z</time>
      </trkpt>
      <trkpt lat="43.66635" lon="1.39696">
        <ele>128</ele>
        <time>2025-05-13T17:01:10Z</time>
      </trkpt>
      <trkpt lat="43.66635" lon="1.397">
        <ele>128</ele>
        <time>2025-05-13T17:01:11Z</time>
      </trkpt>
      <trkpt lat="43.66635" lon="1.39706">
        <ele>128</ele>
        <time>2025-05-13T17:01:12Z</time>
      </trkpt>
      <trkpt lat="43.66636" lon="1.39708">
        <ele>128</ele>
        <time>2025-05-13T17:01:13Z</time>
      </trkpt>
      <trkpt lat="43.66637" lon="1.39713">
        <ele>128</ele>
        <time>2025-05-13T17:01:14Z</time>
      </trkpt>
      <trkpt lat="43.66637" lon="1.39715">
        <ele>128</ele>
        <time>2025-05-13T17:01:15Z</time>
      </trkpt>
      <trkpt lat="43.66637" lon="1.39719">
        <ele>128</ele>
        <time>2025-05-13T17:01:16Z</time>
      </trkpt>
      <trkpt lat="43.66638" lon="1.39723">
        <ele>128</ele>
        <time>2025-05-13T17:01:17Z</time>
      </trkpt>
      <trkpt lat="43.66638" lon="1.39726">
        <ele>128</ele>
        <time>2025-05-13T17:01:18Z</time>
      </trkpt>
      <trkpt lat="43.66639" lon="1.39729">
        <ele>129</ele>
        <time>2025-05-13T17:01:19Z</time>
      </trkpt>
      <trkpt lat="43.66639" lon="1.39733">
        <ele>129</ele>
        <time>2025-05-13T17:01:20Z</time>
      </trkpt>
      <trkpt lat="43.66639" lon="1.39733">
        <ele>129</ele>
        <time>2025-05-13T17:01:21Z</time>
      </trkpt>
      <trkpt lat="43.66639" lon="1.39738">
        <ele>129</ele>
        <time>2025-05-13T17:01:22Z</time>
      </trkpt>
      <trkpt lat="43.6664" lon="1.39741">
        <ele>129</ele>
        <time>2025-05-13T17:01:23Z</time>
      </trkpt>
      <trkpt lat="43.6664" lon="1.39744">
        <ele>129</ele>
        <time>2025-05-13T17:01:24Z</time>
      </trkpt>
      <trkpt lat="43.6664" lon="1.39747">
        <ele>129</ele>
        <time>2025-05-13T17:01:25Z</time>
      </trkpt>
      <trkpt lat="43.6664" lon="1.3975">
        <ele>129</ele>
        <time>2025-05-13T17:01:26Z</time>
      </trkpt>
      <trkpt lat="43.66639" lon="1.39753">
        <ele>129</ele>
        <time>2025-05-13T17:01:27Z</time>
      </trkpt>
      <trkpt lat="43.66638" lon="1.39757">
        <ele>129</ele>
        <time>2025-05-13T17:01:28Z</time>
      </trkpt>
      <trkpt lat="43.66637" lon="1.3976">
        <ele>129</ele>
        <time>2025-05-13T17:01:29Z</time>
      </trkpt>
      <trkpt lat="43.66636" lon="1.39763">
        <ele>129</ele>
        <time>2025-05-13T17:01:30Z</time>
      </trkpt>
      <trkpt lat="43.66636" lon="1.39763">
        <ele>129</ele>
        <time>2025-05-13T17:01:31Z</time>
      </trkpt>
      <trkpt lat="43.66635" lon="1.3977">
        <ele>129</ele>
        <time>2025-05-13T17:01:32Z</time>
      </trkpt>
      <trkpt lat="43.66636" lon="1.39773">
        <ele>130</ele>
        <time>2025-05-13T17:01:33Z</time>
      </trkpt>
      <trkpt lat="43.66636" lon="1.39776">
        <ele>130</ele>
        <time>2025-05-13T17:01:34Z</time>
      </trkpt>
      <trkpt lat="43.66636" lon="1.39779">
        <ele>130</ele>
        <time>2025-05-13T17:01:35Z</time>
      </trkpt>
      <trkpt lat="43.66636" lon="1.39782">
        <ele>130</ele>
        <time>2025-05-13T17:01:36Z</time>
      </trkpt>
      <trkpt lat="43.66635" lon="1.39784">
        <ele>130</ele>
        <time>2025-05-13T17:01:37Z</time>
      </trkpt>
      <trkpt lat="43.66634" lon="1.39787">
        <ele>130</ele>
        <time>2025-05-13T17:01:38Z</time>
      </trkpt>
      <trkpt lat="43.66633" lon="1.39789">
        <ele>130</ele>
        <time>2025-05-13T17:01:39Z</time>
      </trkpt>
      <trkpt lat="43.66633" lon="1.39793">
        <ele>130</ele>
        <time>2025-05-13T17:01:40Z</time>
      </trkpt>
      <trkpt lat="43.66633" lon="1.39797">
        <ele>130</ele>
        <time>2025-05-13T17:01:41Z</time>
      </trkpt>
      <trkpt lat="43.66634" lon="1.398">
        <ele>130</ele>
        <time>2025-05-13T17:01:42Z</time>
      </trkpt>
      <trkpt lat="43.66635" lon="1.39803">
        <ele>130</ele>
        <time>2025-05-13T17:01:43Z</time>
      </trkpt>
      <trkpt lat="43.66635" lon="1.39806">
        <ele>130</ele>
        <time>2025-05-13T17:01:44Z</time>
      </trkpt>
      <trkpt lat="43.66636" lon="1.3981">
        <ele>130</ele>
        <time>2025-05-13T17:01:45Z</time>
      </trkpt>
      <trkpt lat="43.66635" lon="1.39812">
        <ele>130</ele>
        <time>2025-05-13T17:01:46Z</time>
      </trkpt>
      <trkpt lat="43.66635" lon="1.39815">
        <ele>130</ele>
        <time>2025-05-13T17:01:47Z</time>
      </trkpt>
      <trkpt lat="43.66635" lon="1.39818">
        <ele>130</ele>
        <time>2025-05-13T17:01:48Z</time>
      </trkpt>
      <trkpt lat="43.66635" lon="1.39821">
        <ele>130</ele>
        <time>2025-05-13T17:01:49Z</time>
      </trkpt>
      <trkpt lat="43.66636" lon="1.39825">
        <ele>130</ele>
        <time>2025-05-13T17:01:50Z</time>
      </trkpt>
      <trkpt lat="43.66637" lon="1.39828">
        <ele>130</ele>
        <time>2025-05-13T17:01:51Z</time>
      </trkpt>
      <trkpt lat="43.66637" lon="1.39831">
        <ele>130</ele>
        <time>2025-05-13T17:01:52Z</time>
      </trkpt>
      <trkpt lat="43.66638" lon="1.39838">
        <ele>129</ele>
        <time>2025-05-13T17:01:54Z</time>
      </trkpt>
      <trkpt lat="43.66638" lon="1.39843">
        <ele>129</ele>
        <time>2025-05-13T17:01:55Z</time>
      </trkpt>
      <trkpt lat="43.66638" lon="1.39846">
        <ele>129</ele>
        <time>2025-05-13T17:01:56Z</time>
      </trkpt>
      <trkpt lat="43.66638" lon="1.3985">
        <ele>129</ele>
        <time>2025-05-13T17:01:57Z</time>
      </trkpt>
      <trkpt lat="43.66638" lon="1.39855">
        <ele>129</ele>
        <time>2025-05-13T17:01:58Z</time>
      </trkpt>
      <trkpt lat="43.66638" lon="1.39857">
        <ele>129</ele>
        <time>2025-05-13T17:01:59Z</time>
      </trkpt>
      <trkpt lat="43.66638" lon="1.39861">
        <ele>129</ele>
        <time>2025-05-13T17:02:00Z</time>
      </trkpt>
      <trkpt lat="43.66637" lon="1.39865">
        <ele>129</ele>
        <time>2025-05-13T17:02:01Z</time>
      </trkpt>
      <trkpt lat="43.66635" lon="1.39869">
        <ele>128</ele>
        <time>2025-05-13T17:02:02Z</time>
      </trkpt>
      <trkpt lat="43.66634" lon="1.39871">
        <ele>128</ele>
        <time>2025-05-13T17:02:03Z</time>
      </trkpt>
      <trkpt lat="43.66633" lon="1.39874">
        <ele>128</ele>
        <time>2025-05-13T17:02:04Z</time>
      </trkpt>
      <trkpt lat="43.66632" lon="1.39878">
        <ele>128</ele>
        <time>2025-05-13T17:02:05Z</time>
      </trkpt>
      <trkpt lat="43.66632" lon="1.39881">
        <ele>128</ele>
        <time>2025-05-13T17:02:06Z</time>
      </trkpt>
      <trkpt lat="43.66631" lon="1.39885">
        <ele>128</ele>
        <time>2025-05-13T17:02:07Z</time>
      </trkpt>
      <trkpt lat="43.6663" lon="1.39887">
        <ele>128</ele>
        <time>2025-05-13T17:02:08Z</time>
      </trkpt>
      <trkpt lat="43.66628" lon="1.39892">
        <ele>129</ele>
        <time>2025-05-13T17:02:09Z</time>
      </trkpt>
      <trkpt lat="43.66627" lon="1.39893">
        <ele>129</ele>
        <time>2025-05-13T17:02:10Z</time>
      </trkpt>
      <trkpt lat="43.66626" lon="1.39897">
        <ele>129</ele>
        <time>2025-05-13T17:02:11Z</time>
      </trkpt>
      <trkpt lat="43.66623" lon="1.39902">
        <ele>129</ele>
        <time>2025-05-13T17:02:12Z</time>
      </trkpt>
      <trkpt lat="43.66622" lon="1.39904">
        <ele>130</ele>
        <time>2025-05-13T17:02:13Z</time>
      </trkpt>
      <trkpt lat="43.66621" lon="1.39907">
        <ele>130</ele>
        <time>2025-05-13T17:02:14Z</time>
      </trkpt>
      <trkpt lat="43.6662" lon="1.39911">
        <ele>130</ele>
        <time>2025-05-13T17:02:15Z</time>
      </trkpt>
      <trkpt lat="43.66619" lon="1.39915">
        <ele>129</ele>
        <time>2025-05-13T17:02:16Z</time>
      </trkpt>
      <trkpt lat="43.66618" lon="1.39918">
        <ele>129</ele>
        <time>2025-05-13T17:02:17Z</time>
      </trkpt>
      <trkpt lat="43.66618" lon="1.39918">
        <ele>129</ele>
        <time>2025-05-13T17:02:18Z</time>
      </trkpt>
      <trkpt lat="43.66617" lon="1.39923">
        <ele>130</ele>
        <time>2025-05-13T17:02:19Z</time>
      </trkpt>
      <trkpt lat="43.66617" lon="1.39924">
        <ele>130</ele>
        <time>2025-05-13T17:02:20Z</time>
      </trkpt>
      <trkpt lat="43.66616" lon="1.3993">
        <ele>130</ele>
        <time>2025-05-13T17:02:21Z</time>
      </trkpt>
      <trkpt lat="43.66615" lon="1.39932">
        <ele>130</ele>
        <time>2025-05-13T17:02:22Z</time>
      </trkpt>
      <trkpt lat="43.66615" lon="1.39935">
        <ele>130</ele>
        <time>2025-05-13T17:02:23Z</time>
      </trkpt>
      <trkpt lat="43.66614" lon="1.39939">
        <ele>130</ele>
        <time>2025-05-13T17:02:24Z</time>
      </trkpt>
      <trkpt lat="43.66613" lon="1.39943">
        <ele>130</ele>
        <time>2025-05-13T17:02:25Z</time>
      </trkpt>
      <trkpt lat="43.66612" lon="1.39947">
        <ele>130</ele>
        <time>2025-05-13T17:02:26Z</time>
      </trkpt>
      <trkpt lat="43.66612" lon="1.39951">
        <ele>130</ele>
        <time>2025-05-13T17:02:27Z</time>
      </trkpt>
      <trkpt lat="43.66611" lon="1.39953">
        <ele>130</ele>
        <time>2025-05-13T17:02:28Z</time>
      </trkpt>
      <trkpt lat="43.66611" lon="1.39958">
        <ele>130</ele>
        <time>2025-05-13T17:02:29Z</time>
      </trkpt>
      <trkpt lat="43.6661" lon="1.39959">
        <ele>130</ele>
        <time>2025-05-13T17:02:30Z</time>
      </trkpt>
      <trkpt lat="43.66609" lon="1.39963">
        <ele>130</ele>
        <time>2025-05-13T17:02:31Z</time>
      </trkpt>
      <trkpt lat="43.66609" lon="1.39966">
        <ele>130</ele>
        <time>2025-05-13T17:02:32Z</time>
      </trkpt>
      <trkpt lat="43.66608" lon="1.39969">
        <ele>130</ele>
        <time>2025-05-13T17:02:33Z</time>
      </trkpt>
      <trkpt lat="43.66607" lon="1.39972">
        <ele>130</ele>
        <time>2025-05-13T17:02:34Z</time>
      </trkpt>
      <trkpt lat="43.66606" lon="1.39975">
        <ele>130</ele>
        <time>2025-05-13T17:02:35Z</time>
      </trkpt>
      <trkpt lat="43.66605" lon="1.39978">
        <ele>130</ele>
        <time>2025-05-13T17:02:36Z</time>
      </trkpt>
      <trkpt lat="43.66604" lon="1.3998">
        <ele>130</ele>
        <time>2025-05-13T17:02:37Z</time>
      </trkpt>
      <trkpt lat="43.66603" lon="1.39983">
        <ele>130</ele>
        <time>2025-05-13T17:02:38Z</time>
      </trkpt>
      <trkpt lat="43.66601" lon="1.39988">
        <ele>130</ele>
        <time>2025-05-13T17:02:39Z</time>
      </trkpt>
      <trkpt lat="43.666" lon="1.3999">
        <ele>130</ele>
        <time>2025-05-13T17:02:40Z</time>
      </trkpt>
      <trkpt lat="43.666" lon="1.39993">
        <ele>130</ele>
        <time>2025-05-13T17:02:41Z</time>
      </trkpt>
      <trkpt lat="43.66599" lon="1.39998">
        <ele>130</ele>
        <time>2025-05-13T17:02:42Z</time>
      </trkpt>
      <trkpt lat="43.66598" lon="1.39999">
        <ele>130</ele>
        <time>2025-05-13T17:02:43Z</time>
      </trkpt>
      <trkpt lat="43.66597" lon="1.40003">
        <ele>130</ele>
        <time>2025-05-13T17:02:44Z</time>
      </trkpt>
      <trkpt lat="43.66596" lon="1.40007">
        <ele>130</ele>
        <time>2025-05-13T17:02:45Z</time>
      </trkpt>
      <trkpt lat="43.66595" lon="1.40011">
        <ele>130</ele>
        <time>2025-05-13T17:02:46Z</time>
      </trkpt>
      <trkpt lat="43.66593" lon="1.40015">
        <ele>130</ele>
        <time>2025-05-13T17:02:47Z</time>
      </trkpt>
      <trkpt lat="43.66592" lon="1.40019">
        <ele>130</ele>
        <time>2025-05-13T17:02:48Z</time>
      </trkpt>
      <trkpt lat="43.66591" lon="1.40022">
        <ele>130</ele>
        <time>2025-05-13T17:02:49Z</time>
      </trkpt>
      <trkpt lat="43.66589" lon="1.40028">
        <ele>130</ele>
        <time>2025-05-13T17:02:50Z</time>
      </trkpt>
      <trkpt lat="43.66588" lon="1.40029">
        <ele>130</ele>
        <time>2025-05-13T17:02:51Z</time>
      </trkpt>
      <trkpt lat="43.66585" lon="1.40034">
        <ele>130</ele>
        <time>2025-05-13T17:02:52Z</time>
      </trkpt>
      <trkpt lat="43.66584" lon="1.40036">
        <ele>130</ele>
        <time>2025-05-13T17:02:53Z</time>
      </trkpt>
      <trkpt lat="43.66582" lon="1.40039">
        <ele>130</ele>
        <time>2025-05-13T17:02:54Z</time>
      </trkpt>
      <trkpt lat="43.66582" lon="1.4004">
        <ele>130</ele>
        <time>2025-05-13T17:02:55Z</time>
      </trkpt>
      <trkpt lat="43.66582" lon="1.4004">
        <ele>130</ele>
        <time>2025-05-13T17:02:56Z</time>
      </trkpt>
      <trkpt lat="43.66581" lon="1.40044">
        <ele>130</ele>
        <time>2025-05-13T17:02:57Z</time>
      </trkpt>
      <trkpt lat="43.6658" lon="1.40047">
        <ele>131</ele>
        <time>2025-05-13T17:02:58Z</time>
      </trkpt>
      <trkpt lat="43.66579" lon="1.40049">
        <ele>131</ele>
        <time>2025-05-13T17:02:59Z</time>
      </trkpt>
      <trkpt lat="43.66578" lon="1.40051">
        <ele>131</ele>
        <time>2025-05-13T17:03:00Z</time>
      </trkpt>
      <trkpt lat="43.66576" lon="1.40056">
        <ele>131</ele>
        <time>2025-05-13T17:03:01Z</time>
      </trkpt>
      <trkpt lat="43.66576" lon="1.40058">
        <ele>131</ele>
        <time>2025-05-13T17:03:02Z</time>
      </trkpt>
      <trkpt lat="43.66574" lon="1.40061">
        <ele>131</ele>
        <time>2025-05-13T17:03:03Z</time>
      </trkpt>
      <trkpt lat="43.66572" lon="1.40064">
        <ele>131</ele>
        <time>2025-05-13T17:03:04Z</time>
      </trkpt>
      <trkpt lat="43.66569" lon="1.40069">
        <ele>131</ele>
        <time>2025-05-13T17:03:05Z</time>
      </trkpt>
      <trkpt lat="43.66568" lon="1.4007">
        <ele>131</ele>
        <time>2025-05-13T17:03:06Z</time>
      </trkpt>
      <trkpt lat="43.66567" lon="1.40073">
        <ele>131</ele>
        <time>2025-05-13T17:03:07Z</time>
      </trkpt>
      <trkpt lat="43.66564" lon="1.40077">
        <ele>131</ele>
        <time>2025-05-13T17:03:08Z</time>
      </trkpt>
      <trkpt lat="43.66562" lon="1.40078">
        <ele>131</ele>
        <time>2025-05-13T17:03:09Z</time>
      </trkpt>
      <trkpt lat="43.66561" lon="1.4008">
        <ele>130</ele>
        <time>2025-05-13T17:03:10Z</time>
      </trkpt>
      <trkpt lat="43.66558" lon="1.40083">
        <ele>130</ele>
        <time>2025-05-13T17:03:11Z</time>
      </trkpt>
      <trkpt lat="43.66557" lon="1.40084">
        <ele>131</ele>
        <time>2025-05-13T17:03:12Z</time>
      </trkpt>
      <trkpt lat="43.66555" lon="1.40086">
        <ele>131</ele>
        <time>2025-05-13T17:03:13Z</time>
      </trkpt>
      <trkpt lat="43.66553" lon="1.40089">
        <ele>131</ele>
        <time>2025-05-13T17:03:14Z</time>
      </trkpt>
      <trkpt lat="43.6655" lon="1.40093">
        <ele>131</ele>
        <time>2025-05-13T17:03:15Z</time>
      </trkpt>
      <trkpt lat="43.66548" lon="1.40096">
        <ele>130</ele>
        <time>2025-05-13T17:03:16Z</time>
      </trkpt>
      <trkpt lat="43.66546" lon="1.401">
        <ele>130</ele>
        <time>2025-05-13T17:03:17Z</time>
      </trkpt>
      <trkpt lat="43.66544" lon="1.40105">
        <ele>130</ele>
        <time>2025-05-13T17:03:18Z</time>
      </trkpt>
      <trkpt lat="43.66543" lon="1.40107">
        <ele>131</ele>
        <time>2025-05-13T17:03:19Z</time>
      </trkpt>
      <trkpt lat="43.66542" lon="1.40112">
        <ele>131</ele>
        <time>2025-05-13T17:03:20Z</time>
      </trkpt>
      <trkpt lat="43.66542" lon="1.40113">
        <ele>131</ele>
        <time>2025-05-13T17:03:21Z</time>
      </trkpt>
      <trkpt lat="43.66541" lon="1.40116">
        <ele>131</ele>
        <time>2025-05-13T17:03:22Z</time>
      </trkpt>
      <trkpt lat="43.66541" lon="1.40119">
        <ele>130</ele>
        <time>2025-05-13T17:03:23Z</time>
      </trkpt>
      <trkpt lat="43.6654" lon="1.40123">
        <ele>130</ele>
        <time>2025-05-13T17:03:24Z</time>
      </trkpt>
      <trkpt lat="43.6654" lon="1.40124">
        <ele>130</ele>
        <time>2025-05-13T17:03:25Z</time>
      </trkpt>
      <trkpt lat="43.6654" lon="1.40124">
        <ele>130</ele>
        <time>2025-05-13T17:03:26Z</time>
      </trkpt>
      <trkpt lat="43.66537" lon="1.40127">
        <ele>130</ele>
        <time>2025-05-13T17:03:27Z</time>
      </trkpt>
      <trkpt lat="43.66536" lon="1.40129">
        <ele>130</ele>
        <time>2025-05-13T17:03:28Z</time>
      </trkpt>
      <trkpt lat="43.66534" lon="1.40131">
        <ele>130</ele>
        <time>2025-05-13T17:03:29Z</time>
      </trkpt>
      <trkpt lat="43.66533" lon="1.40133">
        <ele>130</ele>
        <time>2025-05-13T17:03:30Z</time>
      </trkpt>
      <trkpt lat="43.66531" lon="1.40135">
        <ele>130</ele>
        <time>2025-05-13T17:03:31Z</time>
      </trkpt>
      <trkpt lat="43.6653" lon="1.40137">
        <ele>130</ele>
        <time>2025-05-13T17:03:32Z</time>
      </trkpt>
      <trkpt lat="43.66528" lon="1.40139">
        <ele>130</ele>
        <time>2025-05-13T17:03:33Z</time>
      </trkpt>
      <trkpt lat="43.66527" lon="1.40142">
        <ele>130</ele>
        <time>2025-05-13T17:03:34Z</time>
      </trkpt>
      <trkpt lat="43.66526" lon="1.40144">
        <ele>130</ele>
        <time>2025-05-13T17:03:35Z</time>
      </trkpt>
      <trkpt lat="43.66524" lon="1.40147">
        <ele>130</ele>
        <time>2025-05-13T17:03:36Z</time>
      </trkpt>
      <trkpt lat="43.66523" lon="1.40151">
        <ele>130</ele>
        <time>2025-05-13T17:03:37Z</time>
      </trkpt>
      <trkpt lat="43.66523" lon="1.40154">
        <ele>130</ele>
        <time>2025-05-13T17:03:38Z</time>
      </trkpt>
      <trkpt lat="43.66522" lon="1.40157">
        <ele>130</ele>
        <time>2025-05-13T17:03:39Z</time>
      </trkpt>
      <trkpt lat="43.6652" lon="1.4016">
        <ele>130</ele>
        <time>2025-05-13T17:03:40Z</time>
      </trkpt>
      <trkpt lat="43.66519" lon="1.40163">
        <ele>130</ele>
        <time>2025-05-13T17:03:41Z</time>
      </trkpt>
      <trkpt lat="43.66517" lon="1.40165">
        <ele>130</ele>
        <time>2025-05-13T17:03:42Z</time>
      </trkpt>
      <trkpt lat="43.66514" lon="1.40167">
        <ele>130</ele>
        <time>2025-05-13T17:03:43Z</time>
      </trkpt>
      <trkpt lat="43.66511" lon="1.40169">
        <ele>131</ele>
        <time>2025-05-13T17:03:44Z</time>
      </trkpt>
      <trkpt lat="43.66511" lon="1.40169">
        <ele>131</ele>
        <time>2025-05-13T17:03:45Z</time>
      </trkpt>
      <trkpt lat="43.66508" lon="1.40173">
        <ele>131</ele>
        <time>2025-05-13T17:03:46Z</time>
      </trkpt>
      <trkpt lat="43.66505" lon="1.40177">
        <ele>131</ele>
        <time>2025-05-13T17:03:47Z</time>
      </trkpt>
      <trkpt lat="43.66502" lon="1.40181">
        <ele>131</ele>
        <time>2025-05-13T17:03:48Z</time>
      </trkpt>
      <trkpt lat="43.665" lon="1.40185">
        <ele>131</ele>
        <time>2025-05-13T17:03:49Z</time>
      </trkpt>
      <trkpt lat="43.66498" lon="1.40187">
        <ele>131</ele>
        <time>2025-05-13T17:03:50Z</time>
      </trkpt>
      <trkpt lat="43.66496" lon="1.40188">
        <ele>131</ele>
        <time>2025-05-13T17:03:51Z</time>
      </trkpt>
      <trkpt lat="43.66494" lon="1.4019">
        <ele>131</ele>
        <time>2025-05-13T17:03:52Z</time>
      </trkpt>
      <trkpt lat="43.66493" lon="1.40192">
        <ele>131</ele>
        <time>2025-05-13T17:03:53Z</time>
      </trkpt>
      <trkpt lat="43.6649" lon="1.40193">
        <ele>131</ele>
        <time>2025-05-13T17:03:54Z</time>
      </trkpt>
      <trkpt lat="43.66487" lon="1.40194">
        <ele>131</ele>
        <time>2025-05-13T17:03:55Z</time>
      </trkpt>
      <trkpt lat="43.66484" lon="1.40196">
        <ele>131</ele>
        <time>2025-05-13T17:03:56Z</time>
      </trkpt>
      <trkpt lat="43.66481" lon="1.40195">
        <ele>131</ele>
        <time>2025-05-13T17:03:57Z</time>
      </trkpt>
      <trkpt lat="43.66481" lon="1.40195">
        <ele>131</ele>
        <time>2025-05-13T17:03:58Z</time>
      </trkpt>
      <trkpt lat="43.6648" lon="1.40192">
        <ele>130</ele>
        <time>2025-05-13T17:03:59Z</time>
      </trkpt>
      <trkpt lat="43.66479" lon="1.40189">
        <ele>130</ele>
        <time>2025-05-13T17:04:00Z</time>
      </trkpt>
      <trkpt lat="43.66478" lon="1.40186">
        <ele>130</ele>
        <time>2025-05-13T17:04:01Z</time>
      </trkpt>
      <trkpt lat="43.66478" lon="1.40186">
        <ele>130</ele>
        <time>2025-05-13T17:04:02Z</time>
      </trkpt>
      <trkpt lat="43.66479" lon="1.40181">
        <ele>130</ele>
        <time>2025-05-13T17:04:03Z</time>
      </trkpt>
      <trkpt lat="43.66479" lon="1.40178">
        <ele>130</ele>
        <time>2025-05-13T17:04:04Z</time>
      </trkpt>
      <trkpt lat="43.6648" lon="1.40175">
        <ele>130</ele>
        <time>2025-05-13T17:04:05Z</time>
      </trkpt>
      <trkpt lat="43.66481" lon="1.40172">
        <ele>130</ele>
        <time>2025-05-13T17:04:06Z</time>
      </trkpt>
      <trkpt lat="43.66483" lon="1.40169">
        <ele>130</ele>
        <time>2025-05-13T17:04:07Z</time>
      </trkpt>
      <trkpt lat="43.66484" lon="1.40166">
        <ele>130</ele>
        <time>2025-05-13T17:04:08Z</time>
      </trkpt>
      <trkpt lat="43.66486" lon="1.40161">
        <ele>130</ele>
        <time>2025-05-13T17:04:09Z</time>
      </trkpt>
      <trkpt lat="43.66487" lon="1.4016">
        <ele>129</ele>
        <time>2025-05-13T17:04:10Z</time>
      </trkpt>
      <trkpt lat="43.66489" lon="1.40157">
        <ele>129</ele>
        <time>2025-05-13T17:04:11Z</time>
      </trkpt>
      <trkpt lat="43.66491" lon="1.40154">
        <ele>129</ele>
        <time>2025-05-13T17:04:12Z</time>
      </trkpt>
      <trkpt lat="43.66493" lon="1.40151">
        <ele>129</ele>
        <time>2025-05-13T17:04:13Z</time>
      </trkpt>
      <trkpt lat="43.66494" lon="1.40149">
        <ele>130</ele>
        <time>2025-05-13T17:04:14Z</time>
      </trkpt>
      <trkpt lat="43.66495" lon="1.40146">
        <ele>130</ele>
        <time>2025-05-13T17:04:15Z</time>
      </trkpt>
      <trkpt lat="43.66496" lon="1.40144">
        <ele>130</ele>
        <time>2025-05-13T17:04:16Z</time>
      </trkpt>
      <trkpt lat="43.66497" lon="1.40141">
        <ele>130</ele>
        <time>2025-05-13T17:04:17Z</time>
      </trkpt>
      <trkpt lat="43.66499" lon="1.40138">
        <ele>130</ele>
        <time>2025-05-13T17:04:18Z</time>
      </trkpt>
      <trkpt lat="43.66499" lon="1.40136">
        <ele>129</ele>
        <time>2025-05-13T17:04:19Z</time>
      </trkpt>
      <trkpt lat="43.665" lon="1.40134">
        <ele>129</ele>
        <time>2025-05-13T17:04:20Z</time>
      </trkpt>
      <trkpt lat="43.66501" lon="1.40132">
        <ele>129</ele>
        <time>2025-05-13T17:04:21Z</time>
      </trkpt>
      <trkpt lat="43.66501" lon="1.4013">
        <ele>129</ele>
        <time>2025-05-13T17:04:22Z</time>
      </trkpt>
      <trkpt lat="43.66504" lon="1.4012">
        <ele>129</ele>
        <time>2025-05-13T17:04:23Z</time>
      </trkpt>
      <trkpt lat="43.66505" lon="1.40119">
        <ele>129</ele>
        <time>2025-05-13T17:04:24Z</time>
      </trkpt>
      <trkpt lat="43.66508" lon="1.40114">
        <ele>129</ele>
        <time>2025-05-13T17:04:26Z</time>
      </trkpt>
      <trkpt lat="43.66509" lon="1.40111">
        <ele>129</ele>
        <time>2025-05-13T17:04:27Z</time>
      </trkpt>
      <trkpt lat="43.66511" lon="1.40108">
        <ele>130</ele>
        <time>2025-05-13T17:04:28Z</time>
      </trkpt>
      <trkpt lat="43.66514" lon="1.40104">
        <ele>130</ele>
        <time>2025-05-13T17:04:29Z</time>
      </trkpt>
      <trkpt lat="43.66515" lon="1.40103">
        <ele>130</ele>
        <time>2025-05-13T17:04:30Z</time>
      </trkpt>
      <trkpt lat="43.66517" lon="1.401">
        <ele>130</ele>
        <time>2025-05-13T17:04:31Z</time>
      </trkpt>
      <trkpt lat="43.66519" lon="1.40097">
        <ele>130</ele>
        <time>2025-05-13T17:04:32Z</time>
      </trkpt>
      <trkpt lat="43.66522" lon="1.40094">
        <ele>130</ele>
        <time>2025-05-13T17:04:33Z</time>
      </trkpt>
      <trkpt lat="43.66525" lon="1.40092">
        <ele>130</ele>
        <time>2025-05-13T17:04:34Z</time>
      </trkpt>
      <trkpt lat="43.66527" lon="1.4009">
        <ele>130</ele>
        <time>2025-05-13T17:04:35Z</time>
      </trkpt>
      <trkpt lat="43.66529" lon="1.40087">
        <ele>130</ele>
        <time>2025-05-13T17:04:36Z</time>
      </trkpt>
      <trkpt lat="43.66529" lon="1.40084">
        <ele>130</ele>
        <time>2025-05-13T17:04:37Z</time>
      </trkpt>
      <trkpt lat="43.6653" lon="1.40082">
        <ele>130</ele>
        <time>2025-05-13T17:04:38Z</time>
      </trkpt>
      <trkpt lat="43.66531" lon="1.4008">
        <ele>130</ele>
        <time>2025-05-13T17:04:39Z</time>
      </trkpt>
      <trkpt lat="43.66532" lon="1.40078">
        <ele>130</ele>
        <time>2025-05-13T17:04:40Z</time>
      </trkpt>
      <trkpt lat="43.66533" lon="1.40076">
        <ele>129</ele>
        <time>2025-05-13T17:04:41Z</time>
      </trkpt>
      <trkpt lat="43.66534" lon="1.40074">
        <ele>129</ele>
        <time>2025-05-13T17:04:42Z</time>
      </trkpt>
      <trkpt lat="43.66537" lon="1.40068">
        <ele>129</ele>
        <time>2025-05-13T17:04:43Z</time>
      </trkpt>
      <trkpt lat="43.66537" lon="1.40068">
        <ele>129</ele>
        <time>2025-05-13T17:04:44Z</time>
      </trkpt>
      <trkpt lat="43.66539" lon="1.40067">
        <ele>130</ele>
        <time>2025-05-13T17:04:45Z</time>
      </trkpt>
      <trkpt lat="43.6654" lon="1.40065">
        <ele>130</ele>
        <time>2025-05-13T17:04:46Z</time>
      </trkpt>
      <trkpt lat="43.66541" lon="1.40064">
        <ele>130</ele>
        <time>2025-05-13T17:04:47Z</time>
      </trkpt>
      <trkpt lat="43.66545" lon="1.4006">
        <ele>130</ele>
        <time>2025-05-13T17:04:48Z</time>
      </trkpt>
      <trkpt lat="43.66544" lon="1.40056">
        <ele>130</ele>
        <time>2025-05-13T17:04:49Z</time>
      </trkpt>
      <trkpt lat="43.66544" lon="1.40056">
        <ele>130</ele>
        <time>2025-05-13T17:04:50Z</time>
      </trkpt>
      <trkpt lat="43.66543" lon="1.40053">
        <ele>130</ele>
        <time>2025-05-13T17:04:51Z</time>
      </trkpt>
      <trkpt lat="43.66541" lon="1.4005">
        <ele>130</ele>
        <time>2025-05-13T17:04:52Z</time>
      </trkpt>
      <trkpt lat="43.6654" lon="1.40047">
        <ele>130</ele>
        <time>2025-05-13T17:04:53Z</time>
      </trkpt>
      <trkpt lat="43.66539" lon="1.40044">
        <ele>130</ele>
        <time>2025-05-13T17:04:54Z</time>
      </trkpt>
      <trkpt lat="43.66537" lon="1.4004">
        <ele>130</ele>
        <time>2025-05-13T17:04:55Z</time>
      </trkpt>
      <trkpt lat="43.66535" lon="1.40037">
        <ele>130</ele>
        <time>2025-05-13T17:04:56Z</time>
      </trkpt>
      <trkpt lat="43.66533" lon="1.40033">
        <ele>130</ele>
        <time>2025-05-13T17:04:57Z</time>
      </trkpt>
      <trkpt lat="43.6653" lon="1.4003">
        <ele>130</ele>
        <time>2025-05-13T17:04:58Z</time>
      </trkpt>
      <trkpt lat="43.66528" lon="1.40026">
        <ele>130</ele>
        <time>2025-05-13T17:04:59Z</time>
      </trkpt>
      <trkpt lat="43.66528" lon="1.40022">
        <ele>130</ele>
        <time>2025-05-13T17:05:00Z</time>
      </trkpt>
      <trkpt lat="43.66528" lon="1.40018">
        <ele>130</ele>
        <time>2025-05-13T17:05:01Z</time>
      </trkpt>
      <trkpt lat="43.66529" lon="1.40014">
        <ele>130</ele>
        <time>2025-05-13T17:05:02Z</time>
      </trkpt>
      <trkpt lat="43.66529" lon="1.40014">
        <ele>130</ele>
        <time>2025-05-13T17:05:04Z</time>
      </trkpt>
      <trkpt lat="43.66527" lon="1.40012">
        <ele>130</ele>
        <time>2025-05-13T17:05:05Z</time>
      </trkpt>
      <trkpt lat="43.66526" lon="1.40012">
        <ele>130</ele>
        <time>2025-05-13T17:05:06Z</time>
      </trkpt>
      <trkpt lat="43.66525" lon="1.40013">
        <ele>130</ele>
        <time>2025-05-13T17:05:07Z</time>
      </trkpt>
      <trkpt lat="43.66523" lon="1.40013">
        <ele>130</ele>
        <time>2025-05-13T17:05:08Z</time>
      </trkpt>
      <trkpt lat="43.66521" lon="1.4001">
        <ele>129</ele>
        <time>2025-05-13T17:05:09Z</time>
      </trkpt>
      <trkpt lat="43.66518" lon="1.40008">
        <ele>129</ele>
        <time>2025-05-13T17:05:10Z</time>
      </trkpt>
      <trkpt lat="43.66518" lon="1.40008">
        <ele>129</ele>
        <time>2025-05-13T17:05:11Z</time>
      </trkpt>
      <trkpt lat="43.66517" lon="1.40008">
        <ele>130</ele>
        <time>2025-05-13T17:05:12Z</time>
      </trkpt>
      <trkpt lat="43.66514" lon="1.40006">
        <ele>130</ele>
        <time>2025-05-13T17:05:13Z</time>
      </trkpt>
      <trkpt lat="43.66514" lon="1.40006">
        <ele>130</ele>
        <time>2025-05-13T17:05:14Z</time>
      </trkpt>
      <trkpt lat="43.66513" lon="1.40002">
        <ele>130</ele>
        <time>2025-05-13T17:05:15Z</time>
      </trkpt>
      <trkpt lat="43.66513" lon="1.40002">
        <ele>130</ele>
        <time>2025-05-13T17:05:16Z</time>
      </trkpt>
      <trkpt lat="43.6651" lon="1.40001">
        <ele>130</ele>
        <time>2025-05-13T17:05:17Z</time>
      </trkpt>
      <trkpt lat="43.66507" lon="1.40001">
        <ele>130</ele>
        <time>2025-05-13T17:05:18Z</time>
      </trkpt>
      <trkpt lat="43.66504" lon="1.40001">
        <ele>130</ele>
        <time>2025-05-13T17:05:19Z</time>
      </trkpt>
      <trkpt lat="43.66502" lon="1.40002">
        <ele>129</ele>
        <time>2025-05-13T17:05:20Z</time>
      </trkpt>
      <trkpt lat="43.66499" lon="1.40002">
        <ele>130</ele>
        <time>2025-05-13T17:05:21Z</time>
      </trkpt>
      <trkpt lat="43.66499" lon="1.40002">
        <ele>130</ele>
        <time>2025-05-13T17:05:22Z</time>
      </trkpt>
      <trkpt lat="43.66494" lon="1.39999">
        <ele>130</ele>
        <time>2025-05-13T17:05:23Z</time>
      </trkpt>
      <trkpt lat="43.66491" lon="1.39998">
        <ele>130</ele>
        <time>2025-05-13T17:05:24Z</time>
      </trkpt>
      <trkpt lat="43.6649" lon="1.39997">
        <ele>130</ele>
        <time>2025-05-13T17:05:25Z</time>
      </trkpt>
      <trkpt lat="43.66488" lon="1.39995">
        <ele>130</ele>
        <time>2025-05-13T17:05:26Z</time>
      </trkpt>
      <trkpt lat="43.66486" lon="1.39993">
        <ele>130</ele>
        <time>2025-05-13T17:05:27Z</time>
      </trkpt>
      <trkpt lat="43.66483" lon="1.3999">
        <ele>130</ele>
        <time>2025-05-13T17:05:28Z</time>
      </trkpt>
      <trkpt lat="43.66482" lon="1.39989">
        <ele>130</ele>
        <time>2025-05-13T17:05:29Z</time>
      </trkpt>
      <trkpt lat="43.6648" lon="1.39987">
        <ele>130</ele>
        <time>2025-05-13T17:05:30Z</time>
      </trkpt>
      <trkpt lat="43.66478" lon="1.39985">
        <ele>130</ele>
        <time>2025-05-13T17:05:31Z</time>
      </trkpt>
      <trkpt lat="43.66477" lon="1.39983">
        <ele>130</ele>
        <time>2025-05-13T17:05:32Z</time>
      </trkpt>
      <trkpt lat="43.66475" lon="1.39981">
        <ele>130</ele>
        <time>2025-05-13T17:05:33Z</time>
      </trkpt>
      <trkpt lat="43.66473" lon="1.39979">
        <ele>130</ele>
        <time>2025-05-13T17:05:34Z</time>
      </trkpt>
      <trkpt lat="43.66471" lon="1.39974">
        <ele>129</ele>
        <time>2025-05-13T17:05:35Z</time>
      </trkpt>
      <trkpt lat="43.66469" lon="1.3997">
        <ele>129</ele>
        <time>2025-05-13T17:05:36Z</time>
      </trkpt>
      <trkpt lat="43.66467" lon="1.39966">
        <ele>129</ele>
        <time>2025-05-13T17:05:37Z</time>
      </trkpt>
      <trkpt lat="43.66466" lon="1.39962">
        <ele>129</ele>
        <time>2025-05-13T17:05:38Z</time>
      </trkpt>
      <trkpt lat="43.66464" lon="1.39958">
        <ele>129</ele>
        <time>2025-05-13T17:05:39Z</time>
      </trkpt>
      <trkpt lat="43.66463" lon="1.39954">
        <ele>129</ele>
        <time>2025-05-13T17:05:40Z</time>
      </trkpt>
      <trkpt lat="43.6646" lon="1.39949">
        <ele>129</ele>
        <time>2025-05-13T17:05:42Z</time>
      </trkpt>
      <trkpt lat="43.66457" lon="1.39944">
        <ele>129</ele>
        <time>2025-05-13T17:05:43Z</time>
      </trkpt>
      <trkpt lat="43.66455" lon="1.39939">
        <ele>129</ele>
        <time>2025-05-13T17:05:44Z</time>
      </trkpt>
      <trkpt lat="43.66453" lon="1.39936">
        <ele>129</ele>
        <time>2025-05-13T17:05:45Z</time>
      </trkpt>
      <trkpt lat="43.66452" lon="1.39933">
        <ele>129</ele>
        <time>2025-05-13T17:05:46Z</time>
      </trkpt>
      <trkpt lat="43.66451" lon="1.3993">
        <ele>129</ele>
        <time>2025-05-13T17:05:47Z</time>
      </trkpt>
      <trkpt lat="43.6645" lon="1.39927">
        <ele>129</ele>
        <time>2025-05-13T17:05:48Z</time>
      </trkpt>
      <trkpt lat="43.6645" lon="1.39927">
        <ele>129</ele>
        <time>2025-05-13T17:05:49Z</time>
      </trkpt>
      <trkpt lat="43.66447" lon="1.3992">
        <ele>129</ele>
        <time>2025-05-13T17:05:50Z</time>
      </trkpt>
      <trkpt lat="43.66447" lon="1.3992">
        <ele>129</ele>
        <time>2025-05-13T17:05:51Z</time>
      </trkpt>
      <trkpt lat="43.66444" lon="1.39913">
        <ele>129</ele>
        <time>2025-05-13T17:05:52Z</time>
      </trkpt>
      <trkpt lat="43.66441" lon="1.39907">
        <ele>129</ele>
        <time>2025-05-13T17:05:53Z</time>
      </trkpt>
      <trkpt lat="43.6644" lon="1.39905">
        <ele>129</ele>
        <time>2025-05-13T17:05:54Z</time>
      </trkpt>
      <trkpt lat="43.66439" lon="1.39903">
        <ele>129</ele>
        <time>2025-05-13T17:05:55Z</time>
      </trkpt>
      <trkpt lat="43.66437" lon="1.39898">
        <ele>129</ele>
        <time>2025-05-13T17:05:56Z</time>
      </trkpt>
      <trkpt lat="43.66436" lon="1.39896">
        <ele>129</ele>
        <time>2025-05-13T17:05:57Z</time>
      </trkpt>
      <trkpt lat="43.66434" lon="1.39893">
        <ele>129</ele>
        <time>2025-05-13T17:05:58Z</time>
      </trkpt>
      <trkpt lat="43.66434" lon="1.39893">
        <ele>129</ele>
        <time>2025-05-13T17:05:59Z</time>
      </trkpt>
      <trkpt lat="43.66426" lon="1.39881">
        <ele>129</ele>
        <time>2025-05-13T17:06:01Z</time>
      </trkpt>
      <trkpt lat="43.66425" lon="1.39879">
        <ele>129</ele>
        <time>2025-05-13T17:06:02Z</time>
      </trkpt>
      <trkpt lat="43.66424" lon="1.39877">
        <ele>128</ele>
        <time>2025-05-13T17:06:03Z</time>
      </trkpt>
      <trkpt lat="43.66422" lon="1.39875">
        <ele>128</ele>
        <time>2025-05-13T17:06:04Z</time>
      </trkpt>
      <trkpt lat="43.66418" lon="1.39866">
        <ele>128</ele>
        <time>2025-05-13T17:06:05Z</time>
      </trkpt>
      <trkpt lat="43.66417" lon="1.39864">
        <ele>128</ele>
        <time>2025-05-13T17:06:06Z</time>
      </trkpt>
      <trkpt lat="43.66416" lon="1.39861">
        <ele>128</ele>
        <time>2025-05-13T17:06:07Z</time>
      </trkpt>
      <trkpt lat="43.66415" lon="1.39858">
        <ele>128</ele>
        <time>2025-05-13T17:06:08Z</time>
      </trkpt>
      <trkpt lat="43.66414" lon="1.39856">
        <ele>128</ele>
        <time>2025-05-13T17:06:09Z</time>
      </trkpt>
      <trkpt lat="43.66413" lon="1.39853">
        <ele>129</ele>
        <time>2025-05-13T17:06:10Z</time>
      </trkpt>
      <trkpt lat="43.66413" lon="1.39851">
        <ele>129</ele>
        <time>2025-05-13T17:06:11Z</time>
      </trkpt>
      <trkpt lat="43.66412" lon="1.39848">
        <ele>129</ele>
        <time>2025-05-13T17:06:12Z</time>
      </trkpt>
      <trkpt lat="43.6641" lon="1.39837">
        <ele>129</ele>
        <time>2025-05-13T17:06:13Z</time>
      </trkpt>
      <trkpt lat="43.66409" lon="1.39834">
        <ele>130</ele>
        <time>2025-05-13T17:06:14Z</time>
      </trkpt>
      <trkpt lat="43.66408" lon="1.3983">
        <ele>130</ele>
        <time>2025-05-13T17:06:15Z</time>
      </trkpt>
      <trkpt lat="43.66408" lon="1.39827">
        <ele>130</ele>
        <time>2025-05-13T17:06:16Z</time>
      </trkpt>
      <trkpt lat="43.66406" lon="1.39823">
        <ele>130</ele>
        <time>2025-05-13T17:06:17Z</time>
      </trkpt>
      <trkpt lat="43.66405" lon="1.39819">
        <ele>130</ele>
        <time>2025-05-13T17:06:18Z</time>
      </trkpt>
      <trkpt lat="43.66404" lon="1.39814">
        <ele>130</ele>
        <time>2025-05-13T17:06:19Z</time>
      </trkpt>
      <trkpt lat="43.66403" lon="1.39812">
        <ele>130</ele>
        <time>2025-05-13T17:06:20Z</time>
      </trkpt>
      <trkpt lat="43.66402" lon="1.39809">
        <ele>130</ele>
        <time>2025-05-13T17:06:21Z</time>
      </trkpt>
      <trkpt lat="43.664" lon="1.39807">
        <ele>129</ele>
        <time>2025-05-13T17:06:22Z</time>
      </trkpt>
      <trkpt lat="43.66399" lon="1.39804">
        <ele>129</ele>
        <time>2025-05-13T17:06:23Z</time>
      </trkpt>
      <trkpt lat="43.66398" lon="1.39802">
        <ele>129</ele>
        <time>2025-05-13T17:06:24Z</time>
      </trkpt>
      <trkpt lat="43.66395" lon="1.39798">
        <ele>129</ele>
        <time>2025-05-13T17:06:25Z</time>
      </trkpt>
      <trkpt lat="43.66393" lon="1.39795">
        <ele>129</ele>
        <time>2025-05-13T17:06:26Z</time>
      </trkpt>
      <trkpt lat="43.66391" lon="1.39792">
        <ele>129</ele>
        <time>2025-05-13T17:06:27Z</time>
      </trkpt>
      <trkpt lat="43.66389" lon="1.39789">
        <ele>129</ele>
        <time>2025-05-13T17:06:28Z</time>
      </trkpt>
      <trkpt lat="43.66387" lon="1.39786">
        <ele>129</ele>
        <time>2025-05-13T17:06:29Z</time>
      </trkpt>
      <trkpt lat="43.66385" lon="1.39783">
        <ele>130</ele>
        <time>2025-05-13T17:06:30Z</time>
      </trkpt>
      <trkpt lat="43.66383" lon="1.39782">
        <ele>130</ele>
        <time>2025-05-13T17:06:31Z</time>
      </trkpt>
      <trkpt lat="43.66381" lon="1.39781">
        <ele>130</ele>
        <time>2025-05-13T17:06:32Z</time>
      </trkpt>
      <trkpt lat="43.6638" lon="1.3978">
        <ele>130</ele>
        <time>2025-05-13T17:06:33Z</time>
      </trkpt>
      <trkpt lat="43.66378" lon="1.39779">
        <ele>130</ele>
        <time>2025-05-13T17:06:34Z</time>
      </trkpt>
      <trkpt lat="43.66376" lon="1.39779">
        <ele>130</ele>
        <time>2025-05-13T17:06:35Z</time>
      </trkpt>
      <trkpt lat="43.66376" lon="1.39779">
        <ele>130</ele>
        <time>2025-05-13T17:06:36Z</time>
      </trkpt>
      <trkpt lat="43.66376" lon="1.39779">
        <ele>130</ele>
        <time>2025-05-13T17:06:37Z</time>
      </trkpt>
      <trkpt lat="43.6637" lon="1.39784">
        <ele>130</ele>
        <time>2025-05-13T17:06:39Z</time>
      </trkpt>
      <trkpt lat="43.66368" lon="1.39785">
        <ele>130</ele>
        <time>2025-05-13T17:06:40Z</time>
      </trkpt>
      <trkpt lat="43.66368" lon="1.39785">
        <ele>130</ele>
        <time>2025-05-13T17:06:41Z</time>
      </trkpt>
      <trkpt lat="43.66363" lon="1.39789">
        <ele>130</ele>
        <time>2025-05-13T17:06:42Z</time>
      </trkpt>
      <trkpt lat="43.66363" lon="1.39789">
        <ele>130</ele>
        <time>2025-05-13T17:06:43Z</time>
      </trkpt>
      <trkpt lat="43.66361" lon="1.39789">
        <ele>130</ele>
        <time>2025-05-13T17:06:44Z</time>
      </trkpt>
      <trkpt lat="43.66358" lon="1.39789">
        <ele>130</ele>
        <time>2025-05-13T17:06:45Z</time>
      </trkpt>
      <trkpt lat="43.66356" lon="1.39789">
        <ele>129</ele>
        <time>2025-05-13T17:06:46Z</time>
      </trkpt>
      <trkpt lat="43.66348" lon="1.39789">
        <ele>130</ele>
        <time>2025-05-13T17:06:47Z</time>
      </trkpt>
      <trkpt lat="43.66345" lon="1.39786">
        <ele>130</ele>
        <time>2025-05-13T17:06:48Z</time>
      </trkpt>
      <trkpt lat="43.66345" lon="1.39786">
        <ele>129</ele>
        <time>2025-05-13T17:06:49Z</time>
      </trkpt>
      <trkpt lat="43.6634" lon="1.39776">
        <ele>129</ele>
        <time>2025-05-13T17:06:50Z</time>
      </trkpt>
      <trkpt lat="43.6634" lon="1.39774">
        <ele>129</ele>
        <time>2025-05-13T17:06:51Z</time>
      </trkpt>
      <trkpt lat="43.6634" lon="1.39774">
        <ele>129</ele>
        <time>2025-05-13T17:06:52Z</time>
      </trkpt>
      <trkpt lat="43.66339" lon="1.39763">
        <ele>130</ele>
        <time>2025-05-13T17:06:53Z</time>
      </trkpt>
      <trkpt lat="43.66339" lon="1.39761">
        <ele>130</ele>
        <time>2025-05-13T17:06:54Z</time>
      </trkpt>
      <trkpt lat="43.66338" lon="1.39758">
        <ele>130</ele>
        <time>2025-05-13T17:06:55Z</time>
      </trkpt>
      <trkpt lat="43.66337" lon="1.39754">
        <ele>130</ele>
        <time>2025-05-13T17:06:56Z</time>
      </trkpt>
      <trkpt lat="43.66336" lon="1.39752">
        <ele>130</ele>
        <time>2025-05-13T17:06:57Z</time>
      </trkpt>
      <trkpt lat="43.66336" lon="1.39749">
        <ele>130</ele>
        <time>2025-05-13T17:06:58Z</time>
      </trkpt>
      <trkpt lat="43.66336" lon="1.39747">
        <ele>130</ele>
        <time>2025-05-13T17:06:59Z</time>
      </trkpt>
      <trkpt lat="43.66335" lon="1.39745">
        <ele>129</ele>
        <time>2025-05-13T17:07:00Z</time>
      </trkpt>
      <trkpt lat="43.66333" lon="1.39735">
        <ele>130</ele>
        <time>2025-05-13T17:07:01Z</time>
      </trkpt>
      <trkpt lat="43.66333" lon="1.39731">
        <ele>130</ele>
        <time>2025-05-13T17:07:02Z</time>
      </trkpt>
      <trkpt lat="43.66332" lon="1.39726">
        <ele>130</ele>
        <time>2025-05-13T17:07:03Z</time>
      </trkpt>
      <trkpt lat="43.66331" lon="1.39722">
        <ele>130</ele>
        <time>2025-05-13T17:07:04Z</time>
      </trkpt>
      <trkpt lat="43.66331" lon="1.39718">
        <ele>131</ele>
        <time>2025-05-13T17:07:05Z</time>
      </trkpt>
      <trkpt lat="43.66331" lon="1.39715">
        <ele>131</ele>
        <time>2025-05-13T17:07:06Z</time>
      </trkpt>
      <trkpt lat="43.66331" lon="1.39711">
        <ele>131</ele>
        <time>2025-05-13T17:07:07Z</time>
      </trkpt>
      <trkpt lat="43.6633" lon="1.39708">
        <ele>131</ele>
        <time>2025-05-13T17:07:08Z</time>
      </trkpt>
      <trkpt lat="43.66329" lon="1.39704">
        <ele>131</ele>
        <time>2025-05-13T17:07:09Z</time>
      </trkpt>
      <trkpt lat="43.66329" lon="1.39701">
        <ele>131</ele>
        <time>2025-05-13T17:07:10Z</time>
      </trkpt>
      <trkpt lat="43.66328" lon="1.39697">
        <ele>131</ele>
        <time>2025-05-13T17:07:11Z</time>
      </trkpt>
      <trkpt lat="43.66327" lon="1.39694">
        <ele>131</ele>
        <time>2025-05-13T17:07:12Z</time>
      </trkpt>
      <trkpt lat="43.66327" lon="1.3969">
        <ele>130</ele>
        <time>2025-05-13T17:07:13Z</time>
      </trkpt>
      <trkpt lat="43.66326" lon="1.39686">
        <ele>130</ele>
        <time>2025-05-13T17:07:14Z</time>
      </trkpt>
      <trkpt lat="43.66325" lon="1.39682">
        <ele>130</ele>
        <time>2025-05-13T17:07:15Z</time>
      </trkpt>
      <trkpt lat="43.66323" lon="1.39671">
        <ele>130</ele>
        <time>2025-05-13T17:07:17Z</time>
      </trkpt>
      <trkpt lat="43.66322" lon="1.39669">
        <ele>130</ele>
        <time>2025-05-13T17:07:18Z</time>
      </trkpt>
      <trkpt lat="43.66321" lon="1.39665">
        <ele>130</ele>
        <time>2025-05-13T17:07:19Z</time>
      </trkpt>
      <trkpt lat="43.66319" lon="1.39662">
        <ele>129</ele>
        <time>2025-05-13T17:07:20Z</time>
      </trkpt>
      <trkpt lat="43.66318" lon="1.39658">
        <ele>129</ele>
        <time>2025-05-13T17:07:21Z</time>
      </trkpt>
      <trkpt lat="43.66316" lon="1.39655">
        <ele>129</ele>
        <time>2025-05-13T17:07:22Z</time>
      </trkpt>
      <trkpt lat="43.66316" lon="1.39651">
        <ele>129</ele>
        <time>2025-05-13T17:07:23Z</time>
      </trkpt>
      <trkpt lat="43.66314" lon="1.39647">
        <ele>129</ele>
        <time>2025-05-13T17:07:24Z</time>
      </trkpt>
      <trkpt lat="43.66314" lon="1.39647">
        <ele>129</ele>
        <time>2025-05-13T17:07:25Z</time>
      </trkpt>
      <trkpt lat="43.66311" lon="1.39638">
        <ele>129</ele>
        <time>2025-05-13T17:07:26Z</time>
      </trkpt>
      <trkpt lat="43.66311" lon="1.39636">
        <ele>129</ele>
        <time>2025-05-13T17:07:27Z</time>
      </trkpt>
      <trkpt lat="43.66311" lon="1.39631">
        <ele>130</ele>
        <time>2025-05-13T17:07:28Z</time>
      </trkpt>
      <trkpt lat="43.6631" lon="1.39627">
        <ele>130</ele>
        <time>2025-05-13T17:07:29Z</time>
      </trkpt>
      <trkpt lat="43.6631" lon="1.39623">
        <ele>130</ele>
        <time>2025-05-13T17:07:30Z</time>
      </trkpt>
      <trkpt lat="43.66309" lon="1.3962">
        <ele>130</ele>
        <time>2025-05-13T17:07:31Z</time>
      </trkpt>
      <trkpt lat="43.66309" lon="1.39617">
        <ele>130</ele>
        <time>2025-05-13T17:07:32Z</time>
      </trkpt>
      <trkpt lat="43.66308" lon="1.39613">
        <ele>130</ele>
        <time>2025-05-13T17:07:33Z</time>
      </trkpt>
      <trkpt lat="43.66307" lon="1.3961">
        <ele>130</ele>
        <time>2025-05-13T17:07:34Z</time>
      </trkpt>
      <trkpt lat="43.66306" lon="1.39607">
        <ele>130</ele>
        <time>2025-05-13T17:07:35Z</time>
      </trkpt>
      <trkpt lat="43.66304" lon="1.39604">
        <ele>130</ele>
        <time>2025-05-13T17:07:36Z</time>
      </trkpt>
      <trkpt lat="43.66302" lon="1.396">
        <ele>130</ele>
        <time>2025-05-13T17:07:37Z</time>
      </trkpt>
      <trkpt lat="43.66301" lon="1.39599">
        <ele>130</ele>
        <time>2025-05-13T17:07:38Z</time>
      </trkpt>
      <trkpt lat="43.66299" lon="1.39596">
        <ele>130</ele>
        <time>2025-05-13T17:07:39Z</time>
      </trkpt>
      <trkpt lat="43.66297" lon="1.39593">
        <ele>130</ele>
        <time>2025-05-13T17:07:40Z</time>
      </trkpt>
      <trkpt lat="43.66294" lon="1.39591">
        <ele>130</ele>
        <time>2025-05-13T17:07:41Z</time>
      </trkpt>
      <trkpt lat="43.66292" lon="1.39588">
        <ele>130</ele>
        <time>2025-05-13T17:07:42Z</time>
      </trkpt>
      <trkpt lat="43.66289" lon="1.39587">
        <ele>130</ele>
        <time>2025-05-13T17:07:43Z</time>
      </trkpt>
      <trkpt lat="43.66286" lon="1.39584">
        <ele>130</ele>
        <time>2025-05-13T17:07:44Z</time>
      </trkpt>
      <trkpt lat="43.66285" lon="1.39583">
        <ele>130</ele>
        <time>2025-05-13T17:07:45Z</time>
      </trkpt>
      <trkpt lat="43.66281" lon="1.39579">
        <ele>130</ele>
        <time>2025-05-13T17:07:46Z</time>
      </trkpt>
      <trkpt lat="43.6628" lon="1.39578">
        <ele>130</ele>
        <time>2025-05-13T17:07:47Z</time>
      </trkpt>
      <trkpt lat="43.66277" lon="1.39573">
        <ele>130</ele>
        <time>2025-05-13T17:07:48Z</time>
      </trkpt>
      <trkpt lat="43.66275" lon="1.3957">
        <ele>129</ele>
        <time>2025-05-13T17:07:49Z</time>
      </trkpt>
      <trkpt lat="43.66272" lon="1.39563">
        <ele>129</ele>
        <time>2025-05-13T17:07:50Z</time>
      </trkpt>
      <trkpt lat="43.66271" lon="1.3956">
        <ele>129</ele>
        <time>2025-05-13T17:07:51Z</time>
      </trkpt>
      <trkpt lat="43.6627" lon="1.39558">
        <ele>129</ele>
        <time>2025-05-13T17:07:52Z</time>
      </trkpt>
      <trkpt lat="43.66268" lon="1.39553">
        <ele>129</ele>
        <time>2025-05-13T17:07:53Z</time>
      </trkpt>
      <trkpt lat="43.66268" lon="1.39549">
        <ele>129</ele>
        <time>2025-05-13T17:07:54Z</time>
      </trkpt>
      <trkpt lat="43.66268" lon="1.39546">
        <ele>129</ele>
        <time>2025-05-13T17:07:55Z</time>
      </trkpt>
      <trkpt lat="43.66268" lon="1.39546">
        <ele>129</ele>
        <time>2025-05-13T17:07:56Z</time>
      </trkpt>
      <trkpt lat="43.66361" lon="1.39617">
        <ele>129</ele>
        <time>2025-05-13T17:25:46Z</time>
      </trkpt>
      <trkpt lat="43.66361" lon="1.39617">
        <ele>130</ele>
        <time>2025-05-13T17:25:47Z</time>
      </trkpt>
      <trkpt lat="43.66361" lon="1.39617">
        <ele>130</ele>
        <time>2025-05-13T17:25:48Z</time>
      </trkpt>
      <trkpt lat="43.66358" lon="1.39617">
        <ele>130</ele>
        <time>2025-05-13T17:25:49Z</time>
      </trkpt>
      <trkpt lat="43.66355" lon="1.39616">
        <ele>129</ele>
        <time>2025-05-13T17:25:50Z</time>
      </trkpt>
      <trkpt lat="43.66353" lon="1.39615">
        <ele>128</ele>
        <time>2025-05-13T17:25:51Z</time>
      </trkpt>
      <trkpt lat="43.66348" lon="1.3961">
        <ele>128</ele>
        <time>2025-05-13T17:25:52Z</time>
      </trkpt>
      <trkpt lat="43.66346" lon="1.39609">
        <ele>128</ele>
        <time>2025-05-13T17:25:53Z</time>
      </trkpt>
      <trkpt lat="43.66343" lon="1.39604">
        <ele>128</ele>
        <time>2025-05-13T17:25:54Z</time>
      </trkpt>
      <trkpt lat="43.66339" lon="1.39596">
        <ele>128</ele>
        <time>2025-05-13T17:25:55Z</time>
      </trkpt>
      <trkpt lat="43.66337" lon="1.39593">
        <ele>128</ele>
        <time>2025-05-13T17:25:56Z</time>
      </trkpt>
      <trkpt lat="43.66335" lon="1.39587">
        <ele>128</ele>
        <time>2025-05-13T17:25:57Z</time>
      </trkpt>
      <trkpt lat="43.66333" lon="1.39581">
        <ele>128</ele>
        <time>2025-05-13T17:25:58Z</time>
      </trkpt>
      <trkpt lat="43.66332" lon="1.39577">
        <ele>128</ele>
        <time>2025-05-13T17:25:59Z</time>
      </trkpt>
      <trkpt lat="43.6633" lon="1.39573">
        <ele>128</ele>
        <time>2025-05-13T17:26:00Z</time>
      </trkpt>
      <trkpt lat="43.66329" lon="1.3957">
        <ele>128</ele>
        <time>2025-05-13T17:26:01Z</time>
      </trkpt>
      <trkpt lat="43.66324" lon="1.39558">
        <ele>128</ele>
        <time>2025-05-13T17:26:02Z</time>
      </trkpt>
      <trkpt lat="43.66323" lon="1.39553">
        <ele>128</ele>
        <time>2025-05-13T17:26:03Z</time>
      </trkpt>
      <trkpt lat="43.66322" lon="1.39548">
        <ele>128</ele>
        <time>2025-05-13T17:26:04Z</time>
      </trkpt>
      <trkpt lat="43.66318" lon="1.39538">
        <ele>128</ele>
        <time>2025-05-13T17:26:06Z</time>
      </trkpt>
      <trkpt lat="43.66316" lon="1.39531">
        <ele>128</ele>
        <time>2025-05-13T17:26:07Z</time>
      </trkpt>
      <trkpt lat="43.66315" lon="1.39529">
        <ele>128</ele>
        <time>2025-05-13T17:26:08Z</time>
      </trkpt>
      <trkpt lat="43.66313" lon="1.39524">
        <ele>128</ele>
        <time>2025-05-13T17:26:09Z</time>
      </trkpt>
      <trkpt lat="43.66311" lon="1.39521">
        <ele>128</ele>
        <time>2025-05-13T17:26:10Z</time>
      </trkpt>
      <trkpt lat="43.66309" lon="1.3952">
        <ele>128</ele>
        <time>2025-05-13T17:26:11Z</time>
      </trkpt>
      <trkpt lat="43.66307" lon="1.39519">
        <ele>128</ele>
        <time>2025-05-13T17:26:12Z</time>
      </trkpt>
      <trkpt lat="43.66304" lon="1.39519">
        <ele>128</ele>
        <time>2025-05-13T17:26:13Z</time>
      </trkpt>
      <trkpt lat="43.66302" lon="1.39518">
        <ele>128</ele>
        <time>2025-05-13T17:26:14Z</time>
      </trkpt>
      <trkpt lat="43.663" lon="1.39517">
        <ele>128</ele>
        <time>2025-05-13T17:26:15Z</time>
      </trkpt>
      <trkpt lat="43.66297" lon="1.39519">
        <ele>128</ele>
        <time>2025-05-13T17:26:16Z</time>
      </trkpt>
      <trkpt lat="43.66294" lon="1.3952">
        <ele>128</ele>
        <time>2025-05-13T17:26:17Z</time>
      </trkpt>
      <trkpt lat="43.66291" lon="1.39522">
        <ele>128</ele>
        <time>2025-05-13T17:26:18Z</time>
      </trkpt>
      <trkpt lat="43.66289" lon="1.39524">
        <ele>128</ele>
        <time>2025-05-13T17:26:19Z</time>
      </trkpt>
      <trkpt lat="43.66287" lon="1.39526">
        <ele>128</ele>
        <time>2025-05-13T17:26:20Z</time>
      </trkpt>
      <trkpt lat="43.66279" lon="1.39535">
        <ele>128</ele>
        <time>2025-05-13T17:26:21Z</time>
      </trkpt>
      <trkpt lat="43.66277" lon="1.39539">
        <ele>128</ele>
        <time>2025-05-13T17:26:22Z</time>
      </trkpt>
      <trkpt lat="43.66274" lon="1.39543">
        <ele>128</ele>
        <time>2025-05-13T17:26:23Z</time>
      </trkpt>
      <trkpt lat="43.66274" lon="1.39543">
        <ele>128</ele>
        <time>2025-05-13T17:26:25Z</time>
      </trkpt>
      <trkpt lat="43.66273" lon="1.39556">
        <ele>128</ele>
        <time>2025-05-13T17:26:26Z</time>
      </trkpt>
      <trkpt lat="43.66273" lon="1.39556">
        <ele>128</ele>
        <time>2025-05-13T17:26:28Z</time>
      </trkpt>
      <trkpt lat="43.66277" lon="1.39568">
        <ele>128</ele>
        <time>2025-05-13T17:26:29Z</time>
      </trkpt>
      <trkpt lat="43.66277" lon="1.39568">
        <ele>128</ele>
        <time>2025-05-13T17:26:30Z</time>
      </trkpt>
      <trkpt lat="43.6628" lon="1.39572">
        <ele>128</ele>
        <time>2025-05-13T17:26:31Z</time>
      </trkpt>
      <trkpt lat="43.66282" lon="1.39575">
        <ele>128</ele>
        <time>2025-05-13T17:26:32Z</time>
      </trkpt>
      <trkpt lat="43.66285" lon="1.39579">
        <ele>128</ele>
        <time>2025-05-13T17:26:33Z</time>
      </trkpt>
      <trkpt lat="43.66287" lon="1.39581">
        <ele>128</ele>
        <time>2025-05-13T17:26:34Z</time>
      </trkpt>
      <trkpt lat="43.66289" lon="1.39583">
        <ele>128</ele>
        <time>2025-05-13T17:26:35Z</time>
      </trkpt>
      <trkpt lat="43.66292" lon="1.39586">
        <ele>128</ele>
        <time>2025-05-13T17:26:36Z</time>
      </trkpt>
      <trkpt lat="43.66296" lon="1.39589">
        <ele>128</ele>
        <time>2025-05-13T17:26:37Z</time>
      </trkpt>
      <trkpt lat="43.66298" lon="1.3959">
        <ele>128</ele>
        <time>2025-05-13T17:26:38Z</time>
      </trkpt>
      <trkpt lat="43.66302" lon="1.39596">
        <ele>128</ele>
        <time>2025-05-13T17:26:39Z</time>
      </trkpt>
      <trkpt lat="43.66304" lon="1.39598">
        <ele>128</ele>
        <time>2025-05-13T17:26:40Z</time>
      </trkpt>
      <trkpt lat="43.66307" lon="1.39603">
        <ele>128</ele>
        <time>2025-05-13T17:26:41Z</time>
      </trkpt>
      <trkpt lat="43.6631" lon="1.39608">
        <ele>129</ele>
        <time>2025-05-13T17:26:42Z</time>
      </trkpt>
      <trkpt lat="43.6631" lon="1.39608">
        <ele>129</ele>
        <time>2025-05-13T17:26:43Z</time>
      </trkpt>
      <trkpt lat="43.66311" lon="1.39614">
        <ele>129</ele>
        <time>2025-05-13T17:26:44Z</time>
      </trkpt>
      <trkpt lat="43.66313" lon="1.39621">
        <ele>129</ele>
        <time>2025-05-13T17:26:45Z</time>
      </trkpt>
      <trkpt lat="43.66314" lon="1.39627">
        <ele>129</ele>
        <time>2025-05-13T17:26:46Z</time>
      </trkpt>
      <trkpt lat="43.66315" lon="1.3963">
        <ele>129</ele>
        <time>2025-05-13T17:26:47Z</time>
      </trkpt>
      <trkpt lat="43.66316" lon="1.39634">
        <ele>129</ele>
        <time>2025-05-13T17:26:48Z</time>
      </trkpt>
      <trkpt lat="43.66316" lon="1.39638">
        <ele>129</ele>
        <time>2025-05-13T17:26:49Z</time>
      </trkpt>
      <trkpt lat="43.66319" lon="1.39652">
        <ele>129</ele>
        <time>2025-05-13T17:26:50Z</time>
      </trkpt>
      <trkpt lat="43.6632" lon="1.39659">
        <ele>129</ele>
        <time>2025-05-13T17:26:51Z</time>
      </trkpt>
      <trkpt lat="43.66322" lon="1.39665">
        <ele>128</ele>
        <time>2025-05-13T17:26:52Z</time>
      </trkpt>
      <trkpt lat="43.66323" lon="1.39672">
        <ele>128</ele>
        <time>2025-05-13T17:26:54Z</time>
      </trkpt>
      <trkpt lat="43.66324" lon="1.39678">
        <ele>128</ele>
        <time>2025-05-13T17:26:55Z</time>
      </trkpt>
      <trkpt lat="43.66325" lon="1.3968">
        <ele>128</ele>
        <time>2025-05-13T17:26:56Z</time>
      </trkpt>
      <trkpt lat="43.66327" lon="1.39685">
        <ele>128</ele>
        <time>2025-05-13T17:26:57Z</time>
      </trkpt>
      <trkpt lat="43.66328" lon="1.3969">
        <ele>128</ele>
        <time>2025-05-13T17:26:58Z</time>
      </trkpt>
      <trkpt lat="43.66329" lon="1.39694">
        <ele>128</ele>
        <time>2025-05-13T17:26:59Z</time>
      </trkpt>
      <trkpt lat="43.6633" lon="1.39699">
        <ele>128</ele>
        <time>2025-05-13T17:27:00Z</time>
      </trkpt>
      <trkpt lat="43.66332" lon="1.39703">
        <ele>128</ele>
        <time>2025-05-13T17:27:01Z</time>
      </trkpt>
      <trkpt lat="43.66333" lon="1.39711">
        <ele>128</ele>
        <time>2025-05-13T17:27:02Z</time>
      </trkpt>
      <trkpt lat="43.66333" lon="1.39716">
        <ele>129</ele>
        <time>2025-05-13T17:27:03Z</time>
      </trkpt>
      <trkpt lat="43.66333" lon="1.39716">
        <ele>129</ele>
        <time>2025-05-13T17:27:04Z</time>
      </trkpt>
      <trkpt lat="43.66334" lon="1.39724">
        <ele>129</ele>
        <time>2025-05-13T17:27:05Z</time>
      </trkpt>
      <trkpt lat="43.66335" lon="1.3973">
        <ele>129</ele>
        <time>2025-05-13T17:27:06Z</time>
      </trkpt>
      <trkpt lat="43.66335" lon="1.3973">
        <ele>129</ele>
        <time>2025-05-13T17:27:08Z</time>
      </trkpt>
      <trkpt lat="43.66338" lon="1.39744">
        <ele>129</ele>
        <time>2025-05-13T17:27:09Z</time>
      </trkpt>
      <trkpt lat="43.66339" lon="1.3975">
        <ele>128</ele>
        <time>2025-05-13T17:27:10Z</time>
      </trkpt>
      <trkpt lat="43.66339" lon="1.3975">
        <ele>128</ele>
        <time>2025-05-13T17:27:11Z</time>
      </trkpt>
      <trkpt lat="43.66341" lon="1.39763">
        <ele>128</ele>
        <time>2025-05-13T17:27:12Z</time>
      </trkpt>
      <trkpt lat="43.66342" lon="1.39766">
        <ele>128</ele>
        <time>2025-05-13T17:27:13Z</time>
      </trkpt>
      <trkpt lat="43.66344" lon="1.39774">
        <ele>128</ele>
        <time>2025-05-13T17:27:14Z</time>
      </trkpt>
      <trkpt lat="43.66345" lon="1.39777">
        <ele>128</ele>
        <time>2025-05-13T17:27:15Z</time>
      </trkpt>
      <trkpt lat="43.66347" lon="1.39781">
        <ele>128</ele>
        <time>2025-05-13T17:27:16Z</time>
      </trkpt>
      <trkpt lat="43.66347" lon="1.39781">
        <ele>128</ele>
        <time>2025-05-13T17:27:17Z</time>
      </trkpt>
      <trkpt lat="43.6635" lon="1.39783">
        <ele>128</ele>
        <time>2025-05-13T17:27:18Z</time>
      </trkpt>
      <trkpt lat="43.66352" lon="1.39784">
        <ele>129</ele>
        <time>2025-05-13T17:27:19Z</time>
      </trkpt>
      <trkpt lat="43.66355" lon="1.39785">
        <ele>129</ele>
        <time>2025-05-13T17:27:20Z</time>
      </trkpt>
      <trkpt lat="43.66359" lon="1.39783">
        <ele>129</ele>
        <time>2025-05-13T17:27:22Z</time>
      </trkpt>
      <trkpt lat="43.6636" lon="1.39782">
        <ele>129</ele>
        <time>2025-05-13T17:27:23Z</time>
      </trkpt>
      <trkpt lat="43.66364" lon="1.39779">
        <ele>128</ele>
        <time>2025-05-13T17:27:24Z</time>
      </trkpt>
      <trkpt lat="43.66366" lon="1.39778">
        <ele>128</ele>
        <time>2025-05-13T17:27:25Z</time>
      </trkpt>
      <trkpt lat="43.66369" lon="1.39774">
        <ele>128</ele>
        <time>2025-05-13T17:27:26Z</time>
      </trkpt>
      <trkpt lat="43.66373" lon="1.3977">
        <ele>128</ele>
        <time>2025-05-13T17:27:27Z</time>
      </trkpt>
      <trkpt lat="43.66378" lon="1.39764">
        <ele>128</ele>
        <time>2025-05-13T17:27:28Z</time>
      </trkpt>
      <trkpt lat="43.66379" lon="1.39761">
        <ele>128</ele>
        <time>2025-05-13T17:27:29Z</time>
      </trkpt>
      <trkpt lat="43.66379" lon="1.39756">
        <ele>129</ele>
        <time>2025-05-13T17:27:30Z</time>
      </trkpt>
      <trkpt lat="43.66379" lon="1.39755">
        <ele>129</ele>
        <time>2025-05-13T17:27:31Z</time>
      </trkpt>
      <trkpt lat="43.66379" lon="1.39751">
        <ele>128</ele>
        <time>2025-05-13T17:27:32Z</time>
      </trkpt>
      <trkpt lat="43.66378" lon="1.39745">
        <ele>128</ele>
        <time>2025-05-13T17:27:33Z</time>
      </trkpt>
      <trkpt lat="43.66377" lon="1.39743">
        <ele>128</ele>
        <time>2025-05-13T17:27:34Z</time>
      </trkpt>
      <trkpt lat="43.66376" lon="1.39736">
        <ele>128</ele>
        <time>2025-05-13T17:27:35Z</time>
      </trkpt>
      <trkpt lat="43.66375" lon="1.39733">
        <ele>128</ele>
        <time>2025-05-13T17:27:36Z</time>
      </trkpt>
      <trkpt lat="43.66374" lon="1.39728">
        <ele>128</ele>
        <time>2025-05-13T17:27:37Z</time>
      </trkpt>
      <trkpt lat="43.66372" lon="1.39721">
        <ele>128</ele>
        <time>2025-05-13T17:27:38Z</time>
      </trkpt>
      <trkpt lat="43.66372" lon="1.39718">
        <ele>128</ele>
        <time>2025-05-13T17:27:39Z</time>
      </trkpt>
      <trkpt lat="43.66371" lon="1.39713">
        <ele>128</ele>
        <time>2025-05-13T17:27:40Z</time>
      </trkpt>
      <trkpt lat="43.66371" lon="1.39708">
        <ele>128</ele>
        <time>2025-05-13T17:27:41Z</time>
      </trkpt>
      <trkpt lat="43.66371" lon="1.39703">
        <ele>128</ele>
        <time>2025-05-13T17:27:42Z</time>
      </trkpt>
      <trkpt lat="43.66371" lon="1.39698">
        <ele>128</ele>
        <time>2025-05-13T17:27:43Z</time>
      </trkpt>
      <trkpt lat="43.66372" lon="1.39693">
        <ele>128</ele>
        <time>2025-05-13T17:27:44Z</time>
      </trkpt>
      <trkpt lat="43.66373" lon="1.39688">
        <ele>128</ele>
        <time>2025-05-13T17:27:45Z</time>
      </trkpt>
      <trkpt lat="43.66373" lon="1.39679">
        <ele>128</ele>
        <time>2025-05-13T17:27:46Z</time>
      </trkpt>
      <trkpt lat="43.66373" lon="1.39676">
        <ele>128</ele>
        <time>2025-05-13T17:27:47Z</time>
      </trkpt>
      <trkpt lat="43.66373" lon="1.39668">
        <ele>128</ele>
        <time>2025-05-13T17:27:48Z</time>
      </trkpt>
      <trkpt lat="43.66373" lon="1.39665">
        <ele>128</ele>
        <time>2025-05-13T17:27:49Z</time>
      </trkpt>
      <trkpt lat="43.66373" lon="1.39662">
        <ele>128</ele>
        <time>2025-05-13T17:27:50Z</time>
      </trkpt>
      <trkpt lat="43.66372" lon="1.39655">
        <ele>128</ele>
        <time>2025-05-13T17:27:51Z</time>
      </trkpt>
      <trkpt lat="43.66372" lon="1.39653">
        <ele>128</ele>
        <time>2025-05-13T17:27:52Z</time>
      </trkpt>
      <trkpt lat="43.6637" lon="1.39648">
        <ele>128</ele>
        <time>2025-05-13T17:27:53Z</time>
      </trkpt>
      <trkpt lat="43.66368" lon="1.39641">
        <ele>128</ele>
        <time>2025-05-13T17:27:54Z</time>
      </trkpt>
      <trkpt lat="43.66368" lon="1.39639">
        <ele>128</ele>
        <time>2025-05-13T17:27:55Z</time>
      </trkpt>
      <trkpt lat="43.66366" lon="1.39634">
        <ele>128</ele>
        <time>2025-05-13T17:27:56Z</time>
      </trkpt>
      <trkpt lat="43.66365" lon="1.39632">
        <ele>128</ele>
        <time>2025-05-13T17:27:57Z</time>
      </trkpt>
      <trkpt lat="43.66364" lon="1.39629">
        <ele>128</ele>
        <time>2025-05-13T17:27:58Z</time>
      </trkpt>
      <trkpt lat="43.66363" lon="1.39626">
        <ele>128</ele>
        <time>2025-05-13T17:27:59Z</time>
      </trkpt>
      <trkpt lat="43.66361" lon="1.39624">
        <ele>128</ele>
        <time>2025-05-13T17:28:00Z</time>
      </trkpt>
      <trkpt lat="43.66359" lon="1.39622">
        <ele>128</ele>
        <time>2025-05-13T17:28:01Z</time>
      </trkpt>
      <trkpt lat="43.66357" lon="1.3962">
        <ele>128</ele>
        <time>2025-05-13T17:28:02Z</time>
      </trkpt>
      <trkpt lat="43.66357" lon="1.3962">
        <ele>128</ele>
        <time>2025-05-13T17:28:03Z</time>
      </trkpt>
      <trkpt lat="43.66354" lon="1.39619">
        <ele>128</ele>
        <time>2025-05-13T17:28:04Z</time>
      </trkpt>
      <trkpt lat="43.66354" lon="1.39619">
        <ele>128</ele>
        <time>2025-05-13T17:28:05Z</time>
      </trkpt>
      <trkpt lat="43.66354" lon="1.39619">
        <ele>129</ele>
        <time>2025-05-13T17:28:06Z</time>
      </trkpt>
      <trkpt lat="43.66354" lon="1.39619">
        <ele>129</ele>
        <time>2025-05-13T17:28:07Z</time>
      </trkpt>
      <trkpt lat="43.66354" lon="1.39619">
        <ele>129</ele>
        <time>2025-05-13T17:28:08Z</time>
      </trkpt>
      <trkpt lat="43.66354" lon="1.39619">
        <ele>129</ele>
        <time>2025-05-13T17:28:09Z</time>
      </trkpt>
      <trkpt lat="43.66354" lon="1.39619">
        <ele>129</ele>
        <time>2025-05-13T17:28:10Z</time>
      </trkpt>
      <trkpt lat="43.66354" lon="1.39619">
        <ele>129</ele>
        <time>2025-05-13T17:28:11Z</time>
      </trkpt>
      <trkpt lat="43.66354" lon="1.39619">
        <ele>129</ele>
        <time>2025-05-13T17:28:12Z</time>
      </trkpt>
      <trkpt lat="43.66354" lon="1.39619">
        <ele>129</ele>
        <time>2025-05-13T17:28:13Z</time>
      </trkpt>
      <trkpt lat="43.66354" lon="1.39622">
        <ele>128</ele>
        <time>2025-05-13T17:28:14Z</time>
      </trkpt>
      <trkpt lat="43.66354" lon="1.39622">
        <ele>128</ele>
        <time>2025-05-13T17:28:15Z</time>
      </trkpt>
      <trkpt lat="43.66355" lon="1.39625">
        <ele>128</ele>
        <time>2025-05-13T17:28:16Z</time>
      </trkpt>
      <trkpt lat="43.66355" lon="1.39625">
        <ele>128</ele>
        <time>2025-05-13T17:28:17Z</time>
      </trkpt>
      <trkpt lat="43.66358" lon="1.3963">
        <ele>128</ele>
        <time>2025-05-13T17:28:19Z</time>
      </trkpt>
      <trkpt lat="43.66358" lon="1.3963">
        <ele>128</ele>
        <time>2025-05-13T17:28:20Z</time>
      </trkpt>
      <trkpt lat="43.66357" lon="1.39633">
        <ele>128</ele>
        <time>2025-05-13T17:28:21Z</time>
      </trkpt>
      <trkpt lat="43.66357" lon="1.39633">
        <ele>128</ele>
        <time>2025-05-13T17:28:22Z</time>
      </trkpt>
      <trkpt lat="43.66358" lon="1.39636">
        <ele>128</ele>
        <time>2025-05-13T17:28:23Z</time>
      </trkpt>
      <trkpt lat="43.66358" lon="1.39636">
        <ele>128</ele>
        <time>2025-05-13T17:28:24Z</time>
      </trkpt>
      <trkpt lat="43.66358" lon="1.39639">
        <ele>128</ele>
        <time>2025-05-13T17:28:25Z</time>
      </trkpt>
      <trkpt lat="43.66358" lon="1.39639">
        <ele>128</ele>
        <time>2025-05-13T17:28:26Z</time>
      </trkpt>
      <trkpt lat="43.66358" lon="1.39639">
        <ele>128</ele>
        <time>2025-05-13T17:28:27Z</time>
      </trkpt>
      <trkpt lat="43.66358" lon="1.39642">
        <ele>128</ele>
        <time>2025-05-13T17:28:28Z</time>
      </trkpt>
      <trkpt lat="43.66358" lon="1.39642">
        <ele>128</ele>
        <time>2025-05-13T17:28:29Z</time>
      </trkpt>
      <trkpt lat="43.66358" lon="1.39645">
        <ele>128</ele>
        <time>2025-05-13T17:28:30Z</time>
      </trkpt>
      <trkpt lat="43.66358" lon="1.39645">
        <ele>128</ele>
        <time>2025-05-13T17:28:31Z</time>
      </trkpt>
      <trkpt lat="43.66359" lon="1.39647">
        <ele>128</ele>
        <time>2025-05-13T17:28:32Z</time>
      </trkpt>
      <trkpt lat="43.66359" lon="1.39647">
        <ele>128</ele>
        <time>2025-05-13T17:28:33Z</time>
      </trkpt>
      <trkpt lat="43.66359" lon="1.39647">
        <ele>128</ele>
        <time>2025-05-13T17:28:34Z</time>
      </trkpt>
      <trkpt lat="43.66359" lon="1.39647">
        <ele>128</ele>
        <time>2025-05-13T17:28:35Z</time>
      </trkpt>
      <trkpt lat="43.66359" lon="1.39644">
        <ele>128</ele>
        <time>2025-05-13T17:28:36Z</time>
      </trkpt>
      <trkpt lat="43.66359" lon="1.39644">
        <ele>128</ele>
        <time>2025-05-13T17:28:38Z</time>
      </trkpt>
      <trkpt lat="43.66359" lon="1.39644">
        <ele>128</ele>
        <time>2025-05-13T17:28:39Z</time>
      </trkpt>
      <trkpt lat="43.66359" lon="1.39644">
        <ele>128</ele>
        <time>2025-05-13T17:28:40Z</time>
      </trkpt>
      <trkpt lat="43.66359" lon="1.39644">
        <ele>128</ele>
        <time>2025-05-13T17:28:41Z</time>
      </trkpt>
      <trkpt lat="43.66359" lon="1.39644">
        <ele>128</ele>
        <time>2025-05-13T17:28:42Z</time>
      </trkpt>
      <trkpt lat="43.66357" lon="1.39642">
        <ele>128</ele>
        <time>2025-05-13T17:28:43Z</time>
      </trkpt>
      <trkpt lat="43.66357" lon="1.39642">
        <ele>128</ele>
        <time>2025-05-13T17:28:44Z</time>
      </trkpt>
      <trkpt lat="43.66357" lon="1.39639">
        <ele>128</ele>
        <time>2025-05-13T17:28:45Z</time>
      </trkpt>
      <trkpt lat="43.66357" lon="1.39639">
        <ele>128</ele>
        <time>2025-05-13T17:28:46Z</time>
      </trkpt>
      <trkpt lat="43.66355" lon="1.39635">
        <ele>128</ele>
        <time>2025-05-13T17:28:47Z</time>
      </trkpt>
      <trkpt lat="43.66355" lon="1.39635">
        <ele>128</ele>
        <time>2025-05-13T17:28:48Z</time>
      </trkpt>
      <trkpt lat="43.66354" lon="1.39632">
        <ele>128</ele>
        <time>2025-05-13T17:28:49Z</time>
      </trkpt>
      <trkpt lat="43.66354" lon="1.39632">
        <ele>128</ele>
        <time>2025-05-13T17:28:50Z</time>
      </trkpt>
      <trkpt lat="43.66354" lon="1.39629">
        <ele>128</ele>
        <time>2025-05-13T17:28:51Z</time>
      </trkpt>
      <trkpt lat="43.66354" lon="1.39629">
        <ele>128</ele>
        <time>2025-05-13T17:28:52Z</time>
      </trkpt>
      <trkpt lat="43.66354" lon="1.39626">
        <ele>128</ele>
        <time>2025-05-13T17:28:53Z</time>
      </trkpt>
      <trkpt lat="43.66354" lon="1.39626">
        <ele>128</ele>
        <time>2025-05-13T17:28:54Z</time>
      </trkpt>
      <trkpt lat="43.66354" lon="1.39623">
        <ele>128</ele>
        <time>2025-05-13T17:28:55Z</time>
      </trkpt>
      <trkpt lat="43.66354" lon="1.39623">
        <ele>128</ele>
        <time>2025-05-13T17:28:56Z</time>
      </trkpt>
      <trkpt lat="43.66354" lon="1.3962">
        <ele>128</ele>
        <time>2025-05-13T17:28:57Z</time>
      </trkpt>
      <trkpt lat="43.66354" lon="1.3962">
        <ele>128</ele>
        <time>2025-05-13T17:28:58Z</time>
      </trkpt>
      <trkpt lat="43.66355" lon="1.39616">
        <ele>128</ele>
        <time>2025-05-13T17:28:59Z</time>
      </trkpt>
      <trkpt lat="43.66355" lon="1.39616">
        <ele>128</ele>
        <time>2025-05-13T17:29:00Z</time>
      </trkpt>
      <trkpt lat="43.66357" lon="1.39614">
        <ele>128</ele>
        <time>2025-05-13T17:29:01Z</time>
      </trkpt>
      <trkpt lat="43.66357" lon="1.39614">
        <ele>128</ele>
        <time>2025-05-13T17:29:02Z</time>
      </trkpt>
      <trkpt lat="43.6636" lon="1.39614">
        <ele>128</ele>
        <time>2025-05-13T17:29:03Z</time>
      </trkpt>
      <trkpt lat="43.6636" lon="1.39614">
        <ele>128</ele>
        <time>2025-05-13T17:29:04Z</time>
      </trkpt>
      <trkpt lat="43.66362" lon="1.39615">
        <ele>128</ele>
        <time>2025-05-13T17:29:05Z</time>
      </trkpt>
      <trkpt lat="43.66362" lon="1.39615">
        <ele>128</ele>
        <time>2025-05-13T17:29:06Z</time>
      </trkpt>
      <trkpt lat="43.66364" lon="1.39617">
        <ele>128</ele>
        <time>2025-05-13T17:29:07Z</time>
      </trkpt>
      <trkpt lat="43.66364" lon="1.39617">
        <ele>128</ele>
        <time>2025-05-13T17:29:08Z</time>
      </trkpt>
      <trkpt lat="43.66365" lon="1.3962">
        <ele>128</ele>
        <time>2025-05-13T17:29:09Z</time>
      </trkpt>
      <trkpt lat="43.66365" lon="1.3962">
        <ele>128</ele>
        <time>2025-05-13T17:29:10Z</time>
      </trkpt>
      <trkpt lat="43.66367" lon="1.39621">
        <ele>128</ele>
        <time>2025-05-13T17:29:11Z</time>
      </trkpt>
      <trkpt lat="43.66367" lon="1.39621">
        <ele>128</ele>
        <time>2025-05-13T17:29:12Z</time>
      </trkpt>
      <trkpt lat="43.66367" lon="1.39621">
        <ele>128</ele>
        <time>2025-05-13T17:29:13Z</time>
      </trkpt>
      <trkpt lat="43.66367" lon="1.39621">
        <ele>128</ele>
        <time>2025-05-13T17:29:14Z</time>
      </trkpt>
      <trkpt lat="43.66367" lon="1.39621">
        <ele>128</ele>
        <time>2025-05-13T17:29:15Z</time>
      </trkpt>
      <trkpt lat="43.66369" lon="1.39618">
        <ele>128</ele>
        <time>2025-05-13T17:29:16Z</time>
      </trkpt>
      <trkpt lat="43.66369" lon="1.39618">
        <ele>128</ele>
        <time>2025-05-13T17:29:17Z</time>
      </trkpt>
      <trkpt lat="43.66369" lon="1.39618">
        <ele>128</ele>
        <time>2025-05-13T17:29:18Z</time>
      </trkpt>
      <trkpt lat="43.6637" lon="1.39616">
        <ele>128</ele>
        <time>2025-05-13T17:29:19Z</time>
      </trkpt>
      <trkpt lat="43.6637" lon="1.39616">
        <ele>128</ele>
        <time>2025-05-13T17:29:20Z</time>
      </trkpt>
      <trkpt lat="43.6637" lon="1.39616">
        <ele>128</ele>
        <time>2025-05-13T17:29:21Z</time>
      </trkpt>
      <trkpt lat="43.6637" lon="1.39616">
        <ele>128</ele>
        <time>2025-05-13T17:29:22Z</time>
      </trkpt>
      <trkpt lat="43.66367" lon="1.39615">
        <ele>129</ele>
        <time>2025-05-13T17:29:23Z</time>
      </trkpt>
      <trkpt lat="43.66367" lon="1.39615">
        <ele>129</ele>
        <time>2025-05-13T17:29:24Z</time>
      </trkpt>
      <trkpt lat="43.66367" lon="1.39615">
        <ele>128</ele>
        <time>2025-05-13T17:29:25Z</time>
      </trkpt>
      <trkpt lat="43.66365" lon="1.39615">
        <ele>128</ele>
        <time>2025-05-13T17:29:26Z</time>
      </trkpt>
      <trkpt lat="43.66365" lon="1.39615">
        <ele>128</ele>
        <time>2025-05-13T17:29:27Z</time>
      </trkpt>
      <trkpt lat="43.66363" lon="1.39613">
        <ele>128</ele>
        <time>2025-05-13T17:29:28Z</time>
      </trkpt>
      <trkpt lat="43.66363" lon="1.39613">
        <ele>128</ele>
        <time>2025-05-13T17:29:29Z</time>
      </trkpt>
      <trkpt lat="43.66363" lon="1.39611">
        <ele>128</ele>
        <time>2025-05-13T17:29:30Z</time>
      </trkpt>
      <trkpt lat="43.66363" lon="1.39611">
        <ele>128</ele>
        <time>2025-05-13T17:29:31Z</time>
      </trkpt>
      <trkpt lat="43.66363" lon="1.39611">
        <ele>128</ele>
        <time>2025-05-13T17:29:32Z</time>
      </trkpt>
      <trkpt lat="43.66363" lon="1.39611">
        <ele>128</ele>
        <time>2025-05-13T17:29:33Z</time>
      </trkpt>
      <trkpt lat="43.66363" lon="1.39611">
        <ele>128</ele>
        <time>2025-05-13T17:29:34Z</time>
      </trkpt>
      <trkpt lat="43.66363" lon="1.39611">
        <ele>128</ele>
        <time>2025-05-13T17:29:35Z</time>
      </trkpt>
      <trkpt lat="43.66363" lon="1.39611">
        <ele>128</ele>
        <time>2025-05-13T17:29:36Z</time>
      </trkpt>
      <trkpt lat="43.66361" lon="1.39613">
        <ele>128</ele>
        <time>2025-05-13T17:29:37Z</time>
      </trkpt>
      <trkpt lat="43.66361" lon="1.39613">
        <ele>128</ele>
        <time>2025-05-13T17:29:38Z</time>
      </trkpt>
      <trkpt lat="43.66361" lon="1.39613">
        <ele>128</ele>
        <time>2025-05-13T17:29:39Z</time>
      </trkpt>
      <trkpt lat="43.66361" lon="1.39613">
        <ele>128</ele>
        <time>2025-05-13T17:29:40Z</time>
      </trkpt>
      <trkpt lat="43.66358" lon="1.39614">
        <ele>128</ele>
        <time>2025-05-13T17:29:41Z</time>
      </trkpt>
      <trkpt lat="43.66358" lon="1.39614">
        <ele>128</ele>
        <time>2025-05-13T17:29:42Z</time>
      </trkpt>
      <trkpt lat="43.66358" lon="1.39614">
        <ele>128</ele>
        <time>2025-05-13T17:29:43Z</time>
      </trkpt>
      <trkpt lat="43.66355" lon="1.39614">
        <ele>128</ele>
        <time>2025-05-13T17:29:44Z</time>
      </trkpt>
      <trkpt lat="43.66353" lon="1.39613">
        <ele>128</ele>
        <time>2025-05-13T17:29:45Z</time>
      </trkpt>
      <trkpt lat="43.6635" lon="1.39611">
        <ele>128</ele>
        <time>2025-05-13T17:29:46Z</time>
      </trkpt>
      <trkpt lat="43.66348" lon="1.39607">
        <ele>128</ele>
        <time>2025-05-13T17:29:47Z</time>
      </trkpt>
      <trkpt lat="43.66345" lon="1.39604">
        <ele>128</ele>
        <time>2025-05-13T17:29:48Z</time>
      </trkpt>
      <trkpt lat="43.66342" lon="1.39599">
        <ele>128</ele>
        <time>2025-05-13T17:29:49Z</time>
      </trkpt>
      <trkpt lat="43.66339" lon="1.39593">
        <ele>128</ele>
        <time>2025-05-13T17:29:50Z</time>
      </trkpt>
      <trkpt lat="43.66335" lon="1.39585">
        <ele>128</ele>
        <time>2025-05-13T17:29:51Z</time>
      </trkpt>
      <trkpt lat="43.66333" lon="1.39583">
        <ele>128</ele>
        <time>2025-05-13T17:29:52Z</time>
      </trkpt>
      <trkpt lat="43.66331" lon="1.39578">
        <ele>128</ele>
        <time>2025-05-13T17:29:53Z</time>
      </trkpt>
      <trkpt lat="43.66327" lon="1.39571">
        <ele>128</ele>
        <time>2025-05-13T17:29:54Z</time>
      </trkpt>
      <trkpt lat="43.66326" lon="1.39569">
        <ele>128</ele>
        <time>2025-05-13T17:29:55Z</time>
      </trkpt>
      <trkpt lat="43.66324" lon="1.39564">
        <ele>128</ele>
        <time>2025-05-13T17:29:56Z</time>
      </trkpt>
      <trkpt lat="43.66321" lon="1.39557">
        <ele>128</ele>
        <time>2025-05-13T17:29:57Z</time>
      </trkpt>
      <trkpt lat="43.66321" lon="1.39554">
        <ele>128</ele>
        <time>2025-05-13T17:29:58Z</time>
      </trkpt>
      <trkpt lat="43.66318" lon="1.39546">
        <ele>128</ele>
        <time>2025-05-13T17:29:59Z</time>
      </trkpt>
      <trkpt lat="43.66318" lon="1.39543">
        <ele>128</ele>
        <time>2025-05-13T17:30:00Z</time>
      </trkpt>
      <trkpt lat="43.66316" lon="1.39536">
        <ele>128</ele>
        <time>2025-05-13T17:30:01Z</time>
      </trkpt>
      <trkpt lat="43.66315" lon="1.39533">
        <ele>128</ele>
        <time>2025-05-13T17:30:02Z</time>
      </trkpt>
      <trkpt lat="43.66312" lon="1.39527">
        <ele>128</ele>
        <time>2025-05-13T17:30:03Z</time>
      </trkpt>
      <trkpt lat="43.66312" lon="1.39525">
        <ele>128</ele>
        <time>2025-05-13T17:30:04Z</time>
      </trkpt>
      <trkpt lat="43.6631" lon="1.39521">
        <ele>128</ele>
        <time>2025-05-13T17:30:05Z</time>
      </trkpt>
      <trkpt lat="43.66308" lon="1.39518">
        <ele>127</ele>
        <time>2025-05-13T17:30:06Z</time>
      </trkpt>
      <trkpt lat="43.66306" lon="1.39515">
        <ele>127</ele>
        <time>2025-05-13T17:30:07Z</time>
      </trkpt>
      <trkpt lat="43.66304" lon="1.39514">
        <ele>127</ele>
        <time>2025-05-13T17:30:08Z</time>
      </trkpt>
      <trkpt lat="43.66302" lon="1.39514">
        <ele>127</ele>
        <time>2025-05-13T17:30:09Z</time>
      </trkpt>
      <trkpt lat="43.66302" lon="1.39514">
        <ele>127</ele>
        <time>2025-05-13T17:30:10Z</time>
      </trkpt>
      <trkpt lat="43.66298" lon="1.39515">
        <ele>127</ele>
        <time>2025-05-13T17:30:11Z</time>
      </trkpt>
      <trkpt lat="43.66298" lon="1.39515">
        <ele>127</ele>
        <time>2025-05-13T17:30:12Z</time>
      </trkpt>
      <trkpt lat="43.66291" lon="1.3952">
        <ele>127</ele>
        <time>2025-05-13T17:30:13Z</time>
      </trkpt>
      <trkpt lat="43.66291" lon="1.3952">
        <ele>127</ele>
        <time>2025-05-13T17:30:14Z</time>
      </trkpt>
      <trkpt lat="43.66287" lon="1.39524">
        <ele>127</ele>
        <time>2025-05-13T17:30:15Z</time>
      </trkpt>
      <trkpt lat="43.66284" lon="1.39527">
        <ele>127</ele>
        <time>2025-05-13T17:30:16Z</time>
      </trkpt>
      <trkpt lat="43.66281" lon="1.39531">
        <ele>127</ele>
        <time>2025-05-13T17:30:17Z</time>
      </trkpt>
      <trkpt lat="43.66279" lon="1.39535">
        <ele>127</ele>
        <time>2025-05-13T17:30:18Z</time>
      </trkpt>
      <trkpt lat="43.66277" lon="1.3954">
        <ele>127</ele>
        <time>2025-05-13T17:30:19Z</time>
      </trkpt>
      <trkpt lat="43.66275" lon="1.39544">
        <ele>127</ele>
        <time>2025-05-13T17:30:20Z</time>
      </trkpt>
      <trkpt lat="43.66276" lon="1.39551">
        <ele>128</ele>
        <time>2025-05-13T17:30:21Z</time>
      </trkpt>
      <trkpt lat="43.66276" lon="1.39557">
        <ele>128</ele>
        <time>2025-05-13T17:30:22Z</time>
      </trkpt>
      <trkpt lat="43.66277" lon="1.39561">
        <ele>128</ele>
        <time>2025-05-13T17:30:23Z</time>
      </trkpt>
      <trkpt lat="43.66278" lon="1.39565">
        <ele>127</ele>
        <time>2025-05-13T17:30:24Z</time>
      </trkpt>
      <trkpt lat="43.66279" lon="1.39569">
        <ele>127</ele>
        <time>2025-05-13T17:30:25Z</time>
      </trkpt>
      <trkpt lat="43.66281" lon="1.39571">
        <ele>127</ele>
        <time>2025-05-13T17:30:26Z</time>
      </trkpt>
      <trkpt lat="43.66283" lon="1.39574">
        <ele>127</ele>
        <time>2025-05-13T17:30:27Z</time>
      </trkpt>
      <trkpt lat="43.66285" lon="1.39576">
        <ele>127</ele>
        <time>2025-05-13T17:30:28Z</time>
      </trkpt>
      <trkpt lat="43.66287" lon="1.39579">
        <ele>127</ele>
        <time>2025-05-13T17:30:29Z</time>
      </trkpt>
      <trkpt lat="43.66289" lon="1.39581">
        <ele>127</ele>
        <time>2025-05-13T17:30:30Z</time>
      </trkpt>
      <trkpt lat="43.66295" lon="1.39587">
        <ele>127</ele>
        <time>2025-05-13T17:30:32Z</time>
      </trkpt>
      <trkpt lat="43.66298" lon="1.39591">
        <ele>127</ele>
        <time>2025-05-13T17:30:33Z</time>
      </trkpt>
      <trkpt lat="43.66301" lon="1.39595">
        <ele>128</ele>
        <time>2025-05-13T17:30:34Z</time>
      </trkpt>
      <trkpt lat="43.66304" lon="1.39599">
        <ele>128</ele>
        <time>2025-05-13T17:30:35Z</time>
      </trkpt>
      <trkpt lat="43.66307" lon="1.39603">
        <ele>128</ele>
        <time>2025-05-13T17:30:36Z</time>
      </trkpt>
      <trkpt lat="43.66309" lon="1.39608">
        <ele>128</ele>
        <time>2025-05-13T17:30:37Z</time>
      </trkpt>
      <trkpt lat="43.6631" lon="1.39611">
        <ele>128</ele>
        <time>2025-05-13T17:30:38Z</time>
      </trkpt>
      <trkpt lat="43.66311" lon="1.39614">
        <ele>128</ele>
        <time>2025-05-13T17:30:39Z</time>
      </trkpt>
      <trkpt lat="43.66311" lon="1.39617">
        <ele>128</ele>
        <time>2025-05-13T17:30:40Z</time>
      </trkpt>
      <trkpt lat="43.66315" lon="1.3963">
        <ele>128</ele>
        <time>2025-05-13T17:30:41Z</time>
      </trkpt>
      <trkpt lat="43.66316" lon="1.39635">
        <ele>128</ele>
        <time>2025-05-13T17:30:42Z</time>
      </trkpt>
      <trkpt lat="43.66317" lon="1.3964">
        <ele>128</ele>
        <time>2025-05-13T17:30:43Z</time>
      </trkpt>
      <trkpt lat="43.66318" lon="1.39645">
        <ele>128</ele>
        <time>2025-05-13T17:30:44Z</time>
      </trkpt>
      <trkpt lat="43.66319" lon="1.3965">
        <ele>128</ele>
        <time>2025-05-13T17:30:45Z</time>
      </trkpt>
      <trkpt lat="43.66321" lon="1.39654">
        <ele>128</ele>
        <time>2025-05-13T17:30:46Z</time>
      </trkpt>
      <trkpt lat="43.66322" lon="1.39659">
        <ele>128</ele>
        <time>2025-05-13T17:30:47Z</time>
      </trkpt>
      <trkpt lat="43.66323" lon="1.39664">
        <ele>128</ele>
        <time>2025-05-13T17:30:48Z</time>
      </trkpt>
      <trkpt lat="43.66326" lon="1.39671">
        <ele>128</ele>
        <time>2025-05-13T17:30:49Z</time>
      </trkpt>
      <trkpt lat="43.66327" lon="1.39674">
        <ele>128</ele>
        <time>2025-05-13T17:30:50Z</time>
      </trkpt>
      <trkpt lat="43.66329" lon="1.39681">
        <ele>128</ele>
        <time>2025-05-13T17:30:51Z</time>
      </trkpt>
      <trkpt lat="43.6633" lon="1.39683">
        <ele>128</ele>
        <time>2025-05-13T17:30:52Z</time>
      </trkpt>
      <trkpt lat="43.66331" lon="1.39687">
        <ele>128</ele>
        <time>2025-05-13T17:30:53Z</time>
      </trkpt>
      <trkpt lat="43.66331" lon="1.39691">
        <ele>128</ele>
        <time>2025-05-13T17:30:54Z</time>
      </trkpt>
      <trkpt lat="43.66332" lon="1.39694">
        <ele>128</ele>
        <time>2025-05-13T17:30:55Z</time>
      </trkpt>
      <trkpt lat="43.66333" lon="1.39698">
        <ele>128</ele>
        <time>2025-05-13T17:30:56Z</time>
      </trkpt>
      <trkpt lat="43.66333" lon="1.39703">
        <ele>128</ele>
        <time>2025-05-13T17:30:57Z</time>
      </trkpt>
      <trkpt lat="43.66334" lon="1.39707">
        <ele>128</ele>
        <time>2025-05-13T17:30:58Z</time>
      </trkpt>
      <trkpt lat="43.66335" lon="1.39712">
        <ele>128</ele>
        <time>2025-05-13T17:30:59Z</time>
      </trkpt>
      <trkpt lat="43.66335" lon="1.39717">
        <ele>128</ele>
        <time>2025-05-13T17:31:00Z</time>
      </trkpt>
      <trkpt lat="43.66336" lon="1.39721">
        <ele>128</ele>
        <time>2025-05-13T17:31:01Z</time>
      </trkpt>
      <trkpt lat="43.66337" lon="1.39726">
        <ele>128</ele>
        <time>2025-05-13T17:31:02Z</time>
      </trkpt>
      <trkpt lat="43.66337" lon="1.3973">
        <ele>128</ele>
        <time>2025-05-13T17:31:03Z</time>
      </trkpt>
      <trkpt lat="43.66338" lon="1.39734">
        <ele>128</ele>
        <time>2025-05-13T17:31:04Z</time>
      </trkpt>
      <trkpt lat="43.6634" lon="1.39745">
        <ele>128</ele>
        <time>2025-05-13T17:31:05Z</time>
      </trkpt>
      <trkpt lat="43.66341" lon="1.39748">
        <ele>128</ele>
        <time>2025-05-13T17:31:06Z</time>
      </trkpt>
      <trkpt lat="43.66341" lon="1.39752">
        <ele>128</ele>
        <time>2025-05-13T17:31:07Z</time>
      </trkpt>
      <trkpt lat="43.66344" lon="1.39762">
        <ele>128</ele>
        <time>2025-05-13T17:31:08Z</time>
      </trkpt>
      <trkpt lat="43.66345" lon="1.39767">
        <ele>128</ele>
        <time>2025-05-13T17:31:10Z</time>
      </trkpt>
      <trkpt lat="43.66346" lon="1.39772">
        <ele>128</ele>
        <time>2025-05-13T17:31:11Z</time>
      </trkpt>
      <trkpt lat="43.66347" lon="1.39777">
        <ele>128</ele>
        <time>2025-05-13T17:31:12Z</time>
      </trkpt>
      <trkpt lat="43.66349" lon="1.39778">
        <ele>128</ele>
        <time>2025-05-13T17:31:13Z</time>
      </trkpt>
      <trkpt lat="43.66351" lon="1.3978">
        <ele>128</ele>
        <time>2025-05-13T17:31:14Z</time>
      </trkpt>
      <trkpt lat="43.66353" lon="1.39782">
        <ele>128</ele>
        <time>2025-05-13T17:31:15Z</time>
      </trkpt>
      <trkpt lat="43.66355" lon="1.39784">
        <ele>128</ele>
        <time>2025-05-13T17:31:16Z</time>
      </trkpt>
      <trkpt lat="43.66357" lon="1.39782">
        <ele>128</ele>
        <time>2025-05-13T17:31:17Z</time>
      </trkpt>
      <trkpt lat="43.6636" lon="1.3978">
        <ele>128</ele>
        <time>2025-05-13T17:31:18Z</time>
      </trkpt>
      <trkpt lat="43.66362" lon="1.39779">
        <ele>128</ele>
        <time>2025-05-13T17:31:19Z</time>
      </trkpt>
      <trkpt lat="43.66365" lon="1.39777">
        <ele>127</ele>
        <time>2025-05-13T17:31:20Z</time>
      </trkpt>
      <trkpt lat="43.66367" lon="1.39775">
        <ele>127</ele>
        <time>2025-05-13T17:31:21Z</time>
      </trkpt>
      <trkpt lat="43.6637" lon="1.39772">
        <ele>127</ele>
        <time>2025-05-13T17:31:22Z</time>
      </trkpt>
      <trkpt lat="43.66373" lon="1.39768">
        <ele>128</ele>
        <time>2025-05-13T17:31:23Z</time>
      </trkpt>
      <trkpt lat="43.66375" lon="1.39764">
        <ele>128</ele>
        <time>2025-05-13T17:31:24Z</time>
      </trkpt>
      <trkpt lat="43.66377" lon="1.39761">
        <ele>128</ele>
        <time>2025-05-13T17:31:25Z</time>
      </trkpt>
      <trkpt lat="43.66378" lon="1.39757">
        <ele>128</ele>
        <time>2025-05-13T17:31:26Z</time>
      </trkpt>
      <trkpt lat="43.66379" lon="1.39753">
        <ele>128</ele>
        <time>2025-05-13T17:31:27Z</time>
      </trkpt>
      <trkpt lat="43.66379" lon="1.39753">
        <ele>128</ele>
        <time>2025-05-13T17:31:28Z</time>
      </trkpt>
      <trkpt lat="43.6638" lon="1.39746">
        <ele>128</ele>
        <time>2025-05-13T17:31:29Z</time>
      </trkpt>
      <trkpt lat="43.66379" lon="1.39742">
        <ele>128</ele>
        <time>2025-05-13T17:31:30Z</time>
      </trkpt>
      <trkpt lat="43.66377" lon="1.39738">
        <ele>128</ele>
        <time>2025-05-13T17:31:31Z</time>
      </trkpt>
      <trkpt lat="43.66375" lon="1.39731">
        <ele>128</ele>
        <time>2025-05-13T17:31:32Z</time>
      </trkpt>
      <trkpt lat="43.66374" lon="1.39728">
        <ele>128</ele>
        <time>2025-05-13T17:31:33Z</time>
      </trkpt>
      <trkpt lat="43.66373" lon="1.39724">
        <ele>128</ele>
        <time>2025-05-13T17:31:34Z</time>
      </trkpt>
      <trkpt lat="43.66372" lon="1.3972">
        <ele>128</ele>
        <time>2025-05-13T17:31:35Z</time>
      </trkpt>
      <trkpt lat="43.66371" lon="1.39715">
        <ele>127</ele>
        <time>2025-05-13T17:31:36Z</time>
      </trkpt>
      <trkpt lat="43.66371" lon="1.3971">
        <ele>127</ele>
        <time>2025-05-13T17:31:37Z</time>
      </trkpt>
      <trkpt lat="43.66371" lon="1.39705">
        <ele>127</ele>
        <time>2025-05-13T17:31:38Z</time>
      </trkpt>
      <trkpt lat="43.66373" lon="1.39699">
        <ele>127</ele>
        <time>2025-05-13T17:31:39Z</time>
      </trkpt>
      <trkpt lat="43.66374" lon="1.39695">
        <ele>127</ele>
        <time>2025-05-13T17:31:40Z</time>
      </trkpt>
      <trkpt lat="43.66375" lon="1.3969">
        <ele>127</ele>
        <time>2025-05-13T17:31:41Z</time>
      </trkpt>
      <trkpt lat="43.66376" lon="1.39686">
        <ele>127</ele>
        <time>2025-05-13T17:31:42Z</time>
      </trkpt>
      <trkpt lat="43.66376" lon="1.39683">
        <ele>127</ele>
        <time>2025-05-13T17:31:43Z</time>
      </trkpt>
      <trkpt lat="43.66376" lon="1.3968">
        <ele>128</ele>
        <time>2025-05-13T17:31:44Z</time>
      </trkpt>
      <trkpt lat="43.66376" lon="1.3967">
        <ele>128</ele>
        <time>2025-05-13T17:31:45Z</time>
      </trkpt>
      <trkpt lat="43.66375" lon="1.39665">
        <ele>128</ele>
        <time>2025-05-13T17:31:46Z</time>
      </trkpt>
      <trkpt lat="43.66373" lon="1.39655">
        <ele>128</ele>
        <time>2025-05-13T17:31:48Z</time>
      </trkpt>
      <trkpt lat="43.6637" lon="1.39647">
        <ele>128</ele>
        <time>2025-05-13T17:31:49Z</time>
      </trkpt>
      <trkpt lat="43.6637" lon="1.39645">
        <ele>128</ele>
        <time>2025-05-13T17:31:50Z</time>
      </trkpt>
      <trkpt lat="43.66369" lon="1.39641">
        <ele>128</ele>
        <time>2025-05-13T17:31:51Z</time>
      </trkpt>
      <trkpt lat="43.66367" lon="1.39638">
        <ele>128</ele>
        <time>2025-05-13T17:31:52Z</time>
      </trkpt>
      <trkpt lat="43.66366" lon="1.39634">
        <ele>128</ele>
        <time>2025-05-13T17:31:53Z</time>
      </trkpt>
      <trkpt lat="43.66364" lon="1.39629">
        <ele>128</ele>
        <time>2025-05-13T17:31:54Z</time>
      </trkpt>
      <trkpt lat="43.66363" lon="1.39628">
        <ele>128</ele>
        <time>2025-05-13T17:31:55Z</time>
      </trkpt>
      <trkpt lat="43.66362" lon="1.39625">
        <ele>128</ele>
        <time>2025-05-13T17:31:56Z</time>
      </trkpt>
      <trkpt lat="43.66362" lon="1.39625">
        <ele>128</ele>
        <time>2025-05-13T17:31:57Z</time>
      </trkpt>
      <trkpt lat="43.66356" lon="1.3962">
        <ele>128</ele>
        <time>2025-05-13T17:31:58Z</time>
      </trkpt>
      <trkpt lat="43.66355" lon="1.3962">
        <ele>128</ele>
        <time>2025-05-13T17:31:59Z</time>
      </trkpt>
      <trkpt lat="43.66355" lon="1.3962">
        <ele>128</ele>
        <time>2025-05-13T17:32:00Z</time>
      </trkpt>
      <trkpt lat="43.66354" lon="1.39621">
        <ele>128</ele>
        <time>2025-05-13T17:32:01Z</time>
      </trkpt>
      <trkpt lat="43.66354" lon="1.39621">
        <ele>128</ele>
        <time>2025-05-13T17:32:02Z</time>
      </trkpt>
      <trkpt lat="43.66354" lon="1.39621">
        <ele>128</ele>
        <time>2025-05-13T17:32:03Z</time>
      </trkpt>
      <trkpt lat="43.66354" lon="1.39621">
        <ele>128</ele>
        <time>2025-05-13T17:32:04Z</time>
      </trkpt>
      <trkpt lat="43.66354" lon="1.39625">
        <ele>128</ele>
        <time>2025-05-13T17:32:05Z</time>
      </trkpt>
      <trkpt lat="43.66354" lon="1.39625">
        <ele>128</ele>
        <time>2025-05-13T17:32:06Z</time>
      </trkpt>
      <trkpt lat="43.66354" lon="1.39625">
        <ele>128</ele>
        <time>2025-05-13T17:32:07Z</time>
      </trkpt>
      <trkpt lat="43.66355" lon="1.39627">
        <ele>128</ele>
        <time>2025-05-13T17:32:08Z</time>
      </trkpt>
      <trkpt lat="43.66355" lon="1.39627">
        <ele>128</ele>
        <time>2025-05-13T17:32:09Z</time>
      </trkpt>
      <trkpt lat="43.66355" lon="1.39627">
        <ele>128</ele>
        <time>2025-05-13T17:32:10Z</time>
      </trkpt>
      <trkpt lat="43.66356" lon="1.3963">
        <ele>128</ele>
        <time>2025-05-13T17:32:11Z</time>
      </trkpt>
      <trkpt lat="43.66356" lon="1.3963">
        <ele>128</ele>
        <time>2025-05-13T17:32:12Z</time>
      </trkpt>
      <trkpt lat="43.66355" lon="1.39633">
        <ele>128</ele>
        <time>2025-05-13T17:32:13Z</time>
      </trkpt>
      <trkpt lat="43.66355" lon="1.39633">
        <ele>128</ele>
        <time>2025-05-13T17:32:14Z</time>
      </trkpt>
      <trkpt lat="43.66355" lon="1.39633">
        <ele>128</ele>
        <time>2025-05-13T17:32:15Z</time>
      </trkpt>
      <trkpt lat="43.66355" lon="1.39633">
        <ele>128</ele>
        <time>2025-05-13T17:32:16Z</time>
      </trkpt>
      <trkpt lat="43.66355" lon="1.39633">
        <ele>128</ele>
        <time>2025-05-13T17:32:17Z</time>
      </trkpt>
      <trkpt lat="43.66355" lon="1.39635">
        <ele>128</ele>
        <time>2025-05-13T17:32:18Z</time>
      </trkpt>
      <trkpt lat="43.66355" lon="1.39635">
        <ele>128</ele>
        <time>2025-05-13T17:32:19Z</time>
      </trkpt>
      <trkpt lat="43.66355" lon="1.39635">
        <ele>128</ele>
        <time>2025-05-13T17:32:20Z</time>
      </trkpt>
      <trkpt lat="43.66357" lon="1.39639">
        <ele>128</ele>
        <time>2025-05-13T17:32:21Z</time>
      </trkpt>
      <trkpt lat="43.66357" lon="1.39639">
        <ele>128</ele>
        <time>2025-05-13T17:32:22Z</time>
      </trkpt>
      <trkpt lat="43.66357" lon="1.39639">
        <ele>128</ele>
        <time>2025-05-13T17:32:23Z</time>
      </trkpt>
      <trkpt lat="43.66357" lon="1.39641">
        <ele>128</ele>
        <time>2025-05-13T17:32:24Z</time>
      </trkpt>
      <trkpt lat="43.66359" lon="1.39644">
        <ele>128</ele>
        <time>2025-05-13T17:32:26Z</time>
      </trkpt>
      <trkpt lat="43.66359" lon="1.39644">
        <ele>128</ele>
        <time>2025-05-13T17:32:27Z</time>
      </trkpt>
      <trkpt lat="43.66359" lon="1.39647">
        <ele>128</ele>
        <time>2025-05-13T17:32:28Z</time>
      </trkpt>
      <trkpt lat="43.66359" lon="1.39647">
        <ele>128</ele>
        <time>2025-05-13T17:32:29Z</time>
      </trkpt>
      <trkpt lat="43.6636" lon="1.3965">
        <ele>128</ele>
        <time>2025-05-13T17:32:30Z</time>
      </trkpt>
      <trkpt lat="43.6636" lon="1.3965">
        <ele>128</ele>
        <time>2025-05-13T17:32:31Z</time>
      </trkpt>
      <trkpt lat="43.66361" lon="1.39653">
        <ele>128</ele>
        <time>2025-05-13T17:32:32Z</time>
      </trkpt>
      <trkpt lat="43.66361" lon="1.39653">
        <ele>128</ele>
        <time>2025-05-13T17:32:33Z</time>
      </trkpt>
      <trkpt lat="43.66361" lon="1.39653">
        <ele>128</ele>
        <time>2025-05-13T17:32:34Z</time>
      </trkpt>
      <trkpt lat="43.66364" lon="1.39655">
        <ele>128</ele>
        <time>2025-05-13T17:32:35Z</time>
      </trkpt>
      <trkpt lat="43.66364" lon="1.39655">
        <ele>128</ele>
        <time>2025-05-13T17:32:36Z</time>
      </trkpt>
      <trkpt lat="43.66364" lon="1.39655">
        <ele>128</ele>
        <time>2025-05-13T17:32:37Z</time>
      </trkpt>
      <trkpt lat="43.66364" lon="1.39652">
        <ele>128</ele>
        <time>2025-05-13T17:32:38Z</time>
      </trkpt>
      <trkpt lat="43.66364" lon="1.39652">
        <ele>128</ele>
        <time>2025-05-13T17:32:39Z</time>
      </trkpt>
      <trkpt lat="43.66363" lon="1.39648">
        <ele>128</ele>
        <time>2025-05-13T17:32:40Z</time>
      </trkpt>
      <trkpt lat="43.66363" lon="1.39648">
        <ele>128</ele>
        <time>2025-05-13T17:32:41Z</time>
      </trkpt>
      <trkpt lat="43.66361" lon="1.39645">
        <ele>128</ele>
        <time>2025-05-13T17:32:42Z</time>
      </trkpt>
      <trkpt lat="43.66361" lon="1.39645">
        <ele>128</ele>
        <time>2025-05-13T17:32:43Z</time>
      </trkpt>
      <trkpt lat="43.6636" lon="1.39642">
        <ele>128</ele>
        <time>2025-05-13T17:32:44Z</time>
      </trkpt>
      <trkpt lat="43.6636" lon="1.39642">
        <ele>128</ele>
        <time>2025-05-13T17:32:45Z</time>
      </trkpt>
      <trkpt lat="43.66359" lon="1.39639">
        <ele>128</ele>
        <time>2025-05-13T17:32:46Z</time>
      </trkpt>
      <trkpt lat="43.66359" lon="1.39639">
        <ele>128</ele>
        <time>2025-05-13T17:32:47Z</time>
      </trkpt>
      <trkpt lat="43.66358" lon="1.39637">
        <ele>128</ele>
        <time>2025-05-13T17:32:48Z</time>
      </trkpt>
      <trkpt lat="43.66358" lon="1.39637">
        <ele>128</ele>
        <time>2025-05-13T17:32:49Z</time>
      </trkpt>
      <trkpt lat="43.66357" lon="1.39634">
        <ele>128</ele>
        <time>2025-05-13T17:32:50Z</time>
      </trkpt>
      <trkpt lat="43.66357" lon="1.39634">
        <ele>128</ele>
        <time>2025-05-13T17:32:51Z</time>
      </trkpt>
      <trkpt lat="43.66356" lon="1.39631">
        <ele>127</ele>
        <time>2025-05-13T17:32:52Z</time>
      </trkpt>
      <trkpt lat="43.66356" lon="1.39631">
        <ele>127</ele>
        <time>2025-05-13T17:32:53Z</time>
      </trkpt>
      <trkpt lat="43.66355" lon="1.39627">
        <ele>127</ele>
        <time>2025-05-13T17:32:54Z</time>
      </trkpt>
      <trkpt lat="43.66355" lon="1.39627">
        <ele>127</ele>
        <time>2025-05-13T17:32:55Z</time>
      </trkpt>
      <trkpt lat="43.66353" lon="1.39623">
        <ele>127</ele>
        <time>2025-05-13T17:32:56Z</time>
      </trkpt>
      <trkpt lat="43.66353" lon="1.39623">
        <ele>127</ele>
        <time>2025-05-13T17:32:57Z</time>
      </trkpt>
      <trkpt lat="43.66352" lon="1.3962">
        <ele>127</ele>
        <time>2025-05-13T17:32:58Z</time>
      </trkpt>
      <trkpt lat="43.66352" lon="1.3962">
        <ele>127</ele>
        <time>2025-05-13T17:32:59Z</time>
      </trkpt>
      <trkpt lat="43.66352" lon="1.39617">
        <ele>127</ele>
        <time>2025-05-13T17:33:00Z</time>
      </trkpt>
      <trkpt lat="43.66352" lon="1.39617">
        <ele>127</ele>
        <time>2025-05-13T17:33:01Z</time>
      </trkpt>
      <trkpt lat="43.66352" lon="1.39614">
        <ele>127</ele>
        <time>2025-05-13T17:33:02Z</time>
      </trkpt>
      <trkpt lat="43.66353" lon="1.39611">
        <ele>127</ele>
        <time>2025-05-13T17:33:04Z</time>
      </trkpt>
      <trkpt lat="43.66353" lon="1.39611">
        <ele>127</ele>
        <time>2025-05-13T17:33:05Z</time>
      </trkpt>
      <trkpt lat="43.66355" lon="1.39609">
        <ele>127</ele>
        <time>2025-05-13T17:33:06Z</time>
      </trkpt>
      <trkpt lat="43.66355" lon="1.39609">
        <ele>127</ele>
        <time>2025-05-13T17:33:07Z</time>
      </trkpt>
      <trkpt lat="43.66357" lon="1.39607">
        <ele>127</ele>
        <time>2025-05-13T17:33:08Z</time>
      </trkpt>
      <trkpt lat="43.66357" lon="1.39607">
        <ele>127</ele>
        <time>2025-05-13T17:33:09Z</time>
      </trkpt>
      <trkpt lat="43.66359" lon="1.39606">
        <ele>127</ele>
        <time>2025-05-13T17:33:10Z</time>
      </trkpt>
      <trkpt lat="43.66359" lon="1.39606">
        <ele>127</ele>
        <time>2025-05-13T17:33:11Z</time>
      </trkpt>
      <trkpt lat="43.66362" lon="1.39606">
        <ele>127</ele>
        <time>2025-05-13T17:33:12Z</time>
      </trkpt>
      <trkpt lat="43.66362" lon="1.39606">
        <ele>127</ele>
        <time>2025-05-13T17:33:13Z</time>
      </trkpt>
      <trkpt lat="43.66362" lon="1.39606">
        <ele>127</ele>
        <time>2025-05-13T17:33:14Z</time>
      </trkpt>
      <trkpt lat="43.66362" lon="1.39606">
        <ele>127</ele>
        <time>2025-05-13T17:33:15Z</time>
      </trkpt>
      <trkpt lat="43.66362" lon="1.39606">
        <ele>127</ele>
        <time>2025-05-13T17:33:16Z</time>
      </trkpt>
      <trkpt lat="43.66362" lon="1.39606">
        <ele>127</ele>
        <time>2025-05-13T17:33:17Z</time>
      </trkpt>
      <trkpt lat="43.66362" lon="1.39606">
        <ele>127</ele>
        <time>2025-05-13T17:33:18Z</time>
      </trkpt>
      <trkpt lat="43.66362" lon="1.39609">
        <ele>127</ele>
        <time>2025-05-13T17:33:19Z</time>
      </trkpt>
      <trkpt lat="43.66362" lon="1.39609">
        <ele>127</ele>
        <time>2025-05-13T17:33:20Z</time>
      </trkpt>
      <trkpt lat="43.66362" lon="1.39609">
        <ele>127</ele>
        <time>2025-05-13T17:33:21Z</time>
      </trkpt>
      <trkpt lat="43.66361" lon="1.39611">
        <ele>127</ele>
        <time>2025-05-13T17:33:22Z</time>
      </trkpt>
      <trkpt lat="43.66361" lon="1.39611">
        <ele>127</ele>
        <time>2025-05-13T17:33:23Z</time>
      </trkpt>
      <trkpt lat="43.66361" lon="1.39611">
        <ele>127</ele>
        <time>2025-05-13T17:33:24Z</time>
      </trkpt>
      <trkpt lat="43.66361" lon="1.39611">
        <ele>127</ele>
        <time>2025-05-13T17:33:25Z</time>
      </trkpt>
      <trkpt lat="43.66361" lon="1.39611">
        <ele>127</ele>
        <time>2025-05-13T17:33:26Z</time>
      </trkpt>
      <trkpt lat="43.66361" lon="1.39611">
        <ele>127</ele>
        <time>2025-05-13T17:33:27Z</time>
      </trkpt>
      <trkpt lat="43.66359" lon="1.39613">
        <ele>127</ele>
        <time>2025-05-13T17:33:28Z</time>
      </trkpt>
      <trkpt lat="43.66359" lon="1.39613">
        <ele>127</ele>
        <time>2025-05-13T17:33:29Z</time>
      </trkpt>
      <trkpt lat="43.66359" lon="1.39613">
        <ele>127</ele>
        <time>2025-05-13T17:33:30Z</time>
      </trkpt>
      <trkpt lat="43.66357" lon="1.39615">
        <ele>127</ele>
        <time>2025-05-13T17:33:31Z</time>
      </trkpt>
      <trkpt lat="43.66357" lon="1.39615">
        <ele>127</ele>
        <time>2025-05-13T17:33:32Z</time>
      </trkpt>
      <trkpt lat="43.66355" lon="1.39614">
        <ele>127</ele>
        <time>2025-05-13T17:33:33Z</time>
      </trkpt>
      <trkpt lat="43.66355" lon="1.39614">
        <ele>127</ele>
        <time>2025-05-13T17:33:34Z</time>
      </trkpt>
      <trkpt lat="43.66353" lon="1.39613">
        <ele>127</ele>
        <time>2025-05-13T17:33:35Z</time>
      </trkpt>
      <trkpt lat="43.66351" lon="1.39612">
        <ele>127</ele>
        <time>2025-05-13T17:33:36Z</time>
      </trkpt>
      <trkpt lat="43.66349" lon="1.39611">
        <ele>127</ele>
        <time>2025-05-13T17:33:37Z</time>
      </trkpt>
      <trkpt lat="43.66346" lon="1.39609">
        <ele>127</ele>
        <time>2025-05-13T17:33:38Z</time>
      </trkpt>
      <trkpt lat="43.66344" lon="1.39606">
        <ele>127</ele>
        <time>2025-05-13T17:33:39Z</time>
      </trkpt>
      <trkpt lat="43.66341" lon="1.39602">
        <ele>127</ele>
        <time>2025-05-13T17:33:40Z</time>
      </trkpt>
      <trkpt lat="43.66337" lon="1.39592">
        <ele>127</ele>
        <time>2025-05-13T17:33:42Z</time>
      </trkpt>
      <trkpt lat="43.66334" lon="1.39587">
        <ele>127</ele>
        <time>2025-05-13T17:33:43Z</time>
      </trkpt>
      <trkpt lat="43.6633" lon="1.3958">
        <ele>127</ele>
        <time>2025-05-13T17:33:44Z</time>
      </trkpt>
      <trkpt lat="43.66329" lon="1.39578">
        <ele>126</ele>
        <time>2025-05-13T17:33:45Z</time>
      </trkpt>
      <trkpt lat="43.66327" lon="1.39573">
        <ele>126</ele>
        <time>2025-05-13T17:33:46Z</time>
      </trkpt>
      <trkpt lat="43.66324" lon="1.39566">
        <ele>126</ele>
        <time>2025-05-13T17:33:47Z</time>
      </trkpt>
      <trkpt lat="43.66323" lon="1.39564">
        <ele>126</ele>
        <time>2025-05-13T17:33:48Z</time>
      </trkpt>
      <trkpt lat="43.66322" lon="1.39559">
        <ele>126</ele>
        <time>2025-05-13T17:33:49Z</time>
      </trkpt>
      <trkpt lat="43.6632" lon="1.39554">
        <ele>126</ele>
        <time>2025-05-13T17:33:50Z</time>
      </trkpt>
      <trkpt lat="43.6632" lon="1.39549">
        <ele>126</ele>
        <time>2025-05-13T17:33:51Z</time>
      </trkpt>
      <trkpt lat="43.66319" lon="1.39544">
        <ele>126</ele>
        <time>2025-05-13T17:33:52Z</time>
      </trkpt>
      <trkpt lat="43.66318" lon="1.39538">
        <ele>126</ele>
        <time>2025-05-13T17:33:53Z</time>
      </trkpt>
      <trkpt lat="43.66317" lon="1.39534">
        <ele>126</ele>
        <time>2025-05-13T17:33:54Z</time>
      </trkpt>
      <trkpt lat="43.66314" lon="1.39525">
        <ele>126</ele>
        <time>2025-05-13T17:33:56Z</time>
      </trkpt>
      <trkpt lat="43.66313" lon="1.3952">
        <ele>126</ele>
        <time>2025-05-13T17:33:57Z</time>
      </trkpt>
      <trkpt lat="43.66308" lon="1.39516">
        <ele>126</ele>
        <time>2025-05-13T17:33:58Z</time>
      </trkpt>
      <trkpt lat="43.66307" lon="1.39515">
        <ele>126</ele>
        <time>2025-05-13T17:33:59Z</time>
      </trkpt>
      <trkpt lat="43.66301" lon="1.39515">
        <ele>126</ele>
        <time>2025-05-13T17:34:01Z</time>
      </trkpt>
      <trkpt lat="43.66298" lon="1.39516">
        <ele>126</ele>
        <time>2025-05-13T17:34:02Z</time>
      </trkpt>
      <trkpt lat="43.66298" lon="1.39516">
        <ele>126</ele>
        <time>2025-05-13T17:34:03Z</time>
      </trkpt>
      <trkpt lat="43.66291" lon="1.39518">
        <ele>126</ele>
        <time>2025-05-13T17:34:04Z</time>
      </trkpt>
      <trkpt lat="43.66291" lon="1.39518">
        <ele>126</ele>
        <time>2025-05-13T17:34:05Z</time>
      </trkpt>
      <trkpt lat="43.66285" lon="1.39523">
        <ele>126</ele>
        <time>2025-05-13T17:34:06Z</time>
      </trkpt>
      <trkpt lat="43.66283" lon="1.39526">
        <ele>126</ele>
        <time>2025-05-13T17:34:07Z</time>
      </trkpt>
      <trkpt lat="43.6628" lon="1.39528">
        <ele>126</ele>
        <time>2025-05-13T17:34:08Z</time>
      </trkpt>
      <trkpt lat="43.66276" lon="1.39534">
        <ele>126</ele>
        <time>2025-05-13T17:34:09Z</time>
      </trkpt>
      <trkpt lat="43.66275" lon="1.39536">
        <ele>126</ele>
        <time>2025-05-13T17:34:10Z</time>
      </trkpt>
      <trkpt lat="43.66274" lon="1.39538">
        <ele>126</ele>
        <time>2025-05-13T17:34:11Z</time>
      </trkpt>
      <trkpt lat="43.66273" lon="1.39541">
        <ele>126</ele>
        <time>2025-05-13T17:34:12Z</time>
      </trkpt>
      <trkpt lat="43.66272" lon="1.39546">
        <ele>126</ele>
        <time>2025-05-13T17:34:13Z</time>
      </trkpt>
      <trkpt lat="43.66272" lon="1.3955">
        <ele>126</ele>
        <time>2025-05-13T17:34:14Z</time>
      </trkpt>
      <trkpt lat="43.66272" lon="1.39555">
        <ele>126</ele>
        <time>2025-05-13T17:34:15Z</time>
      </trkpt>
      <trkpt lat="43.66272" lon="1.39555">
        <ele>126</ele>
        <time>2025-05-13T17:34:16Z</time>
      </trkpt>
      <trkpt lat="43.66272" lon="1.39555">
        <ele>126</ele>
        <time>2025-05-13T17:34:17Z</time>
      </trkpt>
      <trkpt lat="43.66272" lon="1.39555">
        <ele>122</ele>
        <time>2025-05-13T17:34:18Z</time>
      </trkpt>
      <trkpt lat="43.66277" lon="1.39567">
        <ele>122</ele>
        <time>2025-05-13T17:34:20Z</time>
      </trkpt>
      <trkpt lat="43.66281" lon="1.39572">
        <ele>122</ele>
        <time>2025-05-13T17:34:21Z</time>
      </trkpt>
      <trkpt lat="43.66284" lon="1.39576">
        <ele>126</ele>
        <time>2025-05-13T17:34:22Z</time>
      </trkpt>
      <trkpt lat="43.66287" lon="1.39579">
        <ele>126</ele>
        <time>2025-05-13T17:34:23Z</time>
      </trkpt>
      <trkpt lat="43.6629" lon="1.39583">
        <ele>126</ele>
        <time>2025-05-13T17:34:24Z</time>
      </trkpt>
      <trkpt lat="43.66292" lon="1.39586">
        <ele>126</ele>
        <time>2025-05-13T17:34:25Z</time>
      </trkpt>
      <trkpt lat="43.66296" lon="1.39589">
        <ele>126</ele>
        <time>2025-05-13T17:34:26Z</time>
      </trkpt>
      <trkpt lat="43.663" lon="1.39593">
        <ele>126</ele>
        <time>2025-05-13T17:34:27Z</time>
      </trkpt>
      <trkpt lat="43.66304" lon="1.39599">
        <ele>126</ele>
        <time>2025-05-13T17:34:28Z</time>
      </trkpt>
      <trkpt lat="43.66306" lon="1.39601">
        <ele>126</ele>
        <time>2025-05-13T17:34:29Z</time>
      </trkpt>
      <trkpt lat="43.66309" lon="1.39608">
        <ele>126</ele>
        <time>2025-05-13T17:34:30Z</time>
      </trkpt>
      <trkpt lat="43.6631" lon="1.39611">
        <ele>127</ele>
        <time>2025-05-13T17:34:31Z</time>
      </trkpt>
      <trkpt lat="43.66312" lon="1.39616">
        <ele>127</ele>
        <time>2025-05-13T17:34:32Z</time>
      </trkpt>
      <trkpt lat="43.66312" lon="1.39616">
        <ele>127</ele>
        <time>2025-05-13T17:34:33Z</time>
      </trkpt>
      <trkpt lat="43.66312" lon="1.3962">
        <ele>127</ele>
        <time>2025-05-13T17:34:34Z</time>
      </trkpt>
      <trkpt lat="43.66313" lon="1.39624">
        <ele>127</ele>
        <time>2025-05-13T17:34:35Z</time>
      </trkpt>
      <trkpt lat="43.66316" lon="1.39637">
        <ele>127</ele>
        <time>2025-05-13T17:34:36Z</time>
      </trkpt>
      <trkpt lat="43.66317" lon="1.39644">
        <ele>127</ele>
        <time>2025-05-13T17:34:37Z</time>
      </trkpt>
      <trkpt lat="43.66318" lon="1.3965">
        <ele>127</ele>
        <time>2025-05-13T17:34:39Z</time>
      </trkpt>
      <trkpt lat="43.66319" lon="1.39656">
        <ele>127</ele>
        <time>2025-05-13T17:34:40Z</time>
      </trkpt>
      <trkpt lat="43.66321" lon="1.39664">
        <ele>127</ele>
        <time>2025-05-13T17:34:41Z</time>
      </trkpt>
      <trkpt lat="43.66322" lon="1.39666">
        <ele>127</ele>
        <time>2025-05-13T17:34:42Z</time>
      </trkpt>
      <trkpt lat="43.66324" lon="1.39671">
        <ele>126</ele>
        <time>2025-05-13T17:34:43Z</time>
      </trkpt>
      <trkpt lat="43.66326" lon="1.39677">
        <ele>126</ele>
        <time>2025-05-13T17:34:44Z</time>
      </trkpt>
      <trkpt lat="43.66327" lon="1.39682">
        <ele>126</ele>
        <time>2025-05-13T17:34:45Z</time>
      </trkpt>
      <trkpt lat="43.66329" lon="1.39687">
        <ele>126</ele>
        <time>2025-05-13T17:34:46Z</time>
      </trkpt>
      <trkpt lat="43.66329" lon="1.39687">
        <ele>126</ele>
        <time>2025-05-13T17:34:47Z</time>
      </trkpt>
      <trkpt lat="43.6633" lon="1.39692">
        <ele>126</ele>
        <time>2025-05-13T17:34:48Z</time>
      </trkpt>
      <trkpt lat="43.66331" lon="1.39697">
        <ele>127</ele>
        <time>2025-05-13T17:34:49Z</time>
      </trkpt>
      <trkpt lat="43.66333" lon="1.39706">
        <ele>127</ele>
        <time>2025-05-13T17:34:50Z</time>
      </trkpt>
      <trkpt lat="43.66334" lon="1.39711">
        <ele>127</ele>
        <time>2025-05-13T17:34:51Z</time>
      </trkpt>
      <trkpt lat="43.66334" lon="1.39716">
        <ele>127</ele>
        <time>2025-05-13T17:34:52Z</time>
      </trkpt>
      <trkpt lat="43.66335" lon="1.3972">
        <ele>127</ele>
        <time>2025-05-13T17:34:53Z</time>
      </trkpt>
      <trkpt lat="43.66336" lon="1.39725">
        <ele>127</ele>
        <time>2025-05-13T17:34:54Z</time>
      </trkpt>
      <trkpt lat="43.66336" lon="1.3973">
        <ele>128</ele>
        <time>2025-05-13T17:34:55Z</time>
      </trkpt>
      <trkpt lat="43.66337" lon="1.39734">
        <ele>128</ele>
        <time>2025-05-13T17:34:56Z</time>
      </trkpt>
      <trkpt lat="43.66338" lon="1.39739">
        <ele>128</ele>
        <time>2025-05-13T17:34:58Z</time>
      </trkpt>
      <trkpt lat="43.66339" lon="1.39745">
        <ele>128</ele>
        <time>2025-05-13T17:34:59Z</time>
      </trkpt>
      <trkpt lat="43.6634" lon="1.3975">
        <ele>127</ele>
        <time>2025-05-13T17:35:00Z</time>
      </trkpt>
      <trkpt lat="43.66341" lon="1.39755">
        <ele>127</ele>
        <time>2025-05-13T17:35:01Z</time>
      </trkpt>
      <trkpt lat="43.66342" lon="1.3976">
        <ele>127</ele>
        <time>2025-05-13T17:35:02Z</time>
      </trkpt>
      <trkpt lat="43.66344" lon="1.3977">
        <ele>127</ele>
        <time>2025-05-13T17:35:03Z</time>
      </trkpt>
      <trkpt lat="43.66344" lon="1.3977">
        <ele>127</ele>
        <time>2025-05-13T17:35:04Z</time>
      </trkpt>
      <trkpt lat="43.66344" lon="1.3977">
        <ele>127</ele>
        <time>2025-05-13T17:35:05Z</time>
      </trkpt>
      <trkpt lat="43.66349" lon="1.39783">
        <ele>127</ele>
        <time>2025-05-13T17:35:06Z</time>
      </trkpt>
      <trkpt lat="43.66349" lon="1.39783">
        <ele>126</ele>
        <time>2025-05-13T17:35:08Z</time>
      </trkpt>
      <trkpt lat="43.66355" lon="1.39787">
        <ele>126</ele>
        <time>2025-05-13T17:35:09Z</time>
      </trkpt>
      <trkpt lat="43.66355" lon="1.39787">
        <ele>126</ele>
        <time>2025-05-13T17:35:10Z</time>
      </trkpt>
      <trkpt lat="43.66355" lon="1.39787">
        <ele>126</ele>
        <time>2025-05-13T17:35:11Z</time>
      </trkpt>
      <trkpt lat="43.66358" lon="1.39786">
        <ele>126</ele>
        <time>2025-05-13T17:35:12Z</time>
      </trkpt>
      <trkpt lat="43.66358" lon="1.39786">
        <ele>126</ele>
        <time>2025-05-13T17:35:13Z</time>
      </trkpt>
      <trkpt lat="43.66363" lon="1.39782">
        <ele>126</ele>
        <time>2025-05-13T17:35:14Z</time>
      </trkpt>
      <trkpt lat="43.66365" lon="1.3978">
        <ele>126</ele>
        <time>2025-05-13T17:35:15Z</time>
      </trkpt>
      <trkpt lat="43.66373" lon="1.39769">
        <ele>126</ele>
        <time>2025-05-13T17:35:17Z</time>
      </trkpt>
      <trkpt lat="43.66375" lon="1.39766">
        <ele>126</ele>
        <time>2025-05-13T17:35:18Z</time>
      </trkpt>
      <trkpt lat="43.66377" lon="1.39761">
        <ele>126</ele>
        <time>2025-05-13T17:35:19Z</time>
      </trkpt>
      <trkpt lat="43.66378" lon="1.39753">
        <ele>126</ele>
        <time>2025-05-13T17:35:20Z</time>
      </trkpt>
      <trkpt lat="43.66377" lon="1.3975">
        <ele>126</ele>
        <time>2025-05-13T17:35:21Z</time>
      </trkpt>
      <trkpt lat="43.66377" lon="1.39747">
        <ele>126</ele>
        <time>2025-05-13T17:35:22Z</time>
      </trkpt>
      <trkpt lat="43.66377" lon="1.39742">
        <ele>126</ele>
        <time>2025-05-13T17:35:23Z</time>
      </trkpt>
      <trkpt lat="43.66376" lon="1.39736">
        <ele>126</ele>
        <time>2025-05-13T17:35:24Z</time>
      </trkpt>
      <trkpt lat="43.66374" lon="1.39728">
        <ele>126</ele>
        <time>2025-05-13T17:35:25Z</time>
      </trkpt>
      <trkpt lat="43.66374" lon="1.39726">
        <ele>122</ele>
        <time>2025-05-13T17:35:26Z</time>
      </trkpt>
      <trkpt lat="43.66372" lon="1.39717">
        <ele>122</ele>
        <time>2025-05-13T17:35:27Z</time>
      </trkpt>
      <trkpt lat="43.66372" lon="1.39715">
        <ele>122</ele>
        <time>2025-05-13T17:35:28Z</time>
      </trkpt>
      <trkpt lat="43.66372" lon="1.3971">
        <ele>122</ele>
        <time>2025-05-13T17:35:29Z</time>
      </trkpt>
      <trkpt lat="43.66371" lon="1.39707">
        <ele>122</ele>
        <time>2025-05-13T17:35:30Z</time>
      </trkpt>
      <trkpt lat="43.66371" lon="1.39703">
        <ele>122</ele>
        <time>2025-05-13T17:35:31Z</time>
      </trkpt>
      <trkpt lat="43.66371" lon="1.397">
        <ele>122</ele>
        <time>2025-05-13T17:35:32Z</time>
      </trkpt>
      <trkpt lat="43.66371" lon="1.39696">
        <ele>122</ele>
        <time>2025-05-13T17:35:33Z</time>
      </trkpt>
      <trkpt lat="43.66373" lon="1.39686">
        <ele>122</ele>
        <time>2025-05-13T17:35:34Z</time>
      </trkpt>
      <trkpt lat="43.66374" lon="1.39681">
        <ele>122</ele>
        <time>2025-05-13T17:35:35Z</time>
      </trkpt>
      <trkpt lat="43.66374" lon="1.39676">
        <ele>126</ele>
        <time>2025-05-13T17:35:36Z</time>
      </trkpt>
      <trkpt lat="43.66374" lon="1.39671">
        <ele>126</ele>
        <time>2025-05-13T17:35:37Z</time>
      </trkpt>
      <trkpt lat="43.66373" lon="1.39666">
        <ele>126</ele>
        <time>2025-05-13T17:35:38Z</time>
      </trkpt>
      <trkpt lat="43.66373" lon="1.39666">
        <ele>126</ele>
        <time>2025-05-13T17:35:39Z</time>
      </trkpt>
      <trkpt lat="43.66372" lon="1.3966">
        <ele>126</ele>
        <time>2025-05-13T17:35:40Z</time>
      </trkpt>
      <trkpt lat="43.6637" lon="1.39653">
        <ele>126</ele>
        <time>2025-05-13T17:35:41Z</time>
      </trkpt>
      <trkpt lat="43.66369" lon="1.39647">
        <ele>126</ele>
        <time>2025-05-13T17:35:42Z</time>
      </trkpt>
      <trkpt lat="43.66368" lon="1.39644">
        <ele>126</ele>
        <time>2025-05-13T17:35:43Z</time>
      </trkpt>
      <trkpt lat="43.66366" lon="1.3964">
        <ele>126</ele>
        <time>2025-05-13T17:35:44Z</time>
      </trkpt>
      <trkpt lat="43.66365" lon="1.39635">
        <ele>126</ele>
        <time>2025-05-13T17:35:45Z</time>
      </trkpt>
      <trkpt lat="43.66365" lon="1.39631">
        <ele>126</ele>
        <time>2025-05-13T17:35:46Z</time>
      </trkpt>
      <trkpt lat="43.66363" lon="1.39627">
        <ele>126</ele>
        <time>2025-05-13T17:35:47Z</time>
      </trkpt>
      <trkpt lat="43.66362" lon="1.39624">
        <ele>126</ele>
        <time>2025-05-13T17:35:48Z</time>
      </trkpt>
      <trkpt lat="43.6636" lon="1.39621">
        <ele>126</ele>
        <time>2025-05-13T17:35:49Z</time>
      </trkpt>
      <trkpt lat="43.66359" lon="1.3962">
        <ele>126</ele>
        <time>2025-05-13T17:35:50Z</time>
      </trkpt>
      <trkpt lat="43.66358" lon="1.39619">
        <ele>126</ele>
        <time>2025-05-13T17:35:51Z</time>
      </trkpt>
      <trkpt lat="43.66357" lon="1.39617">
        <ele>127</ele>
        <time>2025-05-13T17:35:52Z</time>
      </trkpt>
      <trkpt lat="43.66355" lon="1.39616">
        <ele>127</ele>
        <time>2025-05-13T17:35:53Z</time>
      </trkpt>
      <trkpt lat="43.66354" lon="1.39615">
        <ele>127</ele>
        <time>2025-05-13T17:35:54Z</time>
      </trkpt>
      <trkpt lat="43.66352" lon="1.39614">
        <ele>126</ele>
        <time>2025-05-13T17:35:55Z</time>
      </trkpt>
      <trkpt lat="43.6635" lon="1.39613">
        <ele>126</ele>
        <time>2025-05-13T17:35:56Z</time>
      </trkpt>
      <trkpt lat="43.6635" lon="1.39613">
        <ele>126</ele>
        <time>2025-05-13T17:35:57Z</time>
      </trkpt>
      <trkpt lat="43.66348" lon="1.39611">
        <ele>126</ele>
        <time>2025-05-13T17:35:58Z</time>
      </trkpt>
      <trkpt lat="43.66348" lon="1.39611">
        <ele>126</ele>
        <time>2025-05-13T17:35:59Z</time>
      </trkpt>
      <trkpt lat="43.66347" lon="1.39608">
        <ele>126</ele>
        <time>2025-05-13T17:36:00Z</time>
      </trkpt>
      <trkpt lat="43.66347" lon="1.39608">
        <ele>126</ele>
        <time>2025-05-13T17:36:01Z</time>
      </trkpt>
      <trkpt lat="43.66346" lon="1.39606">
        <ele>126</ele>
        <time>2025-05-13T17:36:02Z</time>
      </trkpt>
      <trkpt lat="43.66346" lon="1.39606">
        <ele>126</ele>
        <time>2025-05-13T17:36:03Z</time>
      </trkpt>
      <trkpt lat="43.66345" lon="1.39604">
        <ele>126</ele>
        <time>2025-05-13T17:36:04Z</time>
      </trkpt>
      <trkpt lat="43.66345" lon="1.39604">
        <ele>126</ele>
        <time>2025-05-13T17:36:05Z</time>
      </trkpt>
      <trkpt lat="43.66343" lon="1.39601">
        <ele>126</ele>
        <time>2025-05-13T17:36:06Z</time>
      </trkpt>
      <trkpt lat="43.66341" lon="1.39598">
        <ele>126</ele>
        <time>2025-05-13T17:36:08Z</time>
      </trkpt>
      <trkpt lat="43.66341" lon="1.39598">
        <ele>126</ele>
        <time>2025-05-13T17:36:09Z</time>
      </trkpt>
      <trkpt lat="43.66338" lon="1.39598">
        <ele>126</ele>
        <time>2025-05-13T17:36:10Z</time>
      </trkpt>
      <trkpt lat="43.66338" lon="1.39598">
        <ele>126</ele>
        <time>2025-05-13T17:36:11Z</time>
      </trkpt>
      <trkpt lat="43.66338" lon="1.39598">
        <ele>126</ele>
        <time>2025-05-13T17:36:12Z</time>
      </trkpt>
      <trkpt lat="43.66338" lon="1.39598">
        <ele>122</ele>
        <time>2025-05-13T17:36:14Z</time>
      </trkpt>
      <trkpt lat="43.66339" lon="1.39603">
        <ele>122</ele>
        <time>2025-05-13T17:36:15Z</time>
      </trkpt>
      <trkpt lat="43.66339" lon="1.39603">
        <ele>122</ele>
        <time>2025-05-13T17:36:16Z</time>
      </trkpt>
      <trkpt lat="43.66342" lon="1.39603">
        <ele>122</ele>
        <time>2025-05-13T17:36:17Z</time>
      </trkpt>
      <trkpt lat="43.66342" lon="1.39603">
        <ele>122</ele>
        <time>2025-05-13T17:36:18Z</time>
      </trkpt>
      <trkpt lat="43.66343" lon="1.39606">
        <ele>122</ele>
        <time>2025-05-13T17:36:19Z</time>
      </trkpt>
      <trkpt lat="43.66343" lon="1.39606">
        <ele>122</ele>
        <time>2025-05-13T17:36:20Z</time>
      </trkpt>
      <trkpt lat="43.66345" lon="1.39607">
        <ele>122</ele>
        <time>2025-05-13T17:36:21Z</time>
      </trkpt>
      <trkpt lat="43.66345" lon="1.39607">
        <ele>122</ele>
        <time>2025-05-13T17:36:22Z</time>
      </trkpt>
      <trkpt lat="43.66345" lon="1.39607">
        <ele>122</ele>
        <time>2025-05-13T17:36:23Z</time>
      </trkpt>
      <trkpt lat="43.66347" lon="1.39609">
        <ele>122</ele>
        <time>2025-05-13T17:36:24Z</time>
      </trkpt>
      <trkpt lat="43.66347" lon="1.39609">
        <ele>122</ele>
        <time>2025-05-13T17:36:25Z</time>
      </trkpt>
      <trkpt lat="43.66349" lon="1.39612">
        <ele>122</ele>
        <time>2025-05-13T17:36:26Z</time>
      </trkpt>
      <trkpt lat="43.66349" lon="1.39612">
        <ele>122</ele>
        <time>2025-05-13T17:36:27Z</time>
      </trkpt>
      <trkpt lat="43.66351" lon="1.39613">
        <ele>122</ele>
        <time>2025-05-13T17:36:28Z</time>
      </trkpt>
      <trkpt lat="43.66351" lon="1.39613">
        <ele>122</ele>
        <time>2025-05-13T17:36:29Z</time>
      </trkpt>
      <trkpt lat="43.66353" lon="1.39616">
        <ele>122</ele>
        <time>2025-05-13T17:36:30Z</time>
      </trkpt>
      <trkpt lat="43.66353" lon="1.39616">
        <ele>122</ele>
        <time>2025-05-13T17:36:31Z</time>
      </trkpt>
      <trkpt lat="43.66355" lon="1.39618">
        <ele>122</ele>
        <time>2025-05-13T17:36:33Z</time>
      </trkpt>
      <trkpt lat="43.66355" lon="1.39618">
        <ele>122</ele>
        <time>2025-05-13T17:36:34Z</time>
      </trkpt>
      <trkpt lat="43.66357" lon="1.39619">
        <ele>122</ele>
        <time>2025-05-13T17:36:35Z</time>
      </trkpt>
      <trkpt lat="43.66357" lon="1.39619">
        <ele>122</ele>
        <time>2025-05-13T17:36:36Z</time>
      </trkpt>
      <trkpt lat="43.66358" lon="1.39616">
        <ele>122</ele>
        <time>2025-05-13T17:36:37Z</time>
      </trkpt>
      <trkpt lat="43.66358" lon="1.39616">
        <ele>122</ele>
        <time>2025-05-13T17:36:38Z</time>
      </trkpt>
      <trkpt lat="43.66358" lon="1.39616">
        <ele>122</ele>
        <time>2025-05-13T17:36:39Z</time>
      </trkpt>
      <trkpt lat="43.66358" lon="1.39616">
        <ele>122</ele>
        <time>2025-05-13T17:36:40Z</time>
      </trkpt>
      <trkpt lat="43.66357" lon="1.39612">
        <ele>122</ele>
        <time>2025-05-13T17:36:41Z</time>
      </trkpt>
      <trkpt lat="43.66357" lon="1.39612">
        <ele>122</ele>
        <time>2025-05-13T17:36:42Z</time>
      </trkpt>
      <trkpt lat="43.66357" lon="1.39612">
        <ele>126</ele>
        <time>2025-05-13T17:36:43Z</time>
      </trkpt>
      <trkpt lat="43.66357" lon="1.39612">
        <ele>126</ele>
        <time>2025-05-13T17:36:44Z</time>
      </trkpt>
      <trkpt lat="43.66357" lon="1.39612">
        <ele>126</ele>
        <time>2025-05-13T17:36:45Z</time>
      </trkpt>
      <trkpt lat="43.66357" lon="1.39612">
        <ele>126</ele>
        <time>2025-05-13T17:36:46Z</time>
      </trkpt>
      <trkpt lat="43.66357" lon="1.39612">
        <ele>126</ele>
        <time>2025-05-13T17:36:47Z</time>
      </trkpt>
      <trkpt lat="43.66357" lon="1.39612">
        <ele>126</ele>
        <time>2025-05-13T17:36:48Z</time>
      </trkpt>
      <trkpt lat="43.66357" lon="1.39612">
        <ele>126</ele>
        <time>2025-05-13T17:36:49Z</time>
      </trkpt>
      <trkpt lat="43.66358" lon="1.3961">
        <ele>126</ele>
        <time>2025-05-13T17:36:50Z</time>
      </trkpt>
      <trkpt lat="43.66358" lon="1.3961">
        <ele>126</ele>
        <time>2025-05-13T17:36:52Z</time>
      </trkpt>
      <trkpt lat="43.66358" lon="1.3961">
        <ele>126</ele>
        <time>2025-05-13T17:36:53Z</time>
      </trkpt>
      <trkpt lat="43.66358" lon="1.3961">
        <ele>126</ele>
        <time>2025-05-13T17:36:54Z</time>
      </trkpt>
      <trkpt lat="43.6636" lon="1.3961">
        <ele>126</ele>
        <time>2025-05-13T17:36:55Z</time>
      </trkpt>
      <trkpt lat="43.6636" lon="1.3961">
        <ele>126</ele>
        <time>2025-05-13T17:36:56Z</time>
      </trkpt>
      <trkpt lat="43.6636" lon="1.3961">
        <ele>126</ele>
        <time>2025-05-13T17:36:57Z</time>
      </trkpt>
      <trkpt lat="43.66363" lon="1.39608">
        <ele>126</ele>
        <time>2025-05-13T17:36:58Z</time>
      </trkpt>
      <trkpt lat="43.66363" lon="1.39608">
        <ele>126</ele>
        <time>2025-05-13T17:36:59Z</time>
      </trkpt>
      <trkpt lat="43.66364" lon="1.39606">
        <ele>126</ele>
        <time>2025-05-13T17:37:00Z</time>
      </trkpt>
      <trkpt lat="43.66364" lon="1.39606">
        <ele>126</ele>
        <time>2025-05-13T17:37:01Z</time>
      </trkpt>
      <trkpt lat="43.66366" lon="1.39605">
        <ele>126</ele>
        <time>2025-05-13T17:37:02Z</time>
      </trkpt>
      <trkpt lat="43.66366" lon="1.39605">
        <ele>126</ele>
        <time>2025-05-13T17:37:03Z</time>
      </trkpt>
      <trkpt lat="43.66366" lon="1.39605">
        <ele>126</ele>
        <time>2025-05-13T17:37:04Z</time>
      </trkpt>
      <trkpt lat="43.66366" lon="1.39605">
        <ele>126</ele>
        <time>2025-05-13T17:37:05Z</time>
      </trkpt>
      <trkpt lat="43.66366" lon="1.39605">
        <ele>126</ele>
        <time>2025-05-13T17:37:06Z</time>
      </trkpt>
      <trkpt lat="43.66366" lon="1.39605">
        <ele>126</ele>
        <time>2025-05-13T17:37:07Z</time>
      </trkpt>
      <trkpt lat="43.66366" lon="1.39605">
        <ele>126</ele>
        <time>2025-05-13T17:37:08Z</time>
      </trkpt>
      <trkpt lat="43.66366" lon="1.39605">
        <ele>126</ele>
        <time>2025-05-13T17:37:09Z</time>
      </trkpt>
      <trkpt lat="43.66366" lon="1.39605">
        <ele>126</ele>
        <time>2025-05-13T17:37:11Z</time>
      </trkpt>
      <trkpt lat="43.66366" lon="1.39605">
        <ele>126</ele>
        <time>2025-05-13T17:37:12Z</time>
      </trkpt>
      <trkpt lat="43.66366" lon="1.39609">
        <ele>126</ele>
        <time>2025-05-13T17:37:13Z</time>
      </trkpt>
      <trkpt lat="43.66366" lon="1.39609">
        <ele>126</ele>
        <time>2025-05-13T17:37:14Z</time>
      </trkpt>
      <trkpt lat="43.66368" lon="1.39613">
        <ele>126</ele>
        <time>2025-05-13T17:37:15Z</time>
      </trkpt>
      <trkpt lat="43.66368" lon="1.39613">
        <ele>126</ele>
        <time>2025-05-13T17:37:16Z</time>
      </trkpt>
      <trkpt lat="43.66367" lon="1.39616">
        <ele>126</ele>
        <time>2025-05-13T17:37:17Z</time>
      </trkpt>
      <trkpt lat="43.66367" lon="1.39616">
        <ele>126</ele>
        <time>2025-05-13T17:37:18Z</time>
      </trkpt>
      <trkpt lat="43.66364" lon="1.39616">
        <ele>126</ele>
        <time>2025-05-13T17:37:19Z</time>
      </trkpt>
      <trkpt lat="43.66364" lon="1.39616">
        <ele>126</ele>
        <time>2025-05-13T17:37:20Z</time>
      </trkpt>
      <trkpt lat="43.66361" lon="1.39615">
        <ele>126</ele>
        <time>2025-05-13T17:37:21Z</time>
      </trkpt>
      <trkpt lat="43.66361" lon="1.39615">
        <ele>126</ele>
        <time>2025-05-13T17:37:22Z</time>
      </trkpt>
      <trkpt lat="43.66359" lon="1.39615">
        <ele>126</ele>
        <time>2025-05-13T17:37:23Z</time>
      </trkpt>
      <trkpt lat="43.66359" lon="1.39615">
        <ele>126</ele>
        <time>2025-05-13T17:37:24Z</time>
      </trkpt>
      <trkpt lat="43.66357" lon="1.39615">
        <ele>126</ele>
        <time>2025-05-13T17:37:25Z</time>
      </trkpt>
      <trkpt lat="43.66356" lon="1.39614">
        <ele>126</ele>
        <time>2025-05-13T17:37:26Z</time>
      </trkpt>
      <trkpt lat="43.66355" lon="1.39613">
        <ele>126</ele>
        <time>2025-05-13T17:37:27Z</time>
      </trkpt>
      <trkpt lat="43.66354" lon="1.39612">
        <ele>126</ele>
        <time>2025-05-13T17:37:28Z</time>
      </trkpt>
      <trkpt lat="43.66352" lon="1.39612">
        <ele>122</ele>
        <time>2025-05-13T17:37:29Z</time>
      </trkpt>
      <trkpt lat="43.66351" lon="1.39611">
        <ele>126</ele>
        <time>2025-05-13T17:37:30Z</time>
      </trkpt>
      <trkpt lat="43.66346" lon="1.39604">
        <ele>126</ele>
        <time>2025-05-13T17:37:31Z</time>
      </trkpt>
      <trkpt lat="43.66344" lon="1.39601">
        <ele>126</ele>
        <time>2025-05-13T17:37:32Z</time>
      </trkpt>
      <trkpt lat="43.66342" lon="1.39598">
        <ele>126</ele>
        <time>2025-05-13T17:37:33Z</time>
      </trkpt>
      <trkpt lat="43.66339" lon="1.39592">
        <ele>126</ele>
        <time>2025-05-13T17:37:34Z</time>
      </trkpt>
      <trkpt lat="43.66337" lon="1.39587">
        <ele>122</ele>
        <time>2025-05-13T17:37:35Z</time>
      </trkpt>
      <trkpt lat="43.66334" lon="1.39582">
        <ele>123</ele>
        <time>2025-05-13T17:37:36Z</time>
      </trkpt>
      <trkpt lat="43.6633" lon="1.39575">
        <ele>123</ele>
        <time>2025-05-13T17:37:37Z</time>
      </trkpt>
      <trkpt lat="43.66329" lon="1.39572">
        <ele>123</ele>
        <time>2025-05-13T17:37:38Z</time>
      </trkpt>
      <trkpt lat="43.66326" lon="1.39567">
        <ele>123</ele>
        <time>2025-05-13T17:37:39Z</time>
      </trkpt>
      <trkpt lat="43.66324" lon="1.39562">
        <ele>123</ele>
        <time>2025-05-13T17:37:40Z</time>
      </trkpt>
      <trkpt lat="43.66322" lon="1.39557">
        <ele>123</ele>
        <time>2025-05-13T17:37:41Z</time>
      </trkpt>
      <trkpt lat="43.6632" lon="1.39551">
        <ele>123</ele>
        <time>2025-05-13T17:37:42Z</time>
      </trkpt>
      <trkpt lat="43.66319" lon="1.39546">
        <ele>122</ele>
        <time>2025-05-13T17:37:43Z</time>
      </trkpt>
      <trkpt lat="43.66316" lon="1.39537">
        <ele>123</ele>
        <time>2025-05-13T17:37:45Z</time>
      </trkpt>
      <trkpt lat="43.66313" lon="1.39529">
        <ele>122</ele>
        <time>2025-05-13T17:37:46Z</time>
      </trkpt>
      <trkpt lat="43.66312" lon="1.39527">
        <ele>122</ele>
        <time>2025-05-13T17:37:47Z</time>
      </trkpt>
      <trkpt lat="43.6631" lon="1.39523">
        <ele>122</ele>
        <time>2025-05-13T17:37:48Z</time>
      </trkpt>
      <trkpt lat="43.6631" lon="1.39523">
        <ele>123</ele>
        <time>2025-05-13T17:37:49Z</time>
      </trkpt>
      <trkpt lat="43.66305" lon="1.39518">
        <ele>123</ele>
        <time>2025-05-13T17:37:50Z</time>
      </trkpt>
      <trkpt lat="43.66303" lon="1.39517">
        <ele>123</ele>
        <time>2025-05-13T17:37:51Z</time>
      </trkpt>
      <trkpt lat="43.663" lon="1.39517">
        <ele>123</ele>
        <time>2025-05-13T17:37:52Z</time>
      </trkpt>
      <trkpt lat="43.66298" lon="1.39518">
        <ele>123</ele>
        <time>2025-05-13T17:37:53Z</time>
      </trkpt>
      <trkpt lat="43.66296" lon="1.39518">
        <ele>123</ele>
        <time>2025-05-13T17:37:54Z</time>
      </trkpt>
      <trkpt lat="43.66294" lon="1.39518">
        <ele>123</ele>
        <time>2025-05-13T17:37:55Z</time>
      </trkpt>
      <trkpt lat="43.66292" lon="1.39518">
        <ele>123</ele>
        <time>2025-05-13T17:37:56Z</time>
      </trkpt>
      <trkpt lat="43.6629" lon="1.39519">
        <ele>123</ele>
        <time>2025-05-13T17:37:57Z</time>
      </trkpt>
      <trkpt lat="43.66286" lon="1.39523">
        <ele>122</ele>
        <time>2025-05-13T17:37:58Z</time>
      </trkpt>
      <trkpt lat="43.66282" lon="1.39527">
        <ele>122</ele>
        <time>2025-05-13T17:37:59Z</time>
      </trkpt>
      <trkpt lat="43.66278" lon="1.39531">
        <ele>122</ele>
        <time>2025-05-13T17:38:00Z</time>
      </trkpt>
      <trkpt lat="43.66275" lon="1.39535">
        <ele>122</ele>
        <time>2025-05-13T17:38:01Z</time>
      </trkpt>
      <trkpt lat="43.66273" lon="1.3954">
        <ele>122</ele>
        <time>2025-05-13T17:38:02Z</time>
      </trkpt>
      <trkpt lat="43.66271" lon="1.39544">
        <ele>122</ele>
        <time>2025-05-13T17:38:03Z</time>
      </trkpt>
      <trkpt lat="43.66271" lon="1.39544">
        <ele>123</ele>
        <time>2025-05-13T17:38:04Z</time>
      </trkpt>
      <trkpt lat="43.66271" lon="1.39544">
        <ele>122</ele>
        <time>2025-05-13T17:38:05Z</time>
      </trkpt>
      <trkpt lat="43.6627" lon="1.39558">
        <ele>123</ele>
        <time>2025-05-13T17:38:06Z</time>
      </trkpt>
      <trkpt lat="43.6627" lon="1.39558">
        <ele>123</ele>
        <time>2025-05-13T17:38:08Z</time>
      </trkpt>
      <trkpt lat="43.66274" lon="1.39569">
        <ele>123</ele>
        <time>2025-05-13T17:38:09Z</time>
      </trkpt>
      <trkpt lat="43.66274" lon="1.39569">
        <ele>123</ele>
        <time>2025-05-13T17:38:10Z</time>
      </trkpt>
      <trkpt lat="43.66278" lon="1.39573">
        <ele>123</ele>
        <time>2025-05-13T17:38:11Z</time>
      </trkpt>
      <trkpt lat="43.66281" lon="1.39577">
        <ele>123</ele>
        <time>2025-05-13T17:38:12Z</time>
      </trkpt>
      <trkpt lat="43.66285" lon="1.39581">
        <ele>123</ele>
        <time>2025-05-13T17:38:13Z</time>
      </trkpt>
      <trkpt lat="43.66286" lon="1.39583">
        <ele>123</ele>
        <time>2025-05-13T17:38:14Z</time>
      </trkpt>
      <trkpt lat="43.66289" lon="1.39586">
        <ele>123</ele>
        <time>2025-05-13T17:38:15Z</time>
      </trkpt>
      <trkpt lat="43.66294" lon="1.3959">
        <ele>123</ele>
        <time>2025-05-13T17:38:16Z</time>
      </trkpt>
      <trkpt lat="43.66296" lon="1.39592">
        <ele>127</ele>
        <time>2025-05-13T17:38:17Z</time>
      </trkpt>
      <trkpt lat="43.663" lon="1.39595">
        <ele>127</ele>
        <time>2025-05-13T17:38:18Z</time>
      </trkpt>
      <trkpt lat="43.663" lon="1.39595">
        <ele>127</ele>
        <time>2025-05-13T17:38:19Z</time>
      </trkpt>
      <trkpt lat="43.66302" lon="1.39598">
        <ele>127</ele>
        <time>2025-05-13T17:38:20Z</time>
      </trkpt>
      <trkpt lat="43.66304" lon="1.39601">
        <ele>127</ele>
        <time>2025-05-13T17:38:21Z</time>
      </trkpt>
      <trkpt lat="43.6631" lon="1.39612">
        <ele>127</ele>
        <time>2025-05-13T17:38:22Z</time>
      </trkpt>
      <trkpt lat="43.66311" lon="1.39618">
        <ele>127</ele>
        <time>2025-05-13T17:38:23Z</time>
      </trkpt>
      <trkpt lat="43.66313" lon="1.39623">
        <ele>127</ele>
        <time>2025-05-13T17:38:24Z</time>
      </trkpt>
      <trkpt lat="43.66314" lon="1.39628">
        <ele>127</ele>
        <time>2025-05-13T17:38:25Z</time>
      </trkpt>
      <trkpt lat="43.66316" lon="1.39639">
        <ele>127</ele>
        <time>2025-05-13T17:38:27Z</time>
      </trkpt>
      <trkpt lat="43.66316" lon="1.39639">
        <ele>127</ele>
        <time>2025-05-13T17:38:28Z</time>
      </trkpt>
      <trkpt lat="43.66316" lon="1.39643">
        <ele>127</ele>
        <time>2025-05-13T17:38:29Z</time>
      </trkpt>
      <trkpt lat="43.66317" lon="1.39646">
        <ele>127</ele>
        <time>2025-05-13T17:38:30Z</time>
      </trkpt>
      <trkpt lat="43.66319" lon="1.39656">
        <ele>127</ele>
        <time>2025-05-13T17:38:31Z</time>
      </trkpt>
      <trkpt lat="43.66319" lon="1.39659">
        <ele>127</ele>
        <time>2025-05-13T17:38:32Z</time>
      </trkpt>
      <trkpt lat="43.6632" lon="1.39662">
        <ele>127</ele>
        <time>2025-05-13T17:38:33Z</time>
      </trkpt>
      <trkpt lat="43.66323" lon="1.39672">
        <ele>127</ele>
        <time>2025-05-13T17:38:34Z</time>
      </trkpt>
      <trkpt lat="43.66324" lon="1.39674">
        <ele>127</ele>
        <time>2025-05-13T17:38:35Z</time>
      </trkpt>
      <trkpt lat="43.66324" lon="1.39677">
        <ele>123</ele>
        <time>2025-05-13T17:38:36Z</time>
      </trkpt>
      <trkpt lat="43.66326" lon="1.39684">
        <ele>123</ele>
        <time>2025-05-13T17:38:37Z</time>
      </trkpt>
      <trkpt lat="43.66326" lon="1.39684">
        <ele>123</ele>
        <time>2025-05-13T17:38:38Z</time>
      </trkpt>
      <trkpt lat="43.6633" lon="1.39698">
        <ele>123</ele>
        <time>2025-05-13T17:38:39Z</time>
      </trkpt>
      <trkpt lat="43.6633" lon="1.39698">
        <ele>123</ele>
        <time>2025-05-13T17:38:41Z</time>
      </trkpt>
      <trkpt lat="43.66333" lon="1.39712">
        <ele>123</ele>
        <time>2025-05-13T17:38:42Z</time>
      </trkpt>
      <trkpt lat="43.66333" lon="1.39712">
        <ele>127</ele>
        <time>2025-05-13T17:38:43Z</time>
      </trkpt>
      <trkpt lat="43.66333" lon="1.39712">
        <ele>127</ele>
        <time>2025-05-13T17:38:44Z</time>
      </trkpt>
      <trkpt lat="43.66336" lon="1.39726">
        <ele>127</ele>
        <time>2025-05-13T17:38:46Z</time>
      </trkpt>
      <trkpt lat="43.66337" lon="1.39731">
        <ele>127</ele>
        <time>2025-05-13T17:38:47Z</time>
      </trkpt>
      <trkpt lat="43.66338" lon="1.39736">
        <ele>127</ele>
        <time>2025-05-13T17:38:48Z</time>
      </trkpt>
      <trkpt lat="43.6634" lon="1.39741">
        <ele>127</ele>
        <time>2025-05-13T17:38:49Z</time>
      </trkpt>
      <trkpt lat="43.6634" lon="1.39744">
        <ele>127</ele>
        <time>2025-05-13T17:38:50Z</time>
      </trkpt>
      <trkpt lat="43.66341" lon="1.39748">
        <ele>127</ele>
        <time>2025-05-13T17:38:51Z</time>
      </trkpt>
      <trkpt lat="43.66342" lon="1.39756">
        <ele>127</ele>
        <time>2025-05-13T17:38:52Z</time>
      </trkpt>
      <trkpt lat="43.66342" lon="1.39756">
        <ele>123</ele>
        <time>2025-05-13T17:38:53Z</time>
      </trkpt>
      <trkpt lat="43.66345" lon="1.39772">
        <ele>123</ele>
        <time>2025-05-13T17:38:54Z</time>
      </trkpt>
      <trkpt lat="43.66345" lon="1.39772">
        <ele>123</ele>
        <time>2025-05-13T17:38:56Z</time>
      </trkpt>
      <trkpt lat="43.66349" lon="1.39783">
        <ele>123</ele>
        <time>2025-05-13T17:38:57Z</time>
      </trkpt>
      <trkpt lat="43.66352" lon="1.39784">
        <ele>123</ele>
        <time>2025-05-13T17:38:58Z</time>
      </trkpt>
      <trkpt lat="43.66354" lon="1.39785">
        <ele>123</ele>
        <time>2025-05-13T17:38:59Z</time>
      </trkpt>
      <trkpt lat="43.66354" lon="1.39785">
        <ele>123</ele>
        <time>2025-05-13T17:39:00Z</time>
      </trkpt>
      <trkpt lat="43.66358" lon="1.39785">
        <ele>123</ele>
        <time>2025-05-13T17:39:01Z</time>
      </trkpt>
      <trkpt lat="43.6636" lon="1.39784">
        <ele>123</ele>
        <time>2025-05-13T17:39:02Z</time>
      </trkpt>
      <trkpt lat="43.66362" lon="1.39783">
        <ele>123</ele>
        <time>2025-05-13T17:39:03Z</time>
      </trkpt>
      <trkpt lat="43.66364" lon="1.39781">
        <ele>123</ele>
        <time>2025-05-13T17:39:05Z</time>
      </trkpt>
      <trkpt lat="43.66365" lon="1.39779">
        <ele>123</ele>
        <time>2025-05-13T17:39:06Z</time>
      </trkpt>
      <trkpt lat="43.66367" lon="1.39778">
        <ele>127</ele>
        <time>2025-05-13T17:39:07Z</time>
      </trkpt>
      <trkpt lat="43.66376" lon="1.39769">
        <ele>127</ele>
        <time>2025-05-13T17:39:08Z</time>
      </trkpt>
      <trkpt lat="43.66377" lon="1.39767">
        <ele>127</ele>
        <time>2025-05-13T17:39:09Z</time>
      </trkpt>
      <trkpt lat="43.66379" lon="1.39762">
        <ele>127</ele>
        <time>2025-05-13T17:39:10Z</time>
      </trkpt>
      <trkpt lat="43.66378" lon="1.39752">
        <ele>127</ele>
        <time>2025-05-13T17:39:12Z</time>
      </trkpt>
      <trkpt lat="43.66378" lon="1.39748">
        <ele>127</ele>
        <time>2025-05-13T17:39:13Z</time>
      </trkpt>
      <trkpt lat="43.66376" lon="1.39741">
        <ele>127</ele>
        <time>2025-05-13T17:39:14Z</time>
      </trkpt>
      <trkpt lat="43.66375" lon="1.39739">
        <ele>127</ele>
        <time>2025-05-13T17:39:15Z</time>
      </trkpt>
      <trkpt lat="43.66373" lon="1.39731">
        <ele>127</ele>
        <time>2025-05-13T17:39:16Z</time>
      </trkpt>
      <trkpt lat="43.66373" lon="1.39728">
        <ele>123</ele>
        <time>2025-05-13T17:39:17Z</time>
      </trkpt>
      <trkpt lat="43.66371" lon="1.39722">
        <ele>123</ele>
        <time>2025-05-13T17:39:18Z</time>
      </trkpt>
      <trkpt lat="43.66371" lon="1.39714">
        <ele>123</ele>
        <time>2025-05-13T17:39:19Z</time>
      </trkpt>
      <trkpt lat="43.66371" lon="1.39711">
        <ele>123</ele>
        <time>2025-05-13T17:39:20Z</time>
      </trkpt>
      <trkpt lat="43.66371" lon="1.39703">
        <ele>123</ele>
        <time>2025-05-13T17:39:21Z</time>
      </trkpt>
      <trkpt lat="43.66371" lon="1.39701">
        <ele>123</ele>
        <time>2025-05-13T17:39:22Z</time>
      </trkpt>
      <trkpt lat="43.66374" lon="1.39688">
        <ele>123</ele>
        <time>2025-05-13T17:39:24Z</time>
      </trkpt>
      <trkpt lat="43.66374" lon="1.39685">
        <ele>123</ele>
        <time>2025-05-13T17:39:25Z</time>
      </trkpt>
      <trkpt lat="43.66375" lon="1.39682">
        <ele>123</ele>
        <time>2025-05-13T17:39:26Z</time>
      </trkpt>
      <trkpt lat="43.66375" lon="1.39677">
        <ele>123</ele>
        <time>2025-05-13T17:39:27Z</time>
      </trkpt>
      <trkpt lat="43.66375" lon="1.39672">
        <ele>123</ele>
        <time>2025-05-13T17:39:28Z</time>
      </trkpt>
      <trkpt lat="43.66374" lon="1.39667">
        <ele>123</ele>
        <time>2025-05-13T17:39:29Z</time>
      </trkpt>
      <trkpt lat="43.66374" lon="1.39661">
        <ele>123</ele>
        <time>2025-05-13T17:39:30Z</time>
      </trkpt>
      <trkpt lat="43.66373" lon="1.39657">
        <ele>123</ele>
        <time>2025-05-13T17:39:31Z</time>
      </trkpt>
      <trkpt lat="43.66372" lon="1.39653">
        <ele>123</ele>
        <time>2025-05-13T17:39:32Z</time>
      </trkpt>
      <trkpt lat="43.6637" lon="1.39649">
        <ele>123</ele>
        <time>2025-05-13T17:39:33Z</time>
      </trkpt>
      <trkpt lat="43.66369" lon="1.39645">
        <ele>123</ele>
        <time>2025-05-13T17:39:34Z</time>
      </trkpt>
      <trkpt lat="43.66367" lon="1.3964">
        <ele>123</ele>
        <time>2025-05-13T17:39:35Z</time>
      </trkpt>
      <trkpt lat="43.66365" lon="1.39636">
        <ele>123</ele>
        <time>2025-05-13T17:39:36Z</time>
      </trkpt>
      <trkpt lat="43.66363" lon="1.39631">
        <ele>123</ele>
        <time>2025-05-13T17:39:37Z</time>
      </trkpt>
      <trkpt lat="43.66359" lon="1.39624">
        <ele>123</ele>
        <time>2025-05-13T17:39:39Z</time>
      </trkpt>
      <trkpt lat="43.66357" lon="1.39621">
        <ele>123</ele>
        <time>2025-05-13T17:39:40Z</time>
      </trkpt>
      <trkpt lat="43.66355" lon="1.39619">
        <ele>123</ele>
        <time>2025-05-13T17:39:41Z</time>
      </trkpt>
      <trkpt lat="43.66355" lon="1.39619">
        <ele>123</ele>
        <time>2025-05-13T17:39:43Z</time>
      </trkpt>
      <trkpt lat="43.66352" lon="1.39607">
        <ele>128</ele>
        <time>2025-05-13T17:42:46Z</time>
      </trkpt>
      <trkpt lat="43.66352" lon="1.39607">
        <ele>128</ele>
        <time>2025-05-13T17:42:47Z</time>
      </trkpt>
      <trkpt lat="43.66352" lon="1.39607">
        <ele>128</ele>
        <time>2025-05-13T17:42:48Z</time>
      </trkpt>
      <trkpt lat="43.66349" lon="1.39605">
        <ele>128</ele>
        <time>2025-05-13T17:42:49Z</time>
      </trkpt>
      <trkpt lat="43.66349" lon="1.39605">
        <ele>128</ele>
        <time>2025-05-13T17:42:50Z</time>
      </trkpt>
      <trkpt lat="43.66346" lon="1.39602">
        <ele>128</ele>
        <time>2025-05-13T17:42:51Z</time>
      </trkpt>
      <trkpt lat="43.66346" lon="1.39602">
        <ele>124</ele>
        <time>2025-05-13T17:42:52Z</time>
      </trkpt>
      <trkpt lat="43.66344" lon="1.39599">
        <ele>124</ele>
        <time>2025-05-13T17:42:53Z</time>
      </trkpt>
      <trkpt lat="43.66342" lon="1.39597">
        <ele>124</ele>
        <time>2025-05-13T17:42:54Z</time>
      </trkpt>
      <trkpt lat="43.66341" lon="1.39594">
        <ele>124</ele>
        <time>2025-05-13T17:42:55Z</time>
      </trkpt>
      <trkpt lat="43.66339" lon="1.39592">
        <ele>124</ele>
        <time>2025-05-13T17:42:56Z</time>
      </trkpt>
      <trkpt lat="43.66338" lon="1.39589">
        <ele>124</ele>
        <time>2025-05-13T17:42:57Z</time>
      </trkpt>
      <trkpt lat="43.66336" lon="1.39587">
        <ele>124</ele>
        <time>2025-05-13T17:42:58Z</time>
      </trkpt>
      <trkpt lat="43.66335" lon="1.39583">
        <ele>124</ele>
        <time>2025-05-13T17:42:59Z</time>
      </trkpt>
      <trkpt lat="43.66335" lon="1.39581">
        <ele>124</ele>
        <time>2025-05-13T17:43:00Z</time>
      </trkpt>
      <trkpt lat="43.66334" lon="1.39579">
        <ele>124</ele>
        <time>2025-05-13T17:43:01Z</time>
      </trkpt>
      <trkpt lat="43.66333" lon="1.39577">
        <ele>124</ele>
        <time>2025-05-13T17:43:02Z</time>
      </trkpt>
      <trkpt lat="43.66332" lon="1.39574">
        <ele>124</ele>
        <time>2025-05-13T17:43:03Z</time>
      </trkpt>
      <trkpt lat="43.66331" lon="1.39571">
        <ele>124</ele>
        <time>2025-05-13T17:43:04Z</time>
      </trkpt>
      <trkpt lat="43.66329" lon="1.39568">
        <ele>124</ele>
        <time>2025-05-13T17:43:05Z</time>
      </trkpt>
      <trkpt lat="43.66327" lon="1.39565">
        <ele>124</ele>
        <time>2025-05-13T17:43:06Z</time>
      </trkpt>
      <trkpt lat="43.66326" lon="1.39563">
        <ele>124</ele>
        <time>2025-05-13T17:43:07Z</time>
      </trkpt>
      <trkpt lat="43.66324" lon="1.3956">
        <ele>124</ele>
        <time>2025-05-13T17:43:08Z</time>
      </trkpt>
      <trkpt lat="43.66323" lon="1.39556">
        <ele>124</ele>
        <time>2025-05-13T17:43:09Z</time>
      </trkpt>
      <trkpt lat="43.66321" lon="1.39553">
        <ele>124</ele>
        <time>2025-05-13T17:43:10Z</time>
      </trkpt>
      <trkpt lat="43.66319" lon="1.3955">
        <ele>124</ele>
        <time>2025-05-13T17:43:11Z</time>
      </trkpt>
      <trkpt lat="43.66318" lon="1.39547">
        <ele>124</ele>
        <time>2025-05-13T17:43:12Z</time>
      </trkpt>
      <trkpt lat="43.66318" lon="1.39547">
        <ele>124</ele>
        <time>2025-05-13T17:43:13Z</time>
      </trkpt>
      <trkpt lat="43.66317" lon="1.39543">
        <ele>124</ele>
        <time>2025-05-13T17:43:14Z</time>
      </trkpt>
      <trkpt lat="43.66316" lon="1.39539">
        <ele>124</ele>
        <time>2025-05-13T17:43:15Z</time>
      </trkpt>
      <trkpt lat="43.66315" lon="1.39535">
        <ele>124</ele>
        <time>2025-05-13T17:43:16Z</time>
      </trkpt>
      <trkpt lat="43.66315" lon="1.39531">
        <ele>123</ele>
        <time>2025-05-13T17:43:17Z</time>
      </trkpt>
      <trkpt lat="43.66314" lon="1.39529">
        <ele>123</ele>
        <time>2025-05-13T17:43:18Z</time>
      </trkpt>
      <trkpt lat="43.66313" lon="1.39526">
        <ele>123</ele>
        <time>2025-05-13T17:43:19Z</time>
      </trkpt>
      <trkpt lat="43.66312" lon="1.39523">
        <ele>123</ele>
        <time>2025-05-13T17:43:20Z</time>
      </trkpt>
      <trkpt lat="43.6631" lon="1.3952">
        <ele>123</ele>
        <time>2025-05-13T17:43:21Z</time>
      </trkpt>
      <trkpt lat="43.66309" lon="1.39518">
        <ele>123</ele>
        <time>2025-05-13T17:43:22Z</time>
      </trkpt>
      <trkpt lat="43.66308" lon="1.39516">
        <ele>123</ele>
        <time>2025-05-13T17:43:23Z</time>
      </trkpt>
      <trkpt lat="43.66303" lon="1.3951">
        <ele>123</ele>
        <time>2025-05-13T17:43:25Z</time>
      </trkpt>
      <trkpt lat="43.66302" lon="1.39509">
        <ele>123</ele>
        <time>2025-05-13T17:43:26Z</time>
      </trkpt>
      <trkpt lat="43.66301" lon="1.39506">
        <ele>123</ele>
        <time>2025-05-13T17:43:27Z</time>
      </trkpt>
      <trkpt lat="43.66298" lon="1.39503">
        <ele>123</ele>
        <time>2025-05-13T17:43:28Z</time>
      </trkpt>
      <trkpt lat="43.66297" lon="1.39501">
        <ele>123</ele>
        <time>2025-05-13T17:43:29Z</time>
      </trkpt>
      <trkpt lat="43.66295" lon="1.39497">
        <ele>123</ele>
        <time>2025-05-13T17:43:30Z</time>
      </trkpt>
      <trkpt lat="43.66294" lon="1.39495">
        <ele>123</ele>
        <time>2025-05-13T17:43:31Z</time>
      </trkpt>
      <trkpt lat="43.66292" lon="1.3949">
        <ele>123</ele>
        <time>2025-05-13T17:43:32Z</time>
      </trkpt>
      <trkpt lat="43.66292" lon="1.39489">
        <ele>123</ele>
        <time>2025-05-13T17:43:33Z</time>
      </trkpt>
      <trkpt lat="43.66291" lon="1.39483">
        <ele>123</ele>
        <time>2025-05-13T17:43:34Z</time>
      </trkpt>
      <trkpt lat="43.66291" lon="1.39481">
        <ele>123</ele>
        <time>2025-05-13T17:43:35Z</time>
      </trkpt>
      <trkpt lat="43.66291" lon="1.39477">
        <ele>123</ele>
        <time>2025-05-13T17:43:36Z</time>
      </trkpt>
      <trkpt lat="43.66291" lon="1.39471">
        <ele>123</ele>
        <time>2025-05-13T17:43:38Z</time>
      </trkpt>
      <trkpt lat="43.66292" lon="1.39468">
        <ele>123</ele>
        <time>2025-05-13T17:43:39Z</time>
      </trkpt>
      <trkpt lat="43.66292" lon="1.39465">
        <ele>123</ele>
        <time>2025-05-13T17:43:40Z</time>
      </trkpt>
      <trkpt lat="43.66294" lon="1.39462">
        <ele>124</ele>
        <time>2025-05-13T17:43:41Z</time>
      </trkpt>
      <trkpt lat="43.66295" lon="1.39459">
        <ele>124</ele>
        <time>2025-05-13T17:43:42Z</time>
      </trkpt>
      <trkpt lat="43.66296" lon="1.39456">
        <ele>124</ele>
        <time>2025-05-13T17:43:43Z</time>
      </trkpt>
      <trkpt lat="43.66298" lon="1.39453">
        <ele>124</ele>
        <time>2025-05-13T17:43:44Z</time>
      </trkpt>
      <trkpt lat="43.66299" lon="1.3945">
        <ele>124</ele>
        <time>2025-05-13T17:43:45Z</time>
      </trkpt>
      <trkpt lat="43.663" lon="1.39447">
        <ele>124</ele>
        <time>2025-05-13T17:43:46Z</time>
      </trkpt>
      <trkpt lat="43.66301" lon="1.39444">
        <ele>124</ele>
        <time>2025-05-13T17:43:47Z</time>
      </trkpt>
      <trkpt lat="43.66302" lon="1.39441">
        <ele>124</ele>
        <time>2025-05-13T17:43:48Z</time>
      </trkpt>
      <trkpt lat="43.66303" lon="1.39437">
        <ele>124</ele>
        <time>2025-05-13T17:43:49Z</time>
      </trkpt>
      <trkpt lat="43.66304" lon="1.39433">
        <ele>124</ele>
        <time>2025-05-13T17:43:50Z</time>
      </trkpt>
      <trkpt lat="43.66305" lon="1.3943">
        <ele>124</ele>
        <time>2025-05-13T17:43:51Z</time>
      </trkpt>
      <trkpt lat="43.66307" lon="1.39428">
        <ele>124</ele>
        <time>2025-05-13T17:43:52Z</time>
      </trkpt>
      <trkpt lat="43.66308" lon="1.39424">
        <ele>124</ele>
        <time>2025-05-13T17:43:53Z</time>
      </trkpt>
      <trkpt lat="43.66309" lon="1.39421">
        <ele>124</ele>
        <time>2025-05-13T17:43:54Z</time>
      </trkpt>
      <trkpt lat="43.6631" lon="1.39418">
        <ele>124</ele>
        <time>2025-05-13T17:43:55Z</time>
      </trkpt>
      <trkpt lat="43.66311" lon="1.39415">
        <ele>124</ele>
        <time>2025-05-13T17:43:56Z</time>
      </trkpt>
      <trkpt lat="43.66312" lon="1.39412">
        <ele>124</ele>
        <time>2025-05-13T17:43:57Z</time>
      </trkpt>
      <trkpt lat="43.66312" lon="1.39409">
        <ele>124</ele>
        <time>2025-05-13T17:43:58Z</time>
      </trkpt>
      <trkpt lat="43.66312" lon="1.39409">
        <ele>124</ele>
        <time>2025-05-13T17:43:59Z</time>
      </trkpt>
      <trkpt lat="43.66312" lon="1.39409">
        <ele>124</ele>
        <time>2025-05-13T17:44:00Z</time>
      </trkpt>
      <trkpt lat="43.66312" lon="1.39409">
        <ele>124</ele>
        <time>2025-05-13T17:44:01Z</time>
      </trkpt>
      <trkpt lat="43.66313" lon="1.39395">
        <ele>124</ele>
        <time>2025-05-13T17:44:03Z</time>
      </trkpt>
      <trkpt lat="43.66314" lon="1.39392">
        <ele>124</ele>
        <time>2025-05-13T17:44:04Z</time>
      </trkpt>
      <trkpt lat="43.66314" lon="1.3939">
        <ele>124</ele>
        <time>2025-05-13T17:44:05Z</time>
      </trkpt>
      <trkpt lat="43.66315" lon="1.39387">
        <ele>124</ele>
        <time>2025-05-13T17:44:06Z</time>
      </trkpt>
      <trkpt lat="43.66316" lon="1.39385">
        <ele>124</ele>
        <time>2025-05-13T17:44:07Z</time>
      </trkpt>
      <trkpt lat="43.66316" lon="1.39382">
        <ele>124</ele>
        <time>2025-05-13T17:44:08Z</time>
      </trkpt>
      <trkpt lat="43.66316" lon="1.39378">
        <ele>124</ele>
        <time>2025-05-13T17:44:09Z</time>
      </trkpt>
      <trkpt lat="43.66316" lon="1.39375">
        <ele>124</ele>
        <time>2025-05-13T17:44:10Z</time>
      </trkpt>
      <trkpt lat="43.66316" lon="1.39371">
        <ele>124</ele>
        <time>2025-05-13T17:44:11Z</time>
      </trkpt>
      <trkpt lat="43.66316" lon="1.39367">
        <ele>124</ele>
        <time>2025-05-13T17:44:12Z</time>
      </trkpt>
      <trkpt lat="43.66315" lon="1.39362">
        <ele>124</ele>
        <time>2025-05-13T17:44:13Z</time>
      </trkpt>
      <trkpt lat="43.66315" lon="1.39358">
        <ele>124</ele>
        <time>2025-05-13T17:44:14Z</time>
      </trkpt>
      <trkpt lat="43.66314" lon="1.39353">
        <ele>124</ele>
        <time>2025-05-13T17:44:15Z</time>
      </trkpt>
      <trkpt lat="43.66313" lon="1.3935">
        <ele>124</ele>
        <time>2025-05-13T17:44:16Z</time>
      </trkpt>
      <trkpt lat="43.66313" lon="1.3935">
        <ele>124</ele>
        <time>2025-05-13T17:44:17Z</time>
      </trkpt>
      <trkpt lat="43.66313" lon="1.39347">
        <ele>125</ele>
        <time>2025-05-13T17:44:18Z</time>
      </trkpt>
      <trkpt lat="43.66312" lon="1.39344">
        <ele>125</ele>
        <time>2025-05-13T17:44:19Z</time>
      </trkpt>
      <trkpt lat="43.66311" lon="1.3934">
        <ele>125</ele>
        <time>2025-05-13T17:44:20Z</time>
      </trkpt>
      <trkpt lat="43.6631" lon="1.39331">
        <ele>125</ele>
        <time>2025-05-13T17:44:22Z</time>
      </trkpt>
      <trkpt lat="43.66309" lon="1.39326">
        <ele>125</ele>
        <time>2025-05-13T17:44:23Z</time>
      </trkpt>
      <trkpt lat="43.66308" lon="1.39323">
        <ele>125</ele>
        <time>2025-05-13T17:44:24Z</time>
      </trkpt>
      <trkpt lat="43.66307" lon="1.39318">
        <ele>125</ele>
        <time>2025-05-13T17:44:25Z</time>
      </trkpt>
      <trkpt lat="43.66306" lon="1.39317">
        <ele>125</ele>
        <time>2025-05-13T17:44:26Z</time>
      </trkpt>
      <trkpt lat="43.66305" lon="1.39314">
        <ele>125</ele>
        <time>2025-05-13T17:44:27Z</time>
      </trkpt>
      <trkpt lat="43.66303" lon="1.39311">
        <ele>125</ele>
        <time>2025-05-13T17:44:28Z</time>
      </trkpt>
      <trkpt lat="43.66302" lon="1.39308">
        <ele>125</ele>
        <time>2025-05-13T17:44:29Z</time>
      </trkpt>
      <trkpt lat="43.66301" lon="1.39305">
        <ele>128</ele>
        <time>2025-05-13T17:44:30Z</time>
      </trkpt>
      <trkpt lat="43.66299" lon="1.39302">
        <ele>128</ele>
        <time>2025-05-13T17:44:31Z</time>
      </trkpt>
      <trkpt lat="43.66298" lon="1.393">
        <ele>128</ele>
        <time>2025-05-13T17:44:32Z</time>
      </trkpt>
      <trkpt lat="43.66297" lon="1.39297">
        <ele>128</ele>
        <time>2025-05-13T17:44:33Z</time>
      </trkpt>
      <trkpt lat="43.66296" lon="1.39294">
        <ele>125</ele>
        <time>2025-05-13T17:44:34Z</time>
      </trkpt>
      <trkpt lat="43.66294" lon="1.39292">
        <ele>125</ele>
        <time>2025-05-13T17:44:35Z</time>
      </trkpt>
      <trkpt lat="43.66292" lon="1.39289">
        <ele>125</ele>
        <time>2025-05-13T17:44:36Z</time>
      </trkpt>
      <trkpt lat="43.66291" lon="1.39286">
        <ele>125</ele>
        <time>2025-05-13T17:44:37Z</time>
      </trkpt>
      <trkpt lat="43.66289" lon="1.39283">
        <ele>125</ele>
        <time>2025-05-13T17:44:38Z</time>
      </trkpt>
      <trkpt lat="43.66288" lon="1.39281">
        <ele>125</ele>
        <time>2025-05-13T17:44:39Z</time>
      </trkpt>
      <trkpt lat="43.66285" lon="1.39277">
        <ele>125</ele>
        <time>2025-05-13T17:44:40Z</time>
      </trkpt>
      <trkpt lat="43.66284" lon="1.39276">
        <ele>125</ele>
        <time>2025-05-13T17:44:41Z</time>
      </trkpt>
      <trkpt lat="43.66283" lon="1.39274">
        <ele>125</ele>
        <time>2025-05-13T17:44:42Z</time>
      </trkpt>
      <trkpt lat="43.66281" lon="1.39271">
        <ele>125</ele>
        <time>2025-05-13T17:44:43Z</time>
      </trkpt>
      <trkpt lat="43.6628" lon="1.39268">
        <ele>125</ele>
        <time>2025-05-13T17:44:44Z</time>
      </trkpt>
      <trkpt lat="43.66279" lon="1.39265">
        <ele>125</ele>
        <time>2025-05-13T17:44:45Z</time>
      </trkpt>
      <trkpt lat="43.66277" lon="1.3926">
        <ele>129</ele>
        <time>2025-05-13T17:44:47Z</time>
      </trkpt>
      <trkpt lat="43.66276" lon="1.39258">
        <ele>129</ele>
        <time>2025-05-13T17:44:48Z</time>
      </trkpt>
      <trkpt lat="43.66276" lon="1.39255">
        <ele>129</ele>
        <time>2025-05-13T17:44:49Z</time>
      </trkpt>
      <trkpt lat="43.66275" lon="1.39252">
        <ele>129</ele>
        <time>2025-05-13T17:44:50Z</time>
      </trkpt>
      <trkpt lat="43.66273" lon="1.39249">
        <ele>129</ele>
        <time>2025-05-13T17:44:51Z</time>
      </trkpt>
      <trkpt lat="43.66271" lon="1.39245">
        <ele>129</ele>
        <time>2025-05-13T17:44:52Z</time>
      </trkpt>
      <trkpt lat="43.6627" lon="1.39242">
        <ele>129</ele>
        <time>2025-05-13T17:44:53Z</time>
      </trkpt>
      <trkpt lat="43.66268" lon="1.39239">
        <ele>129</ele>
        <time>2025-05-13T17:44:54Z</time>
      </trkpt>
      <trkpt lat="43.66267" lon="1.39236">
        <ele>129</ele>
        <time>2025-05-13T17:44:55Z</time>
      </trkpt>
      <trkpt lat="43.66265" lon="1.39232">
        <ele>129</ele>
        <time>2025-05-13T17:44:56Z</time>
      </trkpt>
      <trkpt lat="43.66264" lon="1.39229">
        <ele>129</ele>
        <time>2025-05-13T17:44:57Z</time>
      </trkpt>
      <trkpt lat="43.66264" lon="1.39229">
        <ele>129</ele>
        <time>2025-05-13T17:44:58Z</time>
      </trkpt>
      <trkpt lat="43.66262" lon="1.39221">
        <ele>129</ele>
        <time>2025-05-13T17:44:59Z</time>
      </trkpt>
      <trkpt lat="43.66262" lon="1.39217">
        <ele>129</ele>
        <time>2025-05-13T17:45:00Z</time>
      </trkpt>
      <trkpt lat="43.66262" lon="1.39211">
        <ele>129</ele>
        <time>2025-05-13T17:45:01Z</time>
      </trkpt>
      <trkpt lat="43.66261" lon="1.39209">
        <ele>129</ele>
        <time>2025-05-13T17:45:02Z</time>
      </trkpt>
      <trkpt lat="43.66261" lon="1.39203">
        <ele>125</ele>
        <time>2025-05-13T17:45:03Z</time>
      </trkpt>
      <trkpt lat="43.66261" lon="1.392">
        <ele>125</ele>
        <time>2025-05-13T17:45:04Z</time>
      </trkpt>
      <trkpt lat="43.66261" lon="1.39197">
        <ele>125</ele>
        <time>2025-05-13T17:45:05Z</time>
      </trkpt>
      <trkpt lat="43.66261" lon="1.39194">
        <ele>125</ele>
        <time>2025-05-13T17:45:06Z</time>
      </trkpt>
      <trkpt lat="43.66259" lon="1.39191">
        <ele>125</ele>
        <time>2025-05-13T17:45:07Z</time>
      </trkpt>
      <trkpt lat="43.66258" lon="1.39188">
        <ele>125</ele>
        <time>2025-05-13T17:45:08Z</time>
      </trkpt>
      <trkpt lat="43.66256" lon="1.39186">
        <ele>125</ele>
        <time>2025-05-13T17:45:09Z</time>
      </trkpt>
      <trkpt lat="43.66254" lon="1.39185">
        <ele>125</ele>
        <time>2025-05-13T17:45:10Z</time>
      </trkpt>
      <trkpt lat="43.66252" lon="1.39183">
        <ele>125</ele>
        <time>2025-05-13T17:45:11Z</time>
      </trkpt>
      <trkpt lat="43.6625" lon="1.39183">
        <ele>125</ele>
        <time>2025-05-13T17:45:12Z</time>
      </trkpt>
      <trkpt lat="43.66247" lon="1.39181">
        <ele>125</ele>
        <time>2025-05-13T17:45:13Z</time>
      </trkpt>
      <trkpt lat="43.66245" lon="1.39181">
        <ele>129</ele>
        <time>2025-05-13T17:45:14Z</time>
      </trkpt>
      <trkpt lat="43.66243" lon="1.39179">
        <ele>129</ele>
        <time>2025-05-13T17:45:15Z</time>
      </trkpt>
      <trkpt lat="43.6624" lon="1.39178">
        <ele>129</ele>
        <time>2025-05-13T17:45:16Z</time>
      </trkpt>
      <trkpt lat="43.66238" lon="1.39177">
        <ele>129</ele>
        <time>2025-05-13T17:45:17Z</time>
      </trkpt>
      <trkpt lat="43.66233" lon="1.39173">
        <ele>129</ele>
        <time>2025-05-13T17:45:19Z</time>
      </trkpt>
      <trkpt lat="43.6623" lon="1.39171">
        <ele>129</ele>
        <time>2025-05-13T17:45:20Z</time>
      </trkpt>
      <trkpt lat="43.66229" lon="1.3917">
        <ele>129</ele>
        <time>2025-05-13T17:45:21Z</time>
      </trkpt>
      <trkpt lat="43.66227" lon="1.3917">
        <ele>129</ele>
        <time>2025-05-13T17:45:22Z</time>
      </trkpt>
      <trkpt lat="43.66225" lon="1.39168">
        <ele>129</ele>
        <time>2025-05-13T17:45:23Z</time>
      </trkpt>
      <trkpt lat="43.66223" lon="1.39166">
        <ele>129</ele>
        <time>2025-05-13T17:45:24Z</time>
      </trkpt>
      <trkpt lat="43.66222" lon="1.39164">
        <ele>129</ele>
        <time>2025-05-13T17:45:25Z</time>
      </trkpt>
      <trkpt lat="43.66219" lon="1.39157">
        <ele>129</ele>
        <time>2025-05-13T17:45:27Z</time>
      </trkpt>
      <trkpt lat="43.66218" lon="1.39154">
        <ele>129</ele>
        <time>2025-05-13T17:45:28Z</time>
      </trkpt>
      <trkpt lat="43.66217" lon="1.39151">
        <ele>129</ele>
        <time>2025-05-13T17:45:29Z</time>
      </trkpt>
      <trkpt lat="43.66216" lon="1.39148">
        <ele>129</ele>
        <time>2025-05-13T17:45:30Z</time>
      </trkpt>
      <trkpt lat="43.66215" lon="1.39145">
        <ele>129</ele>
        <time>2025-05-13T17:45:31Z</time>
      </trkpt>
      <trkpt lat="43.66215" lon="1.39145">
        <ele>129</ele>
        <time>2025-05-13T17:45:32Z</time>
      </trkpt>
      <trkpt lat="43.66212" lon="1.39142">
        <ele>129</ele>
        <time>2025-05-13T17:45:33Z</time>
      </trkpt>
      <trkpt lat="43.66211" lon="1.39142">
        <ele>129</ele>
        <time>2025-05-13T17:45:34Z</time>
      </trkpt>
      <trkpt lat="43.66211" lon="1.39142">
        <ele>129</ele>
        <time>2025-05-13T17:45:35Z</time>
      </trkpt>
    </trkseg>
  </trk>
</gpx>